<?xml version="1.0" encoding="UTF-8" standalone="no" ?>
<gpx xmlns="http://www.topografix.com/GPX/1/1" xmlns:xsi="http://www.w3.org/2001/XMLSchema-instance" xsi:schemaLocation="http://www.topografix.com/GPX/1/1 http://www.topografix.com/GPX/1/1/gpx.xsd" version="1.1" creator="VisuGPX - https://www.visugpx.com">
  <metadata>
    <name>SANCERRE_LACHARITE</name>
    <desc><![CDATA[Jolie ballade roulante]]></desc>
  </metadata>
  <trk>
    <name><![CDATA[SANCERRE_LACHARITÉ2016]]></name>
    <trkseg>
      <trkpt lat="47.32962" lon="2.83945">
        <ele>314.9</ele>
        <time>2016-05-05T08:38:08Z</time>
      </trkpt>
      <trkpt lat="47.32962" lon="2.83945">
        <ele>314.9</ele>
        <time>2016-05-05T08:38:09Z</time>
      </trkpt>
      <trkpt lat="47.32971" lon="2.83948">
        <ele>316</ele>
        <time>2016-05-05T08:38:30Z</time>
      </trkpt>
      <trkpt lat="47.32981" lon="2.83951">
        <ele>316.8</ele>
        <time>2016-05-05T08:38:39Z</time>
      </trkpt>
      <trkpt lat="47.32992" lon="2.83952">
        <ele>317.6</ele>
        <time>2016-05-05T08:38:45Z</time>
      </trkpt>
      <trkpt lat="47.33" lon="2.83959">
        <ele>318.6</ele>
        <time>2016-05-05T08:38:51Z</time>
      </trkpt>
      <trkpt lat="47.33006" lon="2.83971">
        <ele>318.7</ele>
        <time>2016-05-05T08:41:00Z</time>
      </trkpt>
      <trkpt lat="47.33006" lon="2.83985">
        <ele>319.2</ele>
        <time>2016-05-05T08:41:05Z</time>
      </trkpt>
      <trkpt lat="47.3301" lon="2.83997">
        <ele>320</ele>
        <time>2016-05-05T08:41:10Z</time>
      </trkpt>
      <trkpt lat="47.33019" lon="2.83999">
        <ele>321.4</ele>
        <time>2016-05-05T08:41:18Z</time>
      </trkpt>
      <trkpt lat="47.3303" lon="2.84002">
        <ele>322.7</ele>
        <time>2016-05-05T08:41:24Z</time>
      </trkpt>
      <trkpt lat="47.3304" lon="2.84008">
        <ele>323.8</ele>
        <time>2016-05-05T08:41:30Z</time>
      </trkpt>
      <trkpt lat="47.33049" lon="2.84012">
        <ele>324.6</ele>
        <time>2016-05-05T08:41:35Z</time>
      </trkpt>
      <trkpt lat="47.33059" lon="2.84011">
        <ele>325.5</ele>
        <time>2016-05-05T08:41:40Z</time>
      </trkpt>
      <trkpt lat="47.33068" lon="2.84007">
        <ele>326.2</ele>
        <time>2016-05-05T08:41:46Z</time>
      </trkpt>
      <trkpt lat="47.33079" lon="2.84008">
        <ele>326.7</ele>
        <time>2016-05-05T08:41:52Z</time>
      </trkpt>
      <trkpt lat="47.33088" lon="2.8401">
        <ele>326.9</ele>
        <time>2016-05-05T08:41:57Z</time>
      </trkpt>
      <trkpt lat="47.33097" lon="2.84015">
        <ele>326.9</ele>
        <time>2016-05-05T08:42:02Z</time>
      </trkpt>
      <trkpt lat="47.33106" lon="2.84021">
        <ele>327.2</ele>
        <time>2016-05-05T08:42:07Z</time>
      </trkpt>
      <trkpt lat="47.33117" lon="2.84024">
        <ele>327.1</ele>
        <time>2016-05-05T08:42:12Z</time>
      </trkpt>
      <trkpt lat="47.33128" lon="2.84028">
        <ele>326.9</ele>
        <time>2016-05-05T08:42:16Z</time>
      </trkpt>
      <trkpt lat="47.33137" lon="2.8402">
        <ele>326.9</ele>
        <time>2016-05-05T08:42:21Z</time>
      </trkpt>
      <trkpt lat="47.33142" lon="2.84004">
        <ele>326.3</ele>
        <time>2016-05-05T08:42:25Z</time>
      </trkpt>
      <trkpt lat="47.33146" lon="2.83992">
        <ele>325.5</ele>
        <time>2016-05-05T08:42:29Z</time>
      </trkpt>
      <trkpt lat="47.33148" lon="2.83977">
        <ele>324.3</ele>
        <time>2016-05-05T08:42:33Z</time>
      </trkpt>
      <trkpt lat="47.3314" lon="2.83972">
        <ele>323.8</ele>
        <time>2016-05-05T08:42:39Z</time>
      </trkpt>
      <trkpt lat="47.33129" lon="2.83967">
        <ele>324.4</ele>
        <time>2016-05-05T08:42:44Z</time>
      </trkpt>
      <trkpt lat="47.33121" lon="2.83961">
        <ele>325</ele>
        <time>2016-05-05T08:42:48Z</time>
      </trkpt>
      <trkpt lat="47.33111" lon="2.83958">
        <ele>325.3</ele>
        <time>2016-05-05T08:42:52Z</time>
      </trkpt>
      <trkpt lat="47.33101" lon="2.83948">
        <ele>325.3</ele>
        <time>2016-05-05T08:42:56Z</time>
      </trkpt>
      <trkpt lat="47.33091" lon="2.83942">
        <ele>325.4</ele>
        <time>2016-05-05T08:43:00Z</time>
      </trkpt>
      <trkpt lat="47.33081" lon="2.83938">
        <ele>325.7</ele>
        <time>2016-05-05T08:43:04Z</time>
      </trkpt>
      <trkpt lat="47.33078" lon="2.83925">
        <ele>324.9</ele>
        <time>2016-05-05T08:43:12Z</time>
      </trkpt>
      <trkpt lat="47.3308" lon="2.83909">
        <ele>324.5</ele>
        <time>2016-05-05T08:43:16Z</time>
      </trkpt>
      <trkpt lat="47.33082" lon="2.83892">
        <ele>324.6</ele>
        <time>2016-05-05T08:43:20Z</time>
      </trkpt>
      <trkpt lat="47.33084" lon="2.83878">
        <ele>324</ele>
        <time>2016-05-05T08:43:23Z</time>
      </trkpt>
      <trkpt lat="47.33088" lon="2.83864">
        <ele>324.2</ele>
        <time>2016-05-05T08:43:27Z</time>
      </trkpt>
      <trkpt lat="47.33097" lon="2.83858">
        <ele>324.4</ele>
        <time>2016-05-05T08:43:33Z</time>
      </trkpt>
      <trkpt lat="47.33104" lon="2.83867">
        <ele>324.1</ele>
        <time>2016-05-05T08:43:38Z</time>
      </trkpt>
      <trkpt lat="47.33112" lon="2.83875">
        <ele>323</ele>
        <time>2016-05-05T08:43:43Z</time>
      </trkpt>
      <trkpt lat="47.33121" lon="2.83882">
        <ele>323.9</ele>
        <time>2016-05-05T08:43:48Z</time>
      </trkpt>
      <trkpt lat="47.33128" lon="2.83891">
        <ele>323</ele>
        <time>2016-05-05T08:43:51Z</time>
      </trkpt>
      <trkpt lat="47.33136" lon="2.83902">
        <ele>322.4</ele>
        <time>2016-05-05T08:43:55Z</time>
      </trkpt>
      <trkpt lat="47.33146" lon="2.83918">
        <ele>322</ele>
        <time>2016-05-05T08:43:59Z</time>
      </trkpt>
      <trkpt lat="47.33149" lon="2.83938">
        <ele>321</ele>
        <time>2016-05-05T08:44:03Z</time>
      </trkpt>
      <trkpt lat="47.33143" lon="2.83957">
        <ele>322</ele>
        <time>2016-05-05T08:44:07Z</time>
      </trkpt>
      <trkpt lat="47.33147" lon="2.83975">
        <ele>323</ele>
        <time>2016-05-05T08:44:10Z</time>
      </trkpt>
      <trkpt lat="47.33154" lon="2.83984">
        <ele>323</ele>
        <time>2016-05-05T08:44:12Z</time>
      </trkpt>
      <trkpt lat="47.33165" lon="2.83998">
        <ele>323.3</ele>
        <time>2016-05-05T08:44:15Z</time>
      </trkpt>
      <trkpt lat="47.33174" lon="2.84009">
        <ele>323.1</ele>
        <time>2016-05-05T08:44:18Z</time>
      </trkpt>
      <trkpt lat="47.33181" lon="2.8402">
        <ele>322.7</ele>
        <time>2016-05-05T08:44:21Z</time>
      </trkpt>
      <trkpt lat="47.33192" lon="2.8402">
        <ele>322.3</ele>
        <time>2016-05-05T08:44:26Z</time>
      </trkpt>
      <trkpt lat="47.33202" lon="2.84021">
        <ele>321.8</ele>
        <time>2016-05-05T08:44:31Z</time>
      </trkpt>
      <trkpt lat="47.33211" lon="2.84031">
        <ele>321.2</ele>
        <time>2016-05-05T08:44:35Z</time>
      </trkpt>
      <trkpt lat="47.33218" lon="2.8404">
        <ele>320.4</ele>
        <time>2016-05-05T08:44:38Z</time>
      </trkpt>
      <trkpt lat="47.33224" lon="2.84054">
        <ele>319.9</ele>
        <time>2016-05-05T08:44:42Z</time>
      </trkpt>
      <trkpt lat="47.33234" lon="2.8406">
        <ele>319.3</ele>
        <time>2016-05-05T08:44:46Z</time>
      </trkpt>
      <trkpt lat="47.33243" lon="2.8407">
        <ele>318</ele>
        <time>2016-05-05T08:44:52Z</time>
      </trkpt>
      <trkpt lat="47.33252" lon="2.84079">
        <ele>317.8</ele>
        <time>2016-05-05T08:44:57Z</time>
      </trkpt>
      <trkpt lat="47.33258" lon="2.84092">
        <ele>316.9</ele>
        <time>2016-05-05T08:45:01Z</time>
      </trkpt>
      <trkpt lat="47.33268" lon="2.84107">
        <ele>315</ele>
        <time>2016-05-05T08:45:06Z</time>
      </trkpt>
      <trkpt lat="47.33275" lon="2.84116">
        <ele>314</ele>
        <time>2016-05-05T08:45:11Z</time>
      </trkpt>
      <trkpt lat="47.33282" lon="2.8413">
        <ele>313</ele>
        <time>2016-05-05T08:45:45Z</time>
      </trkpt>
      <trkpt lat="47.33278" lon="2.84142">
        <ele>313.5</ele>
        <time>2016-05-05T08:46:36Z</time>
      </trkpt>
      <trkpt lat="47.33284" lon="2.8413">
        <ele>313.3</ele>
        <time>2016-05-05T08:48:06Z</time>
      </trkpt>
      <trkpt lat="47.33293" lon="2.84136">
        <ele>312.8</ele>
        <time>2016-05-05T08:48:12Z</time>
      </trkpt>
      <trkpt lat="47.33286" lon="2.84147">
        <ele>312.1</ele>
        <time>2016-05-05T08:48:17Z</time>
      </trkpt>
      <trkpt lat="47.33276" lon="2.84159">
        <ele>311</ele>
        <time>2016-05-05T08:48:20Z</time>
      </trkpt>
      <trkpt lat="47.33268" lon="2.84168">
        <ele>309.7</ele>
        <time>2016-05-05T08:48:22Z</time>
      </trkpt>
      <trkpt lat="47.33259" lon="2.84177">
        <ele>307.6</ele>
        <time>2016-05-05T08:48:24Z</time>
      </trkpt>
      <trkpt lat="47.33251" lon="2.84184">
        <ele>305.8</ele>
        <time>2016-05-05T08:48:26Z</time>
      </trkpt>
      <trkpt lat="47.33244" lon="2.84192">
        <ele>303.7</ele>
        <time>2016-05-05T08:48:28Z</time>
      </trkpt>
      <trkpt lat="47.33237" lon="2.84202">
        <ele>302</ele>
        <time>2016-05-05T08:48:30Z</time>
      </trkpt>
      <trkpt lat="47.33228" lon="2.84213">
        <ele>298.3</ele>
        <time>2016-05-05T08:48:33Z</time>
      </trkpt>
      <trkpt lat="47.3322" lon="2.84221">
        <ele>295</ele>
        <time>2016-05-05T08:48:36Z</time>
      </trkpt>
      <trkpt lat="47.33212" lon="2.84228">
        <ele>292.1</ele>
        <time>2016-05-05T08:49:04Z</time>
      </trkpt>
      <trkpt lat="47.33204" lon="2.84241">
        <ele>291.1</ele>
        <time>2016-05-05T08:49:56Z</time>
      </trkpt>
      <trkpt lat="47.33196" lon="2.84254">
        <ele>289.9</ele>
        <time>2016-05-05T08:49:59Z</time>
      </trkpt>
      <trkpt lat="47.33189" lon="2.84264">
        <ele>289.2</ele>
        <time>2016-05-05T08:50:01Z</time>
      </trkpt>
      <trkpt lat="47.33181" lon="2.84278">
        <ele>287.4</ele>
        <time>2016-05-05T08:50:04Z</time>
      </trkpt>
      <trkpt lat="47.33176" lon="2.8429">
        <ele>286.7</ele>
        <time>2016-05-05T08:50:07Z</time>
      </trkpt>
      <trkpt lat="47.33169" lon="2.84302">
        <ele>285.1</ele>
        <time>2016-05-05T08:50:10Z</time>
      </trkpt>
      <trkpt lat="47.33164" lon="2.84315">
        <ele>283.7</ele>
        <time>2016-05-05T08:50:13Z</time>
      </trkpt>
      <trkpt lat="47.33158" lon="2.8433">
        <ele>282.5</ele>
        <time>2016-05-05T08:50:16Z</time>
      </trkpt>
      <trkpt lat="47.33153" lon="2.84341">
        <ele>281.6</ele>
        <time>2016-05-05T08:50:18Z</time>
      </trkpt>
      <trkpt lat="47.33148" lon="2.84352">
        <ele>280.4</ele>
        <time>2016-05-05T08:50:20Z</time>
      </trkpt>
      <trkpt lat="47.33142" lon="2.84368">
        <ele>279</ele>
        <time>2016-05-05T08:50:23Z</time>
      </trkpt>
      <trkpt lat="47.33136" lon="2.84379">
        <ele>277.5</ele>
        <time>2016-05-05T08:50:25Z</time>
      </trkpt>
      <trkpt lat="47.3313" lon="2.84395">
        <ele>275.5</ele>
        <time>2016-05-05T08:50:28Z</time>
      </trkpt>
      <trkpt lat="47.33124" lon="2.84406">
        <ele>273.9</ele>
        <time>2016-05-05T08:50:31Z</time>
      </trkpt>
      <trkpt lat="47.33115" lon="2.84411">
        <ele>272</ele>
        <time>2016-05-05T08:50:35Z</time>
      </trkpt>
      <trkpt lat="47.33108" lon="2.84421">
        <ele>270.4</ele>
        <time>2016-05-05T08:50:41Z</time>
      </trkpt>
      <trkpt lat="47.33108" lon="2.84434">
        <ele>269.5</ele>
        <time>2016-05-05T08:50:45Z</time>
      </trkpt>
      <trkpt lat="47.33106" lon="2.84447">
        <ele>268.1</ele>
        <time>2016-05-05T08:50:48Z</time>
      </trkpt>
      <trkpt lat="47.33104" lon="2.84464">
        <ele>266.1</ele>
        <time>2016-05-05T08:50:52Z</time>
      </trkpt>
      <trkpt lat="47.33101" lon="2.84477">
        <ele>264.5</ele>
        <time>2016-05-05T08:50:56Z</time>
      </trkpt>
      <trkpt lat="47.33097" lon="2.84489">
        <ele>263.1</ele>
        <time>2016-05-05T08:51:00Z</time>
      </trkpt>
      <trkpt lat="47.33097" lon="2.84504">
        <ele>261.6</ele>
        <time>2016-05-05T08:51:05Z</time>
      </trkpt>
      <trkpt lat="47.33102" lon="2.84517">
        <ele>260.6</ele>
        <time>2016-05-05T08:51:08Z</time>
      </trkpt>
      <trkpt lat="47.33111" lon="2.8453">
        <ele>259.2</ele>
        <time>2016-05-05T08:51:11Z</time>
      </trkpt>
      <trkpt lat="47.33117" lon="2.8454">
        <ele>258</ele>
        <time>2016-05-05T08:51:13Z</time>
      </trkpt>
      <trkpt lat="47.33122" lon="2.84551">
        <ele>257.1</ele>
        <time>2016-05-05T08:51:15Z</time>
      </trkpt>
      <trkpt lat="47.33128" lon="2.84564">
        <ele>255.5</ele>
        <time>2016-05-05T08:51:17Z</time>
      </trkpt>
      <trkpt lat="47.33133" lon="2.84576">
        <ele>253.8</ele>
        <time>2016-05-05T08:51:19Z</time>
      </trkpt>
      <trkpt lat="47.33138" lon="2.84589">
        <ele>252.3</ele>
        <time>2016-05-05T08:51:21Z</time>
      </trkpt>
      <trkpt lat="47.33143" lon="2.84604">
        <ele>250.5</ele>
        <time>2016-05-05T08:51:23Z</time>
      </trkpt>
      <trkpt lat="47.33147" lon="2.84619">
        <ele>248.9</ele>
        <time>2016-05-05T08:51:25Z</time>
      </trkpt>
      <trkpt lat="47.3315" lon="2.84635">
        <ele>247.5</ele>
        <time>2016-05-05T08:51:27Z</time>
      </trkpt>
      <trkpt lat="47.33153" lon="2.84651">
        <ele>245.8</ele>
        <time>2016-05-05T08:51:29Z</time>
      </trkpt>
      <trkpt lat="47.33155" lon="2.84667">
        <ele>244.1</ele>
        <time>2016-05-05T08:51:31Z</time>
      </trkpt>
      <trkpt lat="47.33158" lon="2.84685">
        <ele>242.9</ele>
        <time>2016-05-05T08:51:33Z</time>
      </trkpt>
      <trkpt lat="47.33159" lon="2.84704">
        <ele>241.4</ele>
        <time>2016-05-05T08:51:35Z</time>
      </trkpt>
      <trkpt lat="47.33161" lon="2.84722">
        <ele>240.5</ele>
        <time>2016-05-05T08:51:37Z</time>
      </trkpt>
      <trkpt lat="47.33162" lon="2.8474">
        <ele>239.3</ele>
        <time>2016-05-05T08:51:39Z</time>
      </trkpt>
      <trkpt lat="47.33163" lon="2.84756">
        <ele>238.5</ele>
        <time>2016-05-05T08:51:41Z</time>
      </trkpt>
      <trkpt lat="47.33165" lon="2.84772">
        <ele>237.4</ele>
        <time>2016-05-05T08:51:43Z</time>
      </trkpt>
      <trkpt lat="47.33166" lon="2.84786">
        <ele>236.7</ele>
        <time>2016-05-05T08:51:45Z</time>
      </trkpt>
      <trkpt lat="47.33168" lon="2.848">
        <ele>235.8</ele>
        <time>2016-05-05T08:51:47Z</time>
      </trkpt>
      <trkpt lat="47.33171" lon="2.84817">
        <ele>234.1</ele>
        <time>2016-05-05T08:51:50Z</time>
      </trkpt>
      <trkpt lat="47.33175" lon="2.84834">
        <ele>233.5</ele>
        <time>2016-05-05T08:51:53Z</time>
      </trkpt>
      <trkpt lat="47.33177" lon="2.84851">
        <ele>232.4</ele>
        <time>2016-05-05T08:51:56Z</time>
      </trkpt>
      <trkpt lat="47.3318" lon="2.84868">
        <ele>231.6</ele>
        <time>2016-05-05T08:51:59Z</time>
      </trkpt>
      <trkpt lat="47.33183" lon="2.84885">
        <ele>230.4</ele>
        <time>2016-05-05T08:52:02Z</time>
      </trkpt>
      <trkpt lat="47.33185" lon="2.84901">
        <ele>228.9</ele>
        <time>2016-05-05T08:52:05Z</time>
      </trkpt>
      <trkpt lat="47.33188" lon="2.84918">
        <ele>227.6</ele>
        <time>2016-05-05T08:52:08Z</time>
      </trkpt>
      <trkpt lat="47.33191" lon="2.84935">
        <ele>226.6</ele>
        <time>2016-05-05T08:52:11Z</time>
      </trkpt>
      <trkpt lat="47.33194" lon="2.84952">
        <ele>225.3</ele>
        <time>2016-05-05T08:52:14Z</time>
      </trkpt>
      <trkpt lat="47.33196" lon="2.84967">
        <ele>224.1</ele>
        <time>2016-05-05T08:52:17Z</time>
      </trkpt>
      <trkpt lat="47.33198" lon="2.84983">
        <ele>223</ele>
        <time>2016-05-05T08:52:20Z</time>
      </trkpt>
      <trkpt lat="47.33201" lon="2.84999">
        <ele>221.6</ele>
        <time>2016-05-05T08:52:23Z</time>
      </trkpt>
      <trkpt lat="47.33204" lon="2.85016">
        <ele>220.2</ele>
        <time>2016-05-05T08:52:26Z</time>
      </trkpt>
      <trkpt lat="47.33207" lon="2.85034">
        <ele>218.3</ele>
        <time>2016-05-05T08:52:29Z</time>
      </trkpt>
      <trkpt lat="47.3321" lon="2.85047">
        <ele>217.1</ele>
        <time>2016-05-05T08:52:31Z</time>
      </trkpt>
      <trkpt lat="47.33213" lon="2.8506">
        <ele>215.7</ele>
        <time>2016-05-05T08:52:33Z</time>
      </trkpt>
      <trkpt lat="47.33217" lon="2.85072">
        <ele>214.6</ele>
        <time>2016-05-05T08:52:35Z</time>
      </trkpt>
      <trkpt lat="47.33224" lon="2.85088">
        <ele>212.7</ele>
        <time>2016-05-05T08:52:38Z</time>
      </trkpt>
      <trkpt lat="47.33232" lon="2.85099">
        <ele>211.3</ele>
        <time>2016-05-05T08:52:41Z</time>
      </trkpt>
      <trkpt lat="47.33238" lon="2.85111">
        <ele>209.8</ele>
        <time>2016-05-05T08:52:45Z</time>
      </trkpt>
      <trkpt lat="47.33231" lon="2.85125">
        <ele>209.7</ele>
        <time>2016-05-05T08:52:49Z</time>
      </trkpt>
      <trkpt lat="47.33224" lon="2.85135">
        <ele>209.4</ele>
        <time>2016-05-05T08:52:52Z</time>
      </trkpt>
      <trkpt lat="47.33216" lon="2.85147">
        <ele>209.6</ele>
        <time>2016-05-05T08:52:56Z</time>
      </trkpt>
      <trkpt lat="47.33209" lon="2.85157">
        <ele>210.1</ele>
        <time>2016-05-05T08:53:00Z</time>
      </trkpt>
      <trkpt lat="47.332" lon="2.85165">
        <ele>210.4</ele>
        <time>2016-05-05T08:53:04Z</time>
      </trkpt>
      <trkpt lat="47.3319" lon="2.85171">
        <ele>210.8</ele>
        <time>2016-05-05T08:53:08Z</time>
      </trkpt>
      <trkpt lat="47.33181" lon="2.85172">
        <ele>210.7</ele>
        <time>2016-05-05T08:53:11Z</time>
      </trkpt>
      <trkpt lat="47.33172" lon="2.85174">
        <ele>211.3</ele>
        <time>2016-05-05T08:53:15Z</time>
      </trkpt>
      <trkpt lat="47.33162" lon="2.85176">
        <ele>212.3</ele>
        <time>2016-05-05T08:53:20Z</time>
      </trkpt>
      <trkpt lat="47.33152" lon="2.85178">
        <ele>213.7</ele>
        <time>2016-05-05T08:53:26Z</time>
      </trkpt>
      <trkpt lat="47.33141" lon="2.85177">
        <ele>214.3</ele>
        <time>2016-05-05T08:53:31Z</time>
      </trkpt>
      <trkpt lat="47.3313" lon="2.85177">
        <ele>215.2</ele>
        <time>2016-05-05T08:53:35Z</time>
      </trkpt>
      <trkpt lat="47.3312" lon="2.85177">
        <ele>215.8</ele>
        <time>2016-05-05T08:53:39Z</time>
      </trkpt>
      <trkpt lat="47.3311" lon="2.85177">
        <ele>216.4</ele>
        <time>2016-05-05T08:53:43Z</time>
      </trkpt>
      <trkpt lat="47.33099" lon="2.85179">
        <ele>216.6</ele>
        <time>2016-05-05T08:53:47Z</time>
      </trkpt>
      <trkpt lat="47.33087" lon="2.85178">
        <ele>216.7</ele>
        <time>2016-05-05T08:53:51Z</time>
      </trkpt>
      <trkpt lat="47.33077" lon="2.85176">
        <ele>217</ele>
        <time>2016-05-05T08:53:55Z</time>
      </trkpt>
      <trkpt lat="47.33066" lon="2.85175">
        <ele>217.7</ele>
        <time>2016-05-05T08:53:59Z</time>
      </trkpt>
      <trkpt lat="47.33057" lon="2.85172">
        <ele>217.9</ele>
        <time>2016-05-05T08:54:03Z</time>
      </trkpt>
      <trkpt lat="47.33046" lon="2.8517">
        <ele>218.4</ele>
        <time>2016-05-05T08:54:07Z</time>
      </trkpt>
      <trkpt lat="47.33035" lon="2.85168">
        <ele>218.7</ele>
        <time>2016-05-05T08:54:11Z</time>
      </trkpt>
      <trkpt lat="47.33023" lon="2.85167">
        <ele>218.6</ele>
        <time>2016-05-05T08:54:15Z</time>
      </trkpt>
      <trkpt lat="47.33013" lon="2.85168">
        <ele>218.6</ele>
        <time>2016-05-05T08:54:18Z</time>
      </trkpt>
      <trkpt lat="47.33002" lon="2.85168">
        <ele>217.8</ele>
        <time>2016-05-05T08:54:21Z</time>
      </trkpt>
      <trkpt lat="47.32992" lon="2.85168">
        <ele>218.1</ele>
        <time>2016-05-05T08:54:24Z</time>
      </trkpt>
      <trkpt lat="47.32982" lon="2.85167">
        <ele>218.1</ele>
        <time>2016-05-05T08:54:27Z</time>
      </trkpt>
      <trkpt lat="47.32971" lon="2.85167">
        <ele>217.9</ele>
        <time>2016-05-05T08:54:30Z</time>
      </trkpt>
      <trkpt lat="47.3296" lon="2.85166">
        <ele>217.7</ele>
        <time>2016-05-05T08:54:33Z</time>
      </trkpt>
      <trkpt lat="47.32951" lon="2.85156">
        <ele>217.4</ele>
        <time>2016-05-05T08:54:37Z</time>
      </trkpt>
      <trkpt lat="47.32949" lon="2.8514">
        <ele>217.2</ele>
        <time>2016-05-05T08:54:41Z</time>
      </trkpt>
      <trkpt lat="47.32951" lon="2.85123">
        <ele>217.6</ele>
        <time>2016-05-05T08:54:45Z</time>
      </trkpt>
      <trkpt lat="47.32954" lon="2.85106">
        <ele>217.6</ele>
        <time>2016-05-05T08:54:49Z</time>
      </trkpt>
      <trkpt lat="47.32957" lon="2.85093">
        <ele>217.7</ele>
        <time>2016-05-05T08:54:52Z</time>
      </trkpt>
      <trkpt lat="47.3296" lon="2.85078">
        <ele>218.4</ele>
        <time>2016-05-05T08:54:56Z</time>
      </trkpt>
      <trkpt lat="47.32963" lon="2.85063">
        <ele>218.8</ele>
        <time>2016-05-05T08:55:00Z</time>
      </trkpt>
      <trkpt lat="47.32967" lon="2.8505">
        <ele>219.5</ele>
        <time>2016-05-05T08:55:04Z</time>
      </trkpt>
      <trkpt lat="47.32971" lon="2.85036">
        <ele>219.4</ele>
        <time>2016-05-05T08:55:08Z</time>
      </trkpt>
      <trkpt lat="47.32974" lon="2.85023">
        <ele>219.8</ele>
        <time>2016-05-05T08:55:12Z</time>
      </trkpt>
      <trkpt lat="47.32977" lon="2.85009">
        <ele>219.9</ele>
        <time>2016-05-05T08:55:17Z</time>
      </trkpt>
      <trkpt lat="47.32969" lon="2.85003">
        <ele>221.3</ele>
        <time>2016-05-05T08:55:42Z</time>
      </trkpt>
      <trkpt lat="47.3296" lon="2.8501">
        <ele>221.1</ele>
        <time>2016-05-05T08:55:45Z</time>
      </trkpt>
      <trkpt lat="47.32953" lon="2.8502">
        <ele>220.7</ele>
        <time>2016-05-05T08:55:47Z</time>
      </trkpt>
      <trkpt lat="47.32944" lon="2.85027">
        <ele>220.3</ele>
        <time>2016-05-05T08:55:49Z</time>
      </trkpt>
      <trkpt lat="47.32933" lon="2.85033">
        <ele>219.9</ele>
        <time>2016-05-05T08:55:51Z</time>
      </trkpt>
      <trkpt lat="47.3292" lon="2.85035">
        <ele>219.6</ele>
        <time>2016-05-05T08:55:53Z</time>
      </trkpt>
      <trkpt lat="47.32909" lon="2.85035">
        <ele>219.2</ele>
        <time>2016-05-05T08:55:55Z</time>
      </trkpt>
      <trkpt lat="47.32899" lon="2.85035">
        <ele>218.6</ele>
        <time>2016-05-05T08:55:57Z</time>
      </trkpt>
      <trkpt lat="47.32889" lon="2.85033">
        <ele>218</ele>
        <time>2016-05-05T08:55:59Z</time>
      </trkpt>
      <trkpt lat="47.32879" lon="2.85032">
        <ele>217.5</ele>
        <time>2016-05-05T08:56:01Z</time>
      </trkpt>
      <trkpt lat="47.32871" lon="2.85038">
        <ele>216.9</ele>
        <time>2016-05-05T08:56:03Z</time>
      </trkpt>
      <trkpt lat="47.32866" lon="2.85049">
        <ele>216.2</ele>
        <time>2016-05-05T08:56:05Z</time>
      </trkpt>
      <trkpt lat="47.32863" lon="2.85067">
        <ele>215.9</ele>
        <time>2016-05-05T08:56:08Z</time>
      </trkpt>
      <trkpt lat="47.32863" lon="2.85084">
        <ele>215.4</ele>
        <time>2016-05-05T08:56:11Z</time>
      </trkpt>
      <trkpt lat="47.32866" lon="2.851">
        <ele>214.7</ele>
        <time>2016-05-05T08:56:14Z</time>
      </trkpt>
      <trkpt lat="47.32871" lon="2.85117">
        <ele>214.2</ele>
        <time>2016-05-05T08:56:17Z</time>
      </trkpt>
      <trkpt lat="47.32877" lon="2.85128">
        <ele>214</ele>
        <time>2016-05-05T08:56:19Z</time>
      </trkpt>
      <trkpt lat="47.32885" lon="2.85136">
        <ele>213.5</ele>
        <time>2016-05-05T08:56:21Z</time>
      </trkpt>
      <trkpt lat="47.32895" lon="2.8514">
        <ele>212.8</ele>
        <time>2016-05-05T08:56:23Z</time>
      </trkpt>
      <trkpt lat="47.32907" lon="2.85142">
        <ele>212.2</ele>
        <time>2016-05-05T08:56:26Z</time>
      </trkpt>
      <trkpt lat="47.32915" lon="2.85149">
        <ele>211.8</ele>
        <time>2016-05-05T08:56:29Z</time>
      </trkpt>
      <trkpt lat="47.32916" lon="2.85163">
        <ele>211</ele>
        <time>2016-05-05T08:56:32Z</time>
      </trkpt>
      <trkpt lat="47.32915" lon="2.85178">
        <ele>210.3</ele>
        <time>2016-05-05T08:56:35Z</time>
      </trkpt>
      <trkpt lat="47.32912" lon="2.85195">
        <ele>209.8</ele>
        <time>2016-05-05T08:56:38Z</time>
      </trkpt>
      <trkpt lat="47.32911" lon="2.85211">
        <ele>209.4</ele>
        <time>2016-05-05T08:56:41Z</time>
      </trkpt>
      <trkpt lat="47.32909" lon="2.85225">
        <ele>208.9</ele>
        <time>2016-05-05T08:56:44Z</time>
      </trkpt>
      <trkpt lat="47.32904" lon="2.85237">
        <ele>208.9</ele>
        <time>2016-05-05T08:56:47Z</time>
      </trkpt>
      <trkpt lat="47.32896" lon="2.85247">
        <ele>208.5</ele>
        <time>2016-05-05T08:56:50Z</time>
      </trkpt>
      <trkpt lat="47.32885" lon="2.8525">
        <ele>208.4</ele>
        <time>2016-05-05T08:56:53Z</time>
      </trkpt>
      <trkpt lat="47.32874" lon="2.85245">
        <ele>208.2</ele>
        <time>2016-05-05T08:56:56Z</time>
      </trkpt>
      <trkpt lat="47.32863" lon="2.85246">
        <ele>207.9</ele>
        <time>2016-05-05T08:56:59Z</time>
      </trkpt>
      <trkpt lat="47.32852" lon="2.85247">
        <ele>208.3</ele>
        <time>2016-05-05T08:57:02Z</time>
      </trkpt>
      <trkpt lat="47.32841" lon="2.85246">
        <ele>208.2</ele>
        <time>2016-05-05T08:57:05Z</time>
      </trkpt>
      <trkpt lat="47.3283" lon="2.85248">
        <ele>208.5</ele>
        <time>2016-05-05T08:57:08Z</time>
      </trkpt>
      <trkpt lat="47.32819" lon="2.85249">
        <ele>208.4</ele>
        <time>2016-05-05T08:57:11Z</time>
      </trkpt>
      <trkpt lat="47.32808" lon="2.85249">
        <ele>208.2</ele>
        <time>2016-05-05T08:57:14Z</time>
      </trkpt>
      <trkpt lat="47.32796" lon="2.85248">
        <ele>208.4</ele>
        <time>2016-05-05T08:57:17Z</time>
      </trkpt>
      <trkpt lat="47.32785" lon="2.85247">
        <ele>208.1</ele>
        <time>2016-05-05T08:57:20Z</time>
      </trkpt>
      <trkpt lat="47.32773" lon="2.85246">
        <ele>208.1</ele>
        <time>2016-05-05T08:57:23Z</time>
      </trkpt>
      <trkpt lat="47.32763" lon="2.85247">
        <ele>208.1</ele>
        <time>2016-05-05T08:57:26Z</time>
      </trkpt>
      <trkpt lat="47.32753" lon="2.85248">
        <ele>208.1</ele>
        <time>2016-05-05T08:57:30Z</time>
      </trkpt>
      <trkpt lat="47.32744" lon="2.85249">
        <ele>208</ele>
        <time>2016-05-05T08:57:35Z</time>
      </trkpt>
      <trkpt lat="47.32733" lon="2.85249">
        <ele>208.4</ele>
        <time>2016-05-05T08:57:39Z</time>
      </trkpt>
      <trkpt lat="47.32723" lon="2.8525">
        <ele>208</ele>
        <time>2016-05-05T08:57:42Z</time>
      </trkpt>
      <trkpt lat="47.32712" lon="2.85248">
        <ele>208.1</ele>
        <time>2016-05-05T08:57:45Z</time>
      </trkpt>
      <trkpt lat="47.32702" lon="2.85247">
        <ele>208</ele>
        <time>2016-05-05T08:57:48Z</time>
      </trkpt>
      <trkpt lat="47.32692" lon="2.85245">
        <ele>208.2</ele>
        <time>2016-05-05T08:57:51Z</time>
      </trkpt>
      <trkpt lat="47.32683" lon="2.85243">
        <ele>207.8</ele>
        <time>2016-05-05T08:57:54Z</time>
      </trkpt>
      <trkpt lat="47.32672" lon="2.85239">
        <ele>208.2</ele>
        <time>2016-05-05T08:57:58Z</time>
      </trkpt>
      <trkpt lat="47.32662" lon="2.85237">
        <ele>208.3</ele>
        <time>2016-05-05T08:58:03Z</time>
      </trkpt>
      <trkpt lat="47.32653" lon="2.85232">
        <ele>207.9</ele>
        <time>2016-05-05T08:58:25Z</time>
      </trkpt>
      <trkpt lat="47.32644" lon="2.85233">
        <ele>207.6</ele>
        <time>2016-05-05T08:58:32Z</time>
      </trkpt>
      <trkpt lat="47.32633" lon="2.85234">
        <ele>208</ele>
        <time>2016-05-05T08:58:36Z</time>
      </trkpt>
      <trkpt lat="47.32623" lon="2.85234">
        <ele>207.9</ele>
        <time>2016-05-05T08:58:39Z</time>
      </trkpt>
      <trkpt lat="47.32614" lon="2.85235">
        <ele>207.4</ele>
        <time>2016-05-05T08:58:42Z</time>
      </trkpt>
      <trkpt lat="47.32603" lon="2.85237">
        <ele>207</ele>
        <time>2016-05-05T08:58:46Z</time>
      </trkpt>
      <trkpt lat="47.32591" lon="2.85239">
        <ele>207.7</ele>
        <time>2016-05-05T08:58:50Z</time>
      </trkpt>
      <trkpt lat="47.32581" lon="2.85239">
        <ele>207.8</ele>
        <time>2016-05-05T08:58:54Z</time>
      </trkpt>
      <trkpt lat="47.32571" lon="2.8524">
        <ele>207.8</ele>
        <time>2016-05-05T08:58:58Z</time>
      </trkpt>
      <trkpt lat="47.32561" lon="2.85242">
        <ele>207.9</ele>
        <time>2016-05-05T08:59:03Z</time>
      </trkpt>
      <trkpt lat="47.32551" lon="2.85241">
        <ele>207.8</ele>
        <time>2016-05-05T08:59:30Z</time>
      </trkpt>
      <trkpt lat="47.32542" lon="2.85243">
        <ele>207.5</ele>
        <time>2016-05-05T08:59:34Z</time>
      </trkpt>
      <trkpt lat="47.32532" lon="2.85245">
        <ele>207.6</ele>
        <time>2016-05-05T08:59:38Z</time>
      </trkpt>
      <trkpt lat="47.32522" lon="2.85246">
        <ele>207.5</ele>
        <time>2016-05-05T08:59:42Z</time>
      </trkpt>
      <trkpt lat="47.32513" lon="2.85247">
        <ele>207.3</ele>
        <time>2016-05-05T08:59:53Z</time>
      </trkpt>
      <trkpt lat="47.32504" lon="2.85247">
        <ele>207.7</ele>
        <time>2016-05-05T09:00:57Z</time>
      </trkpt>
      <trkpt lat="47.32494" lon="2.8525">
        <ele>207.7</ele>
        <time>2016-05-05T09:01:02Z</time>
      </trkpt>
      <trkpt lat="47.32484" lon="2.85251">
        <ele>207.7</ele>
        <time>2016-05-05T09:01:07Z</time>
      </trkpt>
      <trkpt lat="47.32474" lon="2.85253">
        <ele>207.5</ele>
        <time>2016-05-05T09:01:12Z</time>
      </trkpt>
      <trkpt lat="47.32465" lon="2.85254">
        <ele>207.6</ele>
        <time>2016-05-05T09:01:16Z</time>
      </trkpt>
      <trkpt lat="47.32455" lon="2.85254">
        <ele>207.8</ele>
        <time>2016-05-05T09:01:21Z</time>
      </trkpt>
      <trkpt lat="47.32446" lon="2.85255">
        <ele>207.9</ele>
        <time>2016-05-05T09:01:25Z</time>
      </trkpt>
      <trkpt lat="47.32437" lon="2.85255">
        <ele>207.8</ele>
        <time>2016-05-05T09:01:29Z</time>
      </trkpt>
      <trkpt lat="47.32427" lon="2.85256">
        <ele>207.8</ele>
        <time>2016-05-05T09:01:33Z</time>
      </trkpt>
      <trkpt lat="47.32418" lon="2.85258">
        <ele>207.7</ele>
        <time>2016-05-05T09:01:37Z</time>
      </trkpt>
      <trkpt lat="47.32409" lon="2.85259">
        <ele>208</ele>
        <time>2016-05-05T09:01:41Z</time>
      </trkpt>
      <trkpt lat="47.32398" lon="2.85261">
        <ele>207.7</ele>
        <time>2016-05-05T09:01:46Z</time>
      </trkpt>
      <trkpt lat="47.32388" lon="2.85262">
        <ele>207.6</ele>
        <time>2016-05-05T09:01:51Z</time>
      </trkpt>
      <trkpt lat="47.32378" lon="2.85262">
        <ele>207.4</ele>
        <time>2016-05-05T09:01:56Z</time>
      </trkpt>
      <trkpt lat="47.32368" lon="2.85264">
        <ele>207.4</ele>
        <time>2016-05-05T09:02:01Z</time>
      </trkpt>
      <trkpt lat="47.32357" lon="2.85266">
        <ele>207.5</ele>
        <time>2016-05-05T09:02:06Z</time>
      </trkpt>
      <trkpt lat="47.32347" lon="2.85271">
        <ele>207.4</ele>
        <time>2016-05-05T09:02:10Z</time>
      </trkpt>
      <trkpt lat="47.32337" lon="2.85271">
        <ele>207</ele>
        <time>2016-05-05T09:02:14Z</time>
      </trkpt>
      <trkpt lat="47.32327" lon="2.85276">
        <ele>206.8</ele>
        <time>2016-05-05T09:02:19Z</time>
      </trkpt>
      <trkpt lat="47.32316" lon="2.8528">
        <ele>206.6</ele>
        <time>2016-05-05T09:02:23Z</time>
      </trkpt>
      <trkpt lat="47.32306" lon="2.8528">
        <ele>206.7</ele>
        <time>2016-05-05T09:02:27Z</time>
      </trkpt>
      <trkpt lat="47.32296" lon="2.8528">
        <ele>206.6</ele>
        <time>2016-05-05T09:02:30Z</time>
      </trkpt>
      <trkpt lat="47.32285" lon="2.85279">
        <ele>206.4</ele>
        <time>2016-05-05T09:02:33Z</time>
      </trkpt>
      <trkpt lat="47.32275" lon="2.85278">
        <ele>206.7</ele>
        <time>2016-05-05T09:02:36Z</time>
      </trkpt>
      <trkpt lat="47.32262" lon="2.85278">
        <ele>206.6</ele>
        <time>2016-05-05T09:02:39Z</time>
      </trkpt>
      <trkpt lat="47.32253" lon="2.85278">
        <ele>206.5</ele>
        <time>2016-05-05T09:02:41Z</time>
      </trkpt>
      <trkpt lat="47.32242" lon="2.85283">
        <ele>206.4</ele>
        <time>2016-05-05T09:02:45Z</time>
      </trkpt>
      <trkpt lat="47.3223" lon="2.85285">
        <ele>206.4</ele>
        <time>2016-05-05T09:02:49Z</time>
      </trkpt>
      <trkpt lat="47.3222" lon="2.85286">
        <ele>206.4</ele>
        <time>2016-05-05T09:02:53Z</time>
      </trkpt>
      <trkpt lat="47.32211" lon="2.85291">
        <ele>206.4</ele>
        <time>2016-05-05T09:03:04Z</time>
      </trkpt>
      <trkpt lat="47.32201" lon="2.85294">
        <ele>206.3</ele>
        <time>2016-05-05T09:03:22Z</time>
      </trkpt>
      <trkpt lat="47.32191" lon="2.85291">
        <ele>206.3</ele>
        <time>2016-05-05T09:03:25Z</time>
      </trkpt>
      <trkpt lat="47.3218" lon="2.85287">
        <ele>206.6</ele>
        <time>2016-05-05T09:03:30Z</time>
      </trkpt>
      <trkpt lat="47.32167" lon="2.85287">
        <ele>206.5</ele>
        <time>2016-05-05T09:03:35Z</time>
      </trkpt>
      <trkpt lat="47.32156" lon="2.85291">
        <ele>206.4</ele>
        <time>2016-05-05T09:03:38Z</time>
      </trkpt>
      <trkpt lat="47.32148" lon="2.85296">
        <ele>206.6</ele>
        <time>2016-05-05T09:03:42Z</time>
      </trkpt>
      <trkpt lat="47.32138" lon="2.85299">
        <ele>206.8</ele>
        <time>2016-05-05T09:03:46Z</time>
      </trkpt>
      <trkpt lat="47.32129" lon="2.85301">
        <ele>206.8</ele>
        <time>2016-05-05T09:03:50Z</time>
      </trkpt>
      <trkpt lat="47.3212" lon="2.85303">
        <ele>206.7</ele>
        <time>2016-05-05T09:03:54Z</time>
      </trkpt>
      <trkpt lat="47.32109" lon="2.85304">
        <ele>206.5</ele>
        <time>2016-05-05T09:03:59Z</time>
      </trkpt>
      <trkpt lat="47.32097" lon="2.85305">
        <ele>206.5</ele>
        <time>2016-05-05T09:04:04Z</time>
      </trkpt>
      <trkpt lat="47.32086" lon="2.85307">
        <ele>206.3</ele>
        <time>2016-05-05T09:04:08Z</time>
      </trkpt>
      <trkpt lat="47.32075" lon="2.8531">
        <ele>206.2</ele>
        <time>2016-05-05T09:04:12Z</time>
      </trkpt>
      <trkpt lat="47.32063" lon="2.85311">
        <ele>206.3</ele>
        <time>2016-05-05T09:04:16Z</time>
      </trkpt>
      <trkpt lat="47.32051" lon="2.85313">
        <ele>206.2</ele>
        <time>2016-05-05T09:04:20Z</time>
      </trkpt>
      <trkpt lat="47.32041" lon="2.85313">
        <ele>206.4</ele>
        <time>2016-05-05T09:04:23Z</time>
      </trkpt>
      <trkpt lat="47.32032" lon="2.85314">
        <ele>206.4</ele>
        <time>2016-05-05T09:04:40Z</time>
      </trkpt>
      <trkpt lat="47.32022" lon="2.85315">
        <ele>206.8</ele>
        <time>2016-05-05T09:05:12Z</time>
      </trkpt>
      <trkpt lat="47.32011" lon="2.85318">
        <ele>206.7</ele>
        <time>2016-05-05T09:05:16Z</time>
      </trkpt>
      <trkpt lat="47.31999" lon="2.85318">
        <ele>206.7</ele>
        <time>2016-05-05T09:05:20Z</time>
      </trkpt>
      <trkpt lat="47.31989" lon="2.85318">
        <ele>206.7</ele>
        <time>2016-05-05T09:05:23Z</time>
      </trkpt>
      <trkpt lat="47.31979" lon="2.85318">
        <ele>206.8</ele>
        <time>2016-05-05T09:05:26Z</time>
      </trkpt>
      <trkpt lat="47.31967" lon="2.8532">
        <ele>206.9</ele>
        <time>2016-05-05T09:05:29Z</time>
      </trkpt>
      <trkpt lat="47.31957" lon="2.8532">
        <ele>206.8</ele>
        <time>2016-05-05T09:05:32Z</time>
      </trkpt>
      <trkpt lat="47.31947" lon="2.85319">
        <ele>206.6</ele>
        <time>2016-05-05T09:05:36Z</time>
      </trkpt>
      <trkpt lat="47.31938" lon="2.85319">
        <ele>206.7</ele>
        <time>2016-05-05T09:05:39Z</time>
      </trkpt>
      <trkpt lat="47.31927" lon="2.8532">
        <ele>206.9</ele>
        <time>2016-05-05T09:05:42Z</time>
      </trkpt>
      <trkpt lat="47.31916" lon="2.85322">
        <ele>206.9</ele>
        <time>2016-05-05T09:05:45Z</time>
      </trkpt>
      <trkpt lat="47.31907" lon="2.85321">
        <ele>206.8</ele>
        <time>2016-05-05T09:05:48Z</time>
      </trkpt>
      <trkpt lat="47.31895" lon="2.8532">
        <ele>206.6</ele>
        <time>2016-05-05T09:05:51Z</time>
      </trkpt>
      <trkpt lat="47.31883" lon="2.85322">
        <ele>207</ele>
        <time>2016-05-05T09:05:55Z</time>
      </trkpt>
      <trkpt lat="47.31874" lon="2.85322">
        <ele>206.8</ele>
        <time>2016-05-05T09:05:58Z</time>
      </trkpt>
      <trkpt lat="47.31863" lon="2.85323">
        <ele>207.1</ele>
        <time>2016-05-05T09:06:02Z</time>
      </trkpt>
      <trkpt lat="47.31851" lon="2.85322">
        <ele>206.8</ele>
        <time>2016-05-05T09:06:05Z</time>
      </trkpt>
      <trkpt lat="47.31839" lon="2.85322">
        <ele>206.5</ele>
        <time>2016-05-05T09:06:08Z</time>
      </trkpt>
      <trkpt lat="47.3183" lon="2.85325">
        <ele>206.3</ele>
        <time>2016-05-05T09:06:11Z</time>
      </trkpt>
      <trkpt lat="47.31819" lon="2.85325">
        <ele>206.7</ele>
        <time>2016-05-05T09:06:15Z</time>
      </trkpt>
      <trkpt lat="47.31807" lon="2.85328">
        <ele>207.1</ele>
        <time>2016-05-05T09:06:19Z</time>
      </trkpt>
      <trkpt lat="47.31796" lon="2.8533">
        <ele>207.1</ele>
        <time>2016-05-05T09:06:22Z</time>
      </trkpt>
      <trkpt lat="47.31787" lon="2.85332">
        <ele>207.3</ele>
        <time>2016-05-05T09:06:25Z</time>
      </trkpt>
      <trkpt lat="47.31778" lon="2.85333">
        <ele>207.2</ele>
        <time>2016-05-05T09:06:28Z</time>
      </trkpt>
      <trkpt lat="47.31768" lon="2.85336">
        <ele>207.3</ele>
        <time>2016-05-05T09:06:31Z</time>
      </trkpt>
      <trkpt lat="47.31757" lon="2.85339">
        <ele>207.3</ele>
        <time>2016-05-05T09:06:35Z</time>
      </trkpt>
      <trkpt lat="47.31746" lon="2.85343">
        <ele>207.7</ele>
        <time>2016-05-05T09:06:39Z</time>
      </trkpt>
      <trkpt lat="47.31737" lon="2.85345">
        <ele>207.9</ele>
        <time>2016-05-05T09:06:42Z</time>
      </trkpt>
      <trkpt lat="47.31725" lon="2.85348">
        <ele>207.8</ele>
        <time>2016-05-05T09:06:46Z</time>
      </trkpt>
      <trkpt lat="47.31716" lon="2.85351">
        <ele>208</ele>
        <time>2016-05-05T09:06:49Z</time>
      </trkpt>
      <trkpt lat="47.31708" lon="2.85355">
        <ele>208</ele>
        <time>2016-05-05T09:06:52Z</time>
      </trkpt>
      <trkpt lat="47.31699" lon="2.85358">
        <ele>208.2</ele>
        <time>2016-05-05T09:06:55Z</time>
      </trkpt>
      <trkpt lat="47.31687" lon="2.85363">
        <ele>208</ele>
        <time>2016-05-05T09:06:59Z</time>
      </trkpt>
      <trkpt lat="47.31676" lon="2.85367">
        <ele>207.9</ele>
        <time>2016-05-05T09:07:03Z</time>
      </trkpt>
      <trkpt lat="47.31666" lon="2.85372">
        <ele>207.8</ele>
        <time>2016-05-05T09:07:07Z</time>
      </trkpt>
      <trkpt lat="47.31656" lon="2.85376">
        <ele>208</ele>
        <time>2016-05-05T09:07:11Z</time>
      </trkpt>
      <trkpt lat="47.31645" lon="2.85381">
        <ele>208.1</ele>
        <time>2016-05-05T09:07:15Z</time>
      </trkpt>
      <trkpt lat="47.31635" lon="2.85386">
        <ele>208.5</ele>
        <time>2016-05-05T09:07:19Z</time>
      </trkpt>
      <trkpt lat="47.31624" lon="2.85392">
        <ele>208.8</ele>
        <time>2016-05-05T09:07:23Z</time>
      </trkpt>
      <trkpt lat="47.31615" lon="2.85397">
        <ele>208.8</ele>
        <time>2016-05-05T09:07:26Z</time>
      </trkpt>
      <trkpt lat="47.31605" lon="2.85403">
        <ele>208.5</ele>
        <time>2016-05-05T09:07:29Z</time>
      </trkpt>
      <trkpt lat="47.31596" lon="2.85408">
        <ele>208.6</ele>
        <time>2016-05-05T09:07:32Z</time>
      </trkpt>
      <trkpt lat="47.31587" lon="2.85414">
        <ele>208.5</ele>
        <time>2016-05-05T09:07:35Z</time>
      </trkpt>
      <trkpt lat="47.31578" lon="2.85419">
        <ele>208.6</ele>
        <time>2016-05-05T09:07:38Z</time>
      </trkpt>
      <trkpt lat="47.31569" lon="2.85426">
        <ele>209</ele>
        <time>2016-05-05T09:07:41Z</time>
      </trkpt>
      <trkpt lat="47.3156" lon="2.85432">
        <ele>208.8</ele>
        <time>2016-05-05T09:07:44Z</time>
      </trkpt>
      <trkpt lat="47.31551" lon="2.85438">
        <ele>209</ele>
        <time>2016-05-05T09:07:47Z</time>
      </trkpt>
      <trkpt lat="47.31543" lon="2.85445">
        <ele>209</ele>
        <time>2016-05-05T09:07:50Z</time>
      </trkpt>
      <trkpt lat="47.31533" lon="2.85452">
        <ele>209.1</ele>
        <time>2016-05-05T09:07:53Z</time>
      </trkpt>
      <trkpt lat="47.31524" lon="2.85459">
        <ele>209</ele>
        <time>2016-05-05T09:07:56Z</time>
      </trkpt>
      <trkpt lat="47.31516" lon="2.85465">
        <ele>209.1</ele>
        <time>2016-05-05T09:07:59Z</time>
      </trkpt>
      <trkpt lat="47.31506" lon="2.85473">
        <ele>209.1</ele>
        <time>2016-05-05T09:08:03Z</time>
      </trkpt>
      <trkpt lat="47.31497" lon="2.8548">
        <ele>209.2</ele>
        <time>2016-05-05T09:08:06Z</time>
      </trkpt>
      <trkpt lat="47.31488" lon="2.85487">
        <ele>209.3</ele>
        <time>2016-05-05T09:08:09Z</time>
      </trkpt>
      <trkpt lat="47.3148" lon="2.85494">
        <ele>209.5</ele>
        <time>2016-05-05T09:08:12Z</time>
      </trkpt>
      <trkpt lat="47.31472" lon="2.85501">
        <ele>209.6</ele>
        <time>2016-05-05T09:08:15Z</time>
      </trkpt>
      <trkpt lat="47.31462" lon="2.8551">
        <ele>209.7</ele>
        <time>2016-05-05T09:08:19Z</time>
      </trkpt>
      <trkpt lat="47.31454" lon="2.85516">
        <ele>209.8</ele>
        <time>2016-05-05T09:08:22Z</time>
      </trkpt>
      <trkpt lat="47.31444" lon="2.85524">
        <ele>209.9</ele>
        <time>2016-05-05T09:08:26Z</time>
      </trkpt>
      <trkpt lat="47.31435" lon="2.85531">
        <ele>210.1</ele>
        <time>2016-05-05T09:08:30Z</time>
      </trkpt>
      <trkpt lat="47.3144" lon="2.85544">
        <ele>210.3</ele>
        <time>2016-05-05T09:08:36Z</time>
      </trkpt>
      <trkpt lat="47.31451" lon="2.85548">
        <ele>210.1</ele>
        <time>2016-05-05T09:08:40Z</time>
      </trkpt>
      <trkpt lat="47.31462" lon="2.85543">
        <ele>208.9</ele>
        <time>2016-05-05T09:08:44Z</time>
      </trkpt>
      <trkpt lat="47.31469" lon="2.85535">
        <ele>208.3</ele>
        <time>2016-05-05T09:08:48Z</time>
      </trkpt>
      <trkpt lat="47.31478" lon="2.85527">
        <ele>207.4</ele>
        <time>2016-05-05T09:08:52Z</time>
      </trkpt>
      <trkpt lat="47.31487" lon="2.8552">
        <ele>206.8</ele>
        <time>2016-05-05T09:08:55Z</time>
      </trkpt>
      <trkpt lat="47.31495" lon="2.85513">
        <ele>206.2</ele>
        <time>2016-05-05T09:08:58Z</time>
      </trkpt>
      <trkpt lat="47.31505" lon="2.85507">
        <ele>204.9</ele>
        <time>2016-05-05T09:09:02Z</time>
      </trkpt>
      <trkpt lat="47.31515" lon="2.85503">
        <ele>204.1</ele>
        <time>2016-05-05T09:09:05Z</time>
      </trkpt>
      <trkpt lat="47.31524" lon="2.85498">
        <ele>203.4</ele>
        <time>2016-05-05T09:09:08Z</time>
      </trkpt>
      <trkpt lat="47.31533" lon="2.85492">
        <ele>202.7</ele>
        <time>2016-05-05T09:09:11Z</time>
      </trkpt>
      <trkpt lat="47.31542" lon="2.85488">
        <ele>202.1</ele>
        <time>2016-05-05T09:09:14Z</time>
      </trkpt>
      <trkpt lat="47.31554" lon="2.85482">
        <ele>201.6</ele>
        <time>2016-05-05T09:09:17Z</time>
      </trkpt>
      <trkpt lat="47.31565" lon="2.85473">
        <ele>200.6</ele>
        <time>2016-05-05T09:09:20Z</time>
      </trkpt>
      <trkpt lat="47.31575" lon="2.85468">
        <ele>199.9</ele>
        <time>2016-05-05T09:09:22Z</time>
      </trkpt>
      <trkpt lat="47.31585" lon="2.85465">
        <ele>199.1</ele>
        <time>2016-05-05T09:09:24Z</time>
      </trkpt>
      <trkpt lat="47.31596" lon="2.85462">
        <ele>197.6</ele>
        <time>2016-05-05T09:09:28Z</time>
      </trkpt>
      <trkpt lat="47.31606" lon="2.85459">
        <ele>196.8</ele>
        <time>2016-05-05T09:09:31Z</time>
      </trkpt>
      <trkpt lat="47.31615" lon="2.85456">
        <ele>196.3</ele>
        <time>2016-05-05T09:09:33Z</time>
      </trkpt>
      <trkpt lat="47.31625" lon="2.85455">
        <ele>195.8</ele>
        <time>2016-05-05T09:09:35Z</time>
      </trkpt>
      <trkpt lat="47.31635" lon="2.8545">
        <ele>194.8</ele>
        <time>2016-05-05T09:09:38Z</time>
      </trkpt>
      <trkpt lat="47.31646" lon="2.85458">
        <ele>193.8</ele>
        <time>2016-05-05T09:09:42Z</time>
      </trkpt>
      <trkpt lat="47.31654" lon="2.85466">
        <ele>193.6</ele>
        <time>2016-05-05T09:09:44Z</time>
      </trkpt>
      <trkpt lat="47.31663" lon="2.85476">
        <ele>193.1</ele>
        <time>2016-05-05T09:09:47Z</time>
      </trkpt>
      <trkpt lat="47.31672" lon="2.85488">
        <ele>192.4</ele>
        <time>2016-05-05T09:09:50Z</time>
      </trkpt>
      <trkpt lat="47.31679" lon="2.85501">
        <ele>191.7</ele>
        <time>2016-05-05T09:09:53Z</time>
      </trkpt>
      <trkpt lat="47.31686" lon="2.85514">
        <ele>189.9</ele>
        <time>2016-05-05T09:09:57Z</time>
      </trkpt>
      <trkpt lat="47.31688" lon="2.85528">
        <ele>188.9</ele>
        <time>2016-05-05T09:10:00Z</time>
      </trkpt>
      <trkpt lat="47.31689" lon="2.85545">
        <ele>187.7</ele>
        <time>2016-05-05T09:10:03Z</time>
      </trkpt>
      <trkpt lat="47.31689" lon="2.8556">
        <ele>186.3</ele>
        <time>2016-05-05T09:10:06Z</time>
      </trkpt>
      <trkpt lat="47.31692" lon="2.85576">
        <ele>184.7</ele>
        <time>2016-05-05T09:10:09Z</time>
      </trkpt>
      <trkpt lat="47.31696" lon="2.85591">
        <ele>183</ele>
        <time>2016-05-05T09:10:12Z</time>
      </trkpt>
      <trkpt lat="47.31698" lon="2.85606">
        <ele>181.5</ele>
        <time>2016-05-05T09:10:15Z</time>
      </trkpt>
      <trkpt lat="47.31703" lon="2.8562">
        <ele>179.6</ele>
        <time>2016-05-05T09:10:18Z</time>
      </trkpt>
      <trkpt lat="47.31708" lon="2.85634">
        <ele>178.2</ele>
        <time>2016-05-05T09:10:21Z</time>
      </trkpt>
      <trkpt lat="47.31712" lon="2.8565">
        <ele>176.5</ele>
        <time>2016-05-05T09:10:25Z</time>
      </trkpt>
      <trkpt lat="47.3172" lon="2.85662">
        <ele>175.1</ele>
        <time>2016-05-05T09:10:29Z</time>
      </trkpt>
      <trkpt lat="47.31723" lon="2.85675">
        <ele>174.7</ele>
        <time>2016-05-05T09:10:33Z</time>
      </trkpt>
      <trkpt lat="47.31714" lon="2.85684">
        <ele>174.7</ele>
        <time>2016-05-05T09:10:38Z</time>
      </trkpt>
      <trkpt lat="47.31705" lon="2.85694">
        <ele>174.7</ele>
        <time>2016-05-05T09:10:42Z</time>
      </trkpt>
      <trkpt lat="47.31696" lon="2.85699">
        <ele>174.6</ele>
        <time>2016-05-05T09:10:47Z</time>
      </trkpt>
      <trkpt lat="47.31686" lon="2.85707">
        <ele>174.5</ele>
        <time>2016-05-05T09:10:53Z</time>
      </trkpt>
      <trkpt lat="47.31676" lon="2.85714">
        <ele>174.6</ele>
        <time>2016-05-05T09:10:57Z</time>
      </trkpt>
      <trkpt lat="47.31666" lon="2.85722">
        <ele>174.4</ele>
        <time>2016-05-05T09:11:01Z</time>
      </trkpt>
      <trkpt lat="47.31657" lon="2.8573">
        <ele>174.4</ele>
        <time>2016-05-05T09:11:04Z</time>
      </trkpt>
      <trkpt lat="47.31649" lon="2.8574">
        <ele>174.5</ele>
        <time>2016-05-05T09:11:08Z</time>
      </trkpt>
      <trkpt lat="47.31659" lon="2.85746">
        <ele>174.7</ele>
        <time>2016-05-05T09:11:17Z</time>
      </trkpt>
      <trkpt lat="47.31668" lon="2.85743">
        <ele>174.6</ele>
        <time>2016-05-05T09:11:20Z</time>
      </trkpt>
      <trkpt lat="47.31678" lon="2.85739">
        <ele>174.3</ele>
        <time>2016-05-05T09:11:23Z</time>
      </trkpt>
      <trkpt lat="47.31689" lon="2.85737">
        <ele>174.4</ele>
        <time>2016-05-05T09:11:26Z</time>
      </trkpt>
      <trkpt lat="47.317" lon="2.85735">
        <ele>174.5</ele>
        <time>2016-05-05T09:11:29Z</time>
      </trkpt>
      <trkpt lat="47.3171" lon="2.85732">
        <ele>174.7</ele>
        <time>2016-05-05T09:11:32Z</time>
      </trkpt>
      <trkpt lat="47.31721" lon="2.85729">
        <ele>174.8</ele>
        <time>2016-05-05T09:11:35Z</time>
      </trkpt>
      <trkpt lat="47.31734" lon="2.85725">
        <ele>175.2</ele>
        <time>2016-05-05T09:11:38Z</time>
      </trkpt>
      <trkpt lat="47.31744" lon="2.85722">
        <ele>175.4</ele>
        <time>2016-05-05T09:11:40Z</time>
      </trkpt>
      <trkpt lat="47.31756" lon="2.85722">
        <ele>175.5</ele>
        <time>2016-05-05T09:11:42Z</time>
      </trkpt>
      <trkpt lat="47.31766" lon="2.85731">
        <ele>176.1</ele>
        <time>2016-05-05T09:11:44Z</time>
      </trkpt>
      <trkpt lat="47.31768" lon="2.8575">
        <ele>177.2</ele>
        <time>2016-05-05T09:11:47Z</time>
      </trkpt>
      <trkpt lat="47.31769" lon="2.85767">
        <ele>177.5</ele>
        <time>2016-05-05T09:11:50Z</time>
      </trkpt>
      <trkpt lat="47.31771" lon="2.85787">
        <ele>177.3</ele>
        <time>2016-05-05T09:11:53Z</time>
      </trkpt>
      <trkpt lat="47.31771" lon="2.85803">
        <ele>176.8</ele>
        <time>2016-05-05T09:11:55Z</time>
      </trkpt>
      <trkpt lat="47.31772" lon="2.85819">
        <ele>176.7</ele>
        <time>2016-05-05T09:11:57Z</time>
      </trkpt>
      <trkpt lat="47.31774" lon="2.85834">
        <ele>176.5</ele>
        <time>2016-05-05T09:11:59Z</time>
      </trkpt>
      <trkpt lat="47.31778" lon="2.85849">
        <ele>176.1</ele>
        <time>2016-05-05T09:12:01Z</time>
      </trkpt>
      <trkpt lat="47.31777" lon="2.85867">
        <ele>175.9</ele>
        <time>2016-05-05T09:12:04Z</time>
      </trkpt>
      <trkpt lat="47.3178" lon="2.8588">
        <ele>175.3</ele>
        <time>2016-05-05T09:12:06Z</time>
      </trkpt>
      <trkpt lat="47.31783" lon="2.85896">
        <ele>174.7</ele>
        <time>2016-05-05T09:12:08Z</time>
      </trkpt>
      <trkpt lat="47.31791" lon="2.85911">
        <ele>174.3</ele>
        <time>2016-05-05T09:12:10Z</time>
      </trkpt>
      <trkpt lat="47.31797" lon="2.85924">
        <ele>174</ele>
        <time>2016-05-05T09:12:12Z</time>
      </trkpt>
      <trkpt lat="47.31802" lon="2.85936">
        <ele>174.2</ele>
        <time>2016-05-05T09:12:14Z</time>
      </trkpt>
      <trkpt lat="47.31803" lon="2.85949">
        <ele>174.1</ele>
        <time>2016-05-05T09:12:16Z</time>
      </trkpt>
      <trkpt lat="47.31806" lon="2.85962">
        <ele>173.9</ele>
        <time>2016-05-05T09:12:18Z</time>
      </trkpt>
      <trkpt lat="47.31807" lon="2.85981">
        <ele>173.9</ele>
        <time>2016-05-05T09:12:20Z</time>
      </trkpt>
      <trkpt lat="47.31807" lon="2.85997">
        <ele>173.6</ele>
        <time>2016-05-05T09:12:22Z</time>
      </trkpt>
      <trkpt lat="47.31809" lon="2.86012">
        <ele>173.7</ele>
        <time>2016-05-05T09:12:24Z</time>
      </trkpt>
      <trkpt lat="47.31809" lon="2.86027">
        <ele>173.4</ele>
        <time>2016-05-05T09:12:26Z</time>
      </trkpt>
      <trkpt lat="47.31808" lon="2.86043">
        <ele>173.5</ele>
        <time>2016-05-05T09:12:28Z</time>
      </trkpt>
      <trkpt lat="47.31805" lon="2.8606">
        <ele>173.6</ele>
        <time>2016-05-05T09:12:30Z</time>
      </trkpt>
      <trkpt lat="47.31805" lon="2.86075">
        <ele>173.7</ele>
        <time>2016-05-05T09:12:32Z</time>
      </trkpt>
      <trkpt lat="47.31803" lon="2.86088">
        <ele>174.1</ele>
        <time>2016-05-05T09:12:35Z</time>
      </trkpt>
      <trkpt lat="47.318" lon="2.86103">
        <ele>174</ele>
        <time>2016-05-05T09:12:50Z</time>
      </trkpt>
      <trkpt lat="47.31791" lon="2.86115">
        <ele>174</ele>
        <time>2016-05-05T09:12:54Z</time>
      </trkpt>
      <trkpt lat="47.3178" lon="2.86125">
        <ele>174</ele>
        <time>2016-05-05T09:12:57Z</time>
      </trkpt>
      <trkpt lat="47.31769" lon="2.86133">
        <ele>174.1</ele>
        <time>2016-05-05T09:13:00Z</time>
      </trkpt>
      <trkpt lat="47.31759" lon="2.86138">
        <ele>174.4</ele>
        <time>2016-05-05T09:13:03Z</time>
      </trkpt>
      <trkpt lat="47.31748" lon="2.86143">
        <ele>174.6</ele>
        <time>2016-05-05T09:13:06Z</time>
      </trkpt>
      <trkpt lat="47.31738" lon="2.86151">
        <ele>174.8</ele>
        <time>2016-05-05T09:13:09Z</time>
      </trkpt>
      <trkpt lat="47.31727" lon="2.86157">
        <ele>174.8</ele>
        <time>2016-05-05T09:13:12Z</time>
      </trkpt>
      <trkpt lat="47.31716" lon="2.86165">
        <ele>174.9</ele>
        <time>2016-05-05T09:13:15Z</time>
      </trkpt>
      <trkpt lat="47.31705" lon="2.86172">
        <ele>174.8</ele>
        <time>2016-05-05T09:13:18Z</time>
      </trkpt>
      <trkpt lat="47.31695" lon="2.8618">
        <ele>174.8</ele>
        <time>2016-05-05T09:13:21Z</time>
      </trkpt>
      <trkpt lat="47.31685" lon="2.86189">
        <ele>174.6</ele>
        <time>2016-05-05T09:13:24Z</time>
      </trkpt>
      <trkpt lat="47.31675" lon="2.86199">
        <ele>174.5</ele>
        <time>2016-05-05T09:13:27Z</time>
      </trkpt>
      <trkpt lat="47.31665" lon="2.8621">
        <ele>174.6</ele>
        <time>2016-05-05T09:13:30Z</time>
      </trkpt>
      <trkpt lat="47.31655" lon="2.86223">
        <ele>174.8</ele>
        <time>2016-05-05T09:13:33Z</time>
      </trkpt>
      <trkpt lat="47.31645" lon="2.86235">
        <ele>174.8</ele>
        <time>2016-05-05T09:13:36Z</time>
      </trkpt>
      <trkpt lat="47.31638" lon="2.86243">
        <ele>174.4</ele>
        <time>2016-05-05T09:13:38Z</time>
      </trkpt>
      <trkpt lat="47.31631" lon="2.86253">
        <ele>174.5</ele>
        <time>2016-05-05T09:13:40Z</time>
      </trkpt>
      <trkpt lat="47.31622" lon="2.86264">
        <ele>174.3</ele>
        <time>2016-05-05T09:13:42Z</time>
      </trkpt>
      <trkpt lat="47.31614" lon="2.86275">
        <ele>174.6</ele>
        <time>2016-05-05T09:13:44Z</time>
      </trkpt>
      <trkpt lat="47.31604" lon="2.86288">
        <ele>174.8</ele>
        <time>2016-05-05T09:13:46Z</time>
      </trkpt>
      <trkpt lat="47.31594" lon="2.86302">
        <ele>174.7</ele>
        <time>2016-05-05T09:13:48Z</time>
      </trkpt>
      <trkpt lat="47.31584" lon="2.86315">
        <ele>174.8</ele>
        <time>2016-05-05T09:13:50Z</time>
      </trkpt>
      <trkpt lat="47.31574" lon="2.86329">
        <ele>174.7</ele>
        <time>2016-05-05T09:13:52Z</time>
      </trkpt>
      <trkpt lat="47.31561" lon="2.86342">
        <ele>174.8</ele>
        <time>2016-05-05T09:13:54Z</time>
      </trkpt>
      <trkpt lat="47.31551" lon="2.86357">
        <ele>174.8</ele>
        <time>2016-05-05T09:13:56Z</time>
      </trkpt>
      <trkpt lat="47.3154" lon="2.86371">
        <ele>174.8</ele>
        <time>2016-05-05T09:13:58Z</time>
      </trkpt>
      <trkpt lat="47.3153" lon="2.86384">
        <ele>175</ele>
        <time>2016-05-05T09:14:00Z</time>
      </trkpt>
      <trkpt lat="47.31519" lon="2.86398">
        <ele>174.8</ele>
        <time>2016-05-05T09:14:02Z</time>
      </trkpt>
      <trkpt lat="47.31511" lon="2.86412">
        <ele>174.8</ele>
        <time>2016-05-05T09:14:04Z</time>
      </trkpt>
      <trkpt lat="47.31502" lon="2.86425">
        <ele>174.7</ele>
        <time>2016-05-05T09:14:06Z</time>
      </trkpt>
      <trkpt lat="47.31494" lon="2.86438">
        <ele>174.7</ele>
        <time>2016-05-05T09:14:08Z</time>
      </trkpt>
      <trkpt lat="47.31487" lon="2.8645">
        <ele>174.8</ele>
        <time>2016-05-05T09:14:10Z</time>
      </trkpt>
      <trkpt lat="47.3148" lon="2.86462">
        <ele>174.2</ele>
        <time>2016-05-05T09:14:12Z</time>
      </trkpt>
      <trkpt lat="47.31474" lon="2.86474">
        <ele>174.3</ele>
        <time>2016-05-05T09:14:14Z</time>
      </trkpt>
      <trkpt lat="47.31467" lon="2.86486">
        <ele>174.3</ele>
        <time>2016-05-05T09:14:16Z</time>
      </trkpt>
      <trkpt lat="47.31461" lon="2.86498">
        <ele>174.3</ele>
        <time>2016-05-05T09:14:18Z</time>
      </trkpt>
      <trkpt lat="47.31455" lon="2.8651">
        <ele>174.4</ele>
        <time>2016-05-05T09:14:20Z</time>
      </trkpt>
      <trkpt lat="47.31448" lon="2.86521">
        <ele>174.4</ele>
        <time>2016-05-05T09:14:22Z</time>
      </trkpt>
      <trkpt lat="47.31443" lon="2.86533">
        <ele>174.4</ele>
        <time>2016-05-05T09:14:24Z</time>
      </trkpt>
      <trkpt lat="47.31437" lon="2.86543">
        <ele>174.4</ele>
        <time>2016-05-05T09:14:26Z</time>
      </trkpt>
      <trkpt lat="47.31429" lon="2.86556">
        <ele>174.7</ele>
        <time>2016-05-05T09:14:29Z</time>
      </trkpt>
      <trkpt lat="47.31422" lon="2.86564">
        <ele>174.5</ele>
        <time>2016-05-05T09:14:54Z</time>
      </trkpt>
      <trkpt lat="47.31419" lon="2.86579">
        <ele>175.2</ele>
        <time>2016-05-05T09:15:16Z</time>
      </trkpt>
      <trkpt lat="47.31414" lon="2.86593">
        <ele>174.9</ele>
        <time>2016-05-05T09:15:21Z</time>
      </trkpt>
      <trkpt lat="47.31409" lon="2.86608">
        <ele>174.9</ele>
        <time>2016-05-05T09:15:25Z</time>
      </trkpt>
      <trkpt lat="47.31406" lon="2.86622">
        <ele>175.2</ele>
        <time>2016-05-05T09:15:28Z</time>
      </trkpt>
      <trkpt lat="47.31402" lon="2.86635">
        <ele>174.8</ele>
        <time>2016-05-05T09:15:31Z</time>
      </trkpt>
      <trkpt lat="47.31399" lon="2.86649">
        <ele>174.9</ele>
        <time>2016-05-05T09:15:34Z</time>
      </trkpt>
      <trkpt lat="47.31396" lon="2.86663">
        <ele>174.8</ele>
        <time>2016-05-05T09:15:37Z</time>
      </trkpt>
      <trkpt lat="47.31393" lon="2.86678">
        <ele>174.8</ele>
        <time>2016-05-05T09:15:40Z</time>
      </trkpt>
      <trkpt lat="47.31391" lon="2.86694">
        <ele>174.7</ele>
        <time>2016-05-05T09:15:43Z</time>
      </trkpt>
      <trkpt lat="47.31389" lon="2.86711">
        <ele>174.7</ele>
        <time>2016-05-05T09:15:46Z</time>
      </trkpt>
      <trkpt lat="47.31387" lon="2.86726">
        <ele>174.8</ele>
        <time>2016-05-05T09:15:49Z</time>
      </trkpt>
      <trkpt lat="47.31386" lon="2.86744">
        <ele>174.9</ele>
        <time>2016-05-05T09:15:52Z</time>
      </trkpt>
      <trkpt lat="47.31385" lon="2.86761">
        <ele>174.9</ele>
        <time>2016-05-05T09:15:55Z</time>
      </trkpt>
      <trkpt lat="47.31384" lon="2.86778">
        <ele>174.9</ele>
        <time>2016-05-05T09:15:58Z</time>
      </trkpt>
      <trkpt lat="47.31384" lon="2.86794">
        <ele>174.9</ele>
        <time>2016-05-05T09:16:01Z</time>
      </trkpt>
      <trkpt lat="47.31383" lon="2.86812">
        <ele>175.2</ele>
        <time>2016-05-05T09:16:04Z</time>
      </trkpt>
      <trkpt lat="47.31382" lon="2.86829">
        <ele>174.8</ele>
        <time>2016-05-05T09:16:07Z</time>
      </trkpt>
      <trkpt lat="47.31382" lon="2.86846">
        <ele>175</ele>
        <time>2016-05-05T09:16:10Z</time>
      </trkpt>
      <trkpt lat="47.31381" lon="2.86863">
        <ele>175</ele>
        <time>2016-05-05T09:16:13Z</time>
      </trkpt>
      <trkpt lat="47.31379" lon="2.8688">
        <ele>174.8</ele>
        <time>2016-05-05T09:16:16Z</time>
      </trkpt>
      <trkpt lat="47.31378" lon="2.86898">
        <ele>175</ele>
        <time>2016-05-05T09:16:19Z</time>
      </trkpt>
      <trkpt lat="47.31376" lon="2.86916">
        <ele>175</ele>
        <time>2016-05-05T09:16:22Z</time>
      </trkpt>
      <trkpt lat="47.31375" lon="2.86933">
        <ele>174.6</ele>
        <time>2016-05-05T09:16:25Z</time>
      </trkpt>
      <trkpt lat="47.31373" lon="2.86951">
        <ele>174.5</ele>
        <time>2016-05-05T09:16:28Z</time>
      </trkpt>
      <trkpt lat="47.31371" lon="2.86968">
        <ele>174.3</ele>
        <time>2016-05-05T09:16:31Z</time>
      </trkpt>
      <trkpt lat="47.3137" lon="2.86987">
        <ele>174.5</ele>
        <time>2016-05-05T09:16:34Z</time>
      </trkpt>
      <trkpt lat="47.31368" lon="2.87006">
        <ele>174.4</ele>
        <time>2016-05-05T09:16:37Z</time>
      </trkpt>
      <trkpt lat="47.31365" lon="2.87023">
        <ele>174.3</ele>
        <time>2016-05-05T09:16:40Z</time>
      </trkpt>
      <trkpt lat="47.3136" lon="2.8704">
        <ele>174.5</ele>
        <time>2016-05-05T09:16:43Z</time>
      </trkpt>
      <trkpt lat="47.31356" lon="2.87058">
        <ele>174.5</ele>
        <time>2016-05-05T09:16:46Z</time>
      </trkpt>
      <trkpt lat="47.3135" lon="2.87075">
        <ele>174.7</ele>
        <time>2016-05-05T09:16:49Z</time>
      </trkpt>
      <trkpt lat="47.31345" lon="2.87091">
        <ele>175</ele>
        <time>2016-05-05T09:16:52Z</time>
      </trkpt>
      <trkpt lat="47.31341" lon="2.87108">
        <ele>174.6</ele>
        <time>2016-05-05T09:16:55Z</time>
      </trkpt>
      <trkpt lat="47.31335" lon="2.87124">
        <ele>174.7</ele>
        <time>2016-05-05T09:16:58Z</time>
      </trkpt>
      <trkpt lat="47.3133" lon="2.87143">
        <ele>174.8</ele>
        <time>2016-05-05T09:17:01Z</time>
      </trkpt>
      <trkpt lat="47.31326" lon="2.87161">
        <ele>174.8</ele>
        <time>2016-05-05T09:17:04Z</time>
      </trkpt>
      <trkpt lat="47.31322" lon="2.87179">
        <ele>174.7</ele>
        <time>2016-05-05T09:17:07Z</time>
      </trkpt>
      <trkpt lat="47.31318" lon="2.87197">
        <ele>174.1</ele>
        <time>2016-05-05T09:17:10Z</time>
      </trkpt>
      <trkpt lat="47.31315" lon="2.87215">
        <ele>174</ele>
        <time>2016-05-05T09:17:13Z</time>
      </trkpt>
      <trkpt lat="47.31312" lon="2.87232">
        <ele>174.2</ele>
        <time>2016-05-05T09:17:16Z</time>
      </trkpt>
      <trkpt lat="47.31308" lon="2.87249">
        <ele>174.4</ele>
        <time>2016-05-05T09:17:19Z</time>
      </trkpt>
      <trkpt lat="47.31306" lon="2.87266">
        <ele>174.4</ele>
        <time>2016-05-05T09:17:22Z</time>
      </trkpt>
      <trkpt lat="47.31303" lon="2.87283">
        <ele>174.5</ele>
        <time>2016-05-05T09:17:25Z</time>
      </trkpt>
      <trkpt lat="47.313" lon="2.873">
        <ele>174.6</ele>
        <time>2016-05-05T09:17:28Z</time>
      </trkpt>
      <trkpt lat="47.31297" lon="2.87316">
        <ele>174.5</ele>
        <time>2016-05-05T09:17:31Z</time>
      </trkpt>
      <trkpt lat="47.31293" lon="2.87333">
        <ele>174.6</ele>
        <time>2016-05-05T09:17:34Z</time>
      </trkpt>
      <trkpt lat="47.3129" lon="2.8735">
        <ele>174.6</ele>
        <time>2016-05-05T09:17:37Z</time>
      </trkpt>
      <trkpt lat="47.31287" lon="2.87368">
        <ele>174.5</ele>
        <time>2016-05-05T09:17:40Z</time>
      </trkpt>
      <trkpt lat="47.31284" lon="2.87386">
        <ele>174.4</ele>
        <time>2016-05-05T09:17:43Z</time>
      </trkpt>
      <trkpt lat="47.3128" lon="2.87403">
        <ele>174.5</ele>
        <time>2016-05-05T09:17:46Z</time>
      </trkpt>
      <trkpt lat="47.31277" lon="2.8742">
        <ele>174.3</ele>
        <time>2016-05-05T09:17:49Z</time>
      </trkpt>
      <trkpt lat="47.31273" lon="2.87436">
        <ele>174.3</ele>
        <time>2016-05-05T09:17:52Z</time>
      </trkpt>
      <trkpt lat="47.3127" lon="2.87452">
        <ele>174.4</ele>
        <time>2016-05-05T09:17:55Z</time>
      </trkpt>
      <trkpt lat="47.31266" lon="2.87468">
        <ele>174.5</ele>
        <time>2016-05-05T09:17:58Z</time>
      </trkpt>
      <trkpt lat="47.31262" lon="2.87483">
        <ele>174.6</ele>
        <time>2016-05-05T09:18:01Z</time>
      </trkpt>
      <trkpt lat="47.31258" lon="2.87499">
        <ele>174.8</ele>
        <time>2016-05-05T09:18:04Z</time>
      </trkpt>
      <trkpt lat="47.31254" lon="2.87514">
        <ele>174.9</ele>
        <time>2016-05-05T09:18:07Z</time>
      </trkpt>
      <trkpt lat="47.3125" lon="2.8753">
        <ele>174.7</ele>
        <time>2016-05-05T09:18:10Z</time>
      </trkpt>
      <trkpt lat="47.31245" lon="2.87547">
        <ele>175.2</ele>
        <time>2016-05-05T09:18:13Z</time>
      </trkpt>
      <trkpt lat="47.31241" lon="2.87563">
        <ele>175.1</ele>
        <time>2016-05-05T09:18:16Z</time>
      </trkpt>
      <trkpt lat="47.31236" lon="2.8758">
        <ele>175.3</ele>
        <time>2016-05-05T09:18:19Z</time>
      </trkpt>
      <trkpt lat="47.31232" lon="2.87597">
        <ele>175.2</ele>
        <time>2016-05-05T09:18:22Z</time>
      </trkpt>
      <trkpt lat="47.31228" lon="2.87615">
        <ele>175.3</ele>
        <time>2016-05-05T09:18:25Z</time>
      </trkpt>
      <trkpt lat="47.31224" lon="2.87632">
        <ele>175.3</ele>
        <time>2016-05-05T09:18:28Z</time>
      </trkpt>
      <trkpt lat="47.3122" lon="2.8765">
        <ele>175.2</ele>
        <time>2016-05-05T09:18:31Z</time>
      </trkpt>
      <trkpt lat="47.31218" lon="2.87667">
        <ele>175.1</ele>
        <time>2016-05-05T09:18:34Z</time>
      </trkpt>
      <trkpt lat="47.31214" lon="2.87685">
        <ele>174.7</ele>
        <time>2016-05-05T09:18:37Z</time>
      </trkpt>
      <trkpt lat="47.31212" lon="2.87701">
        <ele>175</ele>
        <time>2016-05-05T09:18:40Z</time>
      </trkpt>
      <trkpt lat="47.31209" lon="2.87717">
        <ele>175.4</ele>
        <time>2016-05-05T09:18:43Z</time>
      </trkpt>
      <trkpt lat="47.31207" lon="2.87731">
        <ele>175.2</ele>
        <time>2016-05-05T09:18:46Z</time>
      </trkpt>
      <trkpt lat="47.31205" lon="2.87745">
        <ele>175.2</ele>
        <time>2016-05-05T09:18:49Z</time>
      </trkpt>
      <trkpt lat="47.31203" lon="2.8776">
        <ele>175.4</ele>
        <time>2016-05-05T09:18:53Z</time>
      </trkpt>
      <trkpt lat="47.31203" lon="2.87774">
        <ele>175.2</ele>
        <time>2016-05-05T09:19:31Z</time>
      </trkpt>
      <trkpt lat="47.31201" lon="2.8779">
        <ele>175.1</ele>
        <time>2016-05-05T09:19:35Z</time>
      </trkpt>
      <trkpt lat="47.31198" lon="2.87804">
        <ele>175.2</ele>
        <time>2016-05-05T09:19:39Z</time>
      </trkpt>
      <trkpt lat="47.31194" lon="2.87819">
        <ele>175.4</ele>
        <time>2016-05-05T09:19:43Z</time>
      </trkpt>
      <trkpt lat="47.31191" lon="2.87832">
        <ele>175.3</ele>
        <time>2016-05-05T09:19:46Z</time>
      </trkpt>
      <trkpt lat="47.31187" lon="2.87846">
        <ele>175.3</ele>
        <time>2016-05-05T09:19:49Z</time>
      </trkpt>
      <trkpt lat="47.31184" lon="2.8786">
        <ele>175.5</ele>
        <time>2016-05-05T09:19:52Z</time>
      </trkpt>
      <trkpt lat="47.31181" lon="2.87875">
        <ele>175.6</ele>
        <time>2016-05-05T09:19:55Z</time>
      </trkpt>
      <trkpt lat="47.31179" lon="2.8789">
        <ele>175.4</ele>
        <time>2016-05-05T09:19:58Z</time>
      </trkpt>
      <trkpt lat="47.31177" lon="2.87906">
        <ele>175.2</ele>
        <time>2016-05-05T09:20:01Z</time>
      </trkpt>
      <trkpt lat="47.31176" lon="2.87921">
        <ele>175.1</ele>
        <time>2016-05-05T09:20:04Z</time>
      </trkpt>
      <trkpt lat="47.31174" lon="2.87937">
        <ele>175</ele>
        <time>2016-05-05T09:20:07Z</time>
      </trkpt>
      <trkpt lat="47.31173" lon="2.87953">
        <ele>175</ele>
        <time>2016-05-05T09:20:10Z</time>
      </trkpt>
      <trkpt lat="47.31171" lon="2.87968">
        <ele>175.2</ele>
        <time>2016-05-05T09:20:13Z</time>
      </trkpt>
      <trkpt lat="47.3117" lon="2.87983">
        <ele>175.3</ele>
        <time>2016-05-05T09:20:16Z</time>
      </trkpt>
      <trkpt lat="47.31168" lon="2.87999">
        <ele>175.3</ele>
        <time>2016-05-05T09:20:19Z</time>
      </trkpt>
      <trkpt lat="47.31167" lon="2.88014">
        <ele>175.4</ele>
        <time>2016-05-05T09:20:22Z</time>
      </trkpt>
      <trkpt lat="47.31167" lon="2.8803">
        <ele>175.5</ele>
        <time>2016-05-05T09:20:25Z</time>
      </trkpt>
      <trkpt lat="47.31166" lon="2.88045">
        <ele>175.1</ele>
        <time>2016-05-05T09:20:28Z</time>
      </trkpt>
      <trkpt lat="47.31165" lon="2.8806">
        <ele>175.4</ele>
        <time>2016-05-05T09:20:31Z</time>
      </trkpt>
      <trkpt lat="47.31164" lon="2.88074">
        <ele>175.4</ele>
        <time>2016-05-05T09:20:35Z</time>
      </trkpt>
      <trkpt lat="47.31162" lon="2.88089">
        <ele>175.1</ele>
        <time>2016-05-05T09:20:39Z</time>
      </trkpt>
      <trkpt lat="47.31162" lon="2.88105">
        <ele>175.1</ele>
        <time>2016-05-05T09:20:42Z</time>
      </trkpt>
      <trkpt lat="47.3116" lon="2.88123">
        <ele>175.5</ele>
        <time>2016-05-05T09:20:45Z</time>
      </trkpt>
      <trkpt lat="47.31159" lon="2.8814">
        <ele>175.8</ele>
        <time>2016-05-05T09:20:48Z</time>
      </trkpt>
      <trkpt lat="47.31159" lon="2.88156">
        <ele>175.9</ele>
        <time>2016-05-05T09:20:51Z</time>
      </trkpt>
      <trkpt lat="47.31157" lon="2.88173">
        <ele>176.1</ele>
        <time>2016-05-05T09:20:54Z</time>
      </trkpt>
      <trkpt lat="47.31156" lon="2.88189">
        <ele>176.1</ele>
        <time>2016-05-05T09:20:57Z</time>
      </trkpt>
      <trkpt lat="47.31155" lon="2.88205">
        <ele>176</ele>
        <time>2016-05-05T09:21:00Z</time>
      </trkpt>
      <trkpt lat="47.31153" lon="2.88222">
        <ele>176.1</ele>
        <time>2016-05-05T09:21:03Z</time>
      </trkpt>
      <trkpt lat="47.31152" lon="2.88238">
        <ele>176.1</ele>
        <time>2016-05-05T09:21:06Z</time>
      </trkpt>
      <trkpt lat="47.31151" lon="2.88253">
        <ele>175.9</ele>
        <time>2016-05-05T09:21:09Z</time>
      </trkpt>
      <trkpt lat="47.31149" lon="2.88269">
        <ele>175.7</ele>
        <time>2016-05-05T09:21:12Z</time>
      </trkpt>
      <trkpt lat="47.31148" lon="2.88285">
        <ele>175.8</ele>
        <time>2016-05-05T09:21:15Z</time>
      </trkpt>
      <trkpt lat="47.31148" lon="2.88299">
        <ele>175.9</ele>
        <time>2016-05-05T09:21:18Z</time>
      </trkpt>
      <trkpt lat="47.31146" lon="2.88315">
        <ele>175.7</ele>
        <time>2016-05-05T09:21:21Z</time>
      </trkpt>
      <trkpt lat="47.31144" lon="2.88332">
        <ele>175.6</ele>
        <time>2016-05-05T09:21:24Z</time>
      </trkpt>
      <trkpt lat="47.31142" lon="2.88348">
        <ele>175.4</ele>
        <time>2016-05-05T09:21:27Z</time>
      </trkpt>
      <trkpt lat="47.31141" lon="2.88364">
        <ele>175.1</ele>
        <time>2016-05-05T09:21:30Z</time>
      </trkpt>
      <trkpt lat="47.3114" lon="2.8838">
        <ele>175.3</ele>
        <time>2016-05-05T09:21:33Z</time>
      </trkpt>
      <trkpt lat="47.31139" lon="2.88397">
        <ele>175.6</ele>
        <time>2016-05-05T09:21:36Z</time>
      </trkpt>
      <trkpt lat="47.31137" lon="2.88413">
        <ele>175.6</ele>
        <time>2016-05-05T09:21:39Z</time>
      </trkpt>
      <trkpt lat="47.31137" lon="2.8843">
        <ele>175.4</ele>
        <time>2016-05-05T09:21:42Z</time>
      </trkpt>
      <trkpt lat="47.31135" lon="2.88446">
        <ele>175.4</ele>
        <time>2016-05-05T09:21:45Z</time>
      </trkpt>
      <trkpt lat="47.31135" lon="2.8846">
        <ele>175.5</ele>
        <time>2016-05-05T09:21:48Z</time>
      </trkpt>
      <trkpt lat="47.31134" lon="2.88477">
        <ele>175.2</ele>
        <time>2016-05-05T09:21:52Z</time>
      </trkpt>
      <trkpt lat="47.31144" lon="2.8848">
        <ele>175.3</ele>
        <time>2016-05-05T09:21:56Z</time>
      </trkpt>
      <trkpt lat="47.31153" lon="2.88481">
        <ele>175.7</ele>
        <time>2016-05-05T09:22:01Z</time>
      </trkpt>
      <trkpt lat="47.31163" lon="2.88482">
        <ele>175.6</ele>
        <time>2016-05-05T09:22:08Z</time>
      </trkpt>
      <trkpt lat="47.31153" lon="2.8848">
        <ele>175.6</ele>
        <time>2016-05-05T09:24:03Z</time>
      </trkpt>
      <trkpt lat="47.31143" lon="2.88477">
        <ele>175.7</ele>
        <time>2016-05-05T09:24:07Z</time>
      </trkpt>
      <trkpt lat="47.31134" lon="2.88479">
        <ele>175.7</ele>
        <time>2016-05-05T09:24:10Z</time>
      </trkpt>
      <trkpt lat="47.3113" lon="2.88492">
        <ele>175.8</ele>
        <time>2016-05-05T09:24:13Z</time>
      </trkpt>
      <trkpt lat="47.3113" lon="2.88507">
        <ele>175.7</ele>
        <time>2016-05-05T09:24:16Z</time>
      </trkpt>
      <trkpt lat="47.3113" lon="2.88522">
        <ele>175.9</ele>
        <time>2016-05-05T09:24:19Z</time>
      </trkpt>
      <trkpt lat="47.31129" lon="2.88539">
        <ele>175.9</ele>
        <time>2016-05-05T09:24:23Z</time>
      </trkpt>
      <trkpt lat="47.31127" lon="2.88552">
        <ele>175.6</ele>
        <time>2016-05-05T09:24:26Z</time>
      </trkpt>
      <trkpt lat="47.31127" lon="2.88566">
        <ele>175.5</ele>
        <time>2016-05-05T09:24:29Z</time>
      </trkpt>
      <trkpt lat="47.31126" lon="2.88583">
        <ele>175.3</ele>
        <time>2016-05-05T09:24:33Z</time>
      </trkpt>
      <trkpt lat="47.31124" lon="2.886">
        <ele>175.4</ele>
        <time>2016-05-05T09:24:37Z</time>
      </trkpt>
      <trkpt lat="47.31124" lon="2.88614">
        <ele>175.3</ele>
        <time>2016-05-05T09:24:40Z</time>
      </trkpt>
      <trkpt lat="47.31122" lon="2.88631">
        <ele>175.4</ele>
        <time>2016-05-05T09:24:44Z</time>
      </trkpt>
      <trkpt lat="47.31121" lon="2.88645">
        <ele>175.4</ele>
        <time>2016-05-05T09:24:47Z</time>
      </trkpt>
      <trkpt lat="47.3112" lon="2.88659">
        <ele>175.1</ele>
        <time>2016-05-05T09:24:50Z</time>
      </trkpt>
      <trkpt lat="47.31119" lon="2.88675">
        <ele>175</ele>
        <time>2016-05-05T09:24:53Z</time>
      </trkpt>
      <trkpt lat="47.31118" lon="2.88691">
        <ele>174.8</ele>
        <time>2016-05-05T09:24:56Z</time>
      </trkpt>
      <trkpt lat="47.31117" lon="2.88707">
        <ele>174.8</ele>
        <time>2016-05-05T09:24:59Z</time>
      </trkpt>
      <trkpt lat="47.31115" lon="2.88723">
        <ele>174.9</ele>
        <time>2016-05-05T09:25:02Z</time>
      </trkpt>
      <trkpt lat="47.31114" lon="2.88739">
        <ele>175.1</ele>
        <time>2016-05-05T09:25:05Z</time>
      </trkpt>
      <trkpt lat="47.31112" lon="2.88753">
        <ele>175</ele>
        <time>2016-05-05T09:25:08Z</time>
      </trkpt>
      <trkpt lat="47.31111" lon="2.8877">
        <ele>175.2</ele>
        <time>2016-05-05T09:25:11Z</time>
      </trkpt>
      <trkpt lat="47.31109" lon="2.88786">
        <ele>175.1</ele>
        <time>2016-05-05T09:25:14Z</time>
      </trkpt>
      <trkpt lat="47.31107" lon="2.88803">
        <ele>175.3</ele>
        <time>2016-05-05T09:25:17Z</time>
      </trkpt>
      <trkpt lat="47.31104" lon="2.8882">
        <ele>175.5</ele>
        <time>2016-05-05T09:25:20Z</time>
      </trkpt>
      <trkpt lat="47.31102" lon="2.88836">
        <ele>175.5</ele>
        <time>2016-05-05T09:25:23Z</time>
      </trkpt>
      <trkpt lat="47.311" lon="2.88851">
        <ele>175.5</ele>
        <time>2016-05-05T09:25:26Z</time>
      </trkpt>
      <trkpt lat="47.31097" lon="2.88867">
        <ele>175.5</ele>
        <time>2016-05-05T09:25:29Z</time>
      </trkpt>
      <trkpt lat="47.31095" lon="2.88883">
        <ele>175.2</ele>
        <time>2016-05-05T09:25:32Z</time>
      </trkpt>
      <trkpt lat="47.31092" lon="2.88899">
        <ele>175.6</ele>
        <time>2016-05-05T09:25:35Z</time>
      </trkpt>
      <trkpt lat="47.3109" lon="2.88913">
        <ele>175.7</ele>
        <time>2016-05-05T09:25:38Z</time>
      </trkpt>
      <trkpt lat="47.31086" lon="2.88929">
        <ele>175.6</ele>
        <time>2016-05-05T09:25:41Z</time>
      </trkpt>
      <trkpt lat="47.31084" lon="2.88944">
        <ele>175.5</ele>
        <time>2016-05-05T09:25:44Z</time>
      </trkpt>
      <trkpt lat="47.31081" lon="2.88958">
        <ele>175.7</ele>
        <time>2016-05-05T09:25:47Z</time>
      </trkpt>
      <trkpt lat="47.31077" lon="2.88971">
        <ele>175.7</ele>
        <time>2016-05-05T09:25:50Z</time>
      </trkpt>
      <trkpt lat="47.31074" lon="2.88984">
        <ele>175.9</ele>
        <time>2016-05-05T09:25:53Z</time>
      </trkpt>
      <trkpt lat="47.31071" lon="2.89">
        <ele>176.1</ele>
        <time>2016-05-05T09:25:56Z</time>
      </trkpt>
      <trkpt lat="47.31067" lon="2.89016">
        <ele>176.1</ele>
        <time>2016-05-05T09:25:58Z</time>
      </trkpt>
      <trkpt lat="47.31061" lon="2.89027">
        <ele>176.1</ele>
        <time>2016-05-05T09:26:00Z</time>
      </trkpt>
      <trkpt lat="47.31055" lon="2.89038">
        <ele>176.1</ele>
        <time>2016-05-05T09:26:02Z</time>
      </trkpt>
      <trkpt lat="47.31048" lon="2.89048">
        <ele>176.1</ele>
        <time>2016-05-05T09:26:04Z</time>
      </trkpt>
      <trkpt lat="47.3104" lon="2.89062">
        <ele>176.3</ele>
        <time>2016-05-05T09:26:07Z</time>
      </trkpt>
      <trkpt lat="47.31032" lon="2.89077">
        <ele>176.4</ele>
        <time>2016-05-05T09:26:10Z</time>
      </trkpt>
      <trkpt lat="47.31023" lon="2.89092">
        <ele>176.3</ele>
        <time>2016-05-05T09:26:13Z</time>
      </trkpt>
      <trkpt lat="47.31016" lon="2.89107">
        <ele>176.4</ele>
        <time>2016-05-05T09:26:16Z</time>
      </trkpt>
      <trkpt lat="47.31009" lon="2.89122">
        <ele>176.3</ele>
        <time>2016-05-05T09:26:19Z</time>
      </trkpt>
      <trkpt lat="47.31002" lon="2.89138">
        <ele>176.3</ele>
        <time>2016-05-05T09:26:22Z</time>
      </trkpt>
      <trkpt lat="47.30997" lon="2.89149">
        <ele>176.2</ele>
        <time>2016-05-05T09:26:24Z</time>
      </trkpt>
      <trkpt lat="47.3099" lon="2.89165">
        <ele>176.2</ele>
        <time>2016-05-05T09:26:27Z</time>
      </trkpt>
      <trkpt lat="47.30985" lon="2.89176">
        <ele>176.1</ele>
        <time>2016-05-05T09:26:29Z</time>
      </trkpt>
      <trkpt lat="47.3098" lon="2.89188">
        <ele>176.1</ele>
        <time>2016-05-05T09:26:31Z</time>
      </trkpt>
      <trkpt lat="47.30975" lon="2.89199">
        <ele>176.2</ele>
        <time>2016-05-05T09:26:33Z</time>
      </trkpt>
      <trkpt lat="47.3097" lon="2.8921">
        <ele>176.2</ele>
        <time>2016-05-05T09:26:35Z</time>
      </trkpt>
      <trkpt lat="47.30964" lon="2.89226">
        <ele>175.9</ele>
        <time>2016-05-05T09:26:38Z</time>
      </trkpt>
      <trkpt lat="47.30957" lon="2.89243">
        <ele>175.8</ele>
        <time>2016-05-05T09:26:41Z</time>
      </trkpt>
      <trkpt lat="47.3095" lon="2.8926">
        <ele>175.7</ele>
        <time>2016-05-05T09:26:44Z</time>
      </trkpt>
      <trkpt lat="47.30944" lon="2.89271">
        <ele>175.8</ele>
        <time>2016-05-05T09:26:46Z</time>
      </trkpt>
      <trkpt lat="47.30939" lon="2.89283">
        <ele>175.9</ele>
        <time>2016-05-05T09:26:48Z</time>
      </trkpt>
      <trkpt lat="47.30934" lon="2.89295">
        <ele>175.9</ele>
        <time>2016-05-05T09:26:50Z</time>
      </trkpt>
      <trkpt lat="47.30929" lon="2.89308">
        <ele>176</ele>
        <time>2016-05-05T09:26:52Z</time>
      </trkpt>
      <trkpt lat="47.30925" lon="2.89323">
        <ele>176</ele>
        <time>2016-05-05T09:26:55Z</time>
      </trkpt>
      <trkpt lat="47.30919" lon="2.89334">
        <ele>175.9</ele>
        <time>2016-05-05T09:26:59Z</time>
      </trkpt>
      <trkpt lat="47.30912" lon="2.89348">
        <ele>175.8</ele>
        <time>2016-05-05T09:27:03Z</time>
      </trkpt>
      <trkpt lat="47.30902" lon="2.89361">
        <ele>175.8</ele>
        <time>2016-05-05T09:27:06Z</time>
      </trkpt>
      <trkpt lat="47.30894" lon="2.89372">
        <ele>175.9</ele>
        <time>2016-05-05T09:27:08Z</time>
      </trkpt>
      <trkpt lat="47.30887" lon="2.89382">
        <ele>176.1</ele>
        <time>2016-05-05T09:27:10Z</time>
      </trkpt>
      <trkpt lat="47.30879" lon="2.89393">
        <ele>176</ele>
        <time>2016-05-05T09:27:12Z</time>
      </trkpt>
      <trkpt lat="47.30871" lon="2.89406">
        <ele>176</ele>
        <time>2016-05-05T09:27:14Z</time>
      </trkpt>
      <trkpt lat="47.30862" lon="2.89417">
        <ele>176</ele>
        <time>2016-05-05T09:27:16Z</time>
      </trkpt>
      <trkpt lat="47.30854" lon="2.89427">
        <ele>176</ele>
        <time>2016-05-05T09:27:18Z</time>
      </trkpt>
      <trkpt lat="47.30847" lon="2.89436">
        <ele>176</ele>
        <time>2016-05-05T09:27:20Z</time>
      </trkpt>
      <trkpt lat="47.30839" lon="2.89445">
        <ele>176.1</ele>
        <time>2016-05-05T09:27:22Z</time>
      </trkpt>
      <trkpt lat="47.3083" lon="2.89456">
        <ele>176.1</ele>
        <time>2016-05-05T09:27:24Z</time>
      </trkpt>
      <trkpt lat="47.30822" lon="2.89465">
        <ele>176.1</ele>
        <time>2016-05-05T09:27:26Z</time>
      </trkpt>
      <trkpt lat="47.30815" lon="2.89474">
        <ele>175.8</ele>
        <time>2016-05-05T09:27:28Z</time>
      </trkpt>
      <trkpt lat="47.30808" lon="2.89483">
        <ele>175.8</ele>
        <time>2016-05-05T09:27:30Z</time>
      </trkpt>
      <trkpt lat="47.30802" lon="2.89493">
        <ele>175.9</ele>
        <time>2016-05-05T09:27:32Z</time>
      </trkpt>
      <trkpt lat="47.30793" lon="2.89508">
        <ele>175.8</ele>
        <time>2016-05-05T09:27:35Z</time>
      </trkpt>
      <trkpt lat="47.30786" lon="2.89523">
        <ele>175.7</ele>
        <time>2016-05-05T09:27:38Z</time>
      </trkpt>
      <trkpt lat="47.30781" lon="2.89534">
        <ele>175.7</ele>
        <time>2016-05-05T09:27:40Z</time>
      </trkpt>
      <trkpt lat="47.30776" lon="2.89546">
        <ele>175.7</ele>
        <time>2016-05-05T09:27:42Z</time>
      </trkpt>
      <trkpt lat="47.30771" lon="2.89556">
        <ele>175.8</ele>
        <time>2016-05-05T09:27:44Z</time>
      </trkpt>
      <trkpt lat="47.30766" lon="2.89568">
        <ele>175.7</ele>
        <time>2016-05-05T09:27:46Z</time>
      </trkpt>
      <trkpt lat="47.30761" lon="2.8958">
        <ele>175.6</ele>
        <time>2016-05-05T09:27:48Z</time>
      </trkpt>
      <trkpt lat="47.30757" lon="2.89596">
        <ele>175.6</ele>
        <time>2016-05-05T09:27:52Z</time>
      </trkpt>
      <trkpt lat="47.3075" lon="2.89614">
        <ele>175.6</ele>
        <time>2016-05-05T09:27:55Z</time>
      </trkpt>
      <trkpt lat="47.30745" lon="2.89629">
        <ele>175.7</ele>
        <time>2016-05-05T09:27:58Z</time>
      </trkpt>
      <trkpt lat="47.30741" lon="2.89642">
        <ele>175.8</ele>
        <time>2016-05-05T09:28:00Z</time>
      </trkpt>
      <trkpt lat="47.30736" lon="2.89659">
        <ele>175.8</ele>
        <time>2016-05-05T09:28:03Z</time>
      </trkpt>
      <trkpt lat="47.30733" lon="2.89673">
        <ele>175.8</ele>
        <time>2016-05-05T09:28:05Z</time>
      </trkpt>
      <trkpt lat="47.30728" lon="2.89687">
        <ele>175.9</ele>
        <time>2016-05-05T09:28:07Z</time>
      </trkpt>
      <trkpt lat="47.30725" lon="2.897">
        <ele>175.9</ele>
        <time>2016-05-05T09:28:09Z</time>
      </trkpt>
      <trkpt lat="47.3072" lon="2.89719">
        <ele>176</ele>
        <time>2016-05-05T09:28:12Z</time>
      </trkpt>
      <trkpt lat="47.30717" lon="2.89731">
        <ele>176</ele>
        <time>2016-05-05T09:28:14Z</time>
      </trkpt>
      <trkpt lat="47.30712" lon="2.89745">
        <ele>176</ele>
        <time>2016-05-05T09:28:16Z</time>
      </trkpt>
      <trkpt lat="47.30707" lon="2.89758">
        <ele>176</ele>
        <time>2016-05-05T09:28:18Z</time>
      </trkpt>
      <trkpt lat="47.30701" lon="2.89772">
        <ele>176</ele>
        <time>2016-05-05T09:28:20Z</time>
      </trkpt>
      <trkpt lat="47.30696" lon="2.89785">
        <ele>175.9</ele>
        <time>2016-05-05T09:28:22Z</time>
      </trkpt>
      <trkpt lat="47.3069" lon="2.89797">
        <ele>176</ele>
        <time>2016-05-05T09:28:24Z</time>
      </trkpt>
      <trkpt lat="47.30684" lon="2.89808">
        <ele>176.2</ele>
        <time>2016-05-05T09:28:26Z</time>
      </trkpt>
      <trkpt lat="47.30679" lon="2.8982">
        <ele>176.3</ele>
        <time>2016-05-05T09:28:28Z</time>
      </trkpt>
      <trkpt lat="47.30673" lon="2.89831">
        <ele>176.4</ele>
        <time>2016-05-05T09:28:30Z</time>
      </trkpt>
      <trkpt lat="47.30666" lon="2.89843">
        <ele>176.5</ele>
        <time>2016-05-05T09:28:33Z</time>
      </trkpt>
      <trkpt lat="47.3066" lon="2.89853">
        <ele>176.5</ele>
        <time>2016-05-05T09:28:35Z</time>
      </trkpt>
      <trkpt lat="47.30653" lon="2.89864">
        <ele>176.6</ele>
        <time>2016-05-05T09:28:37Z</time>
      </trkpt>
      <trkpt lat="47.30647" lon="2.89877">
        <ele>176.6</ele>
        <time>2016-05-05T09:28:39Z</time>
      </trkpt>
      <trkpt lat="47.30639" lon="2.89893">
        <ele>176.7</ele>
        <time>2016-05-05T09:28:42Z</time>
      </trkpt>
      <trkpt lat="47.30634" lon="2.89906">
        <ele>176.6</ele>
        <time>2016-05-05T09:28:44Z</time>
      </trkpt>
      <trkpt lat="47.30629" lon="2.89919">
        <ele>176.5</ele>
        <time>2016-05-05T09:28:46Z</time>
      </trkpt>
      <trkpt lat="47.30623" lon="2.89931">
        <ele>176.3</ele>
        <time>2016-05-05T09:28:48Z</time>
      </trkpt>
      <trkpt lat="47.30617" lon="2.89943">
        <ele>175.9</ele>
        <time>2016-05-05T09:28:50Z</time>
      </trkpt>
      <trkpt lat="47.30611" lon="2.89954">
        <ele>175.8</ele>
        <time>2016-05-05T09:28:52Z</time>
      </trkpt>
      <trkpt lat="47.30605" lon="2.89965">
        <ele>175.9</ele>
        <time>2016-05-05T09:28:54Z</time>
      </trkpt>
      <trkpt lat="47.30599" lon="2.89977">
        <ele>175.8</ele>
        <time>2016-05-05T09:28:56Z</time>
      </trkpt>
      <trkpt lat="47.30593" lon="2.89989">
        <ele>175.8</ele>
        <time>2016-05-05T09:28:58Z</time>
      </trkpt>
      <trkpt lat="47.30587" lon="2.90001">
        <ele>175.7</ele>
        <time>2016-05-05T09:29:00Z</time>
      </trkpt>
      <trkpt lat="47.30581" lon="2.90014">
        <ele>175.7</ele>
        <time>2016-05-05T09:29:02Z</time>
      </trkpt>
      <trkpt lat="47.30575" lon="2.90026">
        <ele>175.7</ele>
        <time>2016-05-05T09:29:04Z</time>
      </trkpt>
      <trkpt lat="47.30569" lon="2.90039">
        <ele>175.7</ele>
        <time>2016-05-05T09:29:06Z</time>
      </trkpt>
      <trkpt lat="47.30564" lon="2.90052">
        <ele>175.9</ele>
        <time>2016-05-05T09:29:08Z</time>
      </trkpt>
      <trkpt lat="47.30559" lon="2.90065">
        <ele>176</ele>
        <time>2016-05-05T09:29:10Z</time>
      </trkpt>
      <trkpt lat="47.30553" lon="2.90077">
        <ele>176</ele>
        <time>2016-05-05T09:29:12Z</time>
      </trkpt>
      <trkpt lat="47.30547" lon="2.9009">
        <ele>176</ele>
        <time>2016-05-05T09:29:14Z</time>
      </trkpt>
      <trkpt lat="47.30542" lon="2.90103">
        <ele>176.2</ele>
        <time>2016-05-05T09:29:16Z</time>
      </trkpt>
      <trkpt lat="47.30536" lon="2.90115">
        <ele>176.2</ele>
        <time>2016-05-05T09:29:18Z</time>
      </trkpt>
      <trkpt lat="47.3053" lon="2.90128">
        <ele>176.3</ele>
        <time>2016-05-05T09:29:20Z</time>
      </trkpt>
      <trkpt lat="47.30524" lon="2.9014">
        <ele>176.3</ele>
        <time>2016-05-05T09:29:22Z</time>
      </trkpt>
      <trkpt lat="47.30518" lon="2.90154">
        <ele>176.4</ele>
        <time>2016-05-05T09:29:24Z</time>
      </trkpt>
      <trkpt lat="47.30513" lon="2.90168">
        <ele>176.3</ele>
        <time>2016-05-05T09:29:26Z</time>
      </trkpt>
      <trkpt lat="47.30507" lon="2.90181">
        <ele>176.3</ele>
        <time>2016-05-05T09:29:28Z</time>
      </trkpt>
      <trkpt lat="47.30501" lon="2.90194">
        <ele>176.3</ele>
        <time>2016-05-05T09:29:30Z</time>
      </trkpt>
      <trkpt lat="47.30495" lon="2.90208">
        <ele>176.4</ele>
        <time>2016-05-05T09:29:32Z</time>
      </trkpt>
      <trkpt lat="47.30489" lon="2.90222">
        <ele>176.3</ele>
        <time>2016-05-05T09:29:34Z</time>
      </trkpt>
      <trkpt lat="47.30483" lon="2.90235">
        <ele>176.3</ele>
        <time>2016-05-05T09:29:36Z</time>
      </trkpt>
      <trkpt lat="47.30474" lon="2.90247">
        <ele>176.4</ele>
        <time>2016-05-05T09:29:38Z</time>
      </trkpt>
      <trkpt lat="47.30462" lon="2.90256">
        <ele>176.4</ele>
        <time>2016-05-05T09:29:40Z</time>
      </trkpt>
      <trkpt lat="47.3045" lon="2.90262">
        <ele>176.3</ele>
        <time>2016-05-05T09:29:42Z</time>
      </trkpt>
      <trkpt lat="47.30439" lon="2.90267">
        <ele>176.3</ele>
        <time>2016-05-05T09:29:44Z</time>
      </trkpt>
      <trkpt lat="47.30431" lon="2.90277">
        <ele>176.6</ele>
        <time>2016-05-05T09:29:46Z</time>
      </trkpt>
      <trkpt lat="47.30432" lon="2.90292">
        <ele>177.1</ele>
        <time>2016-05-05T09:29:49Z</time>
      </trkpt>
      <trkpt lat="47.30436" lon="2.90304">
        <ele>177.1</ele>
        <time>2016-05-05T09:29:51Z</time>
      </trkpt>
      <trkpt lat="47.30443" lon="2.90314">
        <ele>176.8</ele>
        <time>2016-05-05T09:29:53Z</time>
      </trkpt>
      <trkpt lat="47.30452" lon="2.90326">
        <ele>176.4</ele>
        <time>2016-05-05T09:29:55Z</time>
      </trkpt>
      <trkpt lat="47.30457" lon="2.90338">
        <ele>176</ele>
        <time>2016-05-05T09:29:57Z</time>
      </trkpt>
      <trkpt lat="47.30463" lon="2.90351">
        <ele>175.6</ele>
        <time>2016-05-05T09:29:59Z</time>
      </trkpt>
      <trkpt lat="47.30468" lon="2.90363">
        <ele>175.5</ele>
        <time>2016-05-05T09:30:01Z</time>
      </trkpt>
      <trkpt lat="47.30473" lon="2.90375">
        <ele>175.3</ele>
        <time>2016-05-05T09:30:03Z</time>
      </trkpt>
      <trkpt lat="47.30478" lon="2.90387">
        <ele>175.3</ele>
        <time>2016-05-05T09:30:05Z</time>
      </trkpt>
      <trkpt lat="47.30483" lon="2.904">
        <ele>175.1</ele>
        <time>2016-05-05T09:30:07Z</time>
      </trkpt>
      <trkpt lat="47.30488" lon="2.90412">
        <ele>174.9</ele>
        <time>2016-05-05T09:30:09Z</time>
      </trkpt>
      <trkpt lat="47.30493" lon="2.90423">
        <ele>175.2</ele>
        <time>2016-05-05T09:30:11Z</time>
      </trkpt>
      <trkpt lat="47.30499" lon="2.9044">
        <ele>175</ele>
        <time>2016-05-05T09:30:14Z</time>
      </trkpt>
      <trkpt lat="47.30506" lon="2.90457">
        <ele>175.1</ele>
        <time>2016-05-05T09:30:17Z</time>
      </trkpt>
      <trkpt lat="47.30513" lon="2.90473">
        <ele>175.2</ele>
        <time>2016-05-05T09:30:20Z</time>
      </trkpt>
      <trkpt lat="47.3052" lon="2.9049">
        <ele>175.1</ele>
        <time>2016-05-05T09:30:23Z</time>
      </trkpt>
      <trkpt lat="47.30527" lon="2.90506">
        <ele>175.3</ele>
        <time>2016-05-05T09:30:26Z</time>
      </trkpt>
      <trkpt lat="47.30533" lon="2.90522">
        <ele>175.4</ele>
        <time>2016-05-05T09:30:29Z</time>
      </trkpt>
      <trkpt lat="47.30539" lon="2.90537">
        <ele>175.5</ele>
        <time>2016-05-05T09:30:32Z</time>
      </trkpt>
      <trkpt lat="47.30544" lon="2.90551">
        <ele>175.8</ele>
        <time>2016-05-05T09:30:35Z</time>
      </trkpt>
      <trkpt lat="47.30549" lon="2.90565">
        <ele>175.8</ele>
        <time>2016-05-05T09:30:38Z</time>
      </trkpt>
      <trkpt lat="47.30555" lon="2.9058">
        <ele>175.8</ele>
        <time>2016-05-05T09:30:41Z</time>
      </trkpt>
      <trkpt lat="47.30561" lon="2.90596">
        <ele>175.8</ele>
        <time>2016-05-05T09:30:44Z</time>
      </trkpt>
      <trkpt lat="47.30568" lon="2.90611">
        <ele>175.8</ele>
        <time>2016-05-05T09:30:47Z</time>
      </trkpt>
      <trkpt lat="47.30575" lon="2.90627">
        <ele>175.6</ele>
        <time>2016-05-05T09:30:50Z</time>
      </trkpt>
      <trkpt lat="47.30582" lon="2.90641">
        <ele>175.5</ele>
        <time>2016-05-05T09:30:53Z</time>
      </trkpt>
      <trkpt lat="47.30587" lon="2.90655">
        <ele>175.6</ele>
        <time>2016-05-05T09:30:56Z</time>
      </trkpt>
      <trkpt lat="47.30593" lon="2.90668">
        <ele>175.7</ele>
        <time>2016-05-05T09:30:59Z</time>
      </trkpt>
      <trkpt lat="47.30599" lon="2.90683">
        <ele>175.7</ele>
        <time>2016-05-05T09:31:02Z</time>
      </trkpt>
      <trkpt lat="47.30605" lon="2.90697">
        <ele>175.6</ele>
        <time>2016-05-05T09:31:05Z</time>
      </trkpt>
      <trkpt lat="47.30611" lon="2.9071">
        <ele>175.7</ele>
        <time>2016-05-05T09:31:08Z</time>
      </trkpt>
      <trkpt lat="47.30617" lon="2.90725">
        <ele>175.9</ele>
        <time>2016-05-05T09:31:11Z</time>
      </trkpt>
      <trkpt lat="47.30623" lon="2.9074">
        <ele>175.7</ele>
        <time>2016-05-05T09:31:14Z</time>
      </trkpt>
      <trkpt lat="47.30629" lon="2.90754">
        <ele>175.9</ele>
        <time>2016-05-05T09:31:17Z</time>
      </trkpt>
      <trkpt lat="47.30635" lon="2.90767">
        <ele>176</ele>
        <time>2016-05-05T09:31:20Z</time>
      </trkpt>
      <trkpt lat="47.30641" lon="2.90781">
        <ele>176.2</ele>
        <time>2016-05-05T09:31:23Z</time>
      </trkpt>
      <trkpt lat="47.30646" lon="2.90795">
        <ele>176.3</ele>
        <time>2016-05-05T09:31:26Z</time>
      </trkpt>
      <trkpt lat="47.30653" lon="2.9081">
        <ele>176.4</ele>
        <time>2016-05-05T09:31:29Z</time>
      </trkpt>
      <trkpt lat="47.3066" lon="2.90826">
        <ele>176.2</ele>
        <time>2016-05-05T09:31:32Z</time>
      </trkpt>
      <trkpt lat="47.30664" lon="2.90838">
        <ele>176.2</ele>
        <time>2016-05-05T09:31:34Z</time>
      </trkpt>
      <trkpt lat="47.30668" lon="2.9085">
        <ele>176</ele>
        <time>2016-05-05T09:31:36Z</time>
      </trkpt>
      <trkpt lat="47.30673" lon="2.90862">
        <ele>175.9</ele>
        <time>2016-05-05T09:31:38Z</time>
      </trkpt>
      <trkpt lat="47.30678" lon="2.90874">
        <ele>175.8</ele>
        <time>2016-05-05T09:31:40Z</time>
      </trkpt>
      <trkpt lat="47.30684" lon="2.9089">
        <ele>175.5</ele>
        <time>2016-05-05T09:31:43Z</time>
      </trkpt>
      <trkpt lat="47.3069" lon="2.90904">
        <ele>175.4</ele>
        <time>2016-05-05T09:31:46Z</time>
      </trkpt>
      <trkpt lat="47.30696" lon="2.90914">
        <ele>175.5</ele>
        <time>2016-05-05T09:31:48Z</time>
      </trkpt>
      <trkpt lat="47.30703" lon="2.90927">
        <ele>175.6</ele>
        <time>2016-05-05T09:31:51Z</time>
      </trkpt>
      <trkpt lat="47.30711" lon="2.9094">
        <ele>175.7</ele>
        <time>2016-05-05T09:31:54Z</time>
      </trkpt>
      <trkpt lat="47.30719" lon="2.9095">
        <ele>175.8</ele>
        <time>2016-05-05T09:31:57Z</time>
      </trkpt>
      <trkpt lat="47.30719" lon="2.90966">
        <ele>175.9</ele>
        <time>2016-05-05T09:32:00Z</time>
      </trkpt>
      <trkpt lat="47.30717" lon="2.90983">
        <ele>176.1</ele>
        <time>2016-05-05T09:32:03Z</time>
      </trkpt>
      <trkpt lat="47.30715" lon="2.91003">
        <ele>176.2</ele>
        <time>2016-05-05T09:32:06Z</time>
      </trkpt>
      <trkpt lat="47.30714" lon="2.91017">
        <ele>176.2</ele>
        <time>2016-05-05T09:32:08Z</time>
      </trkpt>
      <trkpt lat="47.30713" lon="2.91031">
        <ele>176.2</ele>
        <time>2016-05-05T09:32:10Z</time>
      </trkpt>
      <trkpt lat="47.30709" lon="2.9105">
        <ele>176.1</ele>
        <time>2016-05-05T09:32:13Z</time>
      </trkpt>
      <trkpt lat="47.30704" lon="2.91067">
        <ele>176.1</ele>
        <time>2016-05-05T09:32:16Z</time>
      </trkpt>
      <trkpt lat="47.30699" lon="2.91079">
        <ele>176</ele>
        <time>2016-05-05T09:32:18Z</time>
      </trkpt>
      <trkpt lat="47.30694" lon="2.91092">
        <ele>176.1</ele>
        <time>2016-05-05T09:32:20Z</time>
      </trkpt>
      <trkpt lat="47.30688" lon="2.91103">
        <ele>176</ele>
        <time>2016-05-05T09:32:22Z</time>
      </trkpt>
      <trkpt lat="47.30683" lon="2.91114">
        <ele>176</ele>
        <time>2016-05-05T09:32:24Z</time>
      </trkpt>
      <trkpt lat="47.30677" lon="2.91124">
        <ele>176.1</ele>
        <time>2016-05-05T09:32:26Z</time>
      </trkpt>
      <trkpt lat="47.3067" lon="2.91134">
        <ele>176.2</ele>
        <time>2016-05-05T09:32:28Z</time>
      </trkpt>
      <trkpt lat="47.3066" lon="2.91147">
        <ele>176.3</ele>
        <time>2016-05-05T09:32:31Z</time>
      </trkpt>
      <trkpt lat="47.30653" lon="2.91155">
        <ele>176.4</ele>
        <time>2016-05-05T09:32:33Z</time>
      </trkpt>
      <trkpt lat="47.30645" lon="2.91163">
        <ele>176.5</ele>
        <time>2016-05-05T09:32:35Z</time>
      </trkpt>
      <trkpt lat="47.30637" lon="2.91171">
        <ele>176.5</ele>
        <time>2016-05-05T09:32:37Z</time>
      </trkpt>
      <trkpt lat="47.30627" lon="2.91181">
        <ele>176.6</ele>
        <time>2016-05-05T09:32:40Z</time>
      </trkpt>
      <trkpt lat="47.30616" lon="2.91189">
        <ele>176.8</ele>
        <time>2016-05-05T09:32:43Z</time>
      </trkpt>
      <trkpt lat="47.30606" lon="2.912">
        <ele>177</ele>
        <time>2016-05-05T09:32:46Z</time>
      </trkpt>
      <trkpt lat="47.30597" lon="2.91207">
        <ele>176.9</ele>
        <time>2016-05-05T09:32:49Z</time>
      </trkpt>
      <trkpt lat="47.30587" lon="2.91215">
        <ele>177.2</ele>
        <time>2016-05-05T09:32:52Z</time>
      </trkpt>
      <trkpt lat="47.30577" lon="2.91222">
        <ele>177.3</ele>
        <time>2016-05-05T09:32:55Z</time>
      </trkpt>
      <trkpt lat="47.30569" lon="2.91228">
        <ele>177.4</ele>
        <time>2016-05-05T09:32:57Z</time>
      </trkpt>
      <trkpt lat="47.30559" lon="2.91235">
        <ele>177.5</ele>
        <time>2016-05-05T09:32:59Z</time>
      </trkpt>
      <trkpt lat="47.30551" lon="2.9124">
        <ele>177.5</ele>
        <time>2016-05-05T09:33:01Z</time>
      </trkpt>
      <trkpt lat="47.30542" lon="2.91246">
        <ele>177.6</ele>
        <time>2016-05-05T09:33:03Z</time>
      </trkpt>
      <trkpt lat="47.30533" lon="2.91252">
        <ele>177.4</ele>
        <time>2016-05-05T09:33:05Z</time>
      </trkpt>
      <trkpt lat="47.30524" lon="2.91259">
        <ele>177.2</ele>
        <time>2016-05-05T09:33:07Z</time>
      </trkpt>
      <trkpt lat="47.30515" lon="2.91267">
        <ele>177</ele>
        <time>2016-05-05T09:33:09Z</time>
      </trkpt>
      <trkpt lat="47.30505" lon="2.91275">
        <ele>177.1</ele>
        <time>2016-05-05T09:33:11Z</time>
      </trkpt>
      <trkpt lat="47.30496" lon="2.91283">
        <ele>176.9</ele>
        <time>2016-05-05T09:33:13Z</time>
      </trkpt>
      <trkpt lat="47.30488" lon="2.91293">
        <ele>177.5</ele>
        <time>2016-05-05T09:33:15Z</time>
      </trkpt>
      <trkpt lat="47.30478" lon="2.91307">
        <ele>177.2</ele>
        <time>2016-05-05T09:33:18Z</time>
      </trkpt>
      <trkpt lat="47.30471" lon="2.91316">
        <ele>177.2</ele>
        <time>2016-05-05T09:33:20Z</time>
      </trkpt>
      <trkpt lat="47.30463" lon="2.91331">
        <ele>177.2</ele>
        <time>2016-05-05T09:33:23Z</time>
      </trkpt>
      <trkpt lat="47.30457" lon="2.91341">
        <ele>177.1</ele>
        <time>2016-05-05T09:33:25Z</time>
      </trkpt>
      <trkpt lat="47.30447" lon="2.91355">
        <ele>177.1</ele>
        <time>2016-05-05T09:33:28Z</time>
      </trkpt>
      <trkpt lat="47.3044" lon="2.91364">
        <ele>177</ele>
        <time>2016-05-05T09:33:30Z</time>
      </trkpt>
      <trkpt lat="47.30429" lon="2.91376">
        <ele>176.8</ele>
        <time>2016-05-05T09:33:33Z</time>
      </trkpt>
      <trkpt lat="47.30418" lon="2.91387">
        <ele>176.8</ele>
        <time>2016-05-05T09:33:36Z</time>
      </trkpt>
      <trkpt lat="47.30408" lon="2.91395">
        <ele>177.1</ele>
        <time>2016-05-05T09:33:39Z</time>
      </trkpt>
      <trkpt lat="47.30396" lon="2.91398">
        <ele>177.1</ele>
        <time>2016-05-05T09:33:42Z</time>
      </trkpt>
      <trkpt lat="47.30383" lon="2.91402">
        <ele>177.2</ele>
        <time>2016-05-05T09:33:45Z</time>
      </trkpt>
      <trkpt lat="47.30373" lon="2.91415">
        <ele>177.3</ele>
        <time>2016-05-05T09:33:48Z</time>
      </trkpt>
      <trkpt lat="47.30367" lon="2.91425">
        <ele>177.2</ele>
        <time>2016-05-05T09:33:50Z</time>
      </trkpt>
      <trkpt lat="47.3036" lon="2.91434">
        <ele>177.2</ele>
        <time>2016-05-05T09:33:52Z</time>
      </trkpt>
      <trkpt lat="47.30348" lon="2.91444">
        <ele>176.7</ele>
        <time>2016-05-05T09:33:55Z</time>
      </trkpt>
      <trkpt lat="47.30337" lon="2.91453">
        <ele>176.7</ele>
        <time>2016-05-05T09:33:58Z</time>
      </trkpt>
      <trkpt lat="47.30326" lon="2.91463">
        <ele>176.4</ele>
        <time>2016-05-05T09:34:01Z</time>
      </trkpt>
      <trkpt lat="47.30318" lon="2.91471">
        <ele>176.4</ele>
        <time>2016-05-05T09:34:03Z</time>
      </trkpt>
      <trkpt lat="47.30309" lon="2.91483">
        <ele>176.8</ele>
        <time>2016-05-05T09:34:06Z</time>
      </trkpt>
      <trkpt lat="47.30302" lon="2.91493">
        <ele>176.8</ele>
        <time>2016-05-05T09:34:08Z</time>
      </trkpt>
      <trkpt lat="47.30292" lon="2.91508">
        <ele>176.6</ele>
        <time>2016-05-05T09:34:11Z</time>
      </trkpt>
      <trkpt lat="47.30286" lon="2.91517">
        <ele>176.4</ele>
        <time>2016-05-05T09:34:13Z</time>
      </trkpt>
      <trkpt lat="47.30277" lon="2.91531">
        <ele>176.5</ele>
        <time>2016-05-05T09:34:16Z</time>
      </trkpt>
      <trkpt lat="47.30269" lon="2.91546">
        <ele>176.4</ele>
        <time>2016-05-05T09:34:19Z</time>
      </trkpt>
      <trkpt lat="47.30263" lon="2.91556">
        <ele>176.1</ele>
        <time>2016-05-05T09:34:21Z</time>
      </trkpt>
      <trkpt lat="47.30255" lon="2.91567">
        <ele>176.1</ele>
        <time>2016-05-05T09:34:23Z</time>
      </trkpt>
      <trkpt lat="47.30248" lon="2.91576">
        <ele>176.5</ele>
        <time>2016-05-05T09:34:25Z</time>
      </trkpt>
      <trkpt lat="47.30238" lon="2.9159">
        <ele>176.7</ele>
        <time>2016-05-05T09:34:28Z</time>
      </trkpt>
      <trkpt lat="47.30233" lon="2.916">
        <ele>176.6</ele>
        <time>2016-05-05T09:34:30Z</time>
      </trkpt>
      <trkpt lat="47.30227" lon="2.9161">
        <ele>176.6</ele>
        <time>2016-05-05T09:34:32Z</time>
      </trkpt>
      <trkpt lat="47.30218" lon="2.91625">
        <ele>176.8</ele>
        <time>2016-05-05T09:34:35Z</time>
      </trkpt>
      <trkpt lat="47.30209" lon="2.91639">
        <ele>177</ele>
        <time>2016-05-05T09:34:38Z</time>
      </trkpt>
      <trkpt lat="47.302" lon="2.91653">
        <ele>176.8</ele>
        <time>2016-05-05T09:34:41Z</time>
      </trkpt>
      <trkpt lat="47.30193" lon="2.91662">
        <ele>176.9</ele>
        <time>2016-05-05T09:34:43Z</time>
      </trkpt>
      <trkpt lat="47.30186" lon="2.9167">
        <ele>177</ele>
        <time>2016-05-05T09:34:45Z</time>
      </trkpt>
      <trkpt lat="47.30179" lon="2.91679">
        <ele>177</ele>
        <time>2016-05-05T09:34:47Z</time>
      </trkpt>
      <trkpt lat="47.30169" lon="2.9169">
        <ele>176.9</ele>
        <time>2016-05-05T09:34:50Z</time>
      </trkpt>
      <trkpt lat="47.3016" lon="2.917">
        <ele>177</ele>
        <time>2016-05-05T09:34:53Z</time>
      </trkpt>
      <trkpt lat="47.3015" lon="2.91712">
        <ele>177.1</ele>
        <time>2016-05-05T09:34:56Z</time>
      </trkpt>
      <trkpt lat="47.30142" lon="2.91722">
        <ele>177</ele>
        <time>2016-05-05T09:34:58Z</time>
      </trkpt>
      <trkpt lat="47.30133" lon="2.91731">
        <ele>177</ele>
        <time>2016-05-05T09:35:00Z</time>
      </trkpt>
      <trkpt lat="47.30124" lon="2.91742">
        <ele>176.9</ele>
        <time>2016-05-05T09:35:02Z</time>
      </trkpt>
      <trkpt lat="47.30116" lon="2.91751">
        <ele>176.9</ele>
        <time>2016-05-05T09:35:04Z</time>
      </trkpt>
      <trkpt lat="47.30108" lon="2.9176">
        <ele>177</ele>
        <time>2016-05-05T09:35:06Z</time>
      </trkpt>
      <trkpt lat="47.30101" lon="2.91769">
        <ele>177.1</ele>
        <time>2016-05-05T09:35:08Z</time>
      </trkpt>
      <trkpt lat="47.30093" lon="2.91777">
        <ele>177.4</ele>
        <time>2016-05-05T09:35:10Z</time>
      </trkpt>
      <trkpt lat="47.30085" lon="2.91785">
        <ele>177.6</ele>
        <time>2016-05-05T09:35:12Z</time>
      </trkpt>
      <trkpt lat="47.30078" lon="2.91793">
        <ele>177.5</ele>
        <time>2016-05-05T09:35:14Z</time>
      </trkpt>
      <trkpt lat="47.30071" lon="2.91802">
        <ele>177.4</ele>
        <time>2016-05-05T09:35:16Z</time>
      </trkpt>
      <trkpt lat="47.3006" lon="2.91815">
        <ele>177.5</ele>
        <time>2016-05-05T09:35:19Z</time>
      </trkpt>
      <trkpt lat="47.30053" lon="2.91823">
        <ele>177.6</ele>
        <time>2016-05-05T09:35:21Z</time>
      </trkpt>
      <trkpt lat="47.30044" lon="2.91834">
        <ele>177.7</ele>
        <time>2016-05-05T09:35:24Z</time>
      </trkpt>
      <trkpt lat="47.30034" lon="2.91844">
        <ele>177.8</ele>
        <time>2016-05-05T09:35:27Z</time>
      </trkpt>
      <trkpt lat="47.30027" lon="2.91852">
        <ele>177.5</ele>
        <time>2016-05-05T09:35:29Z</time>
      </trkpt>
      <trkpt lat="47.30018" lon="2.91861">
        <ele>177.7</ele>
        <time>2016-05-05T09:35:32Z</time>
      </trkpt>
      <trkpt lat="47.30008" lon="2.91873">
        <ele>177.9</ele>
        <time>2016-05-05T09:35:35Z</time>
      </trkpt>
      <trkpt lat="47.29997" lon="2.91883">
        <ele>177.6</ele>
        <time>2016-05-05T09:35:38Z</time>
      </trkpt>
      <trkpt lat="47.29987" lon="2.91892">
        <ele>177.6</ele>
        <time>2016-05-05T09:35:41Z</time>
      </trkpt>
      <trkpt lat="47.29976" lon="2.91902">
        <ele>177.5</ele>
        <time>2016-05-05T09:35:44Z</time>
      </trkpt>
      <trkpt lat="47.29967" lon="2.91911">
        <ele>177.5</ele>
        <time>2016-05-05T09:35:47Z</time>
      </trkpt>
      <trkpt lat="47.29955" lon="2.91923">
        <ele>177.6</ele>
        <time>2016-05-05T09:35:50Z</time>
      </trkpt>
      <trkpt lat="47.29946" lon="2.91932">
        <ele>177.6</ele>
        <time>2016-05-05T09:35:52Z</time>
      </trkpt>
      <trkpt lat="47.29937" lon="2.91942">
        <ele>177.6</ele>
        <time>2016-05-05T09:35:54Z</time>
      </trkpt>
      <trkpt lat="47.29929" lon="2.91949">
        <ele>177.6</ele>
        <time>2016-05-05T09:35:56Z</time>
      </trkpt>
      <trkpt lat="47.29918" lon="2.91958">
        <ele>177.5</ele>
        <time>2016-05-05T09:35:59Z</time>
      </trkpt>
      <trkpt lat="47.29907" lon="2.91968">
        <ele>177.5</ele>
        <time>2016-05-05T09:36:02Z</time>
      </trkpt>
      <trkpt lat="47.299" lon="2.91977">
        <ele>177.5</ele>
        <time>2016-05-05T09:36:04Z</time>
      </trkpt>
      <trkpt lat="47.2989" lon="2.91988">
        <ele>177.5</ele>
        <time>2016-05-05T09:36:07Z</time>
      </trkpt>
      <trkpt lat="47.29879" lon="2.91999">
        <ele>177.6</ele>
        <time>2016-05-05T09:36:10Z</time>
      </trkpt>
      <trkpt lat="47.29871" lon="2.92007">
        <ele>177.6</ele>
        <time>2016-05-05T09:36:12Z</time>
      </trkpt>
      <trkpt lat="47.29863" lon="2.92015">
        <ele>177.4</ele>
        <time>2016-05-05T09:36:14Z</time>
      </trkpt>
      <trkpt lat="47.29855" lon="2.92023">
        <ele>177.4</ele>
        <time>2016-05-05T09:36:16Z</time>
      </trkpt>
      <trkpt lat="47.29848" lon="2.9203">
        <ele>177.4</ele>
        <time>2016-05-05T09:36:18Z</time>
      </trkpt>
      <trkpt lat="47.29837" lon="2.92041">
        <ele>177.5</ele>
        <time>2016-05-05T09:36:21Z</time>
      </trkpt>
      <trkpt lat="47.29829" lon="2.92052">
        <ele>177.4</ele>
        <time>2016-05-05T09:36:24Z</time>
      </trkpt>
      <trkpt lat="47.2982" lon="2.92064">
        <ele>177.5</ele>
        <time>2016-05-05T09:36:27Z</time>
      </trkpt>
      <trkpt lat="47.29813" lon="2.92075">
        <ele>177.6</ele>
        <time>2016-05-05T09:36:29Z</time>
      </trkpt>
      <trkpt lat="47.29805" lon="2.92089">
        <ele>177.4</ele>
        <time>2016-05-05T09:36:32Z</time>
      </trkpt>
      <trkpt lat="47.29798" lon="2.92099">
        <ele>177.2</ele>
        <time>2016-05-05T09:36:34Z</time>
      </trkpt>
      <trkpt lat="47.2979" lon="2.92111">
        <ele>177.3</ele>
        <time>2016-05-05T09:36:37Z</time>
      </trkpt>
      <trkpt lat="47.29781" lon="2.92122">
        <ele>177.7</ele>
        <time>2016-05-05T09:36:40Z</time>
      </trkpt>
      <trkpt lat="47.29772" lon="2.92134">
        <ele>177.8</ele>
        <time>2016-05-05T09:36:43Z</time>
      </trkpt>
      <trkpt lat="47.29766" lon="2.92147">
        <ele>178</ele>
        <time>2016-05-05T09:36:46Z</time>
      </trkpt>
      <trkpt lat="47.29758" lon="2.92161">
        <ele>177.9</ele>
        <time>2016-05-05T09:36:49Z</time>
      </trkpt>
      <trkpt lat="47.2975" lon="2.92176">
        <ele>177.9</ele>
        <time>2016-05-05T09:36:52Z</time>
      </trkpt>
      <trkpt lat="47.29744" lon="2.92186">
        <ele>177.7</ele>
        <time>2016-05-05T09:36:54Z</time>
      </trkpt>
      <trkpt lat="47.29735" lon="2.92201">
        <ele>177.5</ele>
        <time>2016-05-05T09:36:57Z</time>
      </trkpt>
      <trkpt lat="47.29728" lon="2.92217">
        <ele>177.3</ele>
        <time>2016-05-05T09:37:00Z</time>
      </trkpt>
      <trkpt lat="47.29721" lon="2.9223">
        <ele>177.5</ele>
        <time>2016-05-05T09:37:03Z</time>
      </trkpt>
      <trkpt lat="47.29716" lon="2.92241">
        <ele>177.6</ele>
        <time>2016-05-05T09:37:06Z</time>
      </trkpt>
      <trkpt lat="47.29718" lon="2.92228">
        <ele>178.2</ele>
        <time>2016-05-05T09:37:53Z</time>
      </trkpt>
      <trkpt lat="47.24446" lon="2.97421">
        <ele>172.9</ele>
        <time>2016-05-05T10:55:43Z</time>
      </trkpt>
      <trkpt lat="47.24437" lon="2.97419">
        <ele>165</ele>
        <time>2016-05-05T10:55:52Z</time>
      </trkpt>
      <trkpt lat="47.24415" lon="2.97412">
        <ele>163</ele>
        <time>2016-05-05T10:56:01Z</time>
      </trkpt>
      <trkpt lat="47.24404" lon="2.97402">
        <ele>163.3</ele>
        <time>2016-05-05T10:56:06Z</time>
      </trkpt>
      <trkpt lat="47.24395" lon="2.97396">
        <ele>162.8</ele>
        <time>2016-05-05T10:56:28Z</time>
      </trkpt>
      <trkpt lat="47.24388" lon="2.97405">
        <ele>162.3</ele>
        <time>2016-05-05T10:56:47Z</time>
      </trkpt>
      <trkpt lat="47.2439" lon="2.97419">
        <ele>162.1</ele>
        <time>2016-05-05T10:56:52Z</time>
      </trkpt>
      <trkpt lat="47.24397" lon="2.9743">
        <ele>162.4</ele>
        <time>2016-05-05T10:56:56Z</time>
      </trkpt>
      <trkpt lat="47.24395" lon="2.97445">
        <ele>164.5</ele>
        <time>2016-05-05T10:57:09Z</time>
      </trkpt>
      <trkpt lat="47.24386" lon="2.97443">
        <ele>164.5</ele>
        <time>2016-05-05T10:57:14Z</time>
      </trkpt>
      <trkpt lat="47.24377" lon="2.9744">
        <ele>164.5</ele>
        <time>2016-05-05T10:57:18Z</time>
      </trkpt>
      <trkpt lat="47.24366" lon="2.97435">
        <ele>164.4</ele>
        <time>2016-05-05T10:57:22Z</time>
      </trkpt>
      <trkpt lat="47.24356" lon="2.97432">
        <ele>164.3</ele>
        <time>2016-05-05T10:57:25Z</time>
      </trkpt>
      <trkpt lat="47.24347" lon="2.97429">
        <ele>164.2</ele>
        <time>2016-05-05T10:57:28Z</time>
      </trkpt>
      <trkpt lat="47.24337" lon="2.97425">
        <ele>164.1</ele>
        <time>2016-05-05T10:57:31Z</time>
      </trkpt>
      <trkpt lat="47.24327" lon="2.97421">
        <ele>164</ele>
        <time>2016-05-05T10:57:34Z</time>
      </trkpt>
      <trkpt lat="47.24316" lon="2.97417">
        <ele>163.9</ele>
        <time>2016-05-05T10:57:37Z</time>
      </trkpt>
      <trkpt lat="47.24306" lon="2.97412">
        <ele>163.8</ele>
        <time>2016-05-05T10:57:40Z</time>
      </trkpt>
      <trkpt lat="47.24294" lon="2.97408">
        <ele>163.8</ele>
        <time>2016-05-05T10:57:43Z</time>
      </trkpt>
      <trkpt lat="47.24283" lon="2.97404">
        <ele>163.8</ele>
        <time>2016-05-05T10:57:46Z</time>
      </trkpt>
      <trkpt lat="47.24272" lon="2.97399">
        <ele>163.7</ele>
        <time>2016-05-05T10:57:49Z</time>
      </trkpt>
      <trkpt lat="47.2426" lon="2.97394">
        <ele>163.5</ele>
        <time>2016-05-05T10:57:52Z</time>
      </trkpt>
      <trkpt lat="47.24248" lon="2.97389">
        <ele>163.7</ele>
        <time>2016-05-05T10:57:55Z</time>
      </trkpt>
      <trkpt lat="47.24236" lon="2.97385">
        <ele>163.5</ele>
        <time>2016-05-05T10:57:58Z</time>
      </trkpt>
      <trkpt lat="47.24224" lon="2.97381">
        <ele>163.4</ele>
        <time>2016-05-05T10:58:01Z</time>
      </trkpt>
      <trkpt lat="47.24213" lon="2.97376">
        <ele>163.4</ele>
        <time>2016-05-05T10:58:04Z</time>
      </trkpt>
      <trkpt lat="47.24201" lon="2.97371">
        <ele>163.4</ele>
        <time>2016-05-05T10:58:07Z</time>
      </trkpt>
      <trkpt lat="47.24189" lon="2.97367">
        <ele>163.5</ele>
        <time>2016-05-05T10:58:10Z</time>
      </trkpt>
      <trkpt lat="47.24177" lon="2.97362">
        <ele>163.5</ele>
        <time>2016-05-05T10:58:13Z</time>
      </trkpt>
      <trkpt lat="47.24165" lon="2.97358">
        <ele>163.4</ele>
        <time>2016-05-05T10:58:16Z</time>
      </trkpt>
      <trkpt lat="47.24152" lon="2.97353">
        <ele>163.4</ele>
        <time>2016-05-05T10:58:19Z</time>
      </trkpt>
      <trkpt lat="47.24144" lon="2.97349">
        <ele>163.3</ele>
        <time>2016-05-05T10:58:21Z</time>
      </trkpt>
      <trkpt lat="47.24135" lon="2.97346">
        <ele>163.2</ele>
        <time>2016-05-05T10:58:23Z</time>
      </trkpt>
      <trkpt lat="47.24122" lon="2.97341">
        <ele>163.1</ele>
        <time>2016-05-05T10:58:26Z</time>
      </trkpt>
      <trkpt lat="47.24109" lon="2.97336">
        <ele>163.1</ele>
        <time>2016-05-05T10:58:29Z</time>
      </trkpt>
      <trkpt lat="47.24096" lon="2.97331">
        <ele>162.9</ele>
        <time>2016-05-05T10:58:32Z</time>
      </trkpt>
      <trkpt lat="47.24084" lon="2.97326">
        <ele>163</ele>
        <time>2016-05-05T10:58:35Z</time>
      </trkpt>
      <trkpt lat="47.24075" lon="2.97323">
        <ele>163</ele>
        <time>2016-05-05T10:58:37Z</time>
      </trkpt>
      <trkpt lat="47.24066" lon="2.97319">
        <ele>163.1</ele>
        <time>2016-05-05T10:58:39Z</time>
      </trkpt>
      <trkpt lat="47.24057" lon="2.97316">
        <ele>163.2</ele>
        <time>2016-05-05T10:58:41Z</time>
      </trkpt>
      <trkpt lat="47.24048" lon="2.97312">
        <ele>163.3</ele>
        <time>2016-05-05T10:58:43Z</time>
      </trkpt>
      <trkpt lat="47.24039" lon="2.97308">
        <ele>163.5</ele>
        <time>2016-05-05T10:58:45Z</time>
      </trkpt>
      <trkpt lat="47.2403" lon="2.97305">
        <ele>163.5</ele>
        <time>2016-05-05T10:58:47Z</time>
      </trkpt>
      <trkpt lat="47.24021" lon="2.97301">
        <ele>163.6</ele>
        <time>2016-05-05T10:58:49Z</time>
      </trkpt>
      <trkpt lat="47.24012" lon="2.97297">
        <ele>163.5</ele>
        <time>2016-05-05T10:58:51Z</time>
      </trkpt>
      <trkpt lat="47.24003" lon="2.97294">
        <ele>163.4</ele>
        <time>2016-05-05T10:58:53Z</time>
      </trkpt>
      <trkpt lat="47.23994" lon="2.97291">
        <ele>163.3</ele>
        <time>2016-05-05T10:58:55Z</time>
      </trkpt>
      <trkpt lat="47.23985" lon="2.9729">
        <ele>163.3</ele>
        <time>2016-05-05T10:58:57Z</time>
      </trkpt>
      <trkpt lat="47.23976" lon="2.97289">
        <ele>163.4</ele>
        <time>2016-05-05T10:58:59Z</time>
      </trkpt>
      <trkpt lat="47.23966" lon="2.97289">
        <ele>163.4</ele>
        <time>2016-05-05T10:59:01Z</time>
      </trkpt>
      <trkpt lat="47.23956" lon="2.97289">
        <ele>163.4</ele>
        <time>2016-05-05T10:59:03Z</time>
      </trkpt>
      <trkpt lat="47.23947" lon="2.97289">
        <ele>163.3</ele>
        <time>2016-05-05T10:59:05Z</time>
      </trkpt>
      <trkpt lat="47.23938" lon="2.97289">
        <ele>163.3</ele>
        <time>2016-05-05T10:59:07Z</time>
      </trkpt>
      <trkpt lat="47.23928" lon="2.9729">
        <ele>163.2</ele>
        <time>2016-05-05T10:59:09Z</time>
      </trkpt>
      <trkpt lat="47.23919" lon="2.9729">
        <ele>163.1</ele>
        <time>2016-05-05T10:59:11Z</time>
      </trkpt>
      <trkpt lat="47.23909" lon="2.9729">
        <ele>163</ele>
        <time>2016-05-05T10:59:13Z</time>
      </trkpt>
      <trkpt lat="47.239" lon="2.9729">
        <ele>162.9</ele>
        <time>2016-05-05T10:59:15Z</time>
      </trkpt>
      <trkpt lat="47.2389" lon="2.97291">
        <ele>163</ele>
        <time>2016-05-05T10:59:17Z</time>
      </trkpt>
      <trkpt lat="47.23881" lon="2.97291">
        <ele>163</ele>
        <time>2016-05-05T10:59:19Z</time>
      </trkpt>
      <trkpt lat="47.23872" lon="2.97291">
        <ele>163</ele>
        <time>2016-05-05T10:59:21Z</time>
      </trkpt>
      <trkpt lat="47.23863" lon="2.97292">
        <ele>163</ele>
        <time>2016-05-05T10:59:23Z</time>
      </trkpt>
      <trkpt lat="47.23854" lon="2.97292">
        <ele>163</ele>
        <time>2016-05-05T10:59:25Z</time>
      </trkpt>
      <trkpt lat="47.23844" lon="2.97293">
        <ele>162.9</ele>
        <time>2016-05-05T10:59:27Z</time>
      </trkpt>
      <trkpt lat="47.23835" lon="2.97293">
        <ele>162.9</ele>
        <time>2016-05-05T10:59:29Z</time>
      </trkpt>
      <trkpt lat="47.23825" lon="2.97293">
        <ele>162.6</ele>
        <time>2016-05-05T10:59:31Z</time>
      </trkpt>
      <trkpt lat="47.23816" lon="2.97293">
        <ele>162.4</ele>
        <time>2016-05-05T10:59:33Z</time>
      </trkpt>
      <trkpt lat="47.23807" lon="2.97294">
        <ele>162.4</ele>
        <time>2016-05-05T10:59:35Z</time>
      </trkpt>
      <trkpt lat="47.23796" lon="2.97294">
        <ele>162.1</ele>
        <time>2016-05-05T10:59:37Z</time>
      </trkpt>
      <trkpt lat="47.23785" lon="2.97295">
        <ele>162.2</ele>
        <time>2016-05-05T10:59:39Z</time>
      </trkpt>
      <trkpt lat="47.23772" lon="2.97296">
        <ele>162.1</ele>
        <time>2016-05-05T10:59:41Z</time>
      </trkpt>
      <trkpt lat="47.23758" lon="2.97297">
        <ele>162.1</ele>
        <time>2016-05-05T10:59:43Z</time>
      </trkpt>
      <trkpt lat="47.23743" lon="2.97298">
        <ele>162</ele>
        <time>2016-05-05T10:59:45Z</time>
      </trkpt>
      <trkpt lat="47.2373" lon="2.97299">
        <ele>162</ele>
        <time>2016-05-05T10:59:47Z</time>
      </trkpt>
      <trkpt lat="47.23717" lon="2.97299">
        <ele>161.9</ele>
        <time>2016-05-05T10:59:49Z</time>
      </trkpt>
      <trkpt lat="47.23704" lon="2.973">
        <ele>161.8</ele>
        <time>2016-05-05T10:59:51Z</time>
      </trkpt>
      <trkpt lat="47.23692" lon="2.97299">
        <ele>161.9</ele>
        <time>2016-05-05T10:59:53Z</time>
      </trkpt>
      <trkpt lat="47.2368" lon="2.97299">
        <ele>162</ele>
        <time>2016-05-05T10:59:55Z</time>
      </trkpt>
      <trkpt lat="47.23668" lon="2.973">
        <ele>162.1</ele>
        <time>2016-05-05T10:59:57Z</time>
      </trkpt>
      <trkpt lat="47.23655" lon="2.97301">
        <ele>162.1</ele>
        <time>2016-05-05T10:59:59Z</time>
      </trkpt>
      <trkpt lat="47.23643" lon="2.97301">
        <ele>162.1</ele>
        <time>2016-05-05T11:00:01Z</time>
      </trkpt>
      <trkpt lat="47.23631" lon="2.97302">
        <ele>162</ele>
        <time>2016-05-05T11:00:03Z</time>
      </trkpt>
      <trkpt lat="47.2362" lon="2.97303">
        <ele>162</ele>
        <time>2016-05-05T11:00:05Z</time>
      </trkpt>
      <trkpt lat="47.23609" lon="2.97303">
        <ele>162.1</ele>
        <time>2016-05-05T11:00:07Z</time>
      </trkpt>
      <trkpt lat="47.23598" lon="2.97304">
        <ele>162.3</ele>
        <time>2016-05-05T11:00:09Z</time>
      </trkpt>
      <trkpt lat="47.23587" lon="2.97304">
        <ele>162.2</ele>
        <time>2016-05-05T11:00:11Z</time>
      </trkpt>
      <trkpt lat="47.23576" lon="2.97305">
        <ele>162.2</ele>
        <time>2016-05-05T11:00:13Z</time>
      </trkpt>
      <trkpt lat="47.23564" lon="2.97305">
        <ele>162.1</ele>
        <time>2016-05-05T11:00:15Z</time>
      </trkpt>
      <trkpt lat="47.23551" lon="2.97306">
        <ele>162.1</ele>
        <time>2016-05-05T11:00:17Z</time>
      </trkpt>
      <trkpt lat="47.23537" lon="2.97306">
        <ele>161.9</ele>
        <time>2016-05-05T11:00:19Z</time>
      </trkpt>
      <trkpt lat="47.23523" lon="2.97307">
        <ele>161.9</ele>
        <time>2016-05-05T11:00:21Z</time>
      </trkpt>
      <trkpt lat="47.23509" lon="2.97307">
        <ele>161.9</ele>
        <time>2016-05-05T11:00:23Z</time>
      </trkpt>
      <trkpt lat="47.23495" lon="2.97307">
        <ele>162</ele>
        <time>2016-05-05T11:00:25Z</time>
      </trkpt>
      <trkpt lat="47.23481" lon="2.97308">
        <ele>162.1</ele>
        <time>2016-05-05T11:00:27Z</time>
      </trkpt>
      <trkpt lat="47.23467" lon="2.97309">
        <ele>162.1</ele>
        <time>2016-05-05T11:00:29Z</time>
      </trkpt>
      <trkpt lat="47.23453" lon="2.9731">
        <ele>162</ele>
        <time>2016-05-05T11:00:31Z</time>
      </trkpt>
      <trkpt lat="47.23439" lon="2.97311">
        <ele>161.9</ele>
        <time>2016-05-05T11:00:33Z</time>
      </trkpt>
      <trkpt lat="47.23426" lon="2.97311">
        <ele>161.8</ele>
        <time>2016-05-05T11:00:35Z</time>
      </trkpt>
      <trkpt lat="47.23412" lon="2.97312">
        <ele>161.6</ele>
        <time>2016-05-05T11:00:37Z</time>
      </trkpt>
      <trkpt lat="47.23399" lon="2.97314">
        <ele>161.5</ele>
        <time>2016-05-05T11:00:39Z</time>
      </trkpt>
      <trkpt lat="47.23385" lon="2.97314">
        <ele>161.4</ele>
        <time>2016-05-05T11:00:41Z</time>
      </trkpt>
      <trkpt lat="47.23371" lon="2.97315">
        <ele>161.2</ele>
        <time>2016-05-05T11:00:43Z</time>
      </trkpt>
      <trkpt lat="47.23357" lon="2.97317">
        <ele>161.1</ele>
        <time>2016-05-05T11:00:45Z</time>
      </trkpt>
      <trkpt lat="47.23343" lon="2.97318">
        <ele>161.1</ele>
        <time>2016-05-05T11:00:47Z</time>
      </trkpt>
      <trkpt lat="47.2333" lon="2.9732">
        <ele>160.9</ele>
        <time>2016-05-05T11:00:49Z</time>
      </trkpt>
      <trkpt lat="47.23316" lon="2.97322">
        <ele>160.7</ele>
        <time>2016-05-05T11:00:51Z</time>
      </trkpt>
      <trkpt lat="47.23303" lon="2.97325">
        <ele>160.9</ele>
        <time>2016-05-05T11:00:53Z</time>
      </trkpt>
      <trkpt lat="47.2329" lon="2.97328">
        <ele>160.7</ele>
        <time>2016-05-05T11:00:55Z</time>
      </trkpt>
      <trkpt lat="47.23277" lon="2.97332">
        <ele>160.7</ele>
        <time>2016-05-05T11:00:57Z</time>
      </trkpt>
      <trkpt lat="47.23265" lon="2.97336">
        <ele>160.4</ele>
        <time>2016-05-05T11:00:59Z</time>
      </trkpt>
      <trkpt lat="47.23253" lon="2.9734">
        <ele>160.7</ele>
        <time>2016-05-05T11:01:01Z</time>
      </trkpt>
      <trkpt lat="47.23242" lon="2.97344">
        <ele>160.9</ele>
        <time>2016-05-05T11:01:03Z</time>
      </trkpt>
      <trkpt lat="47.23231" lon="2.97348">
        <ele>161</ele>
        <time>2016-05-05T11:01:05Z</time>
      </trkpt>
      <trkpt lat="47.2322" lon="2.97351">
        <ele>160.8</ele>
        <time>2016-05-05T11:01:07Z</time>
      </trkpt>
      <trkpt lat="47.23209" lon="2.97354">
        <ele>160.9</ele>
        <time>2016-05-05T11:01:09Z</time>
      </trkpt>
      <trkpt lat="47.23198" lon="2.97358">
        <ele>161</ele>
        <time>2016-05-05T11:01:11Z</time>
      </trkpt>
      <trkpt lat="47.23188" lon="2.97361">
        <ele>160.9</ele>
        <time>2016-05-05T11:01:13Z</time>
      </trkpt>
      <trkpt lat="47.23179" lon="2.97364">
        <ele>161.1</ele>
        <time>2016-05-05T11:01:15Z</time>
      </trkpt>
      <trkpt lat="47.2317" lon="2.97367">
        <ele>161.2</ele>
        <time>2016-05-05T11:01:17Z</time>
      </trkpt>
      <trkpt lat="47.2316" lon="2.97371">
        <ele>161.3</ele>
        <time>2016-05-05T11:01:19Z</time>
      </trkpt>
      <trkpt lat="47.2315" lon="2.97375">
        <ele>161.3</ele>
        <time>2016-05-05T11:01:21Z</time>
      </trkpt>
      <trkpt lat="47.2314" lon="2.97378">
        <ele>161.3</ele>
        <time>2016-05-05T11:01:23Z</time>
      </trkpt>
      <trkpt lat="47.2313" lon="2.97381">
        <ele>161.3</ele>
        <time>2016-05-05T11:01:25Z</time>
      </trkpt>
      <trkpt lat="47.2312" lon="2.97385">
        <ele>161</ele>
        <time>2016-05-05T11:01:27Z</time>
      </trkpt>
      <trkpt lat="47.23111" lon="2.97389">
        <ele>160.8</ele>
        <time>2016-05-05T11:01:29Z</time>
      </trkpt>
      <trkpt lat="47.23101" lon="2.97391">
        <ele>160.7</ele>
        <time>2016-05-05T11:01:31Z</time>
      </trkpt>
      <trkpt lat="47.23091" lon="2.97395">
        <ele>160.6</ele>
        <time>2016-05-05T11:01:33Z</time>
      </trkpt>
      <trkpt lat="47.23081" lon="2.97398">
        <ele>160.6</ele>
        <time>2016-05-05T11:01:35Z</time>
      </trkpt>
      <trkpt lat="47.23071" lon="2.97401">
        <ele>160.6</ele>
        <time>2016-05-05T11:01:37Z</time>
      </trkpt>
      <trkpt lat="47.23061" lon="2.97405">
        <ele>160.6</ele>
        <time>2016-05-05T11:01:39Z</time>
      </trkpt>
      <trkpt lat="47.23051" lon="2.97408">
        <ele>160.6</ele>
        <time>2016-05-05T11:01:41Z</time>
      </trkpt>
      <trkpt lat="47.2304" lon="2.97412">
        <ele>160.6</ele>
        <time>2016-05-05T11:01:43Z</time>
      </trkpt>
      <trkpt lat="47.2303" lon="2.97415">
        <ele>160.5</ele>
        <time>2016-05-05T11:01:45Z</time>
      </trkpt>
      <trkpt lat="47.23019" lon="2.97417">
        <ele>160.5</ele>
        <time>2016-05-05T11:01:47Z</time>
      </trkpt>
      <trkpt lat="47.23009" lon="2.97418">
        <ele>160.5</ele>
        <time>2016-05-05T11:01:49Z</time>
      </trkpt>
      <trkpt lat="47.22999" lon="2.97418">
        <ele>160.5</ele>
        <time>2016-05-05T11:01:51Z</time>
      </trkpt>
      <trkpt lat="47.2299" lon="2.97418">
        <ele>160.4</ele>
        <time>2016-05-05T11:01:53Z</time>
      </trkpt>
      <trkpt lat="47.2298" lon="2.97416">
        <ele>160.4</ele>
        <time>2016-05-05T11:01:55Z</time>
      </trkpt>
      <trkpt lat="47.22971" lon="2.97414">
        <ele>160.3</ele>
        <time>2016-05-05T11:01:57Z</time>
      </trkpt>
      <trkpt lat="47.22961" lon="2.97412">
        <ele>160.3</ele>
        <time>2016-05-05T11:01:59Z</time>
      </trkpt>
      <trkpt lat="47.22951" lon="2.97409">
        <ele>160.2</ele>
        <time>2016-05-05T11:02:01Z</time>
      </trkpt>
      <trkpt lat="47.22941" lon="2.97407">
        <ele>160.2</ele>
        <time>2016-05-05T11:02:03Z</time>
      </trkpt>
      <trkpt lat="47.22931" lon="2.97404">
        <ele>160.2</ele>
        <time>2016-05-05T11:02:05Z</time>
      </trkpt>
      <trkpt lat="47.22921" lon="2.97403">
        <ele>160.2</ele>
        <time>2016-05-05T11:02:07Z</time>
      </trkpt>
      <trkpt lat="47.22911" lon="2.97401">
        <ele>160.1</ele>
        <time>2016-05-05T11:02:09Z</time>
      </trkpt>
      <trkpt lat="47.22901" lon="2.97399">
        <ele>160.1</ele>
        <time>2016-05-05T11:02:11Z</time>
      </trkpt>
      <trkpt lat="47.22891" lon="2.97398">
        <ele>160.2</ele>
        <time>2016-05-05T11:02:13Z</time>
      </trkpt>
      <trkpt lat="47.2288" lon="2.97396">
        <ele>160.1</ele>
        <time>2016-05-05T11:02:15Z</time>
      </trkpt>
      <trkpt lat="47.2287" lon="2.97394">
        <ele>160</ele>
        <time>2016-05-05T11:02:17Z</time>
      </trkpt>
      <trkpt lat="47.2286" lon="2.97392">
        <ele>159.9</ele>
        <time>2016-05-05T11:02:19Z</time>
      </trkpt>
      <trkpt lat="47.22849" lon="2.9739">
        <ele>159.8</ele>
        <time>2016-05-05T11:02:21Z</time>
      </trkpt>
      <trkpt lat="47.22839" lon="2.97388">
        <ele>159.7</ele>
        <time>2016-05-05T11:02:23Z</time>
      </trkpt>
      <trkpt lat="47.22829" lon="2.97386">
        <ele>159.7</ele>
        <time>2016-05-05T11:02:25Z</time>
      </trkpt>
      <trkpt lat="47.22819" lon="2.97384">
        <ele>159.8</ele>
        <time>2016-05-05T11:02:27Z</time>
      </trkpt>
      <trkpt lat="47.22808" lon="2.97382">
        <ele>159.7</ele>
        <time>2016-05-05T11:02:29Z</time>
      </trkpt>
      <trkpt lat="47.22798" lon="2.97381">
        <ele>159.5</ele>
        <time>2016-05-05T11:02:31Z</time>
      </trkpt>
      <trkpt lat="47.22787" lon="2.97381">
        <ele>159.4</ele>
        <time>2016-05-05T11:02:33Z</time>
      </trkpt>
      <trkpt lat="47.22776" lon="2.97381">
        <ele>159.2</ele>
        <time>2016-05-05T11:02:35Z</time>
      </trkpt>
      <trkpt lat="47.22765" lon="2.97382">
        <ele>159.2</ele>
        <time>2016-05-05T11:02:37Z</time>
      </trkpt>
      <trkpt lat="47.22754" lon="2.97384">
        <ele>159.2</ele>
        <time>2016-05-05T11:02:39Z</time>
      </trkpt>
      <trkpt lat="47.22744" lon="2.97386">
        <ele>159.2</ele>
        <time>2016-05-05T11:02:41Z</time>
      </trkpt>
      <trkpt lat="47.22734" lon="2.97389">
        <ele>159.2</ele>
        <time>2016-05-05T11:02:43Z</time>
      </trkpt>
      <trkpt lat="47.22723" lon="2.97393">
        <ele>159.1</ele>
        <time>2016-05-05T11:02:45Z</time>
      </trkpt>
      <trkpt lat="47.22712" lon="2.97397">
        <ele>159.2</ele>
        <time>2016-05-05T11:02:47Z</time>
      </trkpt>
      <trkpt lat="47.22701" lon="2.974">
        <ele>159.1</ele>
        <time>2016-05-05T11:02:49Z</time>
      </trkpt>
      <trkpt lat="47.22691" lon="2.97403">
        <ele>158.9</ele>
        <time>2016-05-05T11:02:51Z</time>
      </trkpt>
      <trkpt lat="47.2268" lon="2.97406">
        <ele>158.9</ele>
        <time>2016-05-05T11:02:53Z</time>
      </trkpt>
      <trkpt lat="47.22669" lon="2.97408">
        <ele>159.1</ele>
        <time>2016-05-05T11:02:55Z</time>
      </trkpt>
      <trkpt lat="47.22658" lon="2.97409">
        <ele>159.1</ele>
        <time>2016-05-05T11:02:57Z</time>
      </trkpt>
      <trkpt lat="47.22647" lon="2.97409">
        <ele>159.2</ele>
        <time>2016-05-05T11:02:59Z</time>
      </trkpt>
      <trkpt lat="47.22636" lon="2.9741">
        <ele>159.1</ele>
        <time>2016-05-05T11:03:01Z</time>
      </trkpt>
      <trkpt lat="47.22625" lon="2.9741">
        <ele>159.1</ele>
        <time>2016-05-05T11:03:03Z</time>
      </trkpt>
      <trkpt lat="47.22614" lon="2.97411">
        <ele>158.9</ele>
        <time>2016-05-05T11:03:05Z</time>
      </trkpt>
      <trkpt lat="47.22604" lon="2.97411">
        <ele>158.9</ele>
        <time>2016-05-05T11:03:07Z</time>
      </trkpt>
      <trkpt lat="47.22594" lon="2.97411">
        <ele>158.7</ele>
        <time>2016-05-05T11:03:09Z</time>
      </trkpt>
      <trkpt lat="47.22584" lon="2.9741">
        <ele>158.8</ele>
        <time>2016-05-05T11:03:11Z</time>
      </trkpt>
      <trkpt lat="47.22574" lon="2.9741">
        <ele>158.9</ele>
        <time>2016-05-05T11:03:13Z</time>
      </trkpt>
      <trkpt lat="47.22564" lon="2.9741">
        <ele>158.9</ele>
        <time>2016-05-05T11:03:15Z</time>
      </trkpt>
      <trkpt lat="47.22554" lon="2.9741">
        <ele>158.9</ele>
        <time>2016-05-05T11:03:17Z</time>
      </trkpt>
      <trkpt lat="47.22543" lon="2.97409">
        <ele>158.8</ele>
        <time>2016-05-05T11:03:19Z</time>
      </trkpt>
      <trkpt lat="47.22532" lon="2.97409">
        <ele>158.6</ele>
        <time>2016-05-05T11:03:21Z</time>
      </trkpt>
      <trkpt lat="47.2252" lon="2.97409">
        <ele>158.5</ele>
        <time>2016-05-05T11:03:23Z</time>
      </trkpt>
      <trkpt lat="47.22509" lon="2.97409">
        <ele>158.4</ele>
        <time>2016-05-05T11:03:25Z</time>
      </trkpt>
      <trkpt lat="47.22497" lon="2.9741">
        <ele>158.3</ele>
        <time>2016-05-05T11:03:27Z</time>
      </trkpt>
      <trkpt lat="47.22487" lon="2.97413">
        <ele>158.3</ele>
        <time>2016-05-05T11:03:29Z</time>
      </trkpt>
      <trkpt lat="47.22476" lon="2.97416">
        <ele>158.4</ele>
        <time>2016-05-05T11:03:31Z</time>
      </trkpt>
      <trkpt lat="47.22466" lon="2.97419">
        <ele>158.4</ele>
        <time>2016-05-05T11:03:33Z</time>
      </trkpt>
      <trkpt lat="47.22454" lon="2.97422">
        <ele>158.3</ele>
        <time>2016-05-05T11:03:35Z</time>
      </trkpt>
      <trkpt lat="47.22443" lon="2.97424">
        <ele>158.3</ele>
        <time>2016-05-05T11:03:37Z</time>
      </trkpt>
      <trkpt lat="47.22433" lon="2.97427">
        <ele>158.3</ele>
        <time>2016-05-05T11:03:39Z</time>
      </trkpt>
      <trkpt lat="47.22422" lon="2.9743">
        <ele>158.1</ele>
        <time>2016-05-05T11:03:41Z</time>
      </trkpt>
      <trkpt lat="47.22411" lon="2.97433">
        <ele>158.1</ele>
        <time>2016-05-05T11:03:43Z</time>
      </trkpt>
      <trkpt lat="47.22401" lon="2.97435">
        <ele>158.1</ele>
        <time>2016-05-05T11:03:45Z</time>
      </trkpt>
      <trkpt lat="47.2239" lon="2.97438">
        <ele>158</ele>
        <time>2016-05-05T11:03:47Z</time>
      </trkpt>
      <trkpt lat="47.2238" lon="2.9744">
        <ele>157.9</ele>
        <time>2016-05-05T11:03:49Z</time>
      </trkpt>
      <trkpt lat="47.2237" lon="2.97442">
        <ele>157.9</ele>
        <time>2016-05-05T11:03:51Z</time>
      </trkpt>
      <trkpt lat="47.2236" lon="2.97444">
        <ele>158</ele>
        <time>2016-05-05T11:03:53Z</time>
      </trkpt>
      <trkpt lat="47.2235" lon="2.97446">
        <ele>158</ele>
        <time>2016-05-05T11:03:55Z</time>
      </trkpt>
      <trkpt lat="47.2234" lon="2.97449">
        <ele>158</ele>
        <time>2016-05-05T11:03:57Z</time>
      </trkpt>
      <trkpt lat="47.2233" lon="2.97451">
        <ele>158</ele>
        <time>2016-05-05T11:03:59Z</time>
      </trkpt>
      <trkpt lat="47.2232" lon="2.97453">
        <ele>158.1</ele>
        <time>2016-05-05T11:04:01Z</time>
      </trkpt>
      <trkpt lat="47.2231" lon="2.97455">
        <ele>158.1</ele>
        <time>2016-05-05T11:04:03Z</time>
      </trkpt>
      <trkpt lat="47.223" lon="2.97457">
        <ele>158.1</ele>
        <time>2016-05-05T11:04:05Z</time>
      </trkpt>
      <trkpt lat="47.2229" lon="2.97459">
        <ele>158.1</ele>
        <time>2016-05-05T11:04:07Z</time>
      </trkpt>
      <trkpt lat="47.2228" lon="2.9746">
        <ele>158.1</ele>
        <time>2016-05-05T11:04:09Z</time>
      </trkpt>
      <trkpt lat="47.22269" lon="2.97462">
        <ele>158.2</ele>
        <time>2016-05-05T11:04:11Z</time>
      </trkpt>
      <trkpt lat="47.22259" lon="2.97463">
        <ele>158.2</ele>
        <time>2016-05-05T11:04:13Z</time>
      </trkpt>
      <trkpt lat="47.22248" lon="2.97465">
        <ele>158.1</ele>
        <time>2016-05-05T11:04:15Z</time>
      </trkpt>
      <trkpt lat="47.22238" lon="2.97466">
        <ele>158</ele>
        <time>2016-05-05T11:04:17Z</time>
      </trkpt>
      <trkpt lat="47.22228" lon="2.97467">
        <ele>157.9</ele>
        <time>2016-05-05T11:04:19Z</time>
      </trkpt>
      <trkpt lat="47.22217" lon="2.97469">
        <ele>157.7</ele>
        <time>2016-05-05T11:04:21Z</time>
      </trkpt>
      <trkpt lat="47.22207" lon="2.9747">
        <ele>157.8</ele>
        <time>2016-05-05T11:04:23Z</time>
      </trkpt>
      <trkpt lat="47.22196" lon="2.97472">
        <ele>157.9</ele>
        <time>2016-05-05T11:04:25Z</time>
      </trkpt>
      <trkpt lat="47.22186" lon="2.97473">
        <ele>158</ele>
        <time>2016-05-05T11:04:27Z</time>
      </trkpt>
      <trkpt lat="47.22176" lon="2.97474">
        <ele>158</ele>
        <time>2016-05-05T11:04:29Z</time>
      </trkpt>
      <trkpt lat="47.22166" lon="2.97477">
        <ele>157.9</ele>
        <time>2016-05-05T11:04:31Z</time>
      </trkpt>
      <trkpt lat="47.22155" lon="2.97479">
        <ele>157.8</ele>
        <time>2016-05-05T11:04:33Z</time>
      </trkpt>
      <trkpt lat="47.22146" lon="2.97481">
        <ele>157.7</ele>
        <time>2016-05-05T11:04:35Z</time>
      </trkpt>
      <trkpt lat="47.22136" lon="2.97482">
        <ele>157.7</ele>
        <time>2016-05-05T11:04:37Z</time>
      </trkpt>
      <trkpt lat="47.22127" lon="2.97483">
        <ele>157.6</ele>
        <time>2016-05-05T11:04:39Z</time>
      </trkpt>
      <trkpt lat="47.22117" lon="2.97484">
        <ele>157.6</ele>
        <time>2016-05-05T11:04:41Z</time>
      </trkpt>
      <trkpt lat="47.22108" lon="2.97486">
        <ele>157.6</ele>
        <time>2016-05-05T11:04:43Z</time>
      </trkpt>
      <trkpt lat="47.22095" lon="2.97488">
        <ele>157.4</ele>
        <time>2016-05-05T11:04:46Z</time>
      </trkpt>
      <trkpt lat="47.22084" lon="2.9749">
        <ele>157.3</ele>
        <time>2016-05-05T11:04:49Z</time>
      </trkpt>
      <trkpt lat="47.22071" lon="2.97491">
        <ele>157.3</ele>
        <time>2016-05-05T11:04:52Z</time>
      </trkpt>
      <trkpt lat="47.22062" lon="2.97492">
        <ele>157.4</ele>
        <time>2016-05-05T11:04:54Z</time>
      </trkpt>
      <trkpt lat="47.22051" lon="2.97493">
        <ele>157.3</ele>
        <time>2016-05-05T11:04:56Z</time>
      </trkpt>
      <trkpt lat="47.22041" lon="2.97494">
        <ele>157.2</ele>
        <time>2016-05-05T11:04:58Z</time>
      </trkpt>
      <trkpt lat="47.22031" lon="2.97494">
        <ele>157.3</ele>
        <time>2016-05-05T11:05:00Z</time>
      </trkpt>
      <trkpt lat="47.22021" lon="2.97496">
        <ele>157</ele>
        <time>2016-05-05T11:05:02Z</time>
      </trkpt>
      <trkpt lat="47.22011" lon="2.97497">
        <ele>157.1</ele>
        <time>2016-05-05T11:05:04Z</time>
      </trkpt>
      <trkpt lat="47.22002" lon="2.97498">
        <ele>157.1</ele>
        <time>2016-05-05T11:05:06Z</time>
      </trkpt>
      <trkpt lat="47.21992" lon="2.97499">
        <ele>157.1</ele>
        <time>2016-05-05T11:05:08Z</time>
      </trkpt>
      <trkpt lat="47.21982" lon="2.97499">
        <ele>157.1</ele>
        <time>2016-05-05T11:05:10Z</time>
      </trkpt>
      <trkpt lat="47.21972" lon="2.975">
        <ele>157</ele>
        <time>2016-05-05T11:05:12Z</time>
      </trkpt>
      <trkpt lat="47.21962" lon="2.97501">
        <ele>157.1</ele>
        <time>2016-05-05T11:05:14Z</time>
      </trkpt>
      <trkpt lat="47.21952" lon="2.97503">
        <ele>157.1</ele>
        <time>2016-05-05T11:05:16Z</time>
      </trkpt>
      <trkpt lat="47.21942" lon="2.97505">
        <ele>157.2</ele>
        <time>2016-05-05T11:05:18Z</time>
      </trkpt>
      <trkpt lat="47.21931" lon="2.97508">
        <ele>157</ele>
        <time>2016-05-05T11:05:20Z</time>
      </trkpt>
      <trkpt lat="47.21922" lon="2.97513">
        <ele>157.2</ele>
        <time>2016-05-05T11:05:22Z</time>
      </trkpt>
      <trkpt lat="47.21913" lon="2.97521">
        <ele>157.3</ele>
        <time>2016-05-05T11:05:24Z</time>
      </trkpt>
      <trkpt lat="47.21904" lon="2.97529">
        <ele>157.5</ele>
        <time>2016-05-05T11:05:26Z</time>
      </trkpt>
      <trkpt lat="47.21896" lon="2.97537">
        <ele>157.6</ele>
        <time>2016-05-05T11:05:28Z</time>
      </trkpt>
      <trkpt lat="47.21887" lon="2.97546">
        <ele>157.5</ele>
        <time>2016-05-05T11:05:30Z</time>
      </trkpt>
      <trkpt lat="47.21879" lon="2.97554">
        <ele>157.5</ele>
        <time>2016-05-05T11:05:32Z</time>
      </trkpt>
      <trkpt lat="47.2187" lon="2.97563">
        <ele>157.5</ele>
        <time>2016-05-05T11:05:34Z</time>
      </trkpt>
      <trkpt lat="47.21861" lon="2.97571">
        <ele>157.6</ele>
        <time>2016-05-05T11:05:36Z</time>
      </trkpt>
      <trkpt lat="47.21853" lon="2.97579">
        <ele>157.7</ele>
        <time>2016-05-05T11:05:38Z</time>
      </trkpt>
      <trkpt lat="47.21845" lon="2.97587">
        <ele>157.8</ele>
        <time>2016-05-05T11:05:40Z</time>
      </trkpt>
      <trkpt lat="47.21836" lon="2.97595">
        <ele>157.8</ele>
        <time>2016-05-05T11:05:42Z</time>
      </trkpt>
      <trkpt lat="47.21828" lon="2.97603">
        <ele>157.8</ele>
        <time>2016-05-05T11:05:44Z</time>
      </trkpt>
      <trkpt lat="47.21819" lon="2.97611">
        <ele>157.8</ele>
        <time>2016-05-05T11:05:46Z</time>
      </trkpt>
      <trkpt lat="47.21811" lon="2.97619">
        <ele>157.6</ele>
        <time>2016-05-05T11:05:48Z</time>
      </trkpt>
      <trkpt lat="47.21802" lon="2.97628">
        <ele>157.5</ele>
        <time>2016-05-05T11:05:50Z</time>
      </trkpt>
      <trkpt lat="47.21794" lon="2.97635">
        <ele>157.6</ele>
        <time>2016-05-05T11:05:52Z</time>
      </trkpt>
      <trkpt lat="47.21785" lon="2.97643">
        <ele>157.5</ele>
        <time>2016-05-05T11:05:54Z</time>
      </trkpt>
      <trkpt lat="47.21776" lon="2.97651">
        <ele>157.6</ele>
        <time>2016-05-05T11:05:56Z</time>
      </trkpt>
      <trkpt lat="47.21767" lon="2.97659">
        <ele>157.7</ele>
        <time>2016-05-05T11:05:58Z</time>
      </trkpt>
      <trkpt lat="47.21758" lon="2.97667">
        <ele>157.7</ele>
        <time>2016-05-05T11:06:00Z</time>
      </trkpt>
      <trkpt lat="47.21749" lon="2.97675">
        <ele>157.7</ele>
        <time>2016-05-05T11:06:02Z</time>
      </trkpt>
      <trkpt lat="47.2174" lon="2.97684">
        <ele>157.5</ele>
        <time>2016-05-05T11:06:04Z</time>
      </trkpt>
      <trkpt lat="47.21731" lon="2.97692">
        <ele>157.4</ele>
        <time>2016-05-05T11:06:06Z</time>
      </trkpt>
      <trkpt lat="47.21722" lon="2.977">
        <ele>157.3</ele>
        <time>2016-05-05T11:06:08Z</time>
      </trkpt>
      <trkpt lat="47.21714" lon="2.97708">
        <ele>157.5</ele>
        <time>2016-05-05T11:06:10Z</time>
      </trkpt>
      <trkpt lat="47.21705" lon="2.97715">
        <ele>157.6</ele>
        <time>2016-05-05T11:06:12Z</time>
      </trkpt>
      <trkpt lat="47.21696" lon="2.97723">
        <ele>157.6</ele>
        <time>2016-05-05T11:06:14Z</time>
      </trkpt>
      <trkpt lat="47.21688" lon="2.9773">
        <ele>157.7</ele>
        <time>2016-05-05T11:06:16Z</time>
      </trkpt>
      <trkpt lat="47.21679" lon="2.97738">
        <ele>157.6</ele>
        <time>2016-05-05T11:06:18Z</time>
      </trkpt>
      <trkpt lat="47.2167" lon="2.97747">
        <ele>157.7</ele>
        <time>2016-05-05T11:06:20Z</time>
      </trkpt>
      <trkpt lat="47.21662" lon="2.97755">
        <ele>157.7</ele>
        <time>2016-05-05T11:06:22Z</time>
      </trkpt>
      <trkpt lat="47.21652" lon="2.97762">
        <ele>157.7</ele>
        <time>2016-05-05T11:06:24Z</time>
      </trkpt>
      <trkpt lat="47.21643" lon="2.97771">
        <ele>157.9</ele>
        <time>2016-05-05T11:06:26Z</time>
      </trkpt>
      <trkpt lat="47.21634" lon="2.97779">
        <ele>157.9</ele>
        <time>2016-05-05T11:06:28Z</time>
      </trkpt>
      <trkpt lat="47.21625" lon="2.97787">
        <ele>157.9</ele>
        <time>2016-05-05T11:06:30Z</time>
      </trkpt>
      <trkpt lat="47.21617" lon="2.97795">
        <ele>157.8</ele>
        <time>2016-05-05T11:06:32Z</time>
      </trkpt>
      <trkpt lat="47.21609" lon="2.97802">
        <ele>157.8</ele>
        <time>2016-05-05T11:06:34Z</time>
      </trkpt>
      <trkpt lat="47.21601" lon="2.9781">
        <ele>157.3</ele>
        <time>2016-05-05T11:06:36Z</time>
      </trkpt>
      <trkpt lat="47.21593" lon="2.97818">
        <ele>157.2</ele>
        <time>2016-05-05T11:06:38Z</time>
      </trkpt>
      <trkpt lat="47.21584" lon="2.97825">
        <ele>157</ele>
        <time>2016-05-05T11:06:40Z</time>
      </trkpt>
      <trkpt lat="47.21576" lon="2.97833">
        <ele>156.8</ele>
        <time>2016-05-05T11:06:42Z</time>
      </trkpt>
      <trkpt lat="47.21568" lon="2.9784">
        <ele>157</ele>
        <time>2016-05-05T11:06:44Z</time>
      </trkpt>
      <trkpt lat="47.2156" lon="2.97848">
        <ele>157</ele>
        <time>2016-05-05T11:06:46Z</time>
      </trkpt>
      <trkpt lat="47.21552" lon="2.97856">
        <ele>157.2</ele>
        <time>2016-05-05T11:06:48Z</time>
      </trkpt>
      <trkpt lat="47.21545" lon="2.97865">
        <ele>157.2</ele>
        <time>2016-05-05T11:06:50Z</time>
      </trkpt>
      <trkpt lat="47.21538" lon="2.97874">
        <ele>157.4</ele>
        <time>2016-05-05T11:06:52Z</time>
      </trkpt>
      <trkpt lat="47.21531" lon="2.97883">
        <ele>157.5</ele>
        <time>2016-05-05T11:06:54Z</time>
      </trkpt>
      <trkpt lat="47.21523" lon="2.97892">
        <ele>157.5</ele>
        <time>2016-05-05T11:06:56Z</time>
      </trkpt>
      <trkpt lat="47.21516" lon="2.97902">
        <ele>157.6</ele>
        <time>2016-05-05T11:06:58Z</time>
      </trkpt>
      <trkpt lat="47.21509" lon="2.97911">
        <ele>157.7</ele>
        <time>2016-05-05T11:07:00Z</time>
      </trkpt>
      <trkpt lat="47.21501" lon="2.9792">
        <ele>157.7</ele>
        <time>2016-05-05T11:07:02Z</time>
      </trkpt>
      <trkpt lat="47.21493" lon="2.9793">
        <ele>157.7</ele>
        <time>2016-05-05T11:07:04Z</time>
      </trkpt>
      <trkpt lat="47.21484" lon="2.97939">
        <ele>157.8</ele>
        <time>2016-05-05T11:07:06Z</time>
      </trkpt>
      <trkpt lat="47.21476" lon="2.97949">
        <ele>157.9</ele>
        <time>2016-05-05T11:07:08Z</time>
      </trkpt>
      <trkpt lat="47.21467" lon="2.97959">
        <ele>158</ele>
        <time>2016-05-05T11:07:10Z</time>
      </trkpt>
      <trkpt lat="47.21458" lon="2.97969">
        <ele>158.2</ele>
        <time>2016-05-05T11:07:12Z</time>
      </trkpt>
      <trkpt lat="47.21451" lon="2.97978">
        <ele>158.4</ele>
        <time>2016-05-05T11:07:14Z</time>
      </trkpt>
      <trkpt lat="47.21443" lon="2.97988">
        <ele>158.4</ele>
        <time>2016-05-05T11:07:16Z</time>
      </trkpt>
      <trkpt lat="47.21435" lon="2.97997">
        <ele>158.3</ele>
        <time>2016-05-05T11:07:18Z</time>
      </trkpt>
      <trkpt lat="47.21427" lon="2.98006">
        <ele>158.1</ele>
        <time>2016-05-05T11:07:20Z</time>
      </trkpt>
      <trkpt lat="47.2142" lon="2.98015">
        <ele>158</ele>
        <time>2016-05-05T11:07:22Z</time>
      </trkpt>
      <trkpt lat="47.21412" lon="2.98024">
        <ele>158.1</ele>
        <time>2016-05-05T11:07:24Z</time>
      </trkpt>
      <trkpt lat="47.21404" lon="2.98033">
        <ele>158</ele>
        <time>2016-05-05T11:07:26Z</time>
      </trkpt>
      <trkpt lat="47.21396" lon="2.98041">
        <ele>158.1</ele>
        <time>2016-05-05T11:07:28Z</time>
      </trkpt>
      <trkpt lat="47.21388" lon="2.9805">
        <ele>158.1</ele>
        <time>2016-05-05T11:07:30Z</time>
      </trkpt>
      <trkpt lat="47.2138" lon="2.98059">
        <ele>158.3</ele>
        <time>2016-05-05T11:07:32Z</time>
      </trkpt>
      <trkpt lat="47.21373" lon="2.98068">
        <ele>158.3</ele>
        <time>2016-05-05T11:07:34Z</time>
      </trkpt>
      <trkpt lat="47.21365" lon="2.98076">
        <ele>158.4</ele>
        <time>2016-05-05T11:07:36Z</time>
      </trkpt>
      <trkpt lat="47.21357" lon="2.98085">
        <ele>158.3</ele>
        <time>2016-05-05T11:07:38Z</time>
      </trkpt>
      <trkpt lat="47.2135" lon="2.98093">
        <ele>158.2</ele>
        <time>2016-05-05T11:07:40Z</time>
      </trkpt>
      <trkpt lat="47.21342" lon="2.98102">
        <ele>158.1</ele>
        <time>2016-05-05T11:07:42Z</time>
      </trkpt>
      <trkpt lat="47.21334" lon="2.98111">
        <ele>158.1</ele>
        <time>2016-05-05T11:07:44Z</time>
      </trkpt>
      <trkpt lat="47.21326" lon="2.9812">
        <ele>158</ele>
        <time>2016-05-05T11:07:46Z</time>
      </trkpt>
      <trkpt lat="47.21318" lon="2.98129">
        <ele>158.2</ele>
        <time>2016-05-05T11:07:48Z</time>
      </trkpt>
      <trkpt lat="47.2131" lon="2.98138">
        <ele>158.3</ele>
        <time>2016-05-05T11:07:50Z</time>
      </trkpt>
      <trkpt lat="47.21303" lon="2.98147">
        <ele>158.3</ele>
        <time>2016-05-05T11:07:52Z</time>
      </trkpt>
      <trkpt lat="47.21295" lon="2.98156">
        <ele>158.4</ele>
        <time>2016-05-05T11:07:54Z</time>
      </trkpt>
      <trkpt lat="47.21287" lon="2.98165">
        <ele>158.4</ele>
        <time>2016-05-05T11:07:56Z</time>
      </trkpt>
      <trkpt lat="47.2128" lon="2.98174">
        <ele>158.5</ele>
        <time>2016-05-05T11:07:58Z</time>
      </trkpt>
      <trkpt lat="47.21272" lon="2.98182">
        <ele>158.4</ele>
        <time>2016-05-05T11:08:00Z</time>
      </trkpt>
      <trkpt lat="47.21264" lon="2.98191">
        <ele>158.4</ele>
        <time>2016-05-05T11:08:02Z</time>
      </trkpt>
      <trkpt lat="47.21257" lon="2.982">
        <ele>158.2</ele>
        <time>2016-05-05T11:08:04Z</time>
      </trkpt>
      <trkpt lat="47.21249" lon="2.98209">
        <ele>158.2</ele>
        <time>2016-05-05T11:08:06Z</time>
      </trkpt>
      <trkpt lat="47.21241" lon="2.98217">
        <ele>158.2</ele>
        <time>2016-05-05T11:08:08Z</time>
      </trkpt>
      <trkpt lat="47.21234" lon="2.98226">
        <ele>158.3</ele>
        <time>2016-05-05T11:08:10Z</time>
      </trkpt>
      <trkpt lat="47.21226" lon="2.98235">
        <ele>158.3</ele>
        <time>2016-05-05T11:08:12Z</time>
      </trkpt>
      <trkpt lat="47.21219" lon="2.98244">
        <ele>158.3</ele>
        <time>2016-05-05T11:08:14Z</time>
      </trkpt>
      <trkpt lat="47.21211" lon="2.98252">
        <ele>158.4</ele>
        <time>2016-05-05T11:08:16Z</time>
      </trkpt>
      <trkpt lat="47.21204" lon="2.98261">
        <ele>158.4</ele>
        <time>2016-05-05T11:08:18Z</time>
      </trkpt>
      <trkpt lat="47.21196" lon="2.98268">
        <ele>158.5</ele>
        <time>2016-05-05T11:08:20Z</time>
      </trkpt>
      <trkpt lat="47.21189" lon="2.98276">
        <ele>158.6</ele>
        <time>2016-05-05T11:08:22Z</time>
      </trkpt>
      <trkpt lat="47.21178" lon="2.98287">
        <ele>158.4</ele>
        <time>2016-05-05T11:08:25Z</time>
      </trkpt>
      <trkpt lat="47.21167" lon="2.98298">
        <ele>158.2</ele>
        <time>2016-05-05T11:08:28Z</time>
      </trkpt>
      <trkpt lat="47.2116" lon="2.98306">
        <ele>158.2</ele>
        <time>2016-05-05T11:08:30Z</time>
      </trkpt>
      <trkpt lat="47.21153" lon="2.98315">
        <ele>158.2</ele>
        <time>2016-05-05T11:08:32Z</time>
      </trkpt>
      <trkpt lat="47.21144" lon="2.98322">
        <ele>158.3</ele>
        <time>2016-05-05T11:08:34Z</time>
      </trkpt>
      <trkpt lat="47.21136" lon="2.9833">
        <ele>158</ele>
        <time>2016-05-05T11:08:36Z</time>
      </trkpt>
      <trkpt lat="47.21128" lon="2.9834">
        <ele>157.9</ele>
        <time>2016-05-05T11:08:38Z</time>
      </trkpt>
      <trkpt lat="47.2112" lon="2.98349">
        <ele>157.8</ele>
        <time>2016-05-05T11:08:40Z</time>
      </trkpt>
      <trkpt lat="47.21111" lon="2.98358">
        <ele>157.9</ele>
        <time>2016-05-05T11:08:42Z</time>
      </trkpt>
      <trkpt lat="47.21103" lon="2.98367">
        <ele>157.9</ele>
        <time>2016-05-05T11:08:44Z</time>
      </trkpt>
      <trkpt lat="47.21095" lon="2.98375">
        <ele>157.7</ele>
        <time>2016-05-05T11:08:46Z</time>
      </trkpt>
      <trkpt lat="47.21087" lon="2.98384">
        <ele>157.6</ele>
        <time>2016-05-05T11:08:48Z</time>
      </trkpt>
      <trkpt lat="47.21078" lon="2.98392">
        <ele>157.6</ele>
        <time>2016-05-05T11:08:50Z</time>
      </trkpt>
      <trkpt lat="47.2107" lon="2.98401">
        <ele>157.6</ele>
        <time>2016-05-05T11:08:52Z</time>
      </trkpt>
      <trkpt lat="47.21061" lon="2.98409">
        <ele>157.6</ele>
        <time>2016-05-05T11:08:54Z</time>
      </trkpt>
      <trkpt lat="47.21052" lon="2.98418">
        <ele>157.5</ele>
        <time>2016-05-05T11:08:56Z</time>
      </trkpt>
      <trkpt lat="47.21044" lon="2.98426">
        <ele>157.6</ele>
        <time>2016-05-05T11:08:58Z</time>
      </trkpt>
      <trkpt lat="47.21036" lon="2.98433">
        <ele>157.6</ele>
        <time>2016-05-05T11:09:00Z</time>
      </trkpt>
      <trkpt lat="47.21028" lon="2.98441">
        <ele>157.5</ele>
        <time>2016-05-05T11:09:02Z</time>
      </trkpt>
      <trkpt lat="47.21019" lon="2.98449">
        <ele>157.5</ele>
        <time>2016-05-05T11:09:04Z</time>
      </trkpt>
      <trkpt lat="47.2101" lon="2.98458">
        <ele>157.5</ele>
        <time>2016-05-05T11:09:06Z</time>
      </trkpt>
      <trkpt lat="47.21002" lon="2.98467">
        <ele>157.5</ele>
        <time>2016-05-05T11:09:08Z</time>
      </trkpt>
      <trkpt lat="47.20994" lon="2.98477">
        <ele>157.5</ele>
        <time>2016-05-05T11:09:10Z</time>
      </trkpt>
      <trkpt lat="47.20986" lon="2.98486">
        <ele>157.3</ele>
        <time>2016-05-05T11:09:12Z</time>
      </trkpt>
      <trkpt lat="47.20979" lon="2.98495">
        <ele>157.3</ele>
        <time>2016-05-05T11:09:14Z</time>
      </trkpt>
      <trkpt lat="47.20971" lon="2.98504">
        <ele>157.4</ele>
        <time>2016-05-05T11:09:16Z</time>
      </trkpt>
      <trkpt lat="47.20963" lon="2.98513">
        <ele>157.5</ele>
        <time>2016-05-05T11:09:18Z</time>
      </trkpt>
      <trkpt lat="47.20954" lon="2.98521">
        <ele>157.5</ele>
        <time>2016-05-05T11:09:20Z</time>
      </trkpt>
      <trkpt lat="47.20946" lon="2.9853">
        <ele>157.5</ele>
        <time>2016-05-05T11:09:22Z</time>
      </trkpt>
      <trkpt lat="47.20937" lon="2.98538">
        <ele>157.5</ele>
        <time>2016-05-05T11:09:24Z</time>
      </trkpt>
      <trkpt lat="47.20928" lon="2.98546">
        <ele>157.6</ele>
        <time>2016-05-05T11:09:26Z</time>
      </trkpt>
      <trkpt lat="47.2092" lon="2.98555">
        <ele>157.6</ele>
        <time>2016-05-05T11:09:28Z</time>
      </trkpt>
      <trkpt lat="47.20911" lon="2.98563">
        <ele>157.6</ele>
        <time>2016-05-05T11:09:30Z</time>
      </trkpt>
      <trkpt lat="47.20902" lon="2.98571">
        <ele>157.6</ele>
        <time>2016-05-05T11:09:32Z</time>
      </trkpt>
      <trkpt lat="47.20894" lon="2.98579">
        <ele>157.6</ele>
        <time>2016-05-05T11:09:34Z</time>
      </trkpt>
      <trkpt lat="47.20884" lon="2.98586">
        <ele>157.8</ele>
        <time>2016-05-05T11:09:36Z</time>
      </trkpt>
      <trkpt lat="47.20876" lon="2.98594">
        <ele>157.7</ele>
        <time>2016-05-05T11:09:38Z</time>
      </trkpt>
      <trkpt lat="47.20867" lon="2.98602">
        <ele>157.7</ele>
        <time>2016-05-05T11:09:40Z</time>
      </trkpt>
      <trkpt lat="47.20857" lon="2.98609">
        <ele>157.8</ele>
        <time>2016-05-05T11:09:42Z</time>
      </trkpt>
      <trkpt lat="47.20848" lon="2.98617">
        <ele>157.8</ele>
        <time>2016-05-05T11:09:44Z</time>
      </trkpt>
      <trkpt lat="47.20838" lon="2.98624">
        <ele>157.8</ele>
        <time>2016-05-05T11:09:46Z</time>
      </trkpt>
      <trkpt lat="47.20829" lon="2.98632">
        <ele>158</ele>
        <time>2016-05-05T11:09:48Z</time>
      </trkpt>
      <trkpt lat="47.2082" lon="2.98641">
        <ele>158</ele>
        <time>2016-05-05T11:09:50Z</time>
      </trkpt>
      <trkpt lat="47.20811" lon="2.98649">
        <ele>157.9</ele>
        <time>2016-05-05T11:09:52Z</time>
      </trkpt>
      <trkpt lat="47.20802" lon="2.98657">
        <ele>157.9</ele>
        <time>2016-05-05T11:09:54Z</time>
      </trkpt>
      <trkpt lat="47.20794" lon="2.98666">
        <ele>157.8</ele>
        <time>2016-05-05T11:09:56Z</time>
      </trkpt>
      <trkpt lat="47.20786" lon="2.98674">
        <ele>157.8</ele>
        <time>2016-05-05T11:09:58Z</time>
      </trkpt>
      <trkpt lat="47.20777" lon="2.98684">
        <ele>157.8</ele>
        <time>2016-05-05T11:10:00Z</time>
      </trkpt>
      <trkpt lat="47.20769" lon="2.98693">
        <ele>157.8</ele>
        <time>2016-05-05T11:10:02Z</time>
      </trkpt>
      <trkpt lat="47.20761" lon="2.98703">
        <ele>157.8</ele>
        <time>2016-05-05T11:10:04Z</time>
      </trkpt>
      <trkpt lat="47.20753" lon="2.98713">
        <ele>157.9</ele>
        <time>2016-05-05T11:10:06Z</time>
      </trkpt>
      <trkpt lat="47.20745" lon="2.98722">
        <ele>158</ele>
        <time>2016-05-05T11:10:08Z</time>
      </trkpt>
      <trkpt lat="47.20737" lon="2.98732">
        <ele>158</ele>
        <time>2016-05-05T11:10:10Z</time>
      </trkpt>
      <trkpt lat="47.20729" lon="2.98742">
        <ele>158</ele>
        <time>2016-05-05T11:10:12Z</time>
      </trkpt>
      <trkpt lat="47.20722" lon="2.98752">
        <ele>158</ele>
        <time>2016-05-05T11:10:14Z</time>
      </trkpt>
      <trkpt lat="47.20714" lon="2.98763">
        <ele>158</ele>
        <time>2016-05-05T11:10:16Z</time>
      </trkpt>
      <trkpt lat="47.20707" lon="2.98773">
        <ele>158.1</ele>
        <time>2016-05-05T11:10:18Z</time>
      </trkpt>
      <trkpt lat="47.207" lon="2.98784">
        <ele>158</ele>
        <time>2016-05-05T11:10:20Z</time>
      </trkpt>
      <trkpt lat="47.20692" lon="2.98794">
        <ele>158</ele>
        <time>2016-05-05T11:10:22Z</time>
      </trkpt>
      <trkpt lat="47.20686" lon="2.98804">
        <ele>157.9</ele>
        <time>2016-05-05T11:10:24Z</time>
      </trkpt>
      <trkpt lat="47.20678" lon="2.98815">
        <ele>157.8</ele>
        <time>2016-05-05T11:10:26Z</time>
      </trkpt>
      <trkpt lat="47.20671" lon="2.98825">
        <ele>157.9</ele>
        <time>2016-05-05T11:10:28Z</time>
      </trkpt>
      <trkpt lat="47.20663" lon="2.98835">
        <ele>158</ele>
        <time>2016-05-05T11:10:30Z</time>
      </trkpt>
      <trkpt lat="47.20656" lon="2.98845">
        <ele>158</ele>
        <time>2016-05-05T11:10:32Z</time>
      </trkpt>
      <trkpt lat="47.20649" lon="2.98854">
        <ele>158</ele>
        <time>2016-05-05T11:10:34Z</time>
      </trkpt>
      <trkpt lat="47.20639" lon="2.98866">
        <ele>158.1</ele>
        <time>2016-05-05T11:10:37Z</time>
      </trkpt>
      <trkpt lat="47.20631" lon="2.98875">
        <ele>158</ele>
        <time>2016-05-05T11:10:39Z</time>
      </trkpt>
      <trkpt lat="47.20622" lon="2.98883">
        <ele>158</ele>
        <time>2016-05-05T11:10:41Z</time>
      </trkpt>
      <trkpt lat="47.20613" lon="2.98891">
        <ele>158</ele>
        <time>2016-05-05T11:10:43Z</time>
      </trkpt>
      <trkpt lat="47.20605" lon="2.98898">
        <ele>158</ele>
        <time>2016-05-05T11:10:45Z</time>
      </trkpt>
      <trkpt lat="47.20596" lon="2.98907">
        <ele>157.9</ele>
        <time>2016-05-05T11:10:47Z</time>
      </trkpt>
      <trkpt lat="47.20588" lon="2.98915">
        <ele>158</ele>
        <time>2016-05-05T11:10:49Z</time>
      </trkpt>
      <trkpt lat="47.20579" lon="2.98923">
        <ele>157.8</ele>
        <time>2016-05-05T11:10:51Z</time>
      </trkpt>
      <trkpt lat="47.2057" lon="2.98931">
        <ele>157.8</ele>
        <time>2016-05-05T11:10:53Z</time>
      </trkpt>
      <trkpt lat="47.20561" lon="2.98938">
        <ele>157.8</ele>
        <time>2016-05-05T11:10:55Z</time>
      </trkpt>
      <trkpt lat="47.20553" lon="2.98945">
        <ele>157.8</ele>
        <time>2016-05-05T11:10:57Z</time>
      </trkpt>
      <trkpt lat="47.20544" lon="2.98952">
        <ele>157.8</ele>
        <time>2016-05-05T11:10:59Z</time>
      </trkpt>
      <trkpt lat="47.20535" lon="2.98958">
        <ele>157.8</ele>
        <time>2016-05-05T11:11:01Z</time>
      </trkpt>
      <trkpt lat="47.20527" lon="2.98965">
        <ele>157.8</ele>
        <time>2016-05-05T11:11:03Z</time>
      </trkpt>
      <trkpt lat="47.20515" lon="2.98976">
        <ele>157.9</ele>
        <time>2016-05-05T11:11:06Z</time>
      </trkpt>
      <trkpt lat="47.20507" lon="2.98982">
        <ele>158.1</ele>
        <time>2016-05-05T11:11:08Z</time>
      </trkpt>
      <trkpt lat="47.20497" lon="2.98991">
        <ele>158</ele>
        <time>2016-05-05T11:11:11Z</time>
      </trkpt>
      <trkpt lat="47.20484" lon="2.98997">
        <ele>157.8</ele>
        <time>2016-05-05T11:11:14Z</time>
      </trkpt>
      <trkpt lat="47.20475" lon="2.99002">
        <ele>157.8</ele>
        <time>2016-05-05T11:11:16Z</time>
      </trkpt>
      <trkpt lat="47.20467" lon="2.99007">
        <ele>157.9</ele>
        <time>2016-05-05T11:11:18Z</time>
      </trkpt>
      <trkpt lat="47.20458" lon="2.99011">
        <ele>157.9</ele>
        <time>2016-05-05T11:11:20Z</time>
      </trkpt>
      <trkpt lat="47.20449" lon="2.99015">
        <ele>157.9</ele>
        <time>2016-05-05T11:11:22Z</time>
      </trkpt>
      <trkpt lat="47.2044" lon="2.99017">
        <ele>157.9</ele>
        <time>2016-05-05T11:11:24Z</time>
      </trkpt>
      <trkpt lat="47.20431" lon="2.99019">
        <ele>157.8</ele>
        <time>2016-05-05T11:11:26Z</time>
      </trkpt>
      <trkpt lat="47.20422" lon="2.99021">
        <ele>157.9</ele>
        <time>2016-05-05T11:11:28Z</time>
      </trkpt>
      <trkpt lat="47.20412" lon="2.99023">
        <ele>158</ele>
        <time>2016-05-05T11:11:30Z</time>
      </trkpt>
      <trkpt lat="47.20402" lon="2.99026">
        <ele>158</ele>
        <time>2016-05-05T11:11:32Z</time>
      </trkpt>
      <trkpt lat="47.20393" lon="2.9903">
        <ele>157.9</ele>
        <time>2016-05-05T11:11:34Z</time>
      </trkpt>
      <trkpt lat="47.20383" lon="2.99034">
        <ele>157.9</ele>
        <time>2016-05-05T11:11:36Z</time>
      </trkpt>
      <trkpt lat="47.20373" lon="2.99038">
        <ele>157.8</ele>
        <time>2016-05-05T11:11:38Z</time>
      </trkpt>
      <trkpt lat="47.20364" lon="2.99043">
        <ele>157.8</ele>
        <time>2016-05-05T11:11:40Z</time>
      </trkpt>
      <trkpt lat="47.20354" lon="2.99047">
        <ele>157.8</ele>
        <time>2016-05-05T11:11:42Z</time>
      </trkpt>
      <trkpt lat="47.20344" lon="2.99052">
        <ele>157.8</ele>
        <time>2016-05-05T11:11:44Z</time>
      </trkpt>
      <trkpt lat="47.20335" lon="2.99057">
        <ele>157.8</ele>
        <time>2016-05-05T11:11:46Z</time>
      </trkpt>
      <trkpt lat="47.20325" lon="2.99062">
        <ele>157.9</ele>
        <time>2016-05-05T11:11:48Z</time>
      </trkpt>
      <trkpt lat="47.20315" lon="2.99067">
        <ele>158</ele>
        <time>2016-05-05T11:11:50Z</time>
      </trkpt>
      <trkpt lat="47.20305" lon="2.99073">
        <ele>157.9</ele>
        <time>2016-05-05T11:11:52Z</time>
      </trkpt>
      <trkpt lat="47.20295" lon="2.99079">
        <ele>158</ele>
        <time>2016-05-05T11:11:54Z</time>
      </trkpt>
      <trkpt lat="47.20286" lon="2.99085">
        <ele>158.1</ele>
        <time>2016-05-05T11:11:56Z</time>
      </trkpt>
      <trkpt lat="47.20276" lon="2.99091">
        <ele>158.2</ele>
        <time>2016-05-05T11:11:58Z</time>
      </trkpt>
      <trkpt lat="47.20266" lon="2.99096">
        <ele>158.2</ele>
        <time>2016-05-05T11:12:00Z</time>
      </trkpt>
      <trkpt lat="47.20256" lon="2.99102">
        <ele>158.2</ele>
        <time>2016-05-05T11:12:02Z</time>
      </trkpt>
      <trkpt lat="47.20246" lon="2.99108">
        <ele>158.1</ele>
        <time>2016-05-05T11:12:04Z</time>
      </trkpt>
      <trkpt lat="47.20236" lon="2.99113">
        <ele>158.1</ele>
        <time>2016-05-05T11:12:06Z</time>
      </trkpt>
      <trkpt lat="47.20226" lon="2.99118">
        <ele>158</ele>
        <time>2016-05-05T11:12:08Z</time>
      </trkpt>
      <trkpt lat="47.20216" lon="2.99123">
        <ele>158</ele>
        <time>2016-05-05T11:12:10Z</time>
      </trkpt>
      <trkpt lat="47.20206" lon="2.99128">
        <ele>158.1</ele>
        <time>2016-05-05T11:12:12Z</time>
      </trkpt>
      <trkpt lat="47.20196" lon="2.99133">
        <ele>158</ele>
        <time>2016-05-05T11:12:14Z</time>
      </trkpt>
      <trkpt lat="47.20188" lon="2.99138">
        <ele>158</ele>
        <time>2016-05-05T11:12:16Z</time>
      </trkpt>
      <trkpt lat="47.20179" lon="2.99144">
        <ele>158.1</ele>
        <time>2016-05-05T11:12:18Z</time>
      </trkpt>
      <trkpt lat="47.2017" lon="2.9915">
        <ele>158.2</ele>
        <time>2016-05-05T11:12:20Z</time>
      </trkpt>
      <trkpt lat="47.20161" lon="2.99155">
        <ele>158.2</ele>
        <time>2016-05-05T11:12:22Z</time>
      </trkpt>
      <trkpt lat="47.20152" lon="2.99161">
        <ele>158.2</ele>
        <time>2016-05-05T11:12:24Z</time>
      </trkpt>
      <trkpt lat="47.20143" lon="2.99166">
        <ele>158.2</ele>
        <time>2016-05-05T11:12:26Z</time>
      </trkpt>
      <trkpt lat="47.20134" lon="2.99171">
        <ele>158</ele>
        <time>2016-05-05T11:12:28Z</time>
      </trkpt>
      <trkpt lat="47.20125" lon="2.99176">
        <ele>157.9</ele>
        <time>2016-05-05T11:12:30Z</time>
      </trkpt>
      <trkpt lat="47.20116" lon="2.99182">
        <ele>157.7</ele>
        <time>2016-05-05T11:12:32Z</time>
      </trkpt>
      <trkpt lat="47.20106" lon="2.99186">
        <ele>157.8</ele>
        <time>2016-05-05T11:12:34Z</time>
      </trkpt>
      <trkpt lat="47.20097" lon="2.99192">
        <ele>157.7</ele>
        <time>2016-05-05T11:12:36Z</time>
      </trkpt>
      <trkpt lat="47.20087" lon="2.99197">
        <ele>157.7</ele>
        <time>2016-05-05T11:12:38Z</time>
      </trkpt>
      <trkpt lat="47.20077" lon="2.99203">
        <ele>157.8</ele>
        <time>2016-05-05T11:12:40Z</time>
      </trkpt>
      <trkpt lat="47.20068" lon="2.99208">
        <ele>157.9</ele>
        <time>2016-05-05T11:12:42Z</time>
      </trkpt>
      <trkpt lat="47.20058" lon="2.99214">
        <ele>158</ele>
        <time>2016-05-05T11:12:44Z</time>
      </trkpt>
      <trkpt lat="47.20048" lon="2.9922">
        <ele>158.2</ele>
        <time>2016-05-05T11:12:46Z</time>
      </trkpt>
      <trkpt lat="47.20039" lon="2.99226">
        <ele>158.3</ele>
        <time>2016-05-05T11:12:48Z</time>
      </trkpt>
      <trkpt lat="47.20029" lon="2.99232">
        <ele>158.2</ele>
        <time>2016-05-05T11:12:50Z</time>
      </trkpt>
      <trkpt lat="47.2002" lon="2.99238">
        <ele>158.2</ele>
        <time>2016-05-05T11:12:52Z</time>
      </trkpt>
      <trkpt lat="47.2001" lon="2.99243">
        <ele>158.2</ele>
        <time>2016-05-05T11:12:54Z</time>
      </trkpt>
      <trkpt lat="47.20001" lon="2.99249">
        <ele>158.2</ele>
        <time>2016-05-05T11:12:56Z</time>
      </trkpt>
      <trkpt lat="47.19991" lon="2.99255">
        <ele>158.3</ele>
        <time>2016-05-05T11:12:58Z</time>
      </trkpt>
      <trkpt lat="47.19982" lon="2.99262">
        <ele>158.1</ele>
        <time>2016-05-05T11:13:00Z</time>
      </trkpt>
      <trkpt lat="47.19972" lon="2.99267">
        <ele>158.1</ele>
        <time>2016-05-05T11:13:02Z</time>
      </trkpt>
      <trkpt lat="47.19963" lon="2.99273">
        <ele>158.4</ele>
        <time>2016-05-05T11:13:04Z</time>
      </trkpt>
      <trkpt lat="47.19953" lon="2.99279">
        <ele>158.5</ele>
        <time>2016-05-05T11:13:06Z</time>
      </trkpt>
      <trkpt lat="47.19944" lon="2.99285">
        <ele>158.5</ele>
        <time>2016-05-05T11:13:08Z</time>
      </trkpt>
      <trkpt lat="47.19935" lon="2.99291">
        <ele>158.4</ele>
        <time>2016-05-05T11:13:10Z</time>
      </trkpt>
      <trkpt lat="47.19926" lon="2.99296">
        <ele>158.3</ele>
        <time>2016-05-05T11:13:12Z</time>
      </trkpt>
      <trkpt lat="47.19916" lon="2.99299">
        <ele>158.2</ele>
        <time>2016-05-05T11:13:14Z</time>
      </trkpt>
      <trkpt lat="47.19908" lon="2.99303">
        <ele>158.1</ele>
        <time>2016-05-05T11:13:16Z</time>
      </trkpt>
      <trkpt lat="47.19899" lon="2.99307">
        <ele>158.1</ele>
        <time>2016-05-05T11:13:18Z</time>
      </trkpt>
      <trkpt lat="47.1989" lon="2.99312">
        <ele>158.2</ele>
        <time>2016-05-05T11:13:20Z</time>
      </trkpt>
      <trkpt lat="47.19878" lon="2.99319">
        <ele>158.1</ele>
        <time>2016-05-05T11:13:23Z</time>
      </trkpt>
      <trkpt lat="47.19865" lon="2.99326">
        <ele>158</ele>
        <time>2016-05-05T11:13:26Z</time>
      </trkpt>
      <trkpt lat="47.19856" lon="2.99331">
        <ele>158</ele>
        <time>2016-05-05T11:13:28Z</time>
      </trkpt>
      <trkpt lat="47.19847" lon="2.99337">
        <ele>158</ele>
        <time>2016-05-05T11:13:30Z</time>
      </trkpt>
      <trkpt lat="47.19834" lon="2.99343">
        <ele>158</ele>
        <time>2016-05-05T11:13:33Z</time>
      </trkpt>
      <trkpt lat="47.19825" lon="2.99348">
        <ele>157.9</ele>
        <time>2016-05-05T11:13:35Z</time>
      </trkpt>
      <trkpt lat="47.19816" lon="2.99352">
        <ele>157.9</ele>
        <time>2016-05-05T11:13:37Z</time>
      </trkpt>
      <trkpt lat="47.19806" lon="2.99355">
        <ele>157.9</ele>
        <time>2016-05-05T11:13:39Z</time>
      </trkpt>
      <trkpt lat="47.19796" lon="2.99357">
        <ele>157.9</ele>
        <time>2016-05-05T11:13:41Z</time>
      </trkpt>
      <trkpt lat="47.19783" lon="2.99363">
        <ele>158</ele>
        <time>2016-05-05T11:13:44Z</time>
      </trkpt>
      <trkpt lat="47.19775" lon="2.99367">
        <ele>157.8</ele>
        <time>2016-05-05T11:13:46Z</time>
      </trkpt>
      <trkpt lat="47.19766" lon="2.99371">
        <ele>157.9</ele>
        <time>2016-05-05T11:13:48Z</time>
      </trkpt>
      <trkpt lat="47.19758" lon="2.99375">
        <ele>158.1</ele>
        <time>2016-05-05T11:13:50Z</time>
      </trkpt>
      <trkpt lat="47.19746" lon="2.99383">
        <ele>158.1</ele>
        <time>2016-05-05T11:13:53Z</time>
      </trkpt>
      <trkpt lat="47.19734" lon="2.9939">
        <ele>157.9</ele>
        <time>2016-05-05T11:13:56Z</time>
      </trkpt>
      <trkpt lat="47.19722" lon="2.99398">
        <ele>157.8</ele>
        <time>2016-05-05T11:13:59Z</time>
      </trkpt>
      <trkpt lat="47.19713" lon="2.99403">
        <ele>157.9</ele>
        <time>2016-05-05T11:14:01Z</time>
      </trkpt>
      <trkpt lat="47.19704" lon="2.99409">
        <ele>158</ele>
        <time>2016-05-05T11:14:03Z</time>
      </trkpt>
      <trkpt lat="47.19696" lon="2.99414">
        <ele>158</ele>
        <time>2016-05-05T11:14:05Z</time>
      </trkpt>
      <trkpt lat="47.19683" lon="2.99421">
        <ele>158</ele>
        <time>2016-05-05T11:14:08Z</time>
      </trkpt>
      <trkpt lat="47.19675" lon="2.99426">
        <ele>157.9</ele>
        <time>2016-05-05T11:14:10Z</time>
      </trkpt>
      <trkpt lat="47.19666" lon="2.9943">
        <ele>158</ele>
        <time>2016-05-05T11:14:12Z</time>
      </trkpt>
      <trkpt lat="47.19653" lon="2.99436">
        <ele>157.9</ele>
        <time>2016-05-05T11:14:15Z</time>
      </trkpt>
      <trkpt lat="47.19642" lon="2.99443">
        <ele>158</ele>
        <time>2016-05-05T11:14:18Z</time>
      </trkpt>
      <trkpt lat="47.1963" lon="2.9945">
        <ele>157.7</ele>
        <time>2016-05-05T11:14:21Z</time>
      </trkpt>
      <trkpt lat="47.19618" lon="2.99457">
        <ele>157.5</ele>
        <time>2016-05-05T11:14:24Z</time>
      </trkpt>
      <trkpt lat="47.1961" lon="2.99463">
        <ele>157.4</ele>
        <time>2016-05-05T11:14:26Z</time>
      </trkpt>
      <trkpt lat="47.19597" lon="2.9947">
        <ele>157.5</ele>
        <time>2016-05-05T11:14:29Z</time>
      </trkpt>
      <trkpt lat="47.19589" lon="2.99475">
        <ele>157.4</ele>
        <time>2016-05-05T11:14:31Z</time>
      </trkpt>
      <trkpt lat="47.19577" lon="2.99483">
        <ele>157.6</ele>
        <time>2016-05-05T11:14:34Z</time>
      </trkpt>
      <trkpt lat="47.19564" lon="2.9949">
        <ele>157.8</ele>
        <time>2016-05-05T11:14:37Z</time>
      </trkpt>
      <trkpt lat="47.19552" lon="2.99497">
        <ele>157.8</ele>
        <time>2016-05-05T11:14:40Z</time>
      </trkpt>
      <trkpt lat="47.19544" lon="2.99502">
        <ele>157.8</ele>
        <time>2016-05-05T11:14:42Z</time>
      </trkpt>
      <trkpt lat="47.19532" lon="2.99508">
        <ele>158.1</ele>
        <time>2016-05-05T11:14:45Z</time>
      </trkpt>
      <trkpt lat="47.19523" lon="2.99512">
        <ele>158.7</ele>
        <time>2016-05-05T11:15:43Z</time>
      </trkpt>
      <trkpt lat="47.19513" lon="2.99518">
        <ele>158.6</ele>
        <time>2016-05-05T11:15:46Z</time>
      </trkpt>
      <trkpt lat="47.19503" lon="2.99524">
        <ele>158.5</ele>
        <time>2016-05-05T11:15:49Z</time>
      </trkpt>
      <trkpt lat="47.19491" lon="2.9953">
        <ele>158.4</ele>
        <time>2016-05-05T11:15:52Z</time>
      </trkpt>
      <trkpt lat="47.19479" lon="2.99536">
        <ele>158.6</ele>
        <time>2016-05-05T11:15:55Z</time>
      </trkpt>
      <trkpt lat="47.1947" lon="2.9954">
        <ele>158.6</ele>
        <time>2016-05-05T11:15:57Z</time>
      </trkpt>
      <trkpt lat="47.19461" lon="2.99542">
        <ele>158.6</ele>
        <time>2016-05-05T11:15:59Z</time>
      </trkpt>
      <trkpt lat="47.19448" lon="2.99545">
        <ele>158.7</ele>
        <time>2016-05-05T11:16:02Z</time>
      </trkpt>
      <trkpt lat="47.19435" lon="2.99548">
        <ele>158.5</ele>
        <time>2016-05-05T11:16:05Z</time>
      </trkpt>
      <trkpt lat="47.19426" lon="2.99549">
        <ele>158.3</ele>
        <time>2016-05-05T11:16:07Z</time>
      </trkpt>
      <trkpt lat="47.19417" lon="2.99552">
        <ele>158.4</ele>
        <time>2016-05-05T11:16:09Z</time>
      </trkpt>
      <trkpt lat="47.19408" lon="2.99555">
        <ele>158.3</ele>
        <time>2016-05-05T11:16:11Z</time>
      </trkpt>
      <trkpt lat="47.19398" lon="2.9956">
        <ele>158.1</ele>
        <time>2016-05-05T11:16:13Z</time>
      </trkpt>
      <trkpt lat="47.19389" lon="2.99564">
        <ele>158.1</ele>
        <time>2016-05-05T11:16:15Z</time>
      </trkpt>
      <trkpt lat="47.1938" lon="2.99568">
        <ele>158</ele>
        <time>2016-05-05T11:16:17Z</time>
      </trkpt>
      <trkpt lat="47.19371" lon="2.99571">
        <ele>158</ele>
        <time>2016-05-05T11:16:19Z</time>
      </trkpt>
      <trkpt lat="47.19362" lon="2.99575">
        <ele>158</ele>
        <time>2016-05-05T11:16:21Z</time>
      </trkpt>
      <trkpt lat="47.19353" lon="2.99579">
        <ele>157.9</ele>
        <time>2016-05-05T11:16:23Z</time>
      </trkpt>
      <trkpt lat="47.19344" lon="2.99582">
        <ele>157.9</ele>
        <time>2016-05-05T11:16:25Z</time>
      </trkpt>
      <trkpt lat="47.19335" lon="2.99586">
        <ele>157.8</ele>
        <time>2016-05-05T11:16:27Z</time>
      </trkpt>
      <trkpt lat="47.19323" lon="2.9959">
        <ele>157.8</ele>
        <time>2016-05-05T11:16:30Z</time>
      </trkpt>
      <trkpt lat="47.1931" lon="2.99592">
        <ele>157.7</ele>
        <time>2016-05-05T11:16:33Z</time>
      </trkpt>
      <trkpt lat="47.19301" lon="2.99594">
        <ele>157.9</ele>
        <time>2016-05-05T11:16:35Z</time>
      </trkpt>
      <trkpt lat="47.19288" lon="2.99598">
        <ele>158</ele>
        <time>2016-05-05T11:16:38Z</time>
      </trkpt>
      <trkpt lat="47.19278" lon="2.99601">
        <ele>158</ele>
        <time>2016-05-05T11:16:40Z</time>
      </trkpt>
      <trkpt lat="47.19269" lon="2.99603">
        <ele>158</ele>
        <time>2016-05-05T11:16:42Z</time>
      </trkpt>
      <trkpt lat="47.1926" lon="2.99605">
        <ele>158</ele>
        <time>2016-05-05T11:16:44Z</time>
      </trkpt>
      <trkpt lat="47.19251" lon="2.99608">
        <ele>158</ele>
        <time>2016-05-05T11:16:46Z</time>
      </trkpt>
      <trkpt lat="47.19242" lon="2.99611">
        <ele>158.1</ele>
        <time>2016-05-05T11:16:48Z</time>
      </trkpt>
      <trkpt lat="47.19232" lon="2.99615">
        <ele>158.3</ele>
        <time>2016-05-05T11:16:50Z</time>
      </trkpt>
      <trkpt lat="47.19223" lon="2.99617">
        <ele>158.3</ele>
        <time>2016-05-05T11:16:52Z</time>
      </trkpt>
      <trkpt lat="47.19213" lon="2.99621">
        <ele>158.3</ele>
        <time>2016-05-05T11:16:54Z</time>
      </trkpt>
      <trkpt lat="47.19203" lon="2.99625">
        <ele>158.4</ele>
        <time>2016-05-05T11:16:56Z</time>
      </trkpt>
      <trkpt lat="47.19193" lon="2.9963">
        <ele>158.3</ele>
        <time>2016-05-05T11:16:58Z</time>
      </trkpt>
      <trkpt lat="47.19184" lon="2.99635">
        <ele>158.4</ele>
        <time>2016-05-05T11:17:00Z</time>
      </trkpt>
      <trkpt lat="47.19174" lon="2.9964">
        <ele>158.5</ele>
        <time>2016-05-05T11:17:02Z</time>
      </trkpt>
      <trkpt lat="47.19165" lon="2.99645">
        <ele>158.5</ele>
        <time>2016-05-05T11:17:04Z</time>
      </trkpt>
      <trkpt lat="47.19155" lon="2.99651">
        <ele>158.5</ele>
        <time>2016-05-05T11:17:06Z</time>
      </trkpt>
      <trkpt lat="47.19145" lon="2.99656">
        <ele>158.6</ele>
        <time>2016-05-05T11:17:08Z</time>
      </trkpt>
      <trkpt lat="47.19136" lon="2.99662">
        <ele>158.6</ele>
        <time>2016-05-05T11:17:10Z</time>
      </trkpt>
      <trkpt lat="47.19126" lon="2.99668">
        <ele>158.6</ele>
        <time>2016-05-05T11:17:12Z</time>
      </trkpt>
      <trkpt lat="47.19116" lon="2.99674">
        <ele>158.6</ele>
        <time>2016-05-05T11:17:14Z</time>
      </trkpt>
      <trkpt lat="47.19106" lon="2.99679">
        <ele>158.6</ele>
        <time>2016-05-05T11:17:16Z</time>
      </trkpt>
      <trkpt lat="47.19096" lon="2.99685">
        <ele>158.7</ele>
        <time>2016-05-05T11:17:18Z</time>
      </trkpt>
      <trkpt lat="47.19087" lon="2.99691">
        <ele>158.7</ele>
        <time>2016-05-05T11:17:20Z</time>
      </trkpt>
      <trkpt lat="47.19078" lon="2.99697">
        <ele>158.9</ele>
        <time>2016-05-05T11:17:22Z</time>
      </trkpt>
      <trkpt lat="47.1907" lon="2.99705">
        <ele>158.9</ele>
        <time>2016-05-05T11:17:24Z</time>
      </trkpt>
      <trkpt lat="47.19063" lon="2.99714">
        <ele>159</ele>
        <time>2016-05-05T11:17:26Z</time>
      </trkpt>
      <trkpt lat="47.19055" lon="2.99724">
        <ele>159</ele>
        <time>2016-05-05T11:17:28Z</time>
      </trkpt>
      <trkpt lat="47.19048" lon="2.99735">
        <ele>158.9</ele>
        <time>2016-05-05T11:17:30Z</time>
      </trkpt>
      <trkpt lat="47.19041" lon="2.99746">
        <ele>159</ele>
        <time>2016-05-05T11:17:32Z</time>
      </trkpt>
      <trkpt lat="47.19033" lon="2.99756">
        <ele>159.1</ele>
        <time>2016-05-05T11:17:34Z</time>
      </trkpt>
      <trkpt lat="47.19026" lon="2.99766">
        <ele>159</ele>
        <time>2016-05-05T11:17:36Z</time>
      </trkpt>
      <trkpt lat="47.19019" lon="2.99777">
        <ele>159</ele>
        <time>2016-05-05T11:17:38Z</time>
      </trkpt>
      <trkpt lat="47.19011" lon="2.99787">
        <ele>158.9</ele>
        <time>2016-05-05T11:17:40Z</time>
      </trkpt>
      <trkpt lat="47.19003" lon="2.99797">
        <ele>158.9</ele>
        <time>2016-05-05T11:17:42Z</time>
      </trkpt>
      <trkpt lat="47.18996" lon="2.99807">
        <ele>158.8</ele>
        <time>2016-05-05T11:17:44Z</time>
      </trkpt>
      <trkpt lat="47.18989" lon="2.99817">
        <ele>158.8</ele>
        <time>2016-05-05T11:17:46Z</time>
      </trkpt>
      <trkpt lat="47.18982" lon="2.99828">
        <ele>158.8</ele>
        <time>2016-05-05T11:17:48Z</time>
      </trkpt>
      <trkpt lat="47.18974" lon="2.99838">
        <ele>158.9</ele>
        <time>2016-05-05T11:17:50Z</time>
      </trkpt>
      <trkpt lat="47.18967" lon="2.99848">
        <ele>158.9</ele>
        <time>2016-05-05T11:17:52Z</time>
      </trkpt>
      <trkpt lat="47.18959" lon="2.99859">
        <ele>158.9</ele>
        <time>2016-05-05T11:17:54Z</time>
      </trkpt>
      <trkpt lat="47.18952" lon="2.99869">
        <ele>159</ele>
        <time>2016-05-05T11:17:56Z</time>
      </trkpt>
      <trkpt lat="47.18945" lon="2.99879">
        <ele>158.9</ele>
        <time>2016-05-05T11:17:58Z</time>
      </trkpt>
      <trkpt lat="47.18937" lon="2.99888">
        <ele>158.8</ele>
        <time>2016-05-05T11:18:00Z</time>
      </trkpt>
      <trkpt lat="47.18928" lon="2.99896">
        <ele>158.9</ele>
        <time>2016-05-05T11:18:02Z</time>
      </trkpt>
      <trkpt lat="47.18919" lon="2.99904">
        <ele>159.2</ele>
        <time>2016-05-05T11:18:04Z</time>
      </trkpt>
      <trkpt lat="47.18909" lon="2.9991">
        <ele>159.6</ele>
        <time>2016-05-05T11:18:06Z</time>
      </trkpt>
      <trkpt lat="47.18898" lon="2.99913">
        <ele>159.7</ele>
        <time>2016-05-05T11:18:08Z</time>
      </trkpt>
      <trkpt lat="47.18888" lon="2.99904">
        <ele>159.8</ele>
        <time>2016-05-05T11:18:11Z</time>
      </trkpt>
      <trkpt lat="47.18876" lon="2.99904">
        <ele>159.5</ele>
        <time>2016-05-05T11:18:14Z</time>
      </trkpt>
      <trkpt lat="47.18867" lon="2.99914">
        <ele>159.4</ele>
        <time>2016-05-05T11:18:17Z</time>
      </trkpt>
      <trkpt lat="47.18858" lon="2.99927">
        <ele>159.5</ele>
        <time>2016-05-05T11:18:20Z</time>
      </trkpt>
      <trkpt lat="47.18847" lon="2.99938">
        <ele>159.7</ele>
        <time>2016-05-05T11:18:23Z</time>
      </trkpt>
      <trkpt lat="47.18839" lon="2.99945">
        <ele>159.6</ele>
        <time>2016-05-05T11:18:25Z</time>
      </trkpt>
      <trkpt lat="47.1883" lon="2.99951">
        <ele>159.8</ele>
        <time>2016-05-05T11:18:27Z</time>
      </trkpt>
      <trkpt lat="47.18822" lon="2.99957">
        <ele>159.9</ele>
        <time>2016-05-05T11:18:29Z</time>
      </trkpt>
      <trkpt lat="47.18813" lon="2.99963">
        <ele>160</ele>
        <time>2016-05-05T11:18:31Z</time>
      </trkpt>
      <trkpt lat="47.18804" lon="2.99969">
        <ele>160.2</ele>
        <time>2016-05-05T11:18:33Z</time>
      </trkpt>
      <trkpt lat="47.18795" lon="2.99975">
        <ele>160.4</ele>
        <time>2016-05-05T11:18:35Z</time>
      </trkpt>
      <trkpt lat="47.18785" lon="2.99981">
        <ele>160.6</ele>
        <time>2016-05-05T11:18:37Z</time>
      </trkpt>
      <trkpt lat="47.18775" lon="2.99986">
        <ele>160.6</ele>
        <time>2016-05-05T11:18:39Z</time>
      </trkpt>
      <trkpt lat="47.18765" lon="2.99993">
        <ele>160.5</ele>
        <time>2016-05-05T11:18:41Z</time>
      </trkpt>
      <trkpt lat="47.18756" lon="2.99999">
        <ele>160.4</ele>
        <time>2016-05-05T11:18:43Z</time>
      </trkpt>
      <trkpt lat="47.18746" lon="3.00006">
        <ele>160.3</ele>
        <time>2016-05-05T11:18:45Z</time>
      </trkpt>
      <trkpt lat="47.18736" lon="3.00013">
        <ele>160.3</ele>
        <time>2016-05-05T11:18:47Z</time>
      </trkpt>
      <trkpt lat="47.18726" lon="3.0002">
        <ele>160.3</ele>
        <time>2016-05-05T11:18:49Z</time>
      </trkpt>
      <trkpt lat="47.18715" lon="3.00026">
        <ele>160.3</ele>
        <time>2016-05-05T11:18:51Z</time>
      </trkpt>
      <trkpt lat="47.18705" lon="3.00032">
        <ele>160.4</ele>
        <time>2016-05-05T11:18:53Z</time>
      </trkpt>
      <trkpt lat="47.18695" lon="3.00038">
        <ele>160.4</ele>
        <time>2016-05-05T11:18:55Z</time>
      </trkpt>
      <trkpt lat="47.18685" lon="3.00044">
        <ele>160.4</ele>
        <time>2016-05-05T11:18:57Z</time>
      </trkpt>
      <trkpt lat="47.18676" lon="3.00051">
        <ele>160.4</ele>
        <time>2016-05-05T11:18:59Z</time>
      </trkpt>
      <trkpt lat="47.18666" lon="3.00058">
        <ele>160.4</ele>
        <time>2016-05-05T11:19:01Z</time>
      </trkpt>
      <trkpt lat="47.18655" lon="3.00064">
        <ele>160.3</ele>
        <time>2016-05-05T11:19:03Z</time>
      </trkpt>
      <trkpt lat="47.18645" lon="3.00071">
        <ele>160.3</ele>
        <time>2016-05-05T11:19:05Z</time>
      </trkpt>
      <trkpt lat="47.18635" lon="3.00077">
        <ele>160.3</ele>
        <time>2016-05-05T11:19:07Z</time>
      </trkpt>
      <trkpt lat="47.18625" lon="3.00083">
        <ele>160.5</ele>
        <time>2016-05-05T11:19:09Z</time>
      </trkpt>
      <trkpt lat="47.18616" lon="3.0009">
        <ele>160.6</ele>
        <time>2016-05-05T11:19:11Z</time>
      </trkpt>
      <trkpt lat="47.18606" lon="3.00096">
        <ele>160.6</ele>
        <time>2016-05-05T11:19:13Z</time>
      </trkpt>
      <trkpt lat="47.18596" lon="3.00102">
        <ele>160.4</ele>
        <time>2016-05-05T11:19:15Z</time>
      </trkpt>
      <trkpt lat="47.18586" lon="3.00109">
        <ele>160.4</ele>
        <time>2016-05-05T11:19:17Z</time>
      </trkpt>
      <trkpt lat="47.18576" lon="3.00115">
        <ele>160.4</ele>
        <time>2016-05-05T11:19:19Z</time>
      </trkpt>
      <trkpt lat="47.18566" lon="3.00122">
        <ele>160.3</ele>
        <time>2016-05-05T11:19:21Z</time>
      </trkpt>
      <trkpt lat="47.18557" lon="3.00128">
        <ele>160.4</ele>
        <time>2016-05-05T11:19:23Z</time>
      </trkpt>
      <trkpt lat="47.18547" lon="3.00134">
        <ele>160.4</ele>
        <time>2016-05-05T11:19:25Z</time>
      </trkpt>
      <trkpt lat="47.18537" lon="3.00141">
        <ele>160.4</ele>
        <time>2016-05-05T11:19:27Z</time>
      </trkpt>
      <trkpt lat="47.18527" lon="3.00148">
        <ele>160.5</ele>
        <time>2016-05-05T11:19:29Z</time>
      </trkpt>
      <trkpt lat="47.18517" lon="3.00154">
        <ele>160.6</ele>
        <time>2016-05-05T11:19:31Z</time>
      </trkpt>
      <trkpt lat="47.18507" lon="3.0016">
        <ele>160.8</ele>
        <time>2016-05-05T11:19:33Z</time>
      </trkpt>
      <trkpt lat="47.18496" lon="3.00167">
        <ele>160.8</ele>
        <time>2016-05-05T11:19:35Z</time>
      </trkpt>
      <trkpt lat="47.18486" lon="3.00174">
        <ele>160.8</ele>
        <time>2016-05-05T11:19:37Z</time>
      </trkpt>
      <trkpt lat="47.18475" lon="3.00181">
        <ele>160.8</ele>
        <time>2016-05-05T11:19:39Z</time>
      </trkpt>
      <trkpt lat="47.18465" lon="3.00188">
        <ele>160.8</ele>
        <time>2016-05-05T11:19:41Z</time>
      </trkpt>
      <trkpt lat="47.18454" lon="3.00194">
        <ele>160.7</ele>
        <time>2016-05-05T11:19:43Z</time>
      </trkpt>
      <trkpt lat="47.18444" lon="3.002">
        <ele>160.7</ele>
        <time>2016-05-05T11:19:45Z</time>
      </trkpt>
      <trkpt lat="47.18433" lon="3.00207">
        <ele>160.7</ele>
        <time>2016-05-05T11:19:47Z</time>
      </trkpt>
      <trkpt lat="47.18423" lon="3.00213">
        <ele>160.7</ele>
        <time>2016-05-05T11:19:49Z</time>
      </trkpt>
      <trkpt lat="47.18413" lon="3.00219">
        <ele>160.7</ele>
        <time>2016-05-05T11:19:51Z</time>
      </trkpt>
      <trkpt lat="47.18404" lon="3.00226">
        <ele>160.7</ele>
        <time>2016-05-05T11:19:53Z</time>
      </trkpt>
      <trkpt lat="47.18395" lon="3.00232">
        <ele>160.8</ele>
        <time>2016-05-05T11:19:55Z</time>
      </trkpt>
      <trkpt lat="47.18386" lon="3.00237">
        <ele>160.6</ele>
        <time>2016-05-05T11:19:57Z</time>
      </trkpt>
      <trkpt lat="47.18378" lon="3.00242">
        <ele>160.6</ele>
        <time>2016-05-05T11:19:59Z</time>
      </trkpt>
      <trkpt lat="47.18369" lon="3.00246">
        <ele>160.5</ele>
        <time>2016-05-05T11:20:01Z</time>
      </trkpt>
      <trkpt lat="47.18359" lon="3.0025">
        <ele>160.3</ele>
        <time>2016-05-05T11:20:03Z</time>
      </trkpt>
      <trkpt lat="47.18347" lon="3.00253">
        <ele>160.1</ele>
        <time>2016-05-05T11:20:05Z</time>
      </trkpt>
      <trkpt lat="47.18335" lon="3.00258">
        <ele>159.7</ele>
        <time>2016-05-05T11:20:07Z</time>
      </trkpt>
      <trkpt lat="47.18322" lon="3.0026">
        <ele>159.4</ele>
        <time>2016-05-05T11:20:09Z</time>
      </trkpt>
      <trkpt lat="47.18309" lon="3.0026">
        <ele>159.1</ele>
        <time>2016-05-05T11:20:11Z</time>
      </trkpt>
      <trkpt lat="47.18297" lon="3.00259">
        <ele>159</ele>
        <time>2016-05-05T11:20:13Z</time>
      </trkpt>
      <trkpt lat="47.18286" lon="3.00257">
        <ele>158.9</ele>
        <time>2016-05-05T11:20:15Z</time>
      </trkpt>
      <trkpt lat="47.18275" lon="3.00254">
        <ele>158.8</ele>
        <time>2016-05-05T11:20:17Z</time>
      </trkpt>
      <trkpt lat="47.18264" lon="3.00252">
        <ele>158.7</ele>
        <time>2016-05-05T11:20:19Z</time>
      </trkpt>
      <trkpt lat="47.18254" lon="3.00249">
        <ele>158.6</ele>
        <time>2016-05-05T11:20:21Z</time>
      </trkpt>
      <trkpt lat="47.18242" lon="3.00244">
        <ele>158.5</ele>
        <time>2016-05-05T11:20:23Z</time>
      </trkpt>
      <trkpt lat="47.18232" lon="3.00242">
        <ele>158.6</ele>
        <time>2016-05-05T11:20:25Z</time>
      </trkpt>
      <trkpt lat="47.1822" lon="3.00241">
        <ele>158.7</ele>
        <time>2016-05-05T11:20:28Z</time>
      </trkpt>
      <trkpt lat="47.18211" lon="3.00242">
        <ele>158.8</ele>
        <time>2016-05-05T11:20:30Z</time>
      </trkpt>
      <trkpt lat="47.18199" lon="3.00243">
        <ele>158.8</ele>
        <time>2016-05-05T11:20:33Z</time>
      </trkpt>
      <trkpt lat="47.18187" lon="3.00248">
        <ele>158.9</ele>
        <time>2016-05-05T11:20:36Z</time>
      </trkpt>
      <trkpt lat="47.18178" lon="3.00252">
        <ele>159</ele>
        <time>2016-05-05T11:20:39Z</time>
      </trkpt>
      <trkpt lat="47.18165" lon="3.00258">
        <ele>159.3</ele>
        <time>2016-05-05T11:20:43Z</time>
      </trkpt>
      <trkpt lat="47.18156" lon="3.00263">
        <ele>159.4</ele>
        <time>2016-05-05T11:20:46Z</time>
      </trkpt>
      <trkpt lat="47.18146" lon="3.00267">
        <ele>159.5</ele>
        <time>2016-05-05T11:20:49Z</time>
      </trkpt>
      <trkpt lat="47.18135" lon="3.0027">
        <ele>159.7</ele>
        <time>2016-05-05T11:20:52Z</time>
      </trkpt>
      <trkpt lat="47.18124" lon="3.00273">
        <ele>159.5</ele>
        <time>2016-05-05T11:20:55Z</time>
      </trkpt>
      <trkpt lat="47.18112" lon="3.00276">
        <ele>159.5</ele>
        <time>2016-05-05T11:20:58Z</time>
      </trkpt>
      <trkpt lat="47.18101" lon="3.00278">
        <ele>159.5</ele>
        <time>2016-05-05T11:21:01Z</time>
      </trkpt>
      <trkpt lat="47.1809" lon="3.0028">
        <ele>159.5</ele>
        <time>2016-05-05T11:21:04Z</time>
      </trkpt>
      <trkpt lat="47.18078" lon="3.00282">
        <ele>159.4</ele>
        <time>2016-05-05T11:21:07Z</time>
      </trkpt>
      <trkpt lat="47.18066" lon="3.00284">
        <ele>159.5</ele>
        <time>2016-05-05T11:21:10Z</time>
      </trkpt>
      <trkpt lat="47.18056" lon="3.00285">
        <ele>159.5</ele>
        <time>2016-05-05T11:21:12Z</time>
      </trkpt>
      <trkpt lat="47.18046" lon="3.00286">
        <ele>159.4</ele>
        <time>2016-05-05T11:21:14Z</time>
      </trkpt>
      <trkpt lat="47.18037" lon="3.00288">
        <ele>159.3</ele>
        <time>2016-05-05T11:21:16Z</time>
      </trkpt>
      <trkpt lat="47.18028" lon="3.0029">
        <ele>159.3</ele>
        <time>2016-05-05T11:21:18Z</time>
      </trkpt>
      <trkpt lat="47.18019" lon="3.00291">
        <ele>159.2</ele>
        <time>2016-05-05T11:21:20Z</time>
      </trkpt>
      <trkpt lat="47.18009" lon="3.00293">
        <ele>159</ele>
        <time>2016-05-05T11:21:22Z</time>
      </trkpt>
      <trkpt lat="47.18" lon="3.00296">
        <ele>158.9</ele>
        <time>2016-05-05T11:21:24Z</time>
      </trkpt>
      <trkpt lat="47.17988" lon="3.00303">
        <ele>159</ele>
        <time>2016-05-05T11:21:27Z</time>
      </trkpt>
      <trkpt lat="47.17976" lon="3.00312">
        <ele>159.1</ele>
        <time>2016-05-05T11:21:30Z</time>
      </trkpt>
      <trkpt lat="47.17968" lon="3.00319">
        <ele>159.1</ele>
        <time>2016-05-05T11:21:32Z</time>
      </trkpt>
      <trkpt lat="47.17957" lon="3.0033">
        <ele>159.1</ele>
        <time>2016-05-05T11:21:35Z</time>
      </trkpt>
      <trkpt lat="47.17947" lon="3.00341">
        <ele>159.2</ele>
        <time>2016-05-05T11:21:38Z</time>
      </trkpt>
      <trkpt lat="47.17935" lon="3.00351">
        <ele>159</ele>
        <time>2016-05-05T11:21:41Z</time>
      </trkpt>
      <trkpt lat="47.17926" lon="3.00356">
        <ele>159.1</ele>
        <time>2016-05-05T11:21:43Z</time>
      </trkpt>
      <trkpt lat="47.17914" lon="3.00364">
        <ele>159.1</ele>
        <time>2016-05-05T11:21:46Z</time>
      </trkpt>
      <trkpt lat="47.17906" lon="3.00371">
        <ele>159.2</ele>
        <time>2016-05-05T11:21:48Z</time>
      </trkpt>
      <trkpt lat="47.17898" lon="3.00378">
        <ele>159.1</ele>
        <time>2016-05-05T11:21:50Z</time>
      </trkpt>
      <trkpt lat="47.1789" lon="3.00384">
        <ele>159</ele>
        <time>2016-05-05T11:21:52Z</time>
      </trkpt>
      <trkpt lat="47.17882" lon="3.00391">
        <ele>159</ele>
        <time>2016-05-05T11:21:54Z</time>
      </trkpt>
      <trkpt lat="47.17873" lon="3.00398">
        <ele>158.9</ele>
        <time>2016-05-05T11:21:56Z</time>
      </trkpt>
      <trkpt lat="47.17865" lon="3.00404">
        <ele>158.9</ele>
        <time>2016-05-05T11:21:58Z</time>
      </trkpt>
      <trkpt lat="47.17857" lon="3.00411">
        <ele>158.9</ele>
        <time>2016-05-05T11:22:00Z</time>
      </trkpt>
      <trkpt lat="47.17849" lon="3.00418">
        <ele>158.9</ele>
        <time>2016-05-05T11:22:02Z</time>
      </trkpt>
      <trkpt lat="47.17841" lon="3.00425">
        <ele>158.9</ele>
        <time>2016-05-05T11:22:04Z</time>
      </trkpt>
      <trkpt lat="47.17829" lon="3.00434">
        <ele>159</ele>
        <time>2016-05-05T11:22:07Z</time>
      </trkpt>
      <trkpt lat="47.17819" lon="3.00443">
        <ele>159.1</ele>
        <time>2016-05-05T11:22:10Z</time>
      </trkpt>
      <trkpt lat="47.17807" lon="3.00452">
        <ele>159.4</ele>
        <time>2016-05-05T11:22:13Z</time>
      </trkpt>
      <trkpt lat="47.17796" lon="3.00461">
        <ele>159.4</ele>
        <time>2016-05-05T11:22:16Z</time>
      </trkpt>
      <trkpt lat="47.17787" lon="3.00467">
        <ele>159.3</ele>
        <time>2016-05-05T11:22:18Z</time>
      </trkpt>
      <trkpt lat="47.17779" lon="3.00474">
        <ele>159.2</ele>
        <time>2016-05-05T11:22:20Z</time>
      </trkpt>
      <trkpt lat="47.17768" lon="3.00484">
        <ele>159.2</ele>
        <time>2016-05-05T11:22:23Z</time>
      </trkpt>
      <trkpt lat="47.1776" lon="3.0049">
        <ele>159.2</ele>
        <time>2016-05-05T11:22:25Z</time>
      </trkpt>
      <trkpt lat="47.17748" lon="3.00499">
        <ele>159.3</ele>
        <time>2016-05-05T11:22:28Z</time>
      </trkpt>
      <trkpt lat="47.17737" lon="3.00509">
        <ele>159.3</ele>
        <time>2016-05-05T11:22:31Z</time>
      </trkpt>
      <trkpt lat="47.17728" lon="3.00515">
        <ele>159.3</ele>
        <time>2016-05-05T11:22:33Z</time>
      </trkpt>
      <trkpt lat="47.1772" lon="3.00522">
        <ele>159.3</ele>
        <time>2016-05-05T11:22:35Z</time>
      </trkpt>
      <trkpt lat="47.17712" lon="3.00529">
        <ele>159.2</ele>
        <time>2016-05-05T11:22:37Z</time>
      </trkpt>
      <trkpt lat="47.17704" lon="3.00535">
        <ele>159.3</ele>
        <time>2016-05-05T11:22:39Z</time>
      </trkpt>
      <trkpt lat="47.17696" lon="3.00541">
        <ele>159.3</ele>
        <time>2016-05-05T11:22:41Z</time>
      </trkpt>
      <trkpt lat="47.17687" lon="3.00548">
        <ele>159.4</ele>
        <time>2016-05-05T11:22:43Z</time>
      </trkpt>
      <trkpt lat="47.1768" lon="3.00555">
        <ele>159.5</ele>
        <time>2016-05-05T11:22:45Z</time>
      </trkpt>
      <trkpt lat="47.17672" lon="3.00563">
        <ele>159.4</ele>
        <time>2016-05-05T11:22:47Z</time>
      </trkpt>
      <trkpt lat="47.17664" lon="3.00572">
        <ele>159.3</ele>
        <time>2016-05-05T11:22:49Z</time>
      </trkpt>
      <trkpt lat="47.17657" lon="3.00581">
        <ele>159.3</ele>
        <time>2016-05-05T11:22:51Z</time>
      </trkpt>
      <trkpt lat="47.17651" lon="3.00591">
        <ele>159.4</ele>
        <time>2016-05-05T11:22:53Z</time>
      </trkpt>
      <trkpt lat="47.17644" lon="3.00601">
        <ele>159.2</ele>
        <time>2016-05-05T11:22:55Z</time>
      </trkpt>
      <trkpt lat="47.17638" lon="3.0061">
        <ele>159.1</ele>
        <time>2016-05-05T11:22:57Z</time>
      </trkpt>
      <trkpt lat="47.17632" lon="3.0062">
        <ele>159.2</ele>
        <time>2016-05-05T11:22:59Z</time>
      </trkpt>
      <trkpt lat="47.17625" lon="3.0063">
        <ele>159.3</ele>
        <time>2016-05-05T11:23:01Z</time>
      </trkpt>
      <trkpt lat="47.17619" lon="3.0064">
        <ele>159.3</ele>
        <time>2016-05-05T11:23:03Z</time>
      </trkpt>
      <trkpt lat="47.17611" lon="3.00654">
        <ele>159.6</ele>
        <time>2016-05-05T11:23:06Z</time>
      </trkpt>
      <trkpt lat="47.17604" lon="3.00663">
        <ele>159.6</ele>
        <time>2016-05-05T11:23:08Z</time>
      </trkpt>
      <trkpt lat="47.17598" lon="3.00673">
        <ele>159.5</ele>
        <time>2016-05-05T11:23:10Z</time>
      </trkpt>
      <trkpt lat="47.17589" lon="3.00687">
        <ele>159.6</ele>
        <time>2016-05-05T11:23:13Z</time>
      </trkpt>
      <trkpt lat="47.17583" lon="3.00697">
        <ele>159.8</ele>
        <time>2016-05-05T11:23:15Z</time>
      </trkpt>
      <trkpt lat="47.17576" lon="3.00706">
        <ele>159.8</ele>
        <time>2016-05-05T11:23:17Z</time>
      </trkpt>
      <trkpt lat="47.1757" lon="3.00717">
        <ele>159.9</ele>
        <time>2016-05-05T11:23:19Z</time>
      </trkpt>
      <trkpt lat="47.17564" lon="3.00726">
        <ele>160</ele>
        <time>2016-05-05T11:23:21Z</time>
      </trkpt>
      <trkpt lat="47.17556" lon="3.00735">
        <ele>159.9</ele>
        <time>2016-05-05T11:23:23Z</time>
      </trkpt>
      <trkpt lat="47.17547" lon="3.00749">
        <ele>160</ele>
        <time>2016-05-05T11:23:26Z</time>
      </trkpt>
      <trkpt lat="47.1754" lon="3.00758">
        <ele>160.1</ele>
        <time>2016-05-05T11:23:28Z</time>
      </trkpt>
      <trkpt lat="47.17532" lon="3.00765">
        <ele>160.2</ele>
        <time>2016-05-05T11:23:30Z</time>
      </trkpt>
      <trkpt lat="47.17523" lon="3.00772">
        <ele>160</ele>
        <time>2016-05-05T11:23:32Z</time>
      </trkpt>
      <trkpt lat="47.17514" lon="3.00778">
        <ele>160.1</ele>
        <time>2016-05-05T11:23:34Z</time>
      </trkpt>
      <trkpt lat="47.17505" lon="3.00783">
        <ele>160.1</ele>
        <time>2016-05-05T11:23:36Z</time>
      </trkpt>
      <trkpt lat="47.17496" lon="3.00788">
        <ele>160.1</ele>
        <time>2016-05-05T11:23:38Z</time>
      </trkpt>
      <trkpt lat="47.17488" lon="3.00793">
        <ele>160.3</ele>
        <time>2016-05-05T11:23:40Z</time>
      </trkpt>
      <trkpt lat="47.17479" lon="3.00797">
        <ele>160.5</ele>
        <time>2016-05-05T11:23:42Z</time>
      </trkpt>
      <trkpt lat="47.17467" lon="3.00804">
        <ele>160.9</ele>
        <time>2016-05-05T11:23:45Z</time>
      </trkpt>
      <trkpt lat="47.17459" lon="3.00814">
        <ele>161.9</ele>
        <time>2016-05-05T11:23:50Z</time>
      </trkpt>
      <trkpt lat="47.17461" lon="3.00828">
        <ele>162.5</ele>
        <time>2016-05-05T11:23:55Z</time>
      </trkpt>
      <trkpt lat="47.17466" lon="3.0084">
        <ele>162.7</ele>
        <time>2016-05-05T11:23:59Z</time>
      </trkpt>
      <trkpt lat="47.17471" lon="3.00851">
        <ele>163.2</ele>
        <time>2016-05-05T11:24:03Z</time>
      </trkpt>
      <trkpt lat="47.17477" lon="3.00864">
        <ele>163.4</ele>
        <time>2016-05-05T11:24:07Z</time>
      </trkpt>
      <trkpt lat="47.17482" lon="3.00877">
        <ele>163.7</ele>
        <time>2016-05-05T11:24:11Z</time>
      </trkpt>
      <trkpt lat="47.17487" lon="3.00889">
        <ele>164</ele>
        <time>2016-05-05T11:24:15Z</time>
      </trkpt>
      <trkpt lat="47.17493" lon="3.00902">
        <ele>164.5</ele>
        <time>2016-05-05T11:24:19Z</time>
      </trkpt>
      <trkpt lat="47.17498" lon="3.00916">
        <ele>164.6</ele>
        <time>2016-05-05T11:24:23Z</time>
      </trkpt>
      <trkpt lat="47.17504" lon="3.00931">
        <ele>164.6</ele>
        <time>2016-05-05T11:24:27Z</time>
      </trkpt>
      <trkpt lat="47.1751" lon="3.00946">
        <ele>164.8</ele>
        <time>2016-05-05T11:24:31Z</time>
      </trkpt>
      <trkpt lat="47.17516" lon="3.0096">
        <ele>165</ele>
        <time>2016-05-05T11:24:35Z</time>
      </trkpt>
      <trkpt lat="47.17521" lon="3.00972">
        <ele>165</ele>
        <time>2016-05-05T11:24:38Z</time>
      </trkpt>
      <trkpt lat="47.17526" lon="3.00984">
        <ele>165.1</ele>
        <time>2016-05-05T11:24:41Z</time>
      </trkpt>
      <trkpt lat="47.17531" lon="3.00996">
        <ele>165</ele>
        <time>2016-05-05T11:24:44Z</time>
      </trkpt>
      <trkpt lat="47.17536" lon="3.01009">
        <ele>164.8</ele>
        <time>2016-05-05T11:24:47Z</time>
      </trkpt>
      <trkpt lat="47.17542" lon="3.01023">
        <ele>164.8</ele>
        <time>2016-05-05T11:24:50Z</time>
      </trkpt>
      <trkpt lat="47.17547" lon="3.01038">
        <ele>164.6</ele>
        <time>2016-05-05T11:24:53Z</time>
      </trkpt>
      <trkpt lat="47.17552" lon="3.0105">
        <ele>164.4</ele>
        <time>2016-05-05T11:24:56Z</time>
      </trkpt>
      <trkpt lat="47.17557" lon="3.01064">
        <ele>164.1</ele>
        <time>2016-05-05T11:25:01Z</time>
      </trkpt>
      <trkpt lat="47.17562" lon="3.01075">
        <ele>163.4</ele>
        <time>2016-05-05T11:25:06Z</time>
      </trkpt>
      <trkpt lat="47.1757" lon="3.01089">
        <ele>163</ele>
        <time>2016-05-05T11:25:10Z</time>
      </trkpt>
      <trkpt lat="47.17576" lon="3.01106">
        <ele>162.5</ele>
        <time>2016-05-05T11:25:13Z</time>
      </trkpt>
      <trkpt lat="47.17582" lon="3.01118">
        <ele>162.2</ele>
        <time>2016-05-05T11:25:15Z</time>
      </trkpt>
      <trkpt lat="47.17586" lon="3.01131">
        <ele>161.8</ele>
        <time>2016-05-05T11:25:17Z</time>
      </trkpt>
      <trkpt lat="47.17591" lon="3.01143">
        <ele>161.6</ele>
        <time>2016-05-05T11:25:19Z</time>
      </trkpt>
      <trkpt lat="47.17595" lon="3.01156">
        <ele>161.3</ele>
        <time>2016-05-05T11:25:21Z</time>
      </trkpt>
      <trkpt lat="47.17601" lon="3.01172">
        <ele>161.2</ele>
        <time>2016-05-05T11:25:23Z</time>
      </trkpt>
      <trkpt lat="47.17606" lon="3.01187">
        <ele>161.2</ele>
        <time>2016-05-05T11:25:25Z</time>
      </trkpt>
      <trkpt lat="47.17611" lon="3.01203">
        <ele>161.2</ele>
        <time>2016-05-05T11:25:27Z</time>
      </trkpt>
      <trkpt lat="47.17615" lon="3.01219">
        <ele>161.5</ele>
        <time>2016-05-05T11:25:29Z</time>
      </trkpt>
      <trkpt lat="47.17621" lon="3.01233">
        <ele>161.8</ele>
        <time>2016-05-05T11:25:31Z</time>
      </trkpt>
      <trkpt lat="47.17626" lon="3.01246">
        <ele>162.2</ele>
        <time>2016-05-05T11:25:33Z</time>
      </trkpt>
      <trkpt lat="47.17632" lon="3.01257">
        <ele>162.7</ele>
        <time>2016-05-05T11:25:35Z</time>
      </trkpt>
      <trkpt lat="47.1764" lon="3.01269">
        <ele>163.4</ele>
        <time>2016-05-05T11:25:38Z</time>
      </trkpt>
      <trkpt lat="47.17644" lon="3.01281">
        <ele>164</ele>
        <time>2016-05-05T11:25:41Z</time>
      </trkpt>
      <trkpt lat="47.17649" lon="3.01293">
        <ele>164.4</ele>
        <time>2016-05-05T11:25:44Z</time>
      </trkpt>
      <trkpt lat="47.17653" lon="3.01305">
        <ele>164.4</ele>
        <time>2016-05-05T11:25:47Z</time>
      </trkpt>
      <trkpt lat="47.1766" lon="3.01319">
        <ele>164.5</ele>
        <time>2016-05-05T11:25:51Z</time>
      </trkpt>
      <trkpt lat="47.17665" lon="3.01334">
        <ele>165.1</ele>
        <time>2016-05-05T11:25:55Z</time>
      </trkpt>
      <trkpt lat="47.1767" lon="3.01346">
        <ele>165.3</ele>
        <time>2016-05-05T11:25:58Z</time>
      </trkpt>
      <trkpt lat="47.17675" lon="3.01359">
        <ele>165.1</ele>
        <time>2016-05-05T11:26:01Z</time>
      </trkpt>
      <trkpt lat="47.1768" lon="3.01372">
        <ele>165.3</ele>
        <time>2016-05-05T11:26:04Z</time>
      </trkpt>
      <trkpt lat="47.17685" lon="3.01385">
        <ele>165.4</ele>
        <time>2016-05-05T11:26:07Z</time>
      </trkpt>
      <trkpt lat="47.1769" lon="3.01399">
        <ele>165.6</ele>
        <time>2016-05-05T11:26:10Z</time>
      </trkpt>
      <trkpt lat="47.17694" lon="3.01413">
        <ele>165.7</ele>
        <time>2016-05-05T11:26:13Z</time>
      </trkpt>
      <trkpt lat="47.17699" lon="3.01425">
        <ele>166</ele>
        <time>2016-05-05T11:26:16Z</time>
      </trkpt>
      <trkpt lat="47.17703" lon="3.01437">
        <ele>166.1</ele>
        <time>2016-05-05T11:26:19Z</time>
      </trkpt>
      <trkpt lat="47.17708" lon="3.01449">
        <ele>166.1</ele>
        <time>2016-05-05T11:26:22Z</time>
      </trkpt>
      <trkpt lat="47.17713" lon="3.01463">
        <ele>166</ele>
        <time>2016-05-05T11:26:25Z</time>
      </trkpt>
      <trkpt lat="47.17718" lon="3.01478">
        <ele>165.8</ele>
        <time>2016-05-05T11:26:28Z</time>
      </trkpt>
      <trkpt lat="47.17723" lon="3.01492">
        <ele>165.6</ele>
        <time>2016-05-05T11:26:31Z</time>
      </trkpt>
      <trkpt lat="47.17728" lon="3.01506">
        <ele>165.1</ele>
        <time>2016-05-05T11:26:36Z</time>
      </trkpt>
      <trkpt lat="47.17733" lon="3.01521">
        <ele>164.7</ele>
        <time>2016-05-05T11:26:40Z</time>
      </trkpt>
      <trkpt lat="47.17738" lon="3.01534">
        <ele>164.2</ele>
        <time>2016-05-05T11:26:43Z</time>
      </trkpt>
      <trkpt lat="47.17742" lon="3.01547">
        <ele>163.9</ele>
        <time>2016-05-05T11:26:47Z</time>
      </trkpt>
      <trkpt lat="47.17748" lon="3.0156">
        <ele>163.4</ele>
        <time>2016-05-05T11:26:51Z</time>
      </trkpt>
      <trkpt lat="47.17749" lon="3.01573">
        <ele>163.2</ele>
        <time>2016-05-05T11:26:54Z</time>
      </trkpt>
      <trkpt lat="47.17751" lon="3.01591">
        <ele>163.4</ele>
        <time>2016-05-05T11:26:58Z</time>
      </trkpt>
      <trkpt lat="47.17754" lon="3.01608">
        <ele>163.8</ele>
        <time>2016-05-05T11:27:02Z</time>
      </trkpt>
      <trkpt lat="47.17757" lon="3.01621">
        <ele>164.5</ele>
        <time>2016-05-05T11:27:07Z</time>
      </trkpt>
      <trkpt lat="47.17746" lon="3.01628">
        <ele>165.4</ele>
        <time>2016-05-05T11:27:28Z</time>
      </trkpt>
      <trkpt lat="47.17735" lon="3.01631">
        <ele>165.2</ele>
        <time>2016-05-05T11:27:32Z</time>
      </trkpt>
      <trkpt lat="47.17726" lon="3.01637">
        <ele>165.9</ele>
        <time>2016-05-05T11:27:37Z</time>
      </trkpt>
      <trkpt lat="47.1772" lon="3.01648">
        <ele>166.5</ele>
        <time>2016-05-05T11:27:41Z</time>
      </trkpt>
      <trkpt lat="47.17727" lon="3.01659">
        <ele>167.1</ele>
        <time>2016-05-05T11:27:48Z</time>
      </trkpt>
      <trkpt lat="47.17736" lon="3.01662">
        <ele>168</ele>
        <time>2016-05-05T11:27:53Z</time>
      </trkpt>
      <trkpt lat="47.17745" lon="3.0167">
        <ele>168.5</ele>
        <time>2016-05-05T11:27:59Z</time>
      </trkpt>
      <trkpt lat="47.17746" lon="3.01684">
        <ele>168.8</ele>
        <time>2016-05-05T11:28:05Z</time>
      </trkpt>
      <trkpt lat="47.17745" lon="3.0167">
        <ele>169.7</ele>
        <time>2016-05-05T11:29:13Z</time>
      </trkpt>
      <trkpt lat="47.17751" lon="3.01681">
        <ele>170</ele>
        <time>2016-05-05T11:30:22Z</time>
      </trkpt>
      <trkpt lat="47.17747" lon="3.01668">
        <ele>169.6</ele>
        <time>2016-05-05T11:31:20Z</time>
      </trkpt>
      <trkpt lat="47.17738" lon="3.01662">
        <ele>168.9</ele>
        <time>2016-05-05T11:31:26Z</time>
      </trkpt>
      <trkpt lat="47.17729" lon="3.01662">
        <ele>168.6</ele>
        <time>2016-05-05T11:31:31Z</time>
      </trkpt>
      <trkpt lat="47.17719" lon="3.01666">
        <ele>168.3</ele>
        <time>2016-05-05T11:31:36Z</time>
      </trkpt>
      <trkpt lat="47.17725" lon="3.01652">
        <ele>167.4</ele>
        <time>2016-05-05T11:31:46Z</time>
      </trkpt>
      <trkpt lat="47.17733" lon="3.01642">
        <ele>166.9</ele>
        <time>2016-05-05T11:31:48Z</time>
      </trkpt>
      <trkpt lat="47.17742" lon="3.01634">
        <ele>166.5</ele>
        <time>2016-05-05T11:31:51Z</time>
      </trkpt>
      <trkpt lat="47.17752" lon="3.01634">
        <ele>166.4</ele>
        <time>2016-05-05T11:31:54Z</time>
      </trkpt>
      <trkpt lat="47.17763" lon="3.01635">
        <ele>166.6</ele>
        <time>2016-05-05T11:31:58Z</time>
      </trkpt>
      <trkpt lat="47.17774" lon="3.01635">
        <ele>166.7</ele>
        <time>2016-05-05T11:32:03Z</time>
      </trkpt>
      <trkpt lat="47.17783" lon="3.01641">
        <ele>167</ele>
        <time>2016-05-05T11:32:09Z</time>
      </trkpt>
      <trkpt lat="47.17793" lon="3.01643">
        <ele>167.3</ele>
        <time>2016-05-05T11:32:13Z</time>
      </trkpt>
      <trkpt lat="47.17802" lon="3.01647">
        <ele>168.1</ele>
        <time>2016-05-05T11:32:22Z</time>
      </trkpt>
      <trkpt lat="47.17807" lon="3.0166">
        <ele>168.7</ele>
        <time>2016-05-05T11:32:36Z</time>
      </trkpt>
      <trkpt lat="47.17816" lon="3.01658">
        <ele>168.7</ele>
        <time>2016-05-05T11:32:47Z</time>
      </trkpt>
      <trkpt lat="47.17807" lon="3.01659">
        <ele>168.5</ele>
        <time>2016-05-05T11:32:58Z</time>
      </trkpt>
      <trkpt lat="47.17796" lon="3.01659">
        <ele>168.4</ele>
        <time>2016-05-05T11:33:06Z</time>
      </trkpt>
      <trkpt lat="47.17805" lon="3.01656">
        <ele>168.3</ele>
        <time>2016-05-05T11:33:20Z</time>
      </trkpt>
      <trkpt lat="47.17814" lon="3.01649">
        <ele>168.3</ele>
        <time>2016-05-05T11:33:23Z</time>
      </trkpt>
      <trkpt lat="47.17824" lon="3.01637">
        <ele>168.2</ele>
        <time>2016-05-05T11:33:26Z</time>
      </trkpt>
      <trkpt lat="47.17817" lon="3.01628">
        <ele>168.1</ele>
        <time>2016-05-05T11:33:51Z</time>
      </trkpt>
      <trkpt lat="47.17807" lon="3.01633">
        <ele>168.3</ele>
        <time>2016-05-05T11:33:57Z</time>
      </trkpt>
      <trkpt lat="47.17797" lon="3.01641">
        <ele>168.4</ele>
        <time>2016-05-05T11:34:03Z</time>
      </trkpt>
      <trkpt lat="47.17792" lon="3.01652">
        <ele>168.5</ele>
        <time>2016-05-05T11:34:10Z</time>
      </trkpt>
      <trkpt lat="47.17791" lon="3.01666">
        <ele>168.5</ele>
        <time>2016-05-05T11:34:15Z</time>
      </trkpt>
      <trkpt lat="47.17801" lon="3.01663">
        <ele>168.4</ele>
        <time>2016-05-05T11:34:33Z</time>
      </trkpt>
      <trkpt lat="47.17791" lon="3.01665">
        <ele>168.4</ele>
        <time>2016-05-05T11:34:53Z</time>
      </trkpt>
      <trkpt lat="47.1778" lon="3.01665">
        <ele>168.3</ele>
        <time>2016-05-05T11:34:57Z</time>
      </trkpt>
      <trkpt lat="47.17789" lon="3.01665">
        <ele>168.3</ele>
        <time>2016-05-05T11:35:12Z</time>
      </trkpt>
      <trkpt lat="47.17798" lon="3.01668">
        <ele>168.4</ele>
        <time>2016-05-05T11:35:22Z</time>
      </trkpt>
      <trkpt lat="47.17803" lon="3.01656">
        <ele>168.3</ele>
        <time>2016-05-05T11:36:06Z</time>
      </trkpt>
      <trkpt lat="47.17809" lon="3.01666">
        <ele>168.5</ele>
        <time>2016-05-05T11:36:45Z</time>
      </trkpt>
      <trkpt lat="47.17812" lon="3.0165">
        <ele>168.6</ele>
        <time>2016-05-05T11:36:57Z</time>
      </trkpt>
      <trkpt lat="47.17813" lon="3.01636">
        <ele>168.6</ele>
        <time>2016-05-05T11:37:01Z</time>
      </trkpt>
      <trkpt lat="47.17823" lon="3.01631">
        <ele>169</ele>
        <time>2016-05-05T11:37:07Z</time>
      </trkpt>
      <trkpt lat="47.17832" lon="3.0163">
        <ele>169.4</ele>
        <time>2016-05-05T11:37:12Z</time>
      </trkpt>
      <trkpt lat="47.1784" lon="3.01637">
        <ele>169.9</ele>
        <time>2016-05-05T11:37:17Z</time>
      </trkpt>
      <trkpt lat="47.1784" lon="3.01623">
        <ele>170.7</ele>
        <time>2016-05-05T11:37:24Z</time>
      </trkpt>
      <trkpt lat="47.17849" lon="3.01616">
        <ele>172</ele>
        <time>2016-05-05T11:37:31Z</time>
      </trkpt>
      <trkpt lat="47.17858" lon="3.01614">
        <ele>173</ele>
        <time>2016-05-05T11:37:36Z</time>
      </trkpt>
      <trkpt lat="47.17867" lon="3.01618">
        <ele>174</ele>
        <time>2016-05-05T11:37:41Z</time>
      </trkpt>
      <trkpt lat="47.17871" lon="3.01633">
        <ele>174.9</ele>
        <time>2016-05-05T11:37:47Z</time>
      </trkpt>
      <trkpt lat="47.17873" lon="3.01648">
        <ele>175.5</ele>
        <time>2016-05-05T11:37:53Z</time>
      </trkpt>
      <trkpt lat="47.17875" lon="3.01662">
        <ele>175.8</ele>
        <time>2016-05-05T11:37:58Z</time>
      </trkpt>
      <trkpt lat="47.17877" lon="3.01677">
        <ele>176.1</ele>
        <time>2016-05-05T11:38:03Z</time>
      </trkpt>
      <trkpt lat="47.17879" lon="3.01692">
        <ele>176.3</ele>
        <time>2016-05-05T11:38:08Z</time>
      </trkpt>
      <trkpt lat="47.17879" lon="3.01706">
        <ele>176.5</ele>
        <time>2016-05-05T11:38:12Z</time>
      </trkpt>
      <trkpt lat="47.17879" lon="3.01719">
        <ele>176.7</ele>
        <time>2016-05-05T11:38:16Z</time>
      </trkpt>
      <trkpt lat="47.1788" lon="3.01735">
        <ele>176.8</ele>
        <time>2016-05-05T11:38:21Z</time>
      </trkpt>
      <trkpt lat="47.17882" lon="3.0175">
        <ele>176.9</ele>
        <time>2016-05-05T11:38:26Z</time>
      </trkpt>
      <trkpt lat="47.17883" lon="3.01763">
        <ele>177</ele>
        <time>2016-05-05T11:38:30Z</time>
      </trkpt>
      <trkpt lat="47.17883" lon="3.01777">
        <ele>177</ele>
        <time>2016-05-05T11:38:34Z</time>
      </trkpt>
      <trkpt lat="47.17884" lon="3.01791">
        <ele>177.3</ele>
        <time>2016-05-05T11:38:38Z</time>
      </trkpt>
      <trkpt lat="47.17883" lon="3.01807">
        <ele>177.8</ele>
        <time>2016-05-05T11:38:43Z</time>
      </trkpt>
      <trkpt lat="47.17875" lon="3.01819">
        <ele>178.2</ele>
        <time>2016-05-05T11:38:48Z</time>
      </trkpt>
      <trkpt lat="47.17865" lon="3.01823">
        <ele>178.3</ele>
        <time>2016-05-05T11:38:52Z</time>
      </trkpt>
      <trkpt lat="47.17854" lon="3.01824">
        <ele>178.7</ele>
        <time>2016-05-05T11:38:56Z</time>
      </trkpt>
      <trkpt lat="47.17843" lon="3.01827">
        <ele>178.7</ele>
        <time>2016-05-05T11:39:00Z</time>
      </trkpt>
      <trkpt lat="47.17832" lon="3.01828">
        <ele>179</ele>
        <time>2016-05-05T11:39:04Z</time>
      </trkpt>
      <trkpt lat="47.17822" lon="3.01832">
        <ele>178.6</ele>
        <time>2016-05-05T11:39:08Z</time>
      </trkpt>
      <trkpt lat="47.17813" lon="3.01835">
        <ele>178.5</ele>
        <time>2016-05-05T11:39:13Z</time>
      </trkpt>
      <trkpt lat="47.17819" lon="3.01845">
        <ele>178.9</ele>
        <time>2016-05-05T11:39:58Z</time>
      </trkpt>
      <trkpt lat="47.17819" lon="3.01859">
        <ele>179.7</ele>
        <time>2016-05-05T11:40:03Z</time>
      </trkpt>
      <trkpt lat="47.17822" lon="3.01871">
        <ele>180.8</ele>
        <time>2016-05-05T11:40:08Z</time>
      </trkpt>
      <trkpt lat="47.17825" lon="3.01884">
        <ele>181.8</ele>
        <time>2016-05-05T11:40:13Z</time>
      </trkpt>
      <trkpt lat="47.17824" lon="3.019">
        <ele>183.1</ele>
        <time>2016-05-05T11:40:18Z</time>
      </trkpt>
      <trkpt lat="47.17825" lon="3.01914">
        <ele>184.5</ele>
        <time>2016-05-05T11:40:24Z</time>
      </trkpt>
      <trkpt lat="47.17827" lon="3.01928">
        <ele>185.6</ele>
        <time>2016-05-05T11:40:30Z</time>
      </trkpt>
      <trkpt lat="47.17835" lon="3.01936">
        <ele>187</ele>
        <time>2016-05-05T11:40:36Z</time>
      </trkpt>
      <trkpt lat="47.17845" lon="3.01937">
        <ele>188</ele>
        <time>2016-05-05T11:40:43Z</time>
      </trkpt>
      <trkpt lat="47.17856" lon="3.01936">
        <ele>189.5</ele>
        <time>2016-05-05T11:40:50Z</time>
      </trkpt>
      <trkpt lat="47.17866" lon="3.01937">
        <ele>190.8</ele>
        <time>2016-05-05T11:40:58Z</time>
      </trkpt>
      <trkpt lat="47.17876" lon="3.01939">
        <ele>192.3</ele>
        <time>2016-05-05T11:41:06Z</time>
      </trkpt>
      <trkpt lat="47.17884" lon="3.01948">
        <ele>194.2</ele>
        <time>2016-05-05T11:41:15Z</time>
      </trkpt>
      <trkpt lat="47.17891" lon="3.01959">
        <ele>195.6</ele>
        <time>2016-05-05T11:41:23Z</time>
      </trkpt>
      <trkpt lat="47.17895" lon="3.01972">
        <ele>196.5</ele>
        <time>2016-05-05T11:41:31Z</time>
      </trkpt>
      <trkpt lat="47.17901" lon="3.01983">
        <ele>196.8</ele>
        <time>2016-05-05T11:41:37Z</time>
      </trkpt>
      <trkpt lat="47.1791" lon="3.01981">
        <ele>197.1</ele>
        <time>2016-05-05T11:41:43Z</time>
      </trkpt>
      <trkpt lat="47.17919" lon="3.01976">
        <ele>197.8</ele>
        <time>2016-05-05T11:41:51Z</time>
      </trkpt>
      <trkpt lat="47.17928" lon="3.01972">
        <ele>198.6</ele>
        <time>2016-05-05T11:41:58Z</time>
      </trkpt>
      <trkpt lat="47.17937" lon="3.01969">
        <ele>199.3</ele>
        <time>2016-05-05T11:42:04Z</time>
      </trkpt>
      <trkpt lat="47.17946" lon="3.01963">
        <ele>200.1</ele>
        <time>2016-05-05T11:42:11Z</time>
      </trkpt>
      <trkpt lat="47.17955" lon="3.01962">
        <ele>200.7</ele>
        <time>2016-05-05T11:42:17Z</time>
      </trkpt>
      <trkpt lat="47.17962" lon="3.01971">
        <ele>201.1</ele>
        <time>2016-05-05T11:42:23Z</time>
      </trkpt>
      <trkpt lat="47.17966" lon="3.01983">
        <ele>201.7</ele>
        <time>2016-05-05T11:42:29Z</time>
      </trkpt>
      <trkpt lat="47.17967" lon="3.01999">
        <ele>202.1</ele>
        <time>2016-05-05T11:42:34Z</time>
      </trkpt>
      <trkpt lat="47.17967" lon="3.02015">
        <ele>202.6</ele>
        <time>2016-05-05T11:42:39Z</time>
      </trkpt>
      <trkpt lat="47.17968" lon="3.02032">
        <ele>202.7</ele>
        <time>2016-05-05T11:42:44Z</time>
      </trkpt>
      <trkpt lat="47.1797" lon="3.02047">
        <ele>202.8</ele>
        <time>2016-05-05T11:42:49Z</time>
      </trkpt>
      <trkpt lat="47.1797" lon="3.02065">
        <ele>202.7</ele>
        <time>2016-05-05T11:42:53Z</time>
      </trkpt>
      <trkpt lat="47.17971" lon="3.02081">
        <ele>202.7</ele>
        <time>2016-05-05T11:42:56Z</time>
      </trkpt>
      <trkpt lat="47.17973" lon="3.02098">
        <ele>202.5</ele>
        <time>2016-05-05T11:42:59Z</time>
      </trkpt>
      <trkpt lat="47.17974" lon="3.02116">
        <ele>202.3</ele>
        <time>2016-05-05T11:43:02Z</time>
      </trkpt>
      <trkpt lat="47.17975" lon="3.02136">
        <ele>202.1</ele>
        <time>2016-05-05T11:43:05Z</time>
      </trkpt>
      <trkpt lat="47.17976" lon="3.02154">
        <ele>201.9</ele>
        <time>2016-05-05T11:43:08Z</time>
      </trkpt>
      <trkpt lat="47.17976" lon="3.02173">
        <ele>201.6</ele>
        <time>2016-05-05T11:43:11Z</time>
      </trkpt>
      <trkpt lat="47.17976" lon="3.02192">
        <ele>201.4</ele>
        <time>2016-05-05T11:43:14Z</time>
      </trkpt>
      <trkpt lat="47.17976" lon="3.02212">
        <ele>201.2</ele>
        <time>2016-05-05T11:43:17Z</time>
      </trkpt>
      <trkpt lat="47.17975" lon="3.02232">
        <ele>201</ele>
        <time>2016-05-05T11:43:20Z</time>
      </trkpt>
      <trkpt lat="47.17974" lon="3.02246">
        <ele>200.8</ele>
        <time>2016-05-05T11:43:22Z</time>
      </trkpt>
      <trkpt lat="47.17974" lon="3.02265">
        <ele>200.5</ele>
        <time>2016-05-05T11:43:25Z</time>
      </trkpt>
      <trkpt lat="47.17974" lon="3.02282">
        <ele>200.4</ele>
        <time>2016-05-05T11:43:28Z</time>
      </trkpt>
      <trkpt lat="47.17974" lon="3.02299">
        <ele>200.6</ele>
        <time>2016-05-05T11:43:31Z</time>
      </trkpt>
      <trkpt lat="47.17974" lon="3.02316">
        <ele>200.5</ele>
        <time>2016-05-05T11:43:34Z</time>
      </trkpt>
      <trkpt lat="47.17972" lon="3.02331">
        <ele>200.7</ele>
        <time>2016-05-05T11:43:37Z</time>
      </trkpt>
      <trkpt lat="47.17968" lon="3.02343">
        <ele>200.9</ele>
        <time>2016-05-05T11:43:40Z</time>
      </trkpt>
      <trkpt lat="47.17965" lon="3.02357">
        <ele>200.8</ele>
        <time>2016-05-05T11:43:43Z</time>
      </trkpt>
      <trkpt lat="47.17969" lon="3.0237">
        <ele>200.8</ele>
        <time>2016-05-05T11:43:46Z</time>
      </trkpt>
      <trkpt lat="47.17979" lon="3.02373">
        <ele>200.9</ele>
        <time>2016-05-05T11:43:49Z</time>
      </trkpt>
      <trkpt lat="47.1799" lon="3.02371">
        <ele>200.9</ele>
        <time>2016-05-05T11:43:52Z</time>
      </trkpt>
      <trkpt lat="47.17997" lon="3.02381">
        <ele>201.2</ele>
        <time>2016-05-05T11:43:57Z</time>
      </trkpt>
      <trkpt lat="47.1799" lon="3.02373">
        <ele>201.4</ele>
        <time>2016-05-05T11:46:47Z</time>
      </trkpt>
      <trkpt lat="47.17984" lon="3.02361">
        <ele>201.3</ele>
        <time>2016-05-05T11:46:51Z</time>
      </trkpt>
      <trkpt lat="47.17981" lon="3.02348">
        <ele>201.2</ele>
        <time>2016-05-05T11:46:55Z</time>
      </trkpt>
      <trkpt lat="47.17975" lon="3.02336">
        <ele>201.2</ele>
        <time>2016-05-05T11:46:59Z</time>
      </trkpt>
      <trkpt lat="47.17973" lon="3.02319">
        <ele>201</ele>
        <time>2016-05-05T11:47:03Z</time>
      </trkpt>
      <trkpt lat="47.17974" lon="3.02305">
        <ele>200.8</ele>
        <time>2016-05-05T11:47:06Z</time>
      </trkpt>
      <trkpt lat="47.17973" lon="3.02291">
        <ele>200.8</ele>
        <time>2016-05-05T11:47:09Z</time>
      </trkpt>
      <trkpt lat="47.17973" lon="3.02274">
        <ele>200.6</ele>
        <time>2016-05-05T11:47:13Z</time>
      </trkpt>
      <trkpt lat="47.17974" lon="3.02256">
        <ele>200.5</ele>
        <time>2016-05-05T11:47:17Z</time>
      </trkpt>
      <trkpt lat="47.17974" lon="3.02243">
        <ele>200.7</ele>
        <time>2016-05-05T11:47:20Z</time>
      </trkpt>
      <trkpt lat="47.17975" lon="3.02225">
        <ele>200.8</ele>
        <time>2016-05-05T11:47:24Z</time>
      </trkpt>
      <trkpt lat="47.17974" lon="3.02208">
        <ele>201</ele>
        <time>2016-05-05T11:47:28Z</time>
      </trkpt>
      <trkpt lat="47.17974" lon="3.02191">
        <ele>201.3</ele>
        <time>2016-05-05T11:47:32Z</time>
      </trkpt>
      <trkpt lat="47.17974" lon="3.02175">
        <ele>201.5</ele>
        <time>2016-05-05T11:47:36Z</time>
      </trkpt>
      <trkpt lat="47.17974" lon="3.02157">
        <ele>201.7</ele>
        <time>2016-05-05T11:47:40Z</time>
      </trkpt>
      <trkpt lat="47.17974" lon="3.0214">
        <ele>201.9</ele>
        <time>2016-05-05T11:47:44Z</time>
      </trkpt>
      <trkpt lat="47.17974" lon="3.02124">
        <ele>202.1</ele>
        <time>2016-05-05T11:47:48Z</time>
      </trkpt>
      <trkpt lat="47.17973" lon="3.02108">
        <ele>202.4</ele>
        <time>2016-05-05T11:47:52Z</time>
      </trkpt>
      <trkpt lat="47.17971" lon="3.02092">
        <ele>202.7</ele>
        <time>2016-05-05T11:47:56Z</time>
      </trkpt>
      <trkpt lat="47.17971" lon="3.02078">
        <ele>202.9</ele>
        <time>2016-05-05T11:48:00Z</time>
      </trkpt>
      <trkpt lat="47.17968" lon="3.02064">
        <ele>203</ele>
        <time>2016-05-05T11:48:04Z</time>
      </trkpt>
      <trkpt lat="47.17968" lon="3.02049">
        <ele>203.4</ele>
        <time>2016-05-05T11:48:08Z</time>
      </trkpt>
      <trkpt lat="47.17966" lon="3.02034">
        <ele>203.5</ele>
        <time>2016-05-05T11:48:12Z</time>
      </trkpt>
      <trkpt lat="47.17966" lon="3.02019">
        <ele>203.7</ele>
        <time>2016-05-05T11:48:16Z</time>
      </trkpt>
      <trkpt lat="47.17965" lon="3.02001">
        <ele>203.8</ele>
        <time>2016-05-05T11:48:20Z</time>
      </trkpt>
      <trkpt lat="47.17964" lon="3.01988">
        <ele>203.7</ele>
        <time>2016-05-05T11:48:23Z</time>
      </trkpt>
      <trkpt lat="47.17966" lon="3.01974">
        <ele>203.4</ele>
        <time>2016-05-05T11:48:26Z</time>
      </trkpt>
      <trkpt lat="47.1797" lon="3.01959">
        <ele>203.2</ele>
        <time>2016-05-05T11:48:29Z</time>
      </trkpt>
      <trkpt lat="47.17962" lon="3.01951">
        <ele>202.8</ele>
        <time>2016-05-05T11:48:33Z</time>
      </trkpt>
      <trkpt lat="47.17953" lon="3.01956">
        <ele>202</ele>
        <time>2016-05-05T11:48:43Z</time>
      </trkpt>
      <trkpt lat="47.17942" lon="3.01959">
        <ele>201.7</ele>
        <time>2016-05-05T11:48:49Z</time>
      </trkpt>
      <trkpt lat="47.17931" lon="3.01964">
        <ele>201</ele>
        <time>2016-05-05T11:48:53Z</time>
      </trkpt>
      <trkpt lat="47.17921" lon="3.01969">
        <ele>200.3</ele>
        <time>2016-05-05T11:48:57Z</time>
      </trkpt>
      <trkpt lat="47.17912" lon="3.01974">
        <ele>199.7</ele>
        <time>2016-05-05T11:49:00Z</time>
      </trkpt>
      <trkpt lat="47.17901" lon="3.01981">
        <ele>198.7</ele>
        <time>2016-05-05T11:49:04Z</time>
      </trkpt>
      <trkpt lat="47.17893" lon="3.01988">
        <ele>198.1</ele>
        <time>2016-05-05T11:49:07Z</time>
      </trkpt>
      <trkpt lat="47.17884" lon="3.01997">
        <ele>197.1</ele>
        <time>2016-05-05T11:49:12Z</time>
      </trkpt>
      <trkpt lat="47.17875" lon="3.02003">
        <ele>196.4</ele>
        <time>2016-05-05T11:49:16Z</time>
      </trkpt>
      <trkpt lat="47.17866" lon="3.0201">
        <ele>195.6</ele>
        <time>2016-05-05T11:49:20Z</time>
      </trkpt>
      <trkpt lat="47.17857" lon="3.02016">
        <ele>194.6</ele>
        <time>2016-05-05T11:49:24Z</time>
      </trkpt>
      <trkpt lat="47.17848" lon="3.02022">
        <ele>193.7</ele>
        <time>2016-05-05T11:49:28Z</time>
      </trkpt>
      <trkpt lat="47.17839" lon="3.02029">
        <ele>193</ele>
        <time>2016-05-05T11:49:32Z</time>
      </trkpt>
      <trkpt lat="47.17829" lon="3.02036">
        <ele>192</ele>
        <time>2016-05-05T11:49:37Z</time>
      </trkpt>
      <trkpt lat="47.1782" lon="3.02041">
        <ele>191.5</ele>
        <time>2016-05-05T11:49:43Z</time>
      </trkpt>
      <trkpt lat="47.17814" lon="3.0205">
        <ele>190.9</ele>
        <time>2016-05-05T11:49:49Z</time>
      </trkpt>
      <trkpt lat="47.1781" lon="3.02037">
        <ele>190.7</ele>
        <time>2016-05-05T11:50:00Z</time>
      </trkpt>
      <trkpt lat="47.17807" lon="3.02023">
        <ele>190</ele>
        <time>2016-05-05T11:50:04Z</time>
      </trkpt>
      <trkpt lat="47.17803" lon="3.02011">
        <ele>189.2</ele>
        <time>2016-05-05T11:50:07Z</time>
      </trkpt>
      <trkpt lat="47.17799" lon="3.01994">
        <ele>188.3</ele>
        <time>2016-05-05T11:50:11Z</time>
      </trkpt>
      <trkpt lat="47.17796" lon="3.0198">
        <ele>187.7</ele>
        <time>2016-05-05T11:50:14Z</time>
      </trkpt>
      <trkpt lat="47.17793" lon="3.01966">
        <ele>186.7</ele>
        <time>2016-05-05T11:50:17Z</time>
      </trkpt>
      <trkpt lat="47.17787" lon="3.01955">
        <ele>185.9</ele>
        <time>2016-05-05T11:50:20Z</time>
      </trkpt>
      <trkpt lat="47.1779" lon="3.0194">
        <ele>184.7</ele>
        <time>2016-05-05T11:50:31Z</time>
      </trkpt>
      <trkpt lat="47.17788" lon="3.01926">
        <ele>184.2</ele>
        <time>2016-05-05T11:50:50Z</time>
      </trkpt>
      <trkpt lat="47.17781" lon="3.01934">
        <ele>184.3</ele>
        <time>2016-05-05T11:51:05Z</time>
      </trkpt>
      <trkpt lat="47.1777" lon="3.0193">
        <ele>184</ele>
        <time>2016-05-05T11:51:09Z</time>
      </trkpt>
      <trkpt lat="47.17761" lon="3.01927">
        <ele>183.7</ele>
        <time>2016-05-05T11:51:12Z</time>
      </trkpt>
      <trkpt lat="47.17752" lon="3.01923">
        <ele>183.4</ele>
        <time>2016-05-05T11:51:15Z</time>
      </trkpt>
      <trkpt lat="47.1774" lon="3.01919">
        <ele>183</ele>
        <time>2016-05-05T11:51:19Z</time>
      </trkpt>
      <trkpt lat="47.17729" lon="3.01916">
        <ele>182.7</ele>
        <time>2016-05-05T11:51:23Z</time>
      </trkpt>
      <trkpt lat="47.1772" lon="3.01915">
        <ele>181.9</ele>
        <time>2016-05-05T11:51:37Z</time>
      </trkpt>
      <trkpt lat="47.17717" lon="3.01901">
        <ele>181.5</ele>
        <time>2016-05-05T11:51:46Z</time>
      </trkpt>
      <trkpt lat="47.17716" lon="3.01885">
        <ele>180.7</ele>
        <time>2016-05-05T11:51:51Z</time>
      </trkpt>
      <trkpt lat="47.17717" lon="3.01869">
        <ele>179.8</ele>
        <time>2016-05-05T11:51:55Z</time>
      </trkpt>
      <trkpt lat="47.1772" lon="3.01855">
        <ele>178.5</ele>
        <time>2016-05-05T11:52:12Z</time>
      </trkpt>
      <trkpt lat="47.17721" lon="3.01839">
        <ele>178</ele>
        <time>2016-05-05T11:52:17Z</time>
      </trkpt>
      <trkpt lat="47.17723" lon="3.01823">
        <ele>177.2</ele>
        <time>2016-05-05T11:52:21Z</time>
      </trkpt>
      <trkpt lat="47.17724" lon="3.01809">
        <ele>176.6</ele>
        <time>2016-05-05T11:52:24Z</time>
      </trkpt>
      <trkpt lat="47.17724" lon="3.01795">
        <ele>176</ele>
        <time>2016-05-05T11:52:27Z</time>
      </trkpt>
      <trkpt lat="47.17723" lon="3.0178">
        <ele>175.1</ele>
        <time>2016-05-05T11:52:31Z</time>
      </trkpt>
      <trkpt lat="47.17722" lon="3.01762">
        <ele>173.9</ele>
        <time>2016-05-05T11:52:35Z</time>
      </trkpt>
      <trkpt lat="47.17721" lon="3.01743">
        <ele>173.1</ele>
        <time>2016-05-05T11:52:38Z</time>
      </trkpt>
      <trkpt lat="47.17721" lon="3.01729">
        <ele>172.5</ele>
        <time>2016-05-05T11:52:40Z</time>
      </trkpt>
      <trkpt lat="47.1772" lon="3.01714">
        <ele>171.5</ele>
        <time>2016-05-05T11:52:43Z</time>
      </trkpt>
      <trkpt lat="47.17719" lon="3.017">
        <ele>170.8</ele>
        <time>2016-05-05T11:52:46Z</time>
      </trkpt>
      <trkpt lat="47.17719" lon="3.01685">
        <ele>169.9</ele>
        <time>2016-05-05T11:52:50Z</time>
      </trkpt>
      <trkpt lat="47.17716" lon="3.01671">
        <ele>168.9</ele>
        <time>2016-05-05T11:52:56Z</time>
      </trkpt>
      <trkpt lat="47.1772" lon="3.01658">
        <ele>168.4</ele>
        <time>2016-05-05T11:53:02Z</time>
      </trkpt>
      <trkpt lat="47.17728" lon="3.01648">
        <ele>167.5</ele>
        <time>2016-05-05T11:53:07Z</time>
      </trkpt>
      <trkpt lat="47.17737" lon="3.0164">
        <ele>166.9</ele>
        <time>2016-05-05T11:53:12Z</time>
      </trkpt>
      <trkpt lat="47.17745" lon="3.01634">
        <ele>166.3</ele>
        <time>2016-05-05T11:53:17Z</time>
      </trkpt>
      <trkpt lat="47.17755" lon="3.01636">
        <ele>166.1</ele>
        <time>2016-05-05T11:53:54Z</time>
      </trkpt>
      <trkpt lat="47.17749" lon="3.01625">
        <ele>165.8</ele>
        <time>2016-05-05T11:54:38Z</time>
      </trkpt>
      <trkpt lat="47.17746" lon="3.01612">
        <ele>165.7</ele>
        <time>2016-05-05T11:55:06Z</time>
      </trkpt>
      <trkpt lat="47.17738" lon="3.01605">
        <ele>164.8</ele>
        <time>2016-05-05T11:56:19Z</time>
      </trkpt>
      <trkpt lat="47.17745" lon="3.01613">
        <ele>164.1</ele>
        <time>2016-05-05T11:57:04Z</time>
      </trkpt>
      <trkpt lat="47.1774" lon="3.01602">
        <ele>163.4</ele>
        <time>2016-05-05T11:57:12Z</time>
      </trkpt>
      <trkpt lat="47.17739" lon="3.01589">
        <ele>162.4</ele>
        <time>2016-05-05T11:57:20Z</time>
      </trkpt>
      <trkpt lat="47.17747" lon="3.01583">
        <ele>161.2</ele>
        <time>2016-05-05T11:57:50Z</time>
      </trkpt>
      <trkpt lat="47.17741" lon="3.01593">
        <ele>160</ele>
        <time>2016-05-05T11:59:28Z</time>
      </trkpt>
      <trkpt lat="47.17733" lon="3.01602">
        <ele>158.7</ele>
        <time>2016-05-05T12:01:05Z</time>
      </trkpt>
      <trkpt lat="47.17742" lon="3.01599">
        <ele>158.4</ele>
        <time>2016-05-05T12:01:28Z</time>
      </trkpt>
      <trkpt lat="47.1774" lon="3.01635">
        <ele>153</ele>
        <time>2016-05-05T12:54:31Z</time>
      </trkpt>
      <trkpt lat="47.17741" lon="3.01621">
        <ele>153</ele>
        <time>2016-05-05T12:55:22Z</time>
      </trkpt>
      <trkpt lat="47.1774" lon="3.01607">
        <ele>153.1</ele>
        <time>2016-05-05T12:55:45Z</time>
      </trkpt>
      <trkpt lat="47.17744" lon="3.01595">
        <ele>152.6</ele>
        <time>2016-05-05T12:56:11Z</time>
      </trkpt>
      <trkpt lat="47.17741" lon="3.01582">
        <ele>153.2</ele>
        <time>2016-05-05T12:59:02Z</time>
      </trkpt>
      <trkpt lat="47.17749" lon="3.0159">
        <ele>153.5</ele>
        <time>2016-05-05T13:01:11Z</time>
      </trkpt>
      <trkpt lat="47.1774" lon="3.01587">
        <ele>153.6</ele>
        <time>2016-05-05T13:02:54Z</time>
      </trkpt>
      <trkpt lat="47.1774" lon="3.01572">
        <ele>154.6</ele>
        <time>2016-05-05T13:04:59Z</time>
      </trkpt>
      <trkpt lat="47.17731" lon="3.01562">
        <ele>154.6</ele>
        <time>2016-05-05T13:05:04Z</time>
      </trkpt>
      <trkpt lat="47.17727" lon="3.01548">
        <ele>154.8</ele>
        <time>2016-05-05T13:05:10Z</time>
      </trkpt>
      <trkpt lat="47.17727" lon="3.01535">
        <ele>155.1</ele>
        <time>2016-05-05T13:05:15Z</time>
      </trkpt>
      <trkpt lat="47.17733" lon="3.01522">
        <ele>155.4</ele>
        <time>2016-05-05T13:05:20Z</time>
      </trkpt>
      <trkpt lat="47.17732" lon="3.01507">
        <ele>155.8</ele>
        <time>2016-05-05T13:05:25Z</time>
      </trkpt>
      <trkpt lat="47.17727" lon="3.01496">
        <ele>156.3</ele>
        <time>2016-05-05T13:05:30Z</time>
      </trkpt>
      <trkpt lat="47.17723" lon="3.01483">
        <ele>156.6</ele>
        <time>2016-05-05T13:05:35Z</time>
      </trkpt>
      <trkpt lat="47.17719" lon="3.0147">
        <ele>157</ele>
        <time>2016-05-05T13:05:40Z</time>
      </trkpt>
      <trkpt lat="47.17714" lon="3.01457">
        <ele>157.2</ele>
        <time>2016-05-05T13:05:45Z</time>
      </trkpt>
      <trkpt lat="47.1771" lon="3.01444">
        <ele>157.8</ele>
        <time>2016-05-05T13:05:50Z</time>
      </trkpt>
      <trkpt lat="47.17705" lon="3.01431">
        <ele>158.4</ele>
        <time>2016-05-05T13:05:55Z</time>
      </trkpt>
      <trkpt lat="47.17699" lon="3.01417">
        <ele>158.4</ele>
        <time>2016-05-05T13:05:59Z</time>
      </trkpt>
      <trkpt lat="47.17695" lon="3.01404">
        <ele>158.5</ele>
        <time>2016-05-05T13:06:02Z</time>
      </trkpt>
      <trkpt lat="47.1769" lon="3.01392">
        <ele>158.5</ele>
        <time>2016-05-05T13:06:05Z</time>
      </trkpt>
      <trkpt lat="47.17686" lon="3.01379">
        <ele>158.4</ele>
        <time>2016-05-05T13:06:08Z</time>
      </trkpt>
      <trkpt lat="47.1768" lon="3.01366">
        <ele>158.3</ele>
        <time>2016-05-05T13:06:11Z</time>
      </trkpt>
      <trkpt lat="47.17675" lon="3.01354">
        <ele>158.2</ele>
        <time>2016-05-05T13:06:14Z</time>
      </trkpt>
      <trkpt lat="47.17668" lon="3.0134">
        <ele>157.9</ele>
        <time>2016-05-05T13:06:18Z</time>
      </trkpt>
      <trkpt lat="47.17663" lon="3.01328">
        <ele>157.5</ele>
        <time>2016-05-05T13:06:21Z</time>
      </trkpt>
      <trkpt lat="47.17659" lon="3.01315">
        <ele>157.4</ele>
        <time>2016-05-05T13:06:24Z</time>
      </trkpt>
      <trkpt lat="47.17653" lon="3.01301">
        <ele>157</ele>
        <time>2016-05-05T13:06:27Z</time>
      </trkpt>
      <trkpt lat="47.17647" lon="3.01287">
        <ele>156.7</ele>
        <time>2016-05-05T13:06:30Z</time>
      </trkpt>
      <trkpt lat="47.17641" lon="3.01272">
        <ele>156.4</ele>
        <time>2016-05-05T13:06:33Z</time>
      </trkpt>
      <trkpt lat="47.17635" lon="3.01256">
        <ele>156</ele>
        <time>2016-05-05T13:06:36Z</time>
      </trkpt>
      <trkpt lat="47.1763" lon="3.01243">
        <ele>155.6</ele>
        <time>2016-05-05T13:06:38Z</time>
      </trkpt>
      <trkpt lat="47.17626" lon="3.01229">
        <ele>155</ele>
        <time>2016-05-05T13:06:40Z</time>
      </trkpt>
      <trkpt lat="47.1762" lon="3.01214">
        <ele>154.4</ele>
        <time>2016-05-05T13:06:42Z</time>
      </trkpt>
      <trkpt lat="47.17614" lon="3.01197">
        <ele>153.7</ele>
        <time>2016-05-05T13:06:44Z</time>
      </trkpt>
      <trkpt lat="47.17607" lon="3.01181">
        <ele>153.3</ele>
        <time>2016-05-05T13:06:46Z</time>
      </trkpt>
      <trkpt lat="47.17602" lon="3.01166">
        <ele>152.8</ele>
        <time>2016-05-05T13:06:48Z</time>
      </trkpt>
      <trkpt lat="47.17595" lon="3.01151">
        <ele>152.5</ele>
        <time>2016-05-05T13:06:50Z</time>
      </trkpt>
      <trkpt lat="47.17589" lon="3.01136">
        <ele>152.3</ele>
        <time>2016-05-05T13:06:52Z</time>
      </trkpt>
      <trkpt lat="47.17584" lon="3.01122">
        <ele>152.2</ele>
        <time>2016-05-05T13:06:54Z</time>
      </trkpt>
      <trkpt lat="47.17579" lon="3.01109">
        <ele>152.3</ele>
        <time>2016-05-05T13:06:56Z</time>
      </trkpt>
      <trkpt lat="47.17574" lon="3.01095">
        <ele>152.5</ele>
        <time>2016-05-05T13:06:58Z</time>
      </trkpt>
      <trkpt lat="47.17569" lon="3.01083">
        <ele>152.7</ele>
        <time>2016-05-05T13:07:00Z</time>
      </trkpt>
      <trkpt lat="47.17563" lon="3.0107">
        <ele>153</ele>
        <time>2016-05-05T13:07:02Z</time>
      </trkpt>
      <trkpt lat="47.17558" lon="3.01054">
        <ele>153.6</ele>
        <time>2016-05-05T13:07:05Z</time>
      </trkpt>
      <trkpt lat="47.17552" lon="3.0104">
        <ele>154.2</ele>
        <time>2016-05-05T13:07:08Z</time>
      </trkpt>
      <trkpt lat="47.17546" lon="3.01027">
        <ele>154.7</ele>
        <time>2016-05-05T13:07:11Z</time>
      </trkpt>
      <trkpt lat="47.17541" lon="3.01014">
        <ele>155</ele>
        <time>2016-05-05T13:07:14Z</time>
      </trkpt>
      <trkpt lat="47.17537" lon="3.01001">
        <ele>155.4</ele>
        <time>2016-05-05T13:07:17Z</time>
      </trkpt>
      <trkpt lat="47.17531" lon="3.00988">
        <ele>155.7</ele>
        <time>2016-05-05T13:07:20Z</time>
      </trkpt>
      <trkpt lat="47.17526" lon="3.00975">
        <ele>155.8</ele>
        <time>2016-05-05T13:07:23Z</time>
      </trkpt>
      <trkpt lat="47.17521" lon="3.00962">
        <ele>155.9</ele>
        <time>2016-05-05T13:07:26Z</time>
      </trkpt>
      <trkpt lat="47.17516" lon="3.00949">
        <ele>156</ele>
        <time>2016-05-05T13:07:29Z</time>
      </trkpt>
      <trkpt lat="47.1751" lon="3.00934">
        <ele>156.1</ele>
        <time>2016-05-05T13:07:32Z</time>
      </trkpt>
      <trkpt lat="47.17504" lon="3.00918">
        <ele>156</ele>
        <time>2016-05-05T13:07:35Z</time>
      </trkpt>
      <trkpt lat="47.17498" lon="3.00902">
        <ele>155.9</ele>
        <time>2016-05-05T13:07:38Z</time>
      </trkpt>
      <trkpt lat="47.17492" lon="3.00887">
        <ele>155.6</ele>
        <time>2016-05-05T13:07:41Z</time>
      </trkpt>
      <trkpt lat="47.17486" lon="3.00872">
        <ele>155.5</ele>
        <time>2016-05-05T13:07:44Z</time>
      </trkpt>
      <trkpt lat="47.17481" lon="3.00858">
        <ele>155.4</ele>
        <time>2016-05-05T13:07:47Z</time>
      </trkpt>
      <trkpt lat="47.17475" lon="3.00844">
        <ele>155.2</ele>
        <time>2016-05-05T13:07:50Z</time>
      </trkpt>
      <trkpt lat="47.17471" lon="3.00831">
        <ele>154.8</ele>
        <time>2016-05-05T13:07:53Z</time>
      </trkpt>
      <trkpt lat="47.17472" lon="3.00818">
        <ele>154.3</ele>
        <time>2016-05-05T13:07:59Z</time>
      </trkpt>
      <trkpt lat="47.17475" lon="3.00804">
        <ele>153.9</ele>
        <time>2016-05-05T13:08:35Z</time>
      </trkpt>
      <trkpt lat="47.17486" lon="3.00797">
        <ele>153.3</ele>
        <time>2016-05-05T13:08:38Z</time>
      </trkpt>
      <trkpt lat="47.17495" lon="3.00792">
        <ele>152.8</ele>
        <time>2016-05-05T13:08:40Z</time>
      </trkpt>
      <trkpt lat="47.17507" lon="3.00784">
        <ele>152.2</ele>
        <time>2016-05-05T13:08:43Z</time>
      </trkpt>
      <trkpt lat="47.17518" lon="3.00776">
        <ele>151.9</ele>
        <time>2016-05-05T13:08:46Z</time>
      </trkpt>
      <trkpt lat="47.17528" lon="3.00768">
        <ele>151.9</ele>
        <time>2016-05-05T13:08:49Z</time>
      </trkpt>
      <trkpt lat="47.17538" lon="3.00758">
        <ele>151.9</ele>
        <time>2016-05-05T13:08:52Z</time>
      </trkpt>
      <trkpt lat="47.17546" lon="3.00746">
        <ele>151.8</ele>
        <time>2016-05-05T13:08:55Z</time>
      </trkpt>
      <trkpt lat="47.17555" lon="3.00732">
        <ele>151.7</ele>
        <time>2016-05-05T13:08:58Z</time>
      </trkpt>
      <trkpt lat="47.17563" lon="3.0072">
        <ele>151.8</ele>
        <time>2016-05-05T13:09:01Z</time>
      </trkpt>
      <trkpt lat="47.17571" lon="3.00708">
        <ele>151.8</ele>
        <time>2016-05-05T13:09:04Z</time>
      </trkpt>
      <trkpt lat="47.17578" lon="3.00695">
        <ele>151.8</ele>
        <time>2016-05-05T13:09:07Z</time>
      </trkpt>
      <trkpt lat="47.17586" lon="3.00682">
        <ele>151.7</ele>
        <time>2016-05-05T13:09:10Z</time>
      </trkpt>
      <trkpt lat="47.17594" lon="3.00669">
        <ele>151.6</ele>
        <time>2016-05-05T13:09:13Z</time>
      </trkpt>
      <trkpt lat="47.17603" lon="3.00657">
        <ele>151.5</ele>
        <time>2016-05-05T13:09:16Z</time>
      </trkpt>
      <trkpt lat="47.1761" lon="3.00644">
        <ele>151.5</ele>
        <time>2016-05-05T13:09:19Z</time>
      </trkpt>
      <trkpt lat="47.17618" lon="3.00632">
        <ele>151.6</ele>
        <time>2016-05-05T13:09:22Z</time>
      </trkpt>
      <trkpt lat="47.17626" lon="3.0062">
        <ele>151.4</ele>
        <time>2016-05-05T13:09:25Z</time>
      </trkpt>
      <trkpt lat="47.17634" lon="3.00607">
        <ele>151.2</ele>
        <time>2016-05-05T13:09:28Z</time>
      </trkpt>
      <trkpt lat="47.17642" lon="3.00595">
        <ele>151.1</ele>
        <time>2016-05-05T13:09:31Z</time>
      </trkpt>
      <trkpt lat="47.1765" lon="3.00583">
        <ele>151.1</ele>
        <time>2016-05-05T13:09:34Z</time>
      </trkpt>
      <trkpt lat="47.17659" lon="3.00571">
        <ele>151.2</ele>
        <time>2016-05-05T13:09:37Z</time>
      </trkpt>
      <trkpt lat="47.17669" lon="3.00561">
        <ele>151.2</ele>
        <time>2016-05-05T13:09:40Z</time>
      </trkpt>
      <trkpt lat="47.17679" lon="3.00551">
        <ele>151.2</ele>
        <time>2016-05-05T13:09:43Z</time>
      </trkpt>
      <trkpt lat="47.17688" lon="3.00542">
        <ele>151.3</ele>
        <time>2016-05-05T13:09:46Z</time>
      </trkpt>
      <trkpt lat="47.17698" lon="3.00535">
        <ele>151.5</ele>
        <time>2016-05-05T13:09:49Z</time>
      </trkpt>
      <trkpt lat="47.17707" lon="3.00527">
        <ele>151.5</ele>
        <time>2016-05-05T13:09:52Z</time>
      </trkpt>
      <trkpt lat="47.17717" lon="3.00519">
        <ele>151.6</ele>
        <time>2016-05-05T13:09:55Z</time>
      </trkpt>
      <trkpt lat="47.17727" lon="3.00511">
        <ele>151.6</ele>
        <time>2016-05-05T13:09:58Z</time>
      </trkpt>
      <trkpt lat="47.17737" lon="3.00504">
        <ele>151.6</ele>
        <time>2016-05-05T13:10:01Z</time>
      </trkpt>
      <trkpt lat="47.17747" lon="3.00497">
        <ele>151.7</ele>
        <time>2016-05-05T13:10:04Z</time>
      </trkpt>
      <trkpt lat="47.17756" lon="3.0049">
        <ele>151.5</ele>
        <time>2016-05-05T13:10:07Z</time>
      </trkpt>
      <trkpt lat="47.17765" lon="3.00482">
        <ele>151.5</ele>
        <time>2016-05-05T13:10:10Z</time>
      </trkpt>
      <trkpt lat="47.17775" lon="3.00474">
        <ele>151.5</ele>
        <time>2016-05-05T13:10:13Z</time>
      </trkpt>
      <trkpt lat="47.17785" lon="3.00467">
        <ele>151.5</ele>
        <time>2016-05-05T13:10:16Z</time>
      </trkpt>
      <trkpt lat="47.17795" lon="3.00461">
        <ele>151.5</ele>
        <time>2016-05-05T13:10:19Z</time>
      </trkpt>
      <trkpt lat="47.17804" lon="3.00453">
        <ele>151.4</ele>
        <time>2016-05-05T13:10:22Z</time>
      </trkpt>
      <trkpt lat="47.17813" lon="3.00445">
        <ele>151.3</ele>
        <time>2016-05-05T13:10:25Z</time>
      </trkpt>
      <trkpt lat="47.17823" lon="3.00438">
        <ele>151.3</ele>
        <time>2016-05-05T13:10:28Z</time>
      </trkpt>
      <trkpt lat="47.17834" lon="3.00429">
        <ele>151.3</ele>
        <time>2016-05-05T13:10:31Z</time>
      </trkpt>
      <trkpt lat="47.17845" lon="3.0042">
        <ele>151.2</ele>
        <time>2016-05-05T13:10:34Z</time>
      </trkpt>
      <trkpt lat="47.17855" lon="3.00411">
        <ele>150.9</ele>
        <time>2016-05-05T13:10:37Z</time>
      </trkpt>
      <trkpt lat="47.17866" lon="3.00402">
        <ele>150.7</ele>
        <time>2016-05-05T13:10:40Z</time>
      </trkpt>
      <trkpt lat="47.17876" lon="3.00394">
        <ele>150.7</ele>
        <time>2016-05-05T13:10:43Z</time>
      </trkpt>
      <trkpt lat="47.17885" lon="3.00385">
        <ele>150.7</ele>
        <time>2016-05-05T13:10:46Z</time>
      </trkpt>
      <trkpt lat="47.17895" lon="3.00377">
        <ele>150.7</ele>
        <time>2016-05-05T13:10:49Z</time>
      </trkpt>
      <trkpt lat="47.17905" lon="3.00369">
        <ele>150.7</ele>
        <time>2016-05-05T13:10:52Z</time>
      </trkpt>
      <trkpt lat="47.17914" lon="3.00361">
        <ele>150.8</ele>
        <time>2016-05-05T13:10:55Z</time>
      </trkpt>
      <trkpt lat="47.17925" lon="3.00354">
        <ele>151</ele>
        <time>2016-05-05T13:10:58Z</time>
      </trkpt>
      <trkpt lat="47.17935" lon="3.00345">
        <ele>151</ele>
        <time>2016-05-05T13:11:01Z</time>
      </trkpt>
      <trkpt lat="47.17945" lon="3.00337">
        <ele>150.8</ele>
        <time>2016-05-05T13:11:04Z</time>
      </trkpt>
      <trkpt lat="47.17955" lon="3.00327">
        <ele>151</ele>
        <time>2016-05-05T13:11:07Z</time>
      </trkpt>
      <trkpt lat="47.17966" lon="3.00319">
        <ele>150.9</ele>
        <time>2016-05-05T13:11:10Z</time>
      </trkpt>
      <trkpt lat="47.17976" lon="3.0031">
        <ele>150.8</ele>
        <time>2016-05-05T13:11:13Z</time>
      </trkpt>
      <trkpt lat="47.17986" lon="3.00302">
        <ele>150.7</ele>
        <time>2016-05-05T13:11:16Z</time>
      </trkpt>
      <trkpt lat="47.17996" lon="3.00295">
        <ele>150.8</ele>
        <time>2016-05-05T13:11:19Z</time>
      </trkpt>
      <trkpt lat="47.18007" lon="3.00289">
        <ele>151</ele>
        <time>2016-05-05T13:11:22Z</time>
      </trkpt>
      <trkpt lat="47.18019" lon="3.00286">
        <ele>151.1</ele>
        <time>2016-05-05T13:11:25Z</time>
      </trkpt>
      <trkpt lat="47.1803" lon="3.00284">
        <ele>151.2</ele>
        <time>2016-05-05T13:11:28Z</time>
      </trkpt>
      <trkpt lat="47.18042" lon="3.00282">
        <ele>151.2</ele>
        <time>2016-05-05T13:11:31Z</time>
      </trkpt>
      <trkpt lat="47.18054" lon="3.00279">
        <ele>151</ele>
        <time>2016-05-05T13:11:34Z</time>
      </trkpt>
      <trkpt lat="47.18064" lon="3.00277">
        <ele>151</ele>
        <time>2016-05-05T13:11:37Z</time>
      </trkpt>
      <trkpt lat="47.18075" lon="3.00275">
        <ele>151</ele>
        <time>2016-05-05T13:11:40Z</time>
      </trkpt>
      <trkpt lat="47.18086" lon="3.00274">
        <ele>150.9</ele>
        <time>2016-05-05T13:11:43Z</time>
      </trkpt>
      <trkpt lat="47.18098" lon="3.00271">
        <ele>150.5</ele>
        <time>2016-05-05T13:11:46Z</time>
      </trkpt>
      <trkpt lat="47.1811" lon="3.00269">
        <ele>150.5</ele>
        <time>2016-05-05T13:11:49Z</time>
      </trkpt>
      <trkpt lat="47.18122" lon="3.00268">
        <ele>150.5</ele>
        <time>2016-05-05T13:11:52Z</time>
      </trkpt>
      <trkpt lat="47.18133" lon="3.00265">
        <ele>150.5</ele>
        <time>2016-05-05T13:11:55Z</time>
      </trkpt>
      <trkpt lat="47.18145" lon="3.00261">
        <ele>150.5</ele>
        <time>2016-05-05T13:11:58Z</time>
      </trkpt>
      <trkpt lat="47.18156" lon="3.00256">
        <ele>150.4</ele>
        <time>2016-05-05T13:12:01Z</time>
      </trkpt>
      <trkpt lat="47.18167" lon="3.00249">
        <ele>150.4</ele>
        <time>2016-05-05T13:12:04Z</time>
      </trkpt>
      <trkpt lat="47.18178" lon="3.00243">
        <ele>150.5</ele>
        <time>2016-05-05T13:12:07Z</time>
      </trkpt>
      <trkpt lat="47.18189" lon="3.00239">
        <ele>150.3</ele>
        <time>2016-05-05T13:12:10Z</time>
      </trkpt>
      <trkpt lat="47.18201" lon="3.00237">
        <ele>150.1</ele>
        <time>2016-05-05T13:12:13Z</time>
      </trkpt>
      <trkpt lat="47.18212" lon="3.00236">
        <ele>149.9</ele>
        <time>2016-05-05T13:12:16Z</time>
      </trkpt>
      <trkpt lat="47.18223" lon="3.00235">
        <ele>149.8</ele>
        <time>2016-05-05T13:12:19Z</time>
      </trkpt>
      <trkpt lat="47.18236" lon="3.00237">
        <ele>149.8</ele>
        <time>2016-05-05T13:12:22Z</time>
      </trkpt>
      <trkpt lat="47.18248" lon="3.00239">
        <ele>149.8</ele>
        <time>2016-05-05T13:12:25Z</time>
      </trkpt>
      <trkpt lat="47.18259" lon="3.00242">
        <ele>149.8</ele>
        <time>2016-05-05T13:12:28Z</time>
      </trkpt>
      <trkpt lat="47.1827" lon="3.00245">
        <ele>149.8</ele>
        <time>2016-05-05T13:12:31Z</time>
      </trkpt>
      <trkpt lat="47.18282" lon="3.00248">
        <ele>149.7</ele>
        <time>2016-05-05T13:12:34Z</time>
      </trkpt>
      <trkpt lat="47.18295" lon="3.00251">
        <ele>149.6</ele>
        <time>2016-05-05T13:12:37Z</time>
      </trkpt>
      <trkpt lat="47.18305" lon="3.00252">
        <ele>149.6</ele>
        <time>2016-05-05T13:12:39Z</time>
      </trkpt>
      <trkpt lat="47.18317" lon="3.00248">
        <ele>149.7</ele>
        <time>2016-05-05T13:12:42Z</time>
      </trkpt>
      <trkpt lat="47.18326" lon="3.00245">
        <ele>149.8</ele>
        <time>2016-05-05T13:12:44Z</time>
      </trkpt>
      <trkpt lat="47.18336" lon="3.00243">
        <ele>150</ele>
        <time>2016-05-05T13:12:46Z</time>
      </trkpt>
      <trkpt lat="47.18348" lon="3.00239">
        <ele>150.5</ele>
        <time>2016-05-05T13:12:49Z</time>
      </trkpt>
      <trkpt lat="47.18358" lon="3.00238">
        <ele>150.9</ele>
        <time>2016-05-05T13:12:52Z</time>
      </trkpt>
      <trkpt lat="47.1837" lon="3.00234">
        <ele>151.4</ele>
        <time>2016-05-05T13:12:56Z</time>
      </trkpt>
      <trkpt lat="47.18379" lon="3.00229">
        <ele>151.7</ele>
        <time>2016-05-05T13:12:59Z</time>
      </trkpt>
      <trkpt lat="47.1839" lon="3.00222">
        <ele>151.9</ele>
        <time>2016-05-05T13:13:02Z</time>
      </trkpt>
      <trkpt lat="47.18402" lon="3.00216">
        <ele>152</ele>
        <time>2016-05-05T13:13:05Z</time>
      </trkpt>
      <trkpt lat="47.18413" lon="3.0021">
        <ele>151.9</ele>
        <time>2016-05-05T13:13:08Z</time>
      </trkpt>
      <trkpt lat="47.18424" lon="3.00203">
        <ele>151.9</ele>
        <time>2016-05-05T13:13:11Z</time>
      </trkpt>
      <trkpt lat="47.18434" lon="3.00197">
        <ele>152</ele>
        <time>2016-05-05T13:13:14Z</time>
      </trkpt>
      <trkpt lat="47.18444" lon="3.00196">
        <ele>152.2</ele>
        <time>2016-05-05T13:13:49Z</time>
      </trkpt>
      <trkpt lat="47.18452" lon="3.00191">
        <ele>152.1</ele>
        <time>2016-05-05T13:13:54Z</time>
      </trkpt>
      <trkpt lat="47.18461" lon="3.00185">
        <ele>152</ele>
        <time>2016-05-05T13:14:42Z</time>
      </trkpt>
      <trkpt lat="47.18471" lon="3.00179">
        <ele>152.2</ele>
        <time>2016-05-05T13:14:47Z</time>
      </trkpt>
      <trkpt lat="47.18481" lon="3.00172">
        <ele>152.1</ele>
        <time>2016-05-05T13:14:51Z</time>
      </trkpt>
      <trkpt lat="47.18489" lon="3.00167">
        <ele>152.2</ele>
        <time>2016-05-05T13:14:54Z</time>
      </trkpt>
      <trkpt lat="47.18498" lon="3.00161">
        <ele>152.3</ele>
        <time>2016-05-05T13:14:57Z</time>
      </trkpt>
      <trkpt lat="47.18508" lon="3.00155">
        <ele>152.3</ele>
        <time>2016-05-05T13:15:00Z</time>
      </trkpt>
      <trkpt lat="47.18517" lon="3.00149">
        <ele>152.3</ele>
        <time>2016-05-05T13:15:03Z</time>
      </trkpt>
      <trkpt lat="47.18528" lon="3.00143">
        <ele>152.3</ele>
        <time>2016-05-05T13:15:06Z</time>
      </trkpt>
      <trkpt lat="47.18539" lon="3.00136">
        <ele>152.3</ele>
        <time>2016-05-05T13:15:09Z</time>
      </trkpt>
      <trkpt lat="47.18549" lon="3.00129">
        <ele>152.1</ele>
        <time>2016-05-05T13:15:12Z</time>
      </trkpt>
      <trkpt lat="47.1856" lon="3.00122">
        <ele>152.1</ele>
        <time>2016-05-05T13:15:15Z</time>
      </trkpt>
      <trkpt lat="47.1857" lon="3.00115">
        <ele>152</ele>
        <time>2016-05-05T13:15:18Z</time>
      </trkpt>
      <trkpt lat="47.18581" lon="3.00108">
        <ele>152</ele>
        <time>2016-05-05T13:15:21Z</time>
      </trkpt>
      <trkpt lat="47.18591" lon="3.00102">
        <ele>151.9</ele>
        <time>2016-05-05T13:15:24Z</time>
      </trkpt>
      <trkpt lat="47.18602" lon="3.00094">
        <ele>151.7</ele>
        <time>2016-05-05T13:15:27Z</time>
      </trkpt>
      <trkpt lat="47.18614" lon="3.00087">
        <ele>151.6</ele>
        <time>2016-05-05T13:15:30Z</time>
      </trkpt>
      <trkpt lat="47.18625" lon="3.00079">
        <ele>151.7</ele>
        <time>2016-05-05T13:15:33Z</time>
      </trkpt>
      <trkpt lat="47.18636" lon="3.00072">
        <ele>151.8</ele>
        <time>2016-05-05T13:15:36Z</time>
      </trkpt>
      <trkpt lat="47.18647" lon="3.00065">
        <ele>151.8</ele>
        <time>2016-05-05T13:15:39Z</time>
      </trkpt>
      <trkpt lat="47.18658" lon="3.00058">
        <ele>151.9</ele>
        <time>2016-05-05T13:15:42Z</time>
      </trkpt>
      <trkpt lat="47.18669" lon="3.00051">
        <ele>151.9</ele>
        <time>2016-05-05T13:15:45Z</time>
      </trkpt>
      <trkpt lat="47.18678" lon="3.00045">
        <ele>151.8</ele>
        <time>2016-05-05T13:15:48Z</time>
      </trkpt>
      <trkpt lat="47.18688" lon="3.00038">
        <ele>151.9</ele>
        <time>2016-05-05T13:15:51Z</time>
      </trkpt>
      <trkpt lat="47.18699" lon="3.00031">
        <ele>151.7</ele>
        <time>2016-05-05T13:15:54Z</time>
      </trkpt>
      <trkpt lat="47.18709" lon="3.00025">
        <ele>151.7</ele>
        <time>2016-05-05T13:15:57Z</time>
      </trkpt>
      <trkpt lat="47.1872" lon="3.00018">
        <ele>151.8</ele>
        <time>2016-05-05T13:16:00Z</time>
      </trkpt>
      <trkpt lat="47.1873" lon="3.00011">
        <ele>151.7</ele>
        <time>2016-05-05T13:16:03Z</time>
      </trkpt>
      <trkpt lat="47.18741" lon="3.00004">
        <ele>151.9</ele>
        <time>2016-05-05T13:16:06Z</time>
      </trkpt>
      <trkpt lat="47.18753" lon="2.99996">
        <ele>151.9</ele>
        <time>2016-05-05T13:16:09Z</time>
      </trkpt>
      <trkpt lat="47.18764" lon="2.99989">
        <ele>151.8</ele>
        <time>2016-05-05T13:16:12Z</time>
      </trkpt>
      <trkpt lat="47.18776" lon="2.99981">
        <ele>151.8</ele>
        <time>2016-05-05T13:16:15Z</time>
      </trkpt>
      <trkpt lat="47.18786" lon="2.99974">
        <ele>152</ele>
        <time>2016-05-05T13:16:18Z</time>
      </trkpt>
      <trkpt lat="47.18797" lon="2.99967">
        <ele>152</ele>
        <time>2016-05-05T13:16:21Z</time>
      </trkpt>
      <trkpt lat="47.18808" lon="2.9996">
        <ele>152</ele>
        <time>2016-05-05T13:16:24Z</time>
      </trkpt>
      <trkpt lat="47.18819" lon="2.99953">
        <ele>152</ele>
        <time>2016-05-05T13:16:27Z</time>
      </trkpt>
      <trkpt lat="47.18829" lon="2.99946">
        <ele>152</ele>
        <time>2016-05-05T13:16:30Z</time>
      </trkpt>
      <trkpt lat="47.18839" lon="2.99937">
        <ele>151.9</ele>
        <time>2016-05-05T13:16:33Z</time>
      </trkpt>
      <trkpt lat="47.18849" lon="2.99927">
        <ele>151.8</ele>
        <time>2016-05-05T13:16:36Z</time>
      </trkpt>
      <trkpt lat="47.18858" lon="2.99917">
        <ele>151.8</ele>
        <time>2016-05-05T13:16:39Z</time>
      </trkpt>
      <trkpt lat="47.18864" lon="2.99908">
        <ele>151.6</ele>
        <time>2016-05-05T13:16:42Z</time>
      </trkpt>
      <trkpt lat="47.18871" lon="2.99897">
        <ele>151.3</ele>
        <time>2016-05-05T13:16:46Z</time>
      </trkpt>
      <trkpt lat="47.1888" lon="2.99897">
        <ele>151</ele>
        <time>2016-05-05T13:16:51Z</time>
      </trkpt>
      <trkpt lat="47.18888" lon="2.99905">
        <ele>151.2</ele>
        <time>2016-05-05T13:16:55Z</time>
      </trkpt>
      <trkpt lat="47.18897" lon="2.99912">
        <ele>151.7</ele>
        <time>2016-05-05T13:16:59Z</time>
      </trkpt>
      <trkpt lat="47.18908" lon="2.99906">
        <ele>151.7</ele>
        <time>2016-05-05T13:17:03Z</time>
      </trkpt>
      <trkpt lat="47.18917" lon="2.999">
        <ele>151.6</ele>
        <time>2016-05-05T13:17:06Z</time>
      </trkpt>
      <trkpt lat="47.18928" lon="2.9989">
        <ele>151.4</ele>
        <time>2016-05-05T13:17:09Z</time>
      </trkpt>
      <trkpt lat="47.18939" lon="2.99879">
        <ele>151.1</ele>
        <time>2016-05-05T13:17:12Z</time>
      </trkpt>
      <trkpt lat="47.1895" lon="2.99867">
        <ele>150.8</ele>
        <time>2016-05-05T13:17:15Z</time>
      </trkpt>
      <trkpt lat="47.18957" lon="2.99858">
        <ele>150.7</ele>
        <time>2016-05-05T13:17:17Z</time>
      </trkpt>
      <trkpt lat="47.18964" lon="2.99849">
        <ele>150.6</ele>
        <time>2016-05-05T13:17:19Z</time>
      </trkpt>
      <trkpt lat="47.18974" lon="2.99837">
        <ele>150.5</ele>
        <time>2016-05-05T13:17:22Z</time>
      </trkpt>
      <trkpt lat="47.18983" lon="2.99823">
        <ele>150.5</ele>
        <time>2016-05-05T13:17:25Z</time>
      </trkpt>
      <trkpt lat="47.18993" lon="2.99811">
        <ele>150.5</ele>
        <time>2016-05-05T13:17:28Z</time>
      </trkpt>
      <trkpt lat="47.19003" lon="2.99798">
        <ele>150.4</ele>
        <time>2016-05-05T13:17:31Z</time>
      </trkpt>
      <trkpt lat="47.19013" lon="2.99785">
        <ele>150.4</ele>
        <time>2016-05-05T13:17:34Z</time>
      </trkpt>
      <trkpt lat="47.19023" lon="2.99772">
        <ele>150.3</ele>
        <time>2016-05-05T13:17:37Z</time>
      </trkpt>
      <trkpt lat="47.19032" lon="2.99759">
        <ele>150.5</ele>
        <time>2016-05-05T13:17:40Z</time>
      </trkpt>
      <trkpt lat="47.19041" lon="2.99746">
        <ele>150.7</ele>
        <time>2016-05-05T13:17:43Z</time>
      </trkpt>
      <trkpt lat="47.19051" lon="2.99733">
        <ele>150.6</ele>
        <time>2016-05-05T13:17:46Z</time>
      </trkpt>
      <trkpt lat="47.19061" lon="2.99721">
        <ele>150.5</ele>
        <time>2016-05-05T13:17:49Z</time>
      </trkpt>
      <trkpt lat="47.19071" lon="2.99708">
        <ele>150.5</ele>
        <time>2016-05-05T13:17:52Z</time>
      </trkpt>
      <trkpt lat="47.19081" lon="2.99698">
        <ele>150.5</ele>
        <time>2016-05-05T13:17:55Z</time>
      </trkpt>
      <trkpt lat="47.19093" lon="2.9969">
        <ele>150.5</ele>
        <time>2016-05-05T13:17:58Z</time>
      </trkpt>
      <trkpt lat="47.19105" lon="2.99682">
        <ele>150.5</ele>
        <time>2016-05-05T13:18:01Z</time>
      </trkpt>
      <trkpt lat="47.19117" lon="2.99675">
        <ele>150.4</ele>
        <time>2016-05-05T13:18:04Z</time>
      </trkpt>
      <trkpt lat="47.19129" lon="2.99668">
        <ele>150.5</ele>
        <time>2016-05-05T13:18:07Z</time>
      </trkpt>
      <trkpt lat="47.19141" lon="2.99661">
        <ele>150.4</ele>
        <time>2016-05-05T13:18:10Z</time>
      </trkpt>
      <trkpt lat="47.19152" lon="2.99653">
        <ele>150.6</ele>
        <time>2016-05-05T13:18:13Z</time>
      </trkpt>
      <trkpt lat="47.19162" lon="2.99646">
        <ele>150.7</ele>
        <time>2016-05-05T13:18:16Z</time>
      </trkpt>
      <trkpt lat="47.19172" lon="2.9964">
        <ele>150.4</ele>
        <time>2016-05-05T13:18:19Z</time>
      </trkpt>
      <trkpt lat="47.19182" lon="2.99633">
        <ele>150.6</ele>
        <time>2016-05-05T13:18:22Z</time>
      </trkpt>
      <trkpt lat="47.19196" lon="2.99627">
        <ele>150.6</ele>
        <time>2016-05-05T13:18:25Z</time>
      </trkpt>
      <trkpt lat="47.19208" lon="2.99622">
        <ele>150.3</ele>
        <time>2016-05-05T13:18:28Z</time>
      </trkpt>
      <trkpt lat="47.1922" lon="2.99618">
        <ele>150.4</ele>
        <time>2016-05-05T13:18:31Z</time>
      </trkpt>
      <trkpt lat="47.19232" lon="2.99614">
        <ele>150.5</ele>
        <time>2016-05-05T13:18:34Z</time>
      </trkpt>
      <trkpt lat="47.19243" lon="2.9961">
        <ele>150.5</ele>
        <time>2016-05-05T13:18:37Z</time>
      </trkpt>
      <trkpt lat="47.19255" lon="2.99606">
        <ele>150.3</ele>
        <time>2016-05-05T13:18:40Z</time>
      </trkpt>
      <trkpt lat="47.19267" lon="2.99602">
        <ele>150.1</ele>
        <time>2016-05-05T13:18:43Z</time>
      </trkpt>
      <trkpt lat="47.19279" lon="2.99599">
        <ele>150.1</ele>
        <time>2016-05-05T13:18:46Z</time>
      </trkpt>
      <trkpt lat="47.19291" lon="2.99596">
        <ele>150.1</ele>
        <time>2016-05-05T13:18:49Z</time>
      </trkpt>
      <trkpt lat="47.19303" lon="2.99593">
        <ele>150.1</ele>
        <time>2016-05-05T13:18:52Z</time>
      </trkpt>
      <trkpt lat="47.19316" lon="2.9959">
        <ele>150</ele>
        <time>2016-05-05T13:18:55Z</time>
      </trkpt>
      <trkpt lat="47.19328" lon="2.99588">
        <ele>149.9</ele>
        <time>2016-05-05T13:18:58Z</time>
      </trkpt>
      <trkpt lat="47.19341" lon="2.99583">
        <ele>149.7</ele>
        <time>2016-05-05T13:19:01Z</time>
      </trkpt>
      <trkpt lat="47.19354" lon="2.99578">
        <ele>149.7</ele>
        <time>2016-05-05T13:19:04Z</time>
      </trkpt>
      <trkpt lat="47.19363" lon="2.99574">
        <ele>149.6</ele>
        <time>2016-05-05T13:19:06Z</time>
      </trkpt>
      <trkpt lat="47.19372" lon="2.9957">
        <ele>149.6</ele>
        <time>2016-05-05T13:19:08Z</time>
      </trkpt>
      <trkpt lat="47.19381" lon="2.99565">
        <ele>149.5</ele>
        <time>2016-05-05T13:19:10Z</time>
      </trkpt>
      <trkpt lat="47.1939" lon="2.99561">
        <ele>149.7</ele>
        <time>2016-05-05T13:19:12Z</time>
      </trkpt>
      <trkpt lat="47.19399" lon="2.99558">
        <ele>149.9</ele>
        <time>2016-05-05T13:19:14Z</time>
      </trkpt>
      <trkpt lat="47.19412" lon="2.99553">
        <ele>150.1</ele>
        <time>2016-05-05T13:19:17Z</time>
      </trkpt>
      <trkpt lat="47.19423" lon="2.99549">
        <ele>150.2</ele>
        <time>2016-05-05T13:19:20Z</time>
      </trkpt>
      <trkpt lat="47.19435" lon="2.99547">
        <ele>150.3</ele>
        <time>2016-05-05T13:19:23Z</time>
      </trkpt>
      <trkpt lat="47.19448" lon="2.99544">
        <ele>150.3</ele>
        <time>2016-05-05T13:19:26Z</time>
      </trkpt>
      <trkpt lat="47.19461" lon="2.99541">
        <ele>150.2</ele>
        <time>2016-05-05T13:19:29Z</time>
      </trkpt>
      <trkpt lat="47.19473" lon="2.99535">
        <ele>150.3</ele>
        <time>2016-05-05T13:19:32Z</time>
      </trkpt>
      <trkpt lat="47.19482" lon="2.99532">
        <ele>150.3</ele>
        <time>2016-05-05T13:19:34Z</time>
      </trkpt>
      <trkpt lat="47.19494" lon="2.99526">
        <ele>150.2</ele>
        <time>2016-05-05T13:19:37Z</time>
      </trkpt>
      <trkpt lat="47.19506" lon="2.9952">
        <ele>150</ele>
        <time>2016-05-05T13:19:40Z</time>
      </trkpt>
      <trkpt lat="47.19516" lon="2.99514">
        <ele>150.2</ele>
        <time>2016-05-05T13:19:43Z</time>
      </trkpt>
      <trkpt lat="47.19525" lon="2.99509">
        <ele>150.3</ele>
        <time>2016-05-05T13:19:46Z</time>
      </trkpt>
      <trkpt lat="47.19536" lon="2.99502">
        <ele>150.3</ele>
        <time>2016-05-05T13:19:49Z</time>
      </trkpt>
      <trkpt lat="47.19546" lon="2.99495">
        <ele>150.3</ele>
        <time>2016-05-05T13:19:52Z</time>
      </trkpt>
      <trkpt lat="47.19559" lon="2.99489">
        <ele>150.1</ele>
        <time>2016-05-05T13:19:55Z</time>
      </trkpt>
      <trkpt lat="47.19571" lon="2.99482">
        <ele>150</ele>
        <time>2016-05-05T13:19:58Z</time>
      </trkpt>
      <trkpt lat="47.19579" lon="2.99477">
        <ele>149.8</ele>
        <time>2016-05-05T13:20:00Z</time>
      </trkpt>
      <trkpt lat="47.19591" lon="2.99469">
        <ele>149.8</ele>
        <time>2016-05-05T13:20:03Z</time>
      </trkpt>
      <trkpt lat="47.19603" lon="2.99461">
        <ele>149.5</ele>
        <time>2016-05-05T13:20:06Z</time>
      </trkpt>
      <trkpt lat="47.19615" lon="2.99454">
        <ele>149.6</ele>
        <time>2016-05-05T13:20:09Z</time>
      </trkpt>
      <trkpt lat="47.19627" lon="2.99447">
        <ele>149.7</ele>
        <time>2016-05-05T13:20:12Z</time>
      </trkpt>
      <trkpt lat="47.19639" lon="2.9944">
        <ele>149.6</ele>
        <time>2016-05-05T13:20:15Z</time>
      </trkpt>
      <trkpt lat="47.19651" lon="2.99432">
        <ele>149.6</ele>
        <time>2016-05-05T13:20:18Z</time>
      </trkpt>
      <trkpt lat="47.1966" lon="2.99428">
        <ele>149.8</ele>
        <time>2016-05-05T13:20:20Z</time>
      </trkpt>
      <trkpt lat="47.19672" lon="2.99421">
        <ele>149.6</ele>
        <time>2016-05-05T13:20:23Z</time>
      </trkpt>
      <trkpt lat="47.19684" lon="2.99415">
        <ele>149.6</ele>
        <time>2016-05-05T13:20:26Z</time>
      </trkpt>
      <trkpt lat="47.19696" lon="2.99408">
        <ele>149.5</ele>
        <time>2016-05-05T13:20:29Z</time>
      </trkpt>
      <trkpt lat="47.19705" lon="2.99403">
        <ele>149.6</ele>
        <time>2016-05-05T13:20:31Z</time>
      </trkpt>
      <trkpt lat="47.19717" lon="2.99396">
        <ele>149.5</ele>
        <time>2016-05-05T13:20:34Z</time>
      </trkpt>
      <trkpt lat="47.19729" lon="2.99389">
        <ele>149.5</ele>
        <time>2016-05-05T13:20:37Z</time>
      </trkpt>
      <trkpt lat="47.19741" lon="2.99382">
        <ele>149.5</ele>
        <time>2016-05-05T13:20:40Z</time>
      </trkpt>
      <trkpt lat="47.19755" lon="2.99376">
        <ele>149.4</ele>
        <time>2016-05-05T13:20:43Z</time>
      </trkpt>
      <trkpt lat="47.19763" lon="2.99371">
        <ele>149.3</ele>
        <time>2016-05-05T13:20:45Z</time>
      </trkpt>
      <trkpt lat="47.19772" lon="2.99367">
        <ele>149.2</ele>
        <time>2016-05-05T13:20:47Z</time>
      </trkpt>
      <trkpt lat="47.19784" lon="2.99361">
        <ele>149.1</ele>
        <time>2016-05-05T13:20:50Z</time>
      </trkpt>
      <trkpt lat="47.19796" lon="2.99356">
        <ele>149.1</ele>
        <time>2016-05-05T13:20:53Z</time>
      </trkpt>
      <trkpt lat="47.19809" lon="2.99351">
        <ele>149.1</ele>
        <time>2016-05-05T13:20:56Z</time>
      </trkpt>
      <trkpt lat="47.19821" lon="2.99347">
        <ele>148.9</ele>
        <time>2016-05-05T13:20:59Z</time>
      </trkpt>
      <trkpt lat="47.19833" lon="2.99341">
        <ele>148.8</ele>
        <time>2016-05-05T13:21:02Z</time>
      </trkpt>
      <trkpt lat="47.19844" lon="2.99335">
        <ele>148.8</ele>
        <time>2016-05-05T13:21:05Z</time>
      </trkpt>
      <trkpt lat="47.19855" lon="2.9933">
        <ele>148.9</ele>
        <time>2016-05-05T13:21:08Z</time>
      </trkpt>
      <trkpt lat="47.19866" lon="2.99323">
        <ele>149</ele>
        <time>2016-05-05T13:21:11Z</time>
      </trkpt>
      <trkpt lat="47.19876" lon="2.99317">
        <ele>148.7</ele>
        <time>2016-05-05T13:21:14Z</time>
      </trkpt>
      <trkpt lat="47.19887" lon="2.99312">
        <ele>148.7</ele>
        <time>2016-05-05T13:21:17Z</time>
      </trkpt>
      <trkpt lat="47.19897" lon="2.99306">
        <ele>148.8</ele>
        <time>2016-05-05T13:21:20Z</time>
      </trkpt>
      <trkpt lat="47.19908" lon="2.993">
        <ele>148.9</ele>
        <time>2016-05-05T13:21:23Z</time>
      </trkpt>
      <trkpt lat="47.19918" lon="2.99295">
        <ele>148.9</ele>
        <time>2016-05-05T13:21:26Z</time>
      </trkpt>
      <trkpt lat="47.19928" lon="2.99289">
        <ele>149.1</ele>
        <time>2016-05-05T13:21:29Z</time>
      </trkpt>
      <trkpt lat="47.1994" lon="2.99281">
        <ele>149</ele>
        <time>2016-05-05T13:21:32Z</time>
      </trkpt>
      <trkpt lat="47.19952" lon="2.99274">
        <ele>148.9</ele>
        <time>2016-05-05T13:21:35Z</time>
      </trkpt>
      <trkpt lat="47.19964" lon="2.99267">
        <ele>149</ele>
        <time>2016-05-05T13:21:38Z</time>
      </trkpt>
      <trkpt lat="47.19976" lon="2.9926">
        <ele>149.2</ele>
        <time>2016-05-05T13:21:41Z</time>
      </trkpt>
      <trkpt lat="47.19988" lon="2.99253">
        <ele>149.2</ele>
        <time>2016-05-05T13:21:44Z</time>
      </trkpt>
      <trkpt lat="47.2" lon="2.99246">
        <ele>149.2</ele>
        <time>2016-05-05T13:21:47Z</time>
      </trkpt>
      <trkpt lat="47.20012" lon="2.99239">
        <ele>149.2</ele>
        <time>2016-05-05T13:21:50Z</time>
      </trkpt>
      <trkpt lat="47.20024" lon="2.99231">
        <ele>149.1</ele>
        <time>2016-05-05T13:21:53Z</time>
      </trkpt>
      <trkpt lat="47.20037" lon="2.99224">
        <ele>149.3</ele>
        <time>2016-05-05T13:21:56Z</time>
      </trkpt>
      <trkpt lat="47.20049" lon="2.99217">
        <ele>149.4</ele>
        <time>2016-05-05T13:21:59Z</time>
      </trkpt>
      <trkpt lat="47.2006" lon="2.9921">
        <ele>149.4</ele>
        <time>2016-05-05T13:22:02Z</time>
      </trkpt>
      <trkpt lat="47.20073" lon="2.99203">
        <ele>149.3</ele>
        <time>2016-05-05T13:22:05Z</time>
      </trkpt>
      <trkpt lat="47.20085" lon="2.99196">
        <ele>149.2</ele>
        <time>2016-05-05T13:22:08Z</time>
      </trkpt>
      <trkpt lat="47.20097" lon="2.99189">
        <ele>149.3</ele>
        <time>2016-05-05T13:22:11Z</time>
      </trkpt>
      <trkpt lat="47.2011" lon="2.99182">
        <ele>149.3</ele>
        <time>2016-05-05T13:22:14Z</time>
      </trkpt>
      <trkpt lat="47.20122" lon="2.99174">
        <ele>149.3</ele>
        <time>2016-05-05T13:22:17Z</time>
      </trkpt>
      <trkpt lat="47.2013" lon="2.9917">
        <ele>149.2</ele>
        <time>2016-05-05T13:22:19Z</time>
      </trkpt>
      <trkpt lat="47.20142" lon="2.99163">
        <ele>149.2</ele>
        <time>2016-05-05T13:22:22Z</time>
      </trkpt>
      <trkpt lat="47.20155" lon="2.99156">
        <ele>149.1</ele>
        <time>2016-05-05T13:22:25Z</time>
      </trkpt>
      <trkpt lat="47.20167" lon="2.99148">
        <ele>149.1</ele>
        <time>2016-05-05T13:22:28Z</time>
      </trkpt>
      <trkpt lat="47.20175" lon="2.99143">
        <ele>149.1</ele>
        <time>2016-05-05T13:22:30Z</time>
      </trkpt>
      <trkpt lat="47.20188" lon="2.99136">
        <ele>149.1</ele>
        <time>2016-05-05T13:22:33Z</time>
      </trkpt>
      <trkpt lat="47.202" lon="2.99129">
        <ele>149.2</ele>
        <time>2016-05-05T13:22:36Z</time>
      </trkpt>
      <trkpt lat="47.20212" lon="2.99122">
        <ele>149.1</ele>
        <time>2016-05-05T13:22:39Z</time>
      </trkpt>
      <trkpt lat="47.20224" lon="2.99115">
        <ele>149.1</ele>
        <time>2016-05-05T13:22:42Z</time>
      </trkpt>
      <trkpt lat="47.20237" lon="2.99109">
        <ele>149</ele>
        <time>2016-05-05T13:22:45Z</time>
      </trkpt>
      <trkpt lat="47.20246" lon="2.99105">
        <ele>149.1</ele>
        <time>2016-05-05T13:22:47Z</time>
      </trkpt>
      <trkpt lat="47.20254" lon="2.991">
        <ele>149.1</ele>
        <time>2016-05-05T13:22:49Z</time>
      </trkpt>
      <trkpt lat="47.20263" lon="2.99096">
        <ele>149</ele>
        <time>2016-05-05T13:22:51Z</time>
      </trkpt>
      <trkpt lat="47.20271" lon="2.99091">
        <ele>148.9</ele>
        <time>2016-05-05T13:22:53Z</time>
      </trkpt>
      <trkpt lat="47.20283" lon="2.99084">
        <ele>148.9</ele>
        <time>2016-05-05T13:22:56Z</time>
      </trkpt>
      <trkpt lat="47.20296" lon="2.99076">
        <ele>148.9</ele>
        <time>2016-05-05T13:22:59Z</time>
      </trkpt>
      <trkpt lat="47.20304" lon="2.99071">
        <ele>148.9</ele>
        <time>2016-05-05T13:23:01Z</time>
      </trkpt>
      <trkpt lat="47.20313" lon="2.99066">
        <ele>148.9</ele>
        <time>2016-05-05T13:23:03Z</time>
      </trkpt>
      <trkpt lat="47.20325" lon="2.99059">
        <ele>148.9</ele>
        <time>2016-05-05T13:23:06Z</time>
      </trkpt>
      <trkpt lat="47.20333" lon="2.99054">
        <ele>148.8</ele>
        <time>2016-05-05T13:23:08Z</time>
      </trkpt>
      <trkpt lat="47.20342" lon="2.99049">
        <ele>148.8</ele>
        <time>2016-05-05T13:23:10Z</time>
      </trkpt>
      <trkpt lat="47.20351" lon="2.99046">
        <ele>148.8</ele>
        <time>2016-05-05T13:23:12Z</time>
      </trkpt>
      <trkpt lat="47.2036" lon="2.99041">
        <ele>148.9</ele>
        <time>2016-05-05T13:23:14Z</time>
      </trkpt>
      <trkpt lat="47.20369" lon="2.99037">
        <ele>148.9</ele>
        <time>2016-05-05T13:23:16Z</time>
      </trkpt>
      <trkpt lat="47.20378" lon="2.99032">
        <ele>148.8</ele>
        <time>2016-05-05T13:23:18Z</time>
      </trkpt>
      <trkpt lat="47.20386" lon="2.99028">
        <ele>148.9</ele>
        <time>2016-05-05T13:23:20Z</time>
      </trkpt>
      <trkpt lat="47.20395" lon="2.99025">
        <ele>148.9</ele>
        <time>2016-05-05T13:23:22Z</time>
      </trkpt>
      <trkpt lat="47.20404" lon="2.99022">
        <ele>148.7</ele>
        <time>2016-05-05T13:23:24Z</time>
      </trkpt>
      <trkpt lat="47.20413" lon="2.99018">
        <ele>148.7</ele>
        <time>2016-05-05T13:23:26Z</time>
      </trkpt>
      <trkpt lat="47.20426" lon="2.99015">
        <ele>148.7</ele>
        <time>2016-05-05T13:23:29Z</time>
      </trkpt>
      <trkpt lat="47.20439" lon="2.99012">
        <ele>148.7</ele>
        <time>2016-05-05T13:23:32Z</time>
      </trkpt>
      <trkpt lat="47.20448" lon="2.9901">
        <ele>148.5</ele>
        <time>2016-05-05T13:23:34Z</time>
      </trkpt>
      <trkpt lat="47.20457" lon="2.99006">
        <ele>148.5</ele>
        <time>2016-05-05T13:23:36Z</time>
      </trkpt>
      <trkpt lat="47.20466" lon="2.99003">
        <ele>148.5</ele>
        <time>2016-05-05T13:23:38Z</time>
      </trkpt>
      <trkpt lat="47.20474" lon="2.98998">
        <ele>148.7</ele>
        <time>2016-05-05T13:23:40Z</time>
      </trkpt>
      <trkpt lat="47.20486" lon="2.98991">
        <ele>148.8</ele>
        <time>2016-05-05T13:23:43Z</time>
      </trkpt>
      <trkpt lat="47.20496" lon="2.98986">
        <ele>148.9</ele>
        <time>2016-05-05T13:23:46Z</time>
      </trkpt>
      <trkpt lat="47.20506" lon="2.98978">
        <ele>148.7</ele>
        <time>2016-05-05T13:23:50Z</time>
      </trkpt>
      <trkpt lat="47.20516" lon="2.9897">
        <ele>148.7</ele>
        <time>2016-05-05T13:23:53Z</time>
      </trkpt>
      <trkpt lat="47.20526" lon="2.98961">
        <ele>148.7</ele>
        <time>2016-05-05T13:23:56Z</time>
      </trkpt>
      <trkpt lat="47.20536" lon="2.98952">
        <ele>148.6</ele>
        <time>2016-05-05T13:23:59Z</time>
      </trkpt>
      <trkpt lat="47.20545" lon="2.98944">
        <ele>148.6</ele>
        <time>2016-05-05T13:24:02Z</time>
      </trkpt>
      <trkpt lat="47.20554" lon="2.98935">
        <ele>148.5</ele>
        <time>2016-05-05T13:24:06Z</time>
      </trkpt>
      <trkpt lat="47.20565" lon="2.98924">
        <ele>148.6</ele>
        <time>2016-05-05T13:24:09Z</time>
      </trkpt>
      <trkpt lat="47.20575" lon="2.98914">
        <ele>148.6</ele>
        <time>2016-05-05T13:24:12Z</time>
      </trkpt>
      <trkpt lat="47.20583" lon="2.98908">
        <ele>148.6</ele>
        <time>2016-05-05T13:24:14Z</time>
      </trkpt>
      <trkpt lat="47.20595" lon="2.98897">
        <ele>148.6</ele>
        <time>2016-05-05T13:24:17Z</time>
      </trkpt>
      <trkpt lat="47.20606" lon="2.98887">
        <ele>148.8</ele>
        <time>2016-05-05T13:24:20Z</time>
      </trkpt>
      <trkpt lat="47.20616" lon="2.98877">
        <ele>148.8</ele>
        <time>2016-05-05T13:24:23Z</time>
      </trkpt>
      <trkpt lat="47.20624" lon="2.98868">
        <ele>148.9</ele>
        <time>2016-05-05T13:24:25Z</time>
      </trkpt>
      <trkpt lat="47.20633" lon="2.98858">
        <ele>148.9</ele>
        <time>2016-05-05T13:24:28Z</time>
      </trkpt>
      <trkpt lat="47.20642" lon="2.98848">
        <ele>148.9</ele>
        <time>2016-05-05T13:24:31Z</time>
      </trkpt>
      <trkpt lat="47.20649" lon="2.98839">
        <ele>148.9</ele>
        <time>2016-05-05T13:24:33Z</time>
      </trkpt>
      <trkpt lat="47.20659" lon="2.98826">
        <ele>149</ele>
        <time>2016-05-05T13:24:36Z</time>
      </trkpt>
      <trkpt lat="47.20667" lon="2.98817">
        <ele>149</ele>
        <time>2016-05-05T13:24:38Z</time>
      </trkpt>
      <trkpt lat="47.20675" lon="2.98808">
        <ele>149</ele>
        <time>2016-05-05T13:24:40Z</time>
      </trkpt>
      <trkpt lat="47.20684" lon="2.98796">
        <ele>149</ele>
        <time>2016-05-05T13:24:43Z</time>
      </trkpt>
      <trkpt lat="47.20693" lon="2.98783">
        <ele>148.9</ele>
        <time>2016-05-05T13:24:46Z</time>
      </trkpt>
      <trkpt lat="47.207" lon="2.98773">
        <ele>148.9</ele>
        <time>2016-05-05T13:24:48Z</time>
      </trkpt>
      <trkpt lat="47.20707" lon="2.98763">
        <ele>149</ele>
        <time>2016-05-05T13:24:50Z</time>
      </trkpt>
      <trkpt lat="47.20713" lon="2.98754">
        <ele>149</ele>
        <time>2016-05-05T13:24:52Z</time>
      </trkpt>
      <trkpt lat="47.2072" lon="2.98745">
        <ele>149</ele>
        <time>2016-05-05T13:24:54Z</time>
      </trkpt>
      <trkpt lat="47.20727" lon="2.98735">
        <ele>149</ele>
        <time>2016-05-05T13:24:56Z</time>
      </trkpt>
      <trkpt lat="47.20734" lon="2.98726">
        <ele>149</ele>
        <time>2016-05-05T13:24:58Z</time>
      </trkpt>
      <trkpt lat="47.20741" lon="2.98717">
        <ele>149.1</ele>
        <time>2016-05-05T13:25:00Z</time>
      </trkpt>
      <trkpt lat="47.20749" lon="2.98708">
        <ele>149</ele>
        <time>2016-05-05T13:25:02Z</time>
      </trkpt>
      <trkpt lat="47.20756" lon="2.98699">
        <ele>148.9</ele>
        <time>2016-05-05T13:25:04Z</time>
      </trkpt>
      <trkpt lat="47.20764" lon="2.9869">
        <ele>148.9</ele>
        <time>2016-05-05T13:25:06Z</time>
      </trkpt>
      <trkpt lat="47.20772" lon="2.98682">
        <ele>148.9</ele>
        <time>2016-05-05T13:25:08Z</time>
      </trkpt>
      <trkpt lat="47.20779" lon="2.98674">
        <ele>148.8</ele>
        <time>2016-05-05T13:25:10Z</time>
      </trkpt>
      <trkpt lat="47.20787" lon="2.98665">
        <ele>148.9</ele>
        <time>2016-05-05T13:25:12Z</time>
      </trkpt>
      <trkpt lat="47.20794" lon="2.98658">
        <ele>149</ele>
        <time>2016-05-05T13:25:14Z</time>
      </trkpt>
      <trkpt lat="47.20806" lon="2.98647">
        <ele>149</ele>
        <time>2016-05-05T13:25:17Z</time>
      </trkpt>
      <trkpt lat="47.20817" lon="2.98637">
        <ele>148.9</ele>
        <time>2016-05-05T13:25:20Z</time>
      </trkpt>
      <trkpt lat="47.20825" lon="2.9863">
        <ele>148.9</ele>
        <time>2016-05-05T13:25:22Z</time>
      </trkpt>
      <trkpt lat="47.20836" lon="2.98618">
        <ele>148.8</ele>
        <time>2016-05-05T13:25:25Z</time>
      </trkpt>
      <trkpt lat="47.20847" lon="2.98608">
        <ele>148.7</ele>
        <time>2016-05-05T13:25:28Z</time>
      </trkpt>
      <trkpt lat="47.20855" lon="2.98601">
        <ele>148.8</ele>
        <time>2016-05-05T13:25:30Z</time>
      </trkpt>
      <trkpt lat="47.20863" lon="2.98594">
        <ele>148.7</ele>
        <time>2016-05-05T13:25:32Z</time>
      </trkpt>
      <trkpt lat="47.20875" lon="2.98584">
        <ele>148.8</ele>
        <time>2016-05-05T13:25:35Z</time>
      </trkpt>
      <trkpt lat="47.20886" lon="2.98575">
        <ele>148.9</ele>
        <time>2016-05-05T13:25:38Z</time>
      </trkpt>
      <trkpt lat="47.20897" lon="2.98564">
        <ele>148.9</ele>
        <time>2016-05-05T13:25:41Z</time>
      </trkpt>
      <trkpt lat="47.20908" lon="2.98554">
        <ele>149</ele>
        <time>2016-05-05T13:25:44Z</time>
      </trkpt>
      <trkpt lat="47.20919" lon="2.98543">
        <ele>149.1</ele>
        <time>2016-05-05T13:25:47Z</time>
      </trkpt>
      <trkpt lat="47.20929" lon="2.98532">
        <ele>148.8</ele>
        <time>2016-05-05T13:25:50Z</time>
      </trkpt>
      <trkpt lat="47.20937" lon="2.98524">
        <ele>148.7</ele>
        <time>2016-05-05T13:25:52Z</time>
      </trkpt>
      <trkpt lat="47.20947" lon="2.98513">
        <ele>148.6</ele>
        <time>2016-05-05T13:25:55Z</time>
      </trkpt>
      <trkpt lat="47.20955" lon="2.98506">
        <ele>148.6</ele>
        <time>2016-05-05T13:25:57Z</time>
      </trkpt>
      <trkpt lat="47.20963" lon="2.98499">
        <ele>148.6</ele>
        <time>2016-05-05T13:25:59Z</time>
      </trkpt>
      <trkpt lat="47.20973" lon="2.98487">
        <ele>148.6</ele>
        <time>2016-05-05T13:26:02Z</time>
      </trkpt>
      <trkpt lat="47.20981" lon="2.98479">
        <ele>148.7</ele>
        <time>2016-05-05T13:26:04Z</time>
      </trkpt>
      <trkpt lat="47.20989" lon="2.9847">
        <ele>148.7</ele>
        <time>2016-05-05T13:26:06Z</time>
      </trkpt>
      <trkpt lat="47.20997" lon="2.98462">
        <ele>148.7</ele>
        <time>2016-05-05T13:26:08Z</time>
      </trkpt>
      <trkpt lat="47.21005" lon="2.98453">
        <ele>148.7</ele>
        <time>2016-05-05T13:26:10Z</time>
      </trkpt>
      <trkpt lat="47.21016" lon="2.98442">
        <ele>148.7</ele>
        <time>2016-05-05T13:26:13Z</time>
      </trkpt>
      <trkpt lat="47.21027" lon="2.98432">
        <ele>148.7</ele>
        <time>2016-05-05T13:26:16Z</time>
      </trkpt>
      <trkpt lat="47.21038" lon="2.98422">
        <ele>148.9</ele>
        <time>2016-05-05T13:26:19Z</time>
      </trkpt>
      <trkpt lat="47.21049" lon="2.98411">
        <ele>149.1</ele>
        <time>2016-05-05T13:26:22Z</time>
      </trkpt>
      <trkpt lat="47.21057" lon="2.98404">
        <ele>149.1</ele>
        <time>2016-05-05T13:26:24Z</time>
      </trkpt>
      <trkpt lat="47.21064" lon="2.98396">
        <ele>149.1</ele>
        <time>2016-05-05T13:26:26Z</time>
      </trkpt>
      <trkpt lat="47.21074" lon="2.98386">
        <ele>149</ele>
        <time>2016-05-05T13:26:29Z</time>
      </trkpt>
      <trkpt lat="47.21085" lon="2.98374">
        <ele>148.9</ele>
        <time>2016-05-05T13:26:32Z</time>
      </trkpt>
      <trkpt lat="47.21092" lon="2.98367">
        <ele>148.8</ele>
        <time>2016-05-05T13:26:34Z</time>
      </trkpt>
      <trkpt lat="47.211" lon="2.98359">
        <ele>148.7</ele>
        <time>2016-05-05T13:26:36Z</time>
      </trkpt>
      <trkpt lat="47.2111" lon="2.98348">
        <ele>148.5</ele>
        <time>2016-05-05T13:26:39Z</time>
      </trkpt>
      <trkpt lat="47.21121" lon="2.98337">
        <ele>148.5</ele>
        <time>2016-05-05T13:26:42Z</time>
      </trkpt>
      <trkpt lat="47.21131" lon="2.98325">
        <ele>148.5</ele>
        <time>2016-05-05T13:26:45Z</time>
      </trkpt>
      <trkpt lat="47.2114" lon="2.98315">
        <ele>148.6</ele>
        <time>2016-05-05T13:26:48Z</time>
      </trkpt>
      <trkpt lat="47.21149" lon="2.98308">
        <ele>148.6</ele>
        <time>2016-05-05T13:26:51Z</time>
      </trkpt>
      <trkpt lat="47.21157" lon="2.98298">
        <ele>148.8</ele>
        <time>2016-05-05T13:26:54Z</time>
      </trkpt>
      <trkpt lat="47.21166" lon="2.98287">
        <ele>148.9</ele>
        <time>2016-05-05T13:26:57Z</time>
      </trkpt>
      <trkpt lat="47.21177" lon="2.98276">
        <ele>149</ele>
        <time>2016-05-05T13:27:00Z</time>
      </trkpt>
      <trkpt lat="47.21188" lon="2.98264">
        <ele>149.2</ele>
        <time>2016-05-05T13:27:03Z</time>
      </trkpt>
      <trkpt lat="47.21195" lon="2.98257">
        <ele>149.3</ele>
        <time>2016-05-05T13:27:05Z</time>
      </trkpt>
      <trkpt lat="47.21206" lon="2.98246">
        <ele>149.4</ele>
        <time>2016-05-05T13:27:08Z</time>
      </trkpt>
      <trkpt lat="47.21217" lon="2.98234">
        <ele>149.2</ele>
        <time>2016-05-05T13:27:11Z</time>
      </trkpt>
      <trkpt lat="47.21228" lon="2.98222">
        <ele>149.3</ele>
        <time>2016-05-05T13:27:14Z</time>
      </trkpt>
      <trkpt lat="47.21238" lon="2.9821">
        <ele>149.5</ele>
        <time>2016-05-05T13:27:17Z</time>
      </trkpt>
      <trkpt lat="47.21248" lon="2.98198">
        <ele>149.6</ele>
        <time>2016-05-05T13:27:20Z</time>
      </trkpt>
      <trkpt lat="47.21256" lon="2.9819">
        <ele>149.6</ele>
        <time>2016-05-05T13:27:22Z</time>
      </trkpt>
      <trkpt lat="47.21263" lon="2.98181">
        <ele>149.6</ele>
        <time>2016-05-05T13:27:24Z</time>
      </trkpt>
      <trkpt lat="47.21273" lon="2.98169">
        <ele>149.5</ele>
        <time>2016-05-05T13:27:27Z</time>
      </trkpt>
      <trkpt lat="47.21281" lon="2.9816">
        <ele>149.5</ele>
        <time>2016-05-05T13:27:29Z</time>
      </trkpt>
      <trkpt lat="47.21288" lon="2.98152">
        <ele>149.5</ele>
        <time>2016-05-05T13:27:31Z</time>
      </trkpt>
      <trkpt lat="47.21299" lon="2.9814">
        <ele>149.4</ele>
        <time>2016-05-05T13:27:34Z</time>
      </trkpt>
      <trkpt lat="47.21306" lon="2.98132">
        <ele>149.4</ele>
        <time>2016-05-05T13:27:36Z</time>
      </trkpt>
      <trkpt lat="47.21316" lon="2.9812">
        <ele>149.4</ele>
        <time>2016-05-05T13:27:39Z</time>
      </trkpt>
      <trkpt lat="47.21324" lon="2.98112">
        <ele>149.4</ele>
        <time>2016-05-05T13:27:41Z</time>
      </trkpt>
      <trkpt lat="47.21331" lon="2.98104">
        <ele>149.3</ele>
        <time>2016-05-05T13:27:43Z</time>
      </trkpt>
      <trkpt lat="47.21338" lon="2.98095">
        <ele>149.4</ele>
        <time>2016-05-05T13:27:45Z</time>
      </trkpt>
      <trkpt lat="47.21345" lon="2.98087">
        <ele>149.5</ele>
        <time>2016-05-05T13:27:47Z</time>
      </trkpt>
      <trkpt lat="47.21352" lon="2.98079">
        <ele>149.6</ele>
        <time>2016-05-05T13:27:49Z</time>
      </trkpt>
      <trkpt lat="47.2136" lon="2.98071">
        <ele>149.6</ele>
        <time>2016-05-05T13:27:51Z</time>
      </trkpt>
      <trkpt lat="47.21367" lon="2.98063">
        <ele>149.7</ele>
        <time>2016-05-05T13:27:53Z</time>
      </trkpt>
      <trkpt lat="47.21374" lon="2.98055">
        <ele>149.7</ele>
        <time>2016-05-05T13:27:55Z</time>
      </trkpt>
      <trkpt lat="47.21382" lon="2.98046">
        <ele>149.6</ele>
        <time>2016-05-05T13:27:57Z</time>
      </trkpt>
      <trkpt lat="47.2139" lon="2.98038">
        <ele>149.6</ele>
        <time>2016-05-05T13:27:59Z</time>
      </trkpt>
      <trkpt lat="47.21397" lon="2.98029">
        <ele>149.5</ele>
        <time>2016-05-05T13:28:01Z</time>
      </trkpt>
      <trkpt lat="47.21405" lon="2.9802">
        <ele>149.4</ele>
        <time>2016-05-05T13:28:03Z</time>
      </trkpt>
      <trkpt lat="47.21412" lon="2.98012">
        <ele>149.4</ele>
        <time>2016-05-05T13:28:05Z</time>
      </trkpt>
      <trkpt lat="47.2142" lon="2.98004">
        <ele>149.4</ele>
        <time>2016-05-05T13:28:07Z</time>
      </trkpt>
      <trkpt lat="47.2143" lon="2.97992">
        <ele>149.5</ele>
        <time>2016-05-05T13:28:10Z</time>
      </trkpt>
      <trkpt lat="47.2144" lon="2.9798">
        <ele>149.5</ele>
        <time>2016-05-05T13:28:13Z</time>
      </trkpt>
      <trkpt lat="47.2145" lon="2.97969">
        <ele>149.5</ele>
        <time>2016-05-05T13:28:16Z</time>
      </trkpt>
      <trkpt lat="47.2146" lon="2.97957">
        <ele>149.4</ele>
        <time>2016-05-05T13:28:19Z</time>
      </trkpt>
      <trkpt lat="47.2147" lon="2.97946">
        <ele>149.5</ele>
        <time>2016-05-05T13:28:22Z</time>
      </trkpt>
      <trkpt lat="47.2148" lon="2.97935">
        <ele>149.5</ele>
        <time>2016-05-05T13:28:25Z</time>
      </trkpt>
      <trkpt lat="47.2149" lon="2.97924">
        <ele>149.5</ele>
        <time>2016-05-05T13:28:28Z</time>
      </trkpt>
      <trkpt lat="47.215" lon="2.97913">
        <ele>149.4</ele>
        <time>2016-05-05T13:28:31Z</time>
      </trkpt>
      <trkpt lat="47.21509" lon="2.979">
        <ele>149.6</ele>
        <time>2016-05-05T13:28:34Z</time>
      </trkpt>
      <trkpt lat="47.21519" lon="2.97889">
        <ele>149.6</ele>
        <time>2016-05-05T13:28:37Z</time>
      </trkpt>
      <trkpt lat="47.21529" lon="2.97876">
        <ele>149.4</ele>
        <time>2016-05-05T13:28:40Z</time>
      </trkpt>
      <trkpt lat="47.21538" lon="2.97863">
        <ele>149.3</ele>
        <time>2016-05-05T13:28:43Z</time>
      </trkpt>
      <trkpt lat="47.21545" lon="2.97854">
        <ele>149.3</ele>
        <time>2016-05-05T13:28:45Z</time>
      </trkpt>
      <trkpt lat="47.21552" lon="2.97846">
        <ele>149.3</ele>
        <time>2016-05-05T13:28:47Z</time>
      </trkpt>
      <trkpt lat="47.21563" lon="2.97835">
        <ele>149</ele>
        <time>2016-05-05T13:28:50Z</time>
      </trkpt>
      <trkpt lat="47.21571" lon="2.97827">
        <ele>148.9</ele>
        <time>2016-05-05T13:28:52Z</time>
      </trkpt>
      <trkpt lat="47.2158" lon="2.97819">
        <ele>148.8</ele>
        <time>2016-05-05T13:28:54Z</time>
      </trkpt>
      <trkpt lat="47.21588" lon="2.97812">
        <ele>148.8</ele>
        <time>2016-05-05T13:28:56Z</time>
      </trkpt>
      <trkpt lat="47.21596" lon="2.97805">
        <ele>148.8</ele>
        <time>2016-05-05T13:28:58Z</time>
      </trkpt>
      <trkpt lat="47.21607" lon="2.97795">
        <ele>148.7</ele>
        <time>2016-05-05T13:29:01Z</time>
      </trkpt>
      <trkpt lat="47.21614" lon="2.97788">
        <ele>148.7</ele>
        <time>2016-05-05T13:29:03Z</time>
      </trkpt>
      <trkpt lat="47.21622" lon="2.9778">
        <ele>148.8</ele>
        <time>2016-05-05T13:29:05Z</time>
      </trkpt>
      <trkpt lat="47.21633" lon="2.9777">
        <ele>148.7</ele>
        <time>2016-05-05T13:29:08Z</time>
      </trkpt>
      <trkpt lat="47.21641" lon="2.97762">
        <ele>148.7</ele>
        <time>2016-05-05T13:29:10Z</time>
      </trkpt>
      <trkpt lat="47.21652" lon="2.97752">
        <ele>148.8</ele>
        <time>2016-05-05T13:29:13Z</time>
      </trkpt>
      <trkpt lat="47.21663" lon="2.97741">
        <ele>148.7</ele>
        <time>2016-05-05T13:29:16Z</time>
      </trkpt>
      <trkpt lat="47.21671" lon="2.97734">
        <ele>148.8</ele>
        <time>2016-05-05T13:29:18Z</time>
      </trkpt>
      <trkpt lat="47.21682" lon="2.97724">
        <ele>148.6</ele>
        <time>2016-05-05T13:29:21Z</time>
      </trkpt>
      <trkpt lat="47.21693" lon="2.97714">
        <ele>148.7</ele>
        <time>2016-05-05T13:29:24Z</time>
      </trkpt>
      <trkpt lat="47.21703" lon="2.97704">
        <ele>148.9</ele>
        <time>2016-05-05T13:29:27Z</time>
      </trkpt>
      <trkpt lat="47.21711" lon="2.97697">
        <ele>148.9</ele>
        <time>2016-05-05T13:29:29Z</time>
      </trkpt>
      <trkpt lat="47.2172" lon="2.9769">
        <ele>149</ele>
        <time>2016-05-05T13:29:31Z</time>
      </trkpt>
      <trkpt lat="47.21729" lon="2.97682">
        <ele>149</ele>
        <time>2016-05-05T13:29:33Z</time>
      </trkpt>
      <trkpt lat="47.21738" lon="2.97674">
        <ele>148.9</ele>
        <time>2016-05-05T13:29:35Z</time>
      </trkpt>
      <trkpt lat="47.21745" lon="2.97667">
        <ele>148.9</ele>
        <time>2016-05-05T13:29:37Z</time>
      </trkpt>
      <trkpt lat="47.21753" lon="2.9766">
        <ele>148.8</ele>
        <time>2016-05-05T13:29:39Z</time>
      </trkpt>
      <trkpt lat="47.21761" lon="2.97652">
        <ele>148.7</ele>
        <time>2016-05-05T13:29:41Z</time>
      </trkpt>
      <trkpt lat="47.21771" lon="2.97642">
        <ele>148.6</ele>
        <time>2016-05-05T13:29:44Z</time>
      </trkpt>
      <trkpt lat="47.21783" lon="2.97632">
        <ele>148.6</ele>
        <time>2016-05-05T13:29:47Z</time>
      </trkpt>
      <trkpt lat="47.21793" lon="2.97621">
        <ele>148.6</ele>
        <time>2016-05-05T13:29:50Z</time>
      </trkpt>
      <trkpt lat="47.21802" lon="2.97614">
        <ele>148.6</ele>
        <time>2016-05-05T13:29:52Z</time>
      </trkpt>
      <trkpt lat="47.2181" lon="2.97606">
        <ele>148.5</ele>
        <time>2016-05-05T13:29:54Z</time>
      </trkpt>
      <trkpt lat="47.21818" lon="2.97599">
        <ele>148.6</ele>
        <time>2016-05-05T13:29:56Z</time>
      </trkpt>
      <trkpt lat="47.21827" lon="2.97591">
        <ele>148.6</ele>
        <time>2016-05-05T13:29:58Z</time>
      </trkpt>
      <trkpt lat="47.21836" lon="2.97583">
        <ele>148.6</ele>
        <time>2016-05-05T13:30:00Z</time>
      </trkpt>
      <trkpt lat="47.21845" lon="2.97575">
        <ele>148.7</ele>
        <time>2016-05-05T13:30:02Z</time>
      </trkpt>
      <trkpt lat="47.21853" lon="2.97567">
        <ele>148.8</ele>
        <time>2016-05-05T13:30:04Z</time>
      </trkpt>
      <trkpt lat="47.21861" lon="2.97559">
        <ele>148.7</ele>
        <time>2016-05-05T13:30:06Z</time>
      </trkpt>
      <trkpt lat="47.2187" lon="2.97551">
        <ele>148.7</ele>
        <time>2016-05-05T13:30:08Z</time>
      </trkpt>
      <trkpt lat="47.21878" lon="2.97544">
        <ele>148.7</ele>
        <time>2016-05-05T13:30:10Z</time>
      </trkpt>
      <trkpt lat="47.21887" lon="2.97536">
        <ele>148.7</ele>
        <time>2016-05-05T13:30:12Z</time>
      </trkpt>
      <trkpt lat="47.21895" lon="2.97529">
        <ele>148.8</ele>
        <time>2016-05-05T13:30:14Z</time>
      </trkpt>
      <trkpt lat="47.21903" lon="2.97522">
        <ele>148.8</ele>
        <time>2016-05-05T13:30:16Z</time>
      </trkpt>
      <trkpt lat="47.21911" lon="2.97515">
        <ele>148.9</ele>
        <time>2016-05-05T13:30:18Z</time>
      </trkpt>
      <trkpt lat="47.21919" lon="2.97509">
        <ele>148.9</ele>
        <time>2016-05-05T13:30:20Z</time>
      </trkpt>
      <trkpt lat="47.21928" lon="2.97504">
        <ele>148.9</ele>
        <time>2016-05-05T13:30:22Z</time>
      </trkpt>
      <trkpt lat="47.21939" lon="2.97501">
        <ele>148.9</ele>
        <time>2016-05-05T13:30:24Z</time>
      </trkpt>
      <trkpt lat="47.2195" lon="2.97499">
        <ele>148.9</ele>
        <time>2016-05-05T13:30:26Z</time>
      </trkpt>
      <trkpt lat="47.21961" lon="2.97497">
        <ele>149</ele>
        <time>2016-05-05T13:30:28Z</time>
      </trkpt>
      <trkpt lat="47.21971" lon="2.97495">
        <ele>148.8</ele>
        <time>2016-05-05T13:30:30Z</time>
      </trkpt>
      <trkpt lat="47.21982" lon="2.97495">
        <ele>148.8</ele>
        <time>2016-05-05T13:30:32Z</time>
      </trkpt>
      <trkpt lat="47.21993" lon="2.97494">
        <ele>148.8</ele>
        <time>2016-05-05T13:30:34Z</time>
      </trkpt>
      <trkpt lat="47.22004" lon="2.97492">
        <ele>148.8</ele>
        <time>2016-05-05T13:30:36Z</time>
      </trkpt>
      <trkpt lat="47.22016" lon="2.9749">
        <ele>148.8</ele>
        <time>2016-05-05T13:30:38Z</time>
      </trkpt>
      <trkpt lat="47.22028" lon="2.97489">
        <ele>148.8</ele>
        <time>2016-05-05T13:30:40Z</time>
      </trkpt>
      <trkpt lat="47.22042" lon="2.97488">
        <ele>148.8</ele>
        <time>2016-05-05T13:30:42Z</time>
      </trkpt>
      <trkpt lat="47.22055" lon="2.97486">
        <ele>148.9</ele>
        <time>2016-05-05T13:30:44Z</time>
      </trkpt>
      <trkpt lat="47.22068" lon="2.97486">
        <ele>149</ele>
        <time>2016-05-05T13:30:46Z</time>
      </trkpt>
      <trkpt lat="47.22081" lon="2.97484">
        <ele>148.9</ele>
        <time>2016-05-05T13:30:48Z</time>
      </trkpt>
      <trkpt lat="47.22093" lon="2.97483">
        <ele>148.9</ele>
        <time>2016-05-05T13:30:50Z</time>
      </trkpt>
      <trkpt lat="47.22104" lon="2.97481">
        <ele>149</ele>
        <time>2016-05-05T13:30:52Z</time>
      </trkpt>
      <trkpt lat="47.22114" lon="2.97479">
        <ele>149.1</ele>
        <time>2016-05-05T13:30:54Z</time>
      </trkpt>
      <trkpt lat="47.22124" lon="2.97478">
        <ele>149.1</ele>
        <time>2016-05-05T13:30:56Z</time>
      </trkpt>
      <trkpt lat="47.22134" lon="2.97477">
        <ele>149.1</ele>
        <time>2016-05-05T13:30:58Z</time>
      </trkpt>
      <trkpt lat="47.22147" lon="2.97474">
        <ele>149</ele>
        <time>2016-05-05T13:31:01Z</time>
      </trkpt>
      <trkpt lat="47.22158" lon="2.97473">
        <ele>149</ele>
        <time>2016-05-05T13:31:04Z</time>
      </trkpt>
      <trkpt lat="47.22167" lon="2.97476">
        <ele>149.4</ele>
        <time>2016-05-05T13:32:06Z</time>
      </trkpt>
      <trkpt lat="47.22177" lon="2.97473">
        <ele>149.5</ele>
        <time>2016-05-05T13:32:09Z</time>
      </trkpt>
      <trkpt lat="47.22186" lon="2.97473">
        <ele>149.5</ele>
        <time>2016-05-05T13:32:12Z</time>
      </trkpt>
      <trkpt lat="47.22195" lon="2.97472">
        <ele>149.5</ele>
        <time>2016-05-05T13:32:15Z</time>
      </trkpt>
      <trkpt lat="47.22206" lon="2.97471">
        <ele>149.6</ele>
        <time>2016-05-05T13:32:18Z</time>
      </trkpt>
      <trkpt lat="47.22216" lon="2.9747">
        <ele>149.8</ele>
        <time>2016-05-05T13:32:21Z</time>
      </trkpt>
      <trkpt lat="47.22227" lon="2.97468">
        <ele>149.9</ele>
        <time>2016-05-05T13:32:24Z</time>
      </trkpt>
      <trkpt lat="47.22237" lon="2.97467">
        <ele>149.9</ele>
        <time>2016-05-05T13:32:27Z</time>
      </trkpt>
      <trkpt lat="47.22248" lon="2.97465">
        <ele>149.8</ele>
        <time>2016-05-05T13:32:30Z</time>
      </trkpt>
      <trkpt lat="47.22259" lon="2.97463">
        <ele>149.7</ele>
        <time>2016-05-05T13:32:33Z</time>
      </trkpt>
      <trkpt lat="47.2227" lon="2.97461">
        <ele>149.6</ele>
        <time>2016-05-05T13:32:36Z</time>
      </trkpt>
      <trkpt lat="47.22282" lon="2.97459">
        <ele>149.7</ele>
        <time>2016-05-05T13:32:39Z</time>
      </trkpt>
      <trkpt lat="47.22294" lon="2.97457">
        <ele>149.7</ele>
        <time>2016-05-05T13:32:42Z</time>
      </trkpt>
      <trkpt lat="47.22305" lon="2.97455">
        <ele>149.8</ele>
        <time>2016-05-05T13:32:45Z</time>
      </trkpt>
      <trkpt lat="47.22317" lon="2.97453">
        <ele>149.8</ele>
        <time>2016-05-05T13:32:48Z</time>
      </trkpt>
      <trkpt lat="47.22329" lon="2.9745">
        <ele>149.7</ele>
        <time>2016-05-05T13:32:51Z</time>
      </trkpt>
      <trkpt lat="47.22342" lon="2.97447">
        <ele>149.6</ele>
        <time>2016-05-05T13:32:54Z</time>
      </trkpt>
      <trkpt lat="47.22355" lon="2.97444">
        <ele>149.4</ele>
        <time>2016-05-05T13:32:57Z</time>
      </trkpt>
      <trkpt lat="47.22368" lon="2.97441">
        <ele>149.2</ele>
        <time>2016-05-05T13:33:00Z</time>
      </trkpt>
      <trkpt lat="47.22377" lon="2.97439">
        <ele>149.3</ele>
        <time>2016-05-05T13:33:02Z</time>
      </trkpt>
      <trkpt lat="47.22386" lon="2.97437">
        <ele>149.3</ele>
        <time>2016-05-05T13:33:04Z</time>
      </trkpt>
      <trkpt lat="47.22395" lon="2.97435">
        <ele>148.9</ele>
        <time>2016-05-05T13:33:06Z</time>
      </trkpt>
      <trkpt lat="47.22405" lon="2.97433">
        <ele>148.9</ele>
        <time>2016-05-05T13:33:08Z</time>
      </trkpt>
      <trkpt lat="47.22413" lon="2.97431">
        <ele>148.8</ele>
        <time>2016-05-05T13:33:10Z</time>
      </trkpt>
      <trkpt lat="47.22427" lon="2.97427">
        <ele>149</ele>
        <time>2016-05-05T13:33:13Z</time>
      </trkpt>
      <trkpt lat="47.22436" lon="2.97425">
        <ele>149.1</ele>
        <time>2016-05-05T13:33:15Z</time>
      </trkpt>
      <trkpt lat="47.22445" lon="2.97423">
        <ele>149.2</ele>
        <time>2016-05-05T13:33:17Z</time>
      </trkpt>
      <trkpt lat="47.22454" lon="2.9742">
        <ele>149.1</ele>
        <time>2016-05-05T13:33:19Z</time>
      </trkpt>
      <trkpt lat="47.22462" lon="2.97418">
        <ele>149.1</ele>
        <time>2016-05-05T13:33:21Z</time>
      </trkpt>
      <trkpt lat="47.22472" lon="2.97416">
        <ele>149.3</ele>
        <time>2016-05-05T13:33:23Z</time>
      </trkpt>
      <trkpt lat="47.22485" lon="2.97412">
        <ele>149.2</ele>
        <time>2016-05-05T13:33:26Z</time>
      </trkpt>
      <trkpt lat="47.22498" lon="2.97409">
        <ele>149.2</ele>
        <time>2016-05-05T13:33:29Z</time>
      </trkpt>
      <trkpt lat="47.22507" lon="2.97407">
        <ele>149.2</ele>
        <time>2016-05-05T13:33:31Z</time>
      </trkpt>
      <trkpt lat="47.22516" lon="2.97406">
        <ele>149.2</ele>
        <time>2016-05-05T13:33:33Z</time>
      </trkpt>
      <trkpt lat="47.22526" lon="2.97406">
        <ele>149.2</ele>
        <time>2016-05-05T13:33:35Z</time>
      </trkpt>
      <trkpt lat="47.22535" lon="2.97406">
        <ele>149.4</ele>
        <time>2016-05-05T13:33:37Z</time>
      </trkpt>
      <trkpt lat="47.22544" lon="2.97406">
        <ele>149.5</ele>
        <time>2016-05-05T13:33:39Z</time>
      </trkpt>
      <trkpt lat="47.22553" lon="2.97407">
        <ele>149.6</ele>
        <time>2016-05-05T13:33:41Z</time>
      </trkpt>
      <trkpt lat="47.22562" lon="2.97407">
        <ele>149.7</ele>
        <time>2016-05-05T13:33:43Z</time>
      </trkpt>
      <trkpt lat="47.22571" lon="2.97407">
        <ele>149.7</ele>
        <time>2016-05-05T13:33:45Z</time>
      </trkpt>
      <trkpt lat="47.22585" lon="2.97408">
        <ele>149.5</ele>
        <time>2016-05-05T13:33:48Z</time>
      </trkpt>
      <trkpt lat="47.22594" lon="2.97408">
        <ele>149.5</ele>
        <time>2016-05-05T13:33:50Z</time>
      </trkpt>
      <trkpt lat="47.22606" lon="2.97409">
        <ele>149.4</ele>
        <time>2016-05-05T13:33:53Z</time>
      </trkpt>
      <trkpt lat="47.22619" lon="2.97411">
        <ele>149.4</ele>
        <time>2016-05-05T13:33:56Z</time>
      </trkpt>
      <trkpt lat="47.22629" lon="2.97412">
        <ele>149.3</ele>
        <time>2016-05-05T13:33:58Z</time>
      </trkpt>
      <trkpt lat="47.22638" lon="2.97412">
        <ele>149.2</ele>
        <time>2016-05-05T13:34:00Z</time>
      </trkpt>
      <trkpt lat="47.22647" lon="2.97413">
        <ele>149.1</ele>
        <time>2016-05-05T13:34:02Z</time>
      </trkpt>
      <trkpt lat="47.22656" lon="2.97412">
        <ele>149.1</ele>
        <time>2016-05-05T13:34:04Z</time>
      </trkpt>
      <trkpt lat="47.22666" lon="2.97411">
        <ele>149.2</ele>
        <time>2016-05-05T13:34:06Z</time>
      </trkpt>
      <trkpt lat="47.22675" lon="2.97409">
        <ele>149.2</ele>
        <time>2016-05-05T13:34:08Z</time>
      </trkpt>
      <trkpt lat="47.22684" lon="2.97406">
        <ele>149.2</ele>
        <time>2016-05-05T13:34:10Z</time>
      </trkpt>
      <trkpt lat="47.22694" lon="2.97403">
        <ele>149.2</ele>
        <time>2016-05-05T13:34:12Z</time>
      </trkpt>
      <trkpt lat="47.22703" lon="2.97399">
        <ele>149.1</ele>
        <time>2016-05-05T13:34:14Z</time>
      </trkpt>
      <trkpt lat="47.22715" lon="2.97395">
        <ele>149</ele>
        <time>2016-05-05T13:34:17Z</time>
      </trkpt>
      <trkpt lat="47.22724" lon="2.97391">
        <ele>149.1</ele>
        <time>2016-05-05T13:34:19Z</time>
      </trkpt>
      <trkpt lat="47.22737" lon="2.97385">
        <ele>149.1</ele>
        <time>2016-05-05T13:34:22Z</time>
      </trkpt>
      <trkpt lat="47.22748" lon="2.97381">
        <ele>149.1</ele>
        <time>2016-05-05T13:34:25Z</time>
      </trkpt>
      <trkpt lat="47.22761" lon="2.97377">
        <ele>149.2</ele>
        <time>2016-05-05T13:34:28Z</time>
      </trkpt>
      <trkpt lat="47.2277" lon="2.97376">
        <ele>149.2</ele>
        <time>2016-05-05T13:34:30Z</time>
      </trkpt>
      <trkpt lat="47.22784" lon="2.97376">
        <ele>149.3</ele>
        <time>2016-05-05T13:34:33Z</time>
      </trkpt>
      <trkpt lat="47.22796" lon="2.97376">
        <ele>149.3</ele>
        <time>2016-05-05T13:34:36Z</time>
      </trkpt>
      <trkpt lat="47.22809" lon="2.97378">
        <ele>149.3</ele>
        <time>2016-05-05T13:34:39Z</time>
      </trkpt>
      <trkpt lat="47.22822" lon="2.9738">
        <ele>149.4</ele>
        <time>2016-05-05T13:34:42Z</time>
      </trkpt>
      <trkpt lat="47.22834" lon="2.97384">
        <ele>149.6</ele>
        <time>2016-05-05T13:34:45Z</time>
      </trkpt>
      <trkpt lat="47.22847" lon="2.97387">
        <ele>149.5</ele>
        <time>2016-05-05T13:34:48Z</time>
      </trkpt>
      <trkpt lat="47.2286" lon="2.9739">
        <ele>149.4</ele>
        <time>2016-05-05T13:34:51Z</time>
      </trkpt>
      <trkpt lat="47.22872" lon="2.97394">
        <ele>149.3</ele>
        <time>2016-05-05T13:34:54Z</time>
      </trkpt>
      <trkpt lat="47.22882" lon="2.97396">
        <ele>149.4</ele>
        <time>2016-05-05T13:34:56Z</time>
      </trkpt>
      <trkpt lat="47.22891" lon="2.97397">
        <ele>149.4</ele>
        <time>2016-05-05T13:34:58Z</time>
      </trkpt>
      <trkpt lat="47.229" lon="2.97399">
        <ele>149.5</ele>
        <time>2016-05-05T13:35:00Z</time>
      </trkpt>
      <trkpt lat="47.22913" lon="2.97401">
        <ele>149.6</ele>
        <time>2016-05-05T13:35:03Z</time>
      </trkpt>
      <trkpt lat="47.22926" lon="2.97404">
        <ele>149.4</ele>
        <time>2016-05-05T13:35:06Z</time>
      </trkpt>
      <trkpt lat="47.22935" lon="2.97407">
        <ele>149.4</ele>
        <time>2016-05-05T13:35:08Z</time>
      </trkpt>
      <trkpt lat="47.22949" lon="2.9741">
        <ele>149.6</ele>
        <time>2016-05-05T13:35:11Z</time>
      </trkpt>
      <trkpt lat="47.22962" lon="2.97413">
        <ele>149.4</ele>
        <time>2016-05-05T13:35:14Z</time>
      </trkpt>
      <trkpt lat="47.22975" lon="2.97415">
        <ele>149.4</ele>
        <time>2016-05-05T13:35:17Z</time>
      </trkpt>
      <trkpt lat="47.22987" lon="2.97416">
        <ele>149.6</ele>
        <time>2016-05-05T13:35:20Z</time>
      </trkpt>
      <trkpt lat="47.22997" lon="2.97415">
        <ele>149.6</ele>
        <time>2016-05-05T13:35:22Z</time>
      </trkpt>
      <trkpt lat="47.23007" lon="2.97415">
        <ele>149.8</ele>
        <time>2016-05-05T13:35:24Z</time>
      </trkpt>
      <trkpt lat="47.23017" lon="2.97414">
        <ele>149.7</ele>
        <time>2016-05-05T13:35:26Z</time>
      </trkpt>
      <trkpt lat="47.23028" lon="2.97412">
        <ele>149.7</ele>
        <time>2016-05-05T13:35:28Z</time>
      </trkpt>
      <trkpt lat="47.23037" lon="2.9741">
        <ele>149.7</ele>
        <time>2016-05-05T13:35:30Z</time>
      </trkpt>
      <trkpt lat="47.23046" lon="2.97406">
        <ele>149.7</ele>
        <time>2016-05-05T13:35:32Z</time>
      </trkpt>
      <trkpt lat="47.23056" lon="2.97403">
        <ele>149.7</ele>
        <time>2016-05-05T13:35:34Z</time>
      </trkpt>
      <trkpt lat="47.23064" lon="2.974">
        <ele>149.5</ele>
        <time>2016-05-05T13:35:36Z</time>
      </trkpt>
      <trkpt lat="47.23077" lon="2.97395">
        <ele>149.4</ele>
        <time>2016-05-05T13:35:39Z</time>
      </trkpt>
      <trkpt lat="47.23086" lon="2.97392">
        <ele>149.5</ele>
        <time>2016-05-05T13:35:41Z</time>
      </trkpt>
      <trkpt lat="47.23095" lon="2.9739">
        <ele>149.5</ele>
        <time>2016-05-05T13:35:43Z</time>
      </trkpt>
      <trkpt lat="47.23104" lon="2.97387">
        <ele>149.5</ele>
        <time>2016-05-05T13:35:45Z</time>
      </trkpt>
      <trkpt lat="47.23113" lon="2.97384">
        <ele>149.6</ele>
        <time>2016-05-05T13:35:47Z</time>
      </trkpt>
      <trkpt lat="47.23122" lon="2.9738">
        <ele>149.6</ele>
        <time>2016-05-05T13:35:49Z</time>
      </trkpt>
      <trkpt lat="47.23131" lon="2.97377">
        <ele>149.6</ele>
        <time>2016-05-05T13:35:51Z</time>
      </trkpt>
      <trkpt lat="47.23144" lon="2.97372">
        <ele>149.6</ele>
        <time>2016-05-05T13:35:54Z</time>
      </trkpt>
      <trkpt lat="47.23153" lon="2.97369">
        <ele>149.5</ele>
        <time>2016-05-05T13:35:56Z</time>
      </trkpt>
      <trkpt lat="47.23166" lon="2.97364">
        <ele>149.5</ele>
        <time>2016-05-05T13:35:59Z</time>
      </trkpt>
      <trkpt lat="47.23177" lon="2.9736">
        <ele>149.5</ele>
        <time>2016-05-05T13:36:02Z</time>
      </trkpt>
      <trkpt lat="47.23189" lon="2.97356">
        <ele>149.6</ele>
        <time>2016-05-05T13:36:05Z</time>
      </trkpt>
      <trkpt lat="47.23203" lon="2.97352">
        <ele>149.6</ele>
        <time>2016-05-05T13:36:08Z</time>
      </trkpt>
      <trkpt lat="47.23212" lon="2.97349">
        <ele>149.6</ele>
        <time>2016-05-05T13:36:10Z</time>
      </trkpt>
      <trkpt lat="47.23221" lon="2.97346">
        <ele>149.6</ele>
        <time>2016-05-05T13:36:12Z</time>
      </trkpt>
      <trkpt lat="47.23231" lon="2.97343">
        <ele>149.6</ele>
        <time>2016-05-05T13:36:14Z</time>
      </trkpt>
      <trkpt lat="47.2324" lon="2.9734">
        <ele>149.5</ele>
        <time>2016-05-05T13:36:16Z</time>
      </trkpt>
      <trkpt lat="47.23249" lon="2.97337">
        <ele>149.4</ele>
        <time>2016-05-05T13:36:18Z</time>
      </trkpt>
      <trkpt lat="47.23258" lon="2.97334">
        <ele>149.2</ele>
        <time>2016-05-05T13:36:20Z</time>
      </trkpt>
      <trkpt lat="47.23267" lon="2.97331">
        <ele>149.2</ele>
        <time>2016-05-05T13:36:22Z</time>
      </trkpt>
      <trkpt lat="47.23277" lon="2.97328">
        <ele>149.3</ele>
        <time>2016-05-05T13:36:24Z</time>
      </trkpt>
      <trkpt lat="47.23286" lon="2.97325">
        <ele>149.3</ele>
        <time>2016-05-05T13:36:26Z</time>
      </trkpt>
      <trkpt lat="47.23296" lon="2.97322">
        <ele>149.3</ele>
        <time>2016-05-05T13:36:28Z</time>
      </trkpt>
      <trkpt lat="47.23305" lon="2.9732">
        <ele>149.2</ele>
        <time>2016-05-05T13:36:30Z</time>
      </trkpt>
      <trkpt lat="47.23315" lon="2.97318">
        <ele>149.2</ele>
        <time>2016-05-05T13:36:32Z</time>
      </trkpt>
      <trkpt lat="47.23324" lon="2.97316">
        <ele>149.2</ele>
        <time>2016-05-05T13:36:34Z</time>
      </trkpt>
      <trkpt lat="47.23334" lon="2.97315">
        <ele>149.3</ele>
        <time>2016-05-05T13:36:36Z</time>
      </trkpt>
      <trkpt lat="47.23344" lon="2.97314">
        <ele>149.3</ele>
        <time>2016-05-05T13:36:38Z</time>
      </trkpt>
      <trkpt lat="47.23354" lon="2.97314">
        <ele>149.3</ele>
        <time>2016-05-05T13:36:40Z</time>
      </trkpt>
      <trkpt lat="47.23364" lon="2.97313">
        <ele>149.4</ele>
        <time>2016-05-05T13:36:42Z</time>
      </trkpt>
      <trkpt lat="47.23374" lon="2.97312">
        <ele>149.3</ele>
        <time>2016-05-05T13:36:44Z</time>
      </trkpt>
      <trkpt lat="47.23384" lon="2.97312">
        <ele>149.3</ele>
        <time>2016-05-05T13:36:46Z</time>
      </trkpt>
      <trkpt lat="47.23394" lon="2.97311">
        <ele>149.3</ele>
        <time>2016-05-05T13:36:48Z</time>
      </trkpt>
      <trkpt lat="47.23405" lon="2.9731">
        <ele>149.4</ele>
        <time>2016-05-05T13:36:50Z</time>
      </trkpt>
      <trkpt lat="47.23414" lon="2.9731">
        <ele>149.4</ele>
        <time>2016-05-05T13:36:52Z</time>
      </trkpt>
      <trkpt lat="47.23424" lon="2.97309">
        <ele>149.3</ele>
        <time>2016-05-05T13:36:54Z</time>
      </trkpt>
      <trkpt lat="47.23434" lon="2.97309">
        <ele>149.4</ele>
        <time>2016-05-05T13:36:56Z</time>
      </trkpt>
      <trkpt lat="47.23444" lon="2.97308">
        <ele>149.4</ele>
        <time>2016-05-05T13:36:58Z</time>
      </trkpt>
      <trkpt lat="47.23454" lon="2.97308">
        <ele>149.5</ele>
        <time>2016-05-05T13:37:00Z</time>
      </trkpt>
      <trkpt lat="47.23464" lon="2.97307">
        <ele>149.5</ele>
        <time>2016-05-05T13:37:02Z</time>
      </trkpt>
      <trkpt lat="47.23473" lon="2.97306">
        <ele>149.4</ele>
        <time>2016-05-05T13:37:04Z</time>
      </trkpt>
      <trkpt lat="47.23483" lon="2.97305">
        <ele>149.4</ele>
        <time>2016-05-05T13:37:06Z</time>
      </trkpt>
      <trkpt lat="47.23492" lon="2.97305">
        <ele>149.2</ele>
        <time>2016-05-05T13:37:08Z</time>
      </trkpt>
      <trkpt lat="47.23502" lon="2.97304">
        <ele>149.1</ele>
        <time>2016-05-05T13:37:10Z</time>
      </trkpt>
      <trkpt lat="47.23511" lon="2.97304">
        <ele>149.2</ele>
        <time>2016-05-05T13:37:12Z</time>
      </trkpt>
      <trkpt lat="47.23521" lon="2.97304">
        <ele>149.3</ele>
        <time>2016-05-05T13:37:14Z</time>
      </trkpt>
      <trkpt lat="47.23531" lon="2.97303">
        <ele>149.3</ele>
        <time>2016-05-05T13:37:16Z</time>
      </trkpt>
      <trkpt lat="47.2354" lon="2.97303">
        <ele>149.3</ele>
        <time>2016-05-05T13:37:18Z</time>
      </trkpt>
      <trkpt lat="47.23549" lon="2.97303">
        <ele>149.4</ele>
        <time>2016-05-05T13:37:20Z</time>
      </trkpt>
      <trkpt lat="47.23559" lon="2.97302">
        <ele>149.3</ele>
        <time>2016-05-05T13:37:22Z</time>
      </trkpt>
      <trkpt lat="47.23568" lon="2.97301">
        <ele>149.4</ele>
        <time>2016-05-05T13:37:24Z</time>
      </trkpt>
      <trkpt lat="47.23577" lon="2.97301">
        <ele>149.4</ele>
        <time>2016-05-05T13:37:26Z</time>
      </trkpt>
      <trkpt lat="47.23587" lon="2.97301">
        <ele>149.4</ele>
        <time>2016-05-05T13:37:28Z</time>
      </trkpt>
      <trkpt lat="47.23596" lon="2.97301">
        <ele>149.5</ele>
        <time>2016-05-05T13:37:30Z</time>
      </trkpt>
      <trkpt lat="47.23605" lon="2.97301">
        <ele>149.6</ele>
        <time>2016-05-05T13:37:32Z</time>
      </trkpt>
      <trkpt lat="47.23618" lon="2.973">
        <ele>149.3</ele>
        <time>2016-05-05T13:37:35Z</time>
      </trkpt>
      <trkpt lat="47.23627" lon="2.973">
        <ele>149.4</ele>
        <time>2016-05-05T13:37:37Z</time>
      </trkpt>
      <trkpt lat="47.23637" lon="2.973">
        <ele>149.4</ele>
        <time>2016-05-05T13:37:39Z</time>
      </trkpt>
      <trkpt lat="47.23646" lon="2.97299">
        <ele>149.4</ele>
        <time>2016-05-05T13:37:41Z</time>
      </trkpt>
      <trkpt lat="47.23655" lon="2.97299">
        <ele>149.5</ele>
        <time>2016-05-05T13:37:43Z</time>
      </trkpt>
      <trkpt lat="47.23664" lon="2.97299">
        <ele>149.6</ele>
        <time>2016-05-05T13:37:45Z</time>
      </trkpt>
      <trkpt lat="47.23673" lon="2.97298">
        <ele>149.4</ele>
        <time>2016-05-05T13:37:47Z</time>
      </trkpt>
      <trkpt lat="47.23682" lon="2.97297">
        <ele>149.2</ele>
        <time>2016-05-05T13:37:49Z</time>
      </trkpt>
      <trkpt lat="47.23695" lon="2.97297">
        <ele>149.1</ele>
        <time>2016-05-05T13:37:52Z</time>
      </trkpt>
      <trkpt lat="47.23709" lon="2.97297">
        <ele>149.2</ele>
        <time>2016-05-05T13:37:55Z</time>
      </trkpt>
      <trkpt lat="47.23722" lon="2.97296">
        <ele>149</ele>
        <time>2016-05-05T13:37:58Z</time>
      </trkpt>
      <trkpt lat="47.23734" lon="2.97296">
        <ele>148.7</ele>
        <time>2016-05-05T13:38:01Z</time>
      </trkpt>
      <trkpt lat="47.23748" lon="2.97295">
        <ele>148.8</ele>
        <time>2016-05-05T13:38:04Z</time>
      </trkpt>
      <trkpt lat="47.23757" lon="2.97294">
        <ele>148.5</ele>
        <time>2016-05-05T13:38:06Z</time>
      </trkpt>
      <trkpt lat="47.23766" lon="2.97294">
        <ele>148.6</ele>
        <time>2016-05-05T13:38:08Z</time>
      </trkpt>
      <trkpt lat="47.23775" lon="2.97293">
        <ele>148.6</ele>
        <time>2016-05-05T13:38:10Z</time>
      </trkpt>
      <trkpt lat="47.23785" lon="2.97294">
        <ele>148.5</ele>
        <time>2016-05-05T13:38:12Z</time>
      </trkpt>
      <trkpt lat="47.23796" lon="2.97293">
        <ele>148.3</ele>
        <time>2016-05-05T13:38:14Z</time>
      </trkpt>
      <trkpt lat="47.23808" lon="2.97291">
        <ele>148.2</ele>
        <time>2016-05-05T13:38:16Z</time>
      </trkpt>
      <trkpt lat="47.2382" lon="2.97292">
        <ele>148.4</ele>
        <time>2016-05-05T13:38:18Z</time>
      </trkpt>
      <trkpt lat="47.23833" lon="2.97291">
        <ele>148.8</ele>
        <time>2016-05-05T13:38:20Z</time>
      </trkpt>
      <trkpt lat="47.23846" lon="2.9729">
        <ele>149.1</ele>
        <time>2016-05-05T13:38:22Z</time>
      </trkpt>
      <trkpt lat="47.2386" lon="2.9729">
        <ele>149.1</ele>
        <time>2016-05-05T13:38:24Z</time>
      </trkpt>
      <trkpt lat="47.23873" lon="2.97289">
        <ele>149.2</ele>
        <time>2016-05-05T13:38:26Z</time>
      </trkpt>
      <trkpt lat="47.23887" lon="2.97288">
        <ele>149.2</ele>
        <time>2016-05-05T13:38:28Z</time>
      </trkpt>
      <trkpt lat="47.23901" lon="2.97287">
        <ele>149.2</ele>
        <time>2016-05-05T13:38:30Z</time>
      </trkpt>
      <trkpt lat="47.23916" lon="2.97287">
        <ele>149.3</ele>
        <time>2016-05-05T13:38:32Z</time>
      </trkpt>
      <trkpt lat="47.23929" lon="2.97287">
        <ele>149.3</ele>
        <time>2016-05-05T13:38:34Z</time>
      </trkpt>
      <trkpt lat="47.23942" lon="2.97286">
        <ele>149.4</ele>
        <time>2016-05-05T13:38:36Z</time>
      </trkpt>
      <trkpt lat="47.23954" lon="2.97285">
        <ele>149.4</ele>
        <time>2016-05-05T13:38:38Z</time>
      </trkpt>
      <trkpt lat="47.23966" lon="2.97285">
        <ele>149.3</ele>
        <time>2016-05-05T13:38:40Z</time>
      </trkpt>
      <trkpt lat="47.23978" lon="2.97285">
        <ele>149.1</ele>
        <time>2016-05-05T13:38:42Z</time>
      </trkpt>
      <trkpt lat="47.23989" lon="2.97287">
        <ele>149.1</ele>
        <time>2016-05-05T13:38:44Z</time>
      </trkpt>
      <trkpt lat="47.24" lon="2.9729">
        <ele>149</ele>
        <time>2016-05-05T13:38:46Z</time>
      </trkpt>
      <trkpt lat="47.24011" lon="2.97294">
        <ele>148.7</ele>
        <time>2016-05-05T13:38:48Z</time>
      </trkpt>
      <trkpt lat="47.24022" lon="2.97298">
        <ele>148.7</ele>
        <time>2016-05-05T13:38:50Z</time>
      </trkpt>
      <trkpt lat="47.24032" lon="2.97303">
        <ele>148.9</ele>
        <time>2016-05-05T13:38:52Z</time>
      </trkpt>
      <trkpt lat="47.24043" lon="2.97307">
        <ele>149.1</ele>
        <time>2016-05-05T13:38:54Z</time>
      </trkpt>
      <trkpt lat="47.24053" lon="2.97311">
        <ele>149</ele>
        <time>2016-05-05T13:38:56Z</time>
      </trkpt>
      <trkpt lat="47.24063" lon="2.97315">
        <ele>148.8</ele>
        <time>2016-05-05T13:38:58Z</time>
      </trkpt>
      <trkpt lat="47.24073" lon="2.97318">
        <ele>148.8</ele>
        <time>2016-05-05T13:39:00Z</time>
      </trkpt>
      <trkpt lat="47.24083" lon="2.97323">
        <ele>148.6</ele>
        <time>2016-05-05T13:39:02Z</time>
      </trkpt>
      <trkpt lat="47.24093" lon="2.97327">
        <ele>148.6</ele>
        <time>2016-05-05T13:39:04Z</time>
      </trkpt>
      <trkpt lat="47.24104" lon="2.97331">
        <ele>148.8</ele>
        <time>2016-05-05T13:39:06Z</time>
      </trkpt>
      <trkpt lat="47.24114" lon="2.97335">
        <ele>148.9</ele>
        <time>2016-05-05T13:39:08Z</time>
      </trkpt>
      <trkpt lat="47.24124" lon="2.97339">
        <ele>148.3</ele>
        <time>2016-05-05T13:39:10Z</time>
      </trkpt>
      <trkpt lat="47.24135" lon="2.97342">
        <ele>148.2</ele>
        <time>2016-05-05T13:39:12Z</time>
      </trkpt>
      <trkpt lat="47.24145" lon="2.97346">
        <ele>148.3</ele>
        <time>2016-05-05T13:39:14Z</time>
      </trkpt>
      <trkpt lat="47.24155" lon="2.9735">
        <ele>148.2</ele>
        <time>2016-05-05T13:39:16Z</time>
      </trkpt>
      <trkpt lat="47.24164" lon="2.97354">
        <ele>148.3</ele>
        <time>2016-05-05T13:39:18Z</time>
      </trkpt>
      <trkpt lat="47.24174" lon="2.97358">
        <ele>148.4</ele>
        <time>2016-05-05T13:39:20Z</time>
      </trkpt>
      <trkpt lat="47.24184" lon="2.97362">
        <ele>148.4</ele>
        <time>2016-05-05T13:39:22Z</time>
      </trkpt>
      <trkpt lat="47.24194" lon="2.97366">
        <ele>148.4</ele>
        <time>2016-05-05T13:39:24Z</time>
      </trkpt>
      <trkpt lat="47.24204" lon="2.9737">
        <ele>148.5</ele>
        <time>2016-05-05T13:39:26Z</time>
      </trkpt>
      <trkpt lat="47.24214" lon="2.97374">
        <ele>148.5</ele>
        <time>2016-05-05T13:39:28Z</time>
      </trkpt>
      <trkpt lat="47.24224" lon="2.97378">
        <ele>148.4</ele>
        <time>2016-05-05T13:39:30Z</time>
      </trkpt>
      <trkpt lat="47.24234" lon="2.97382">
        <ele>148.3</ele>
        <time>2016-05-05T13:39:32Z</time>
      </trkpt>
      <trkpt lat="47.24245" lon="2.97386">
        <ele>148.2</ele>
        <time>2016-05-05T13:39:34Z</time>
      </trkpt>
      <trkpt lat="47.24255" lon="2.97391">
        <ele>148.4</ele>
        <time>2016-05-05T13:39:36Z</time>
      </trkpt>
      <trkpt lat="47.24266" lon="2.97394">
        <ele>148.3</ele>
        <time>2016-05-05T13:39:38Z</time>
      </trkpt>
      <trkpt lat="47.24276" lon="2.97399">
        <ele>148.2</ele>
        <time>2016-05-05T13:39:40Z</time>
      </trkpt>
      <trkpt lat="47.24286" lon="2.97402">
        <ele>148.2</ele>
        <time>2016-05-05T13:39:42Z</time>
      </trkpt>
      <trkpt lat="47.24296" lon="2.97406">
        <ele>148.3</ele>
        <time>2016-05-05T13:39:44Z</time>
      </trkpt>
      <trkpt lat="47.24305" lon="2.9741">
        <ele>148.3</ele>
        <time>2016-05-05T13:39:46Z</time>
      </trkpt>
      <trkpt lat="47.24314" lon="2.97414">
        <ele>148.2</ele>
        <time>2016-05-05T13:39:48Z</time>
      </trkpt>
      <trkpt lat="47.24326" lon="2.97417">
        <ele>148.2</ele>
        <time>2016-05-05T13:39:51Z</time>
      </trkpt>
      <trkpt lat="47.24337" lon="2.97422">
        <ele>148.3</ele>
        <time>2016-05-05T13:39:54Z</time>
      </trkpt>
      <trkpt lat="47.24346" lon="2.97425">
        <ele>148.3</ele>
        <time>2016-05-05T13:39:57Z</time>
      </trkpt>
      <trkpt lat="47.24355" lon="2.97427">
        <ele>149</ele>
        <time>2016-05-05T13:41:03Z</time>
      </trkpt>
      <trkpt lat="47.24365" lon="2.97432">
        <ele>148.8</ele>
        <time>2016-05-05T13:41:19Z</time>
      </trkpt>
      <trkpt lat="47.24374" lon="2.97435">
        <ele>148.8</ele>
        <time>2016-05-05T13:41:23Z</time>
      </trkpt>
      <trkpt lat="47.24383" lon="2.9744">
        <ele>149</ele>
        <time>2016-05-05T13:41:27Z</time>
      </trkpt>
      <trkpt lat="47.24394" lon="2.97441">
        <ele>149</ele>
        <time>2016-05-05T13:41:32Z</time>
      </trkpt>
      <trkpt lat="47.24403" lon="2.97446">
        <ele>148.8</ele>
        <time>2016-05-05T13:42:35Z</time>
      </trkpt>
      <trkpt lat="47.24413" lon="2.97452">
        <ele>148.5</ele>
        <time>2016-05-05T13:42:42Z</time>
      </trkpt>
      <trkpt lat="47.24423" lon="2.97456">
        <ele>148.4</ele>
        <time>2016-05-05T13:42:46Z</time>
      </trkpt>
      <trkpt lat="47.24433" lon="2.97459">
        <ele>148.5</ele>
        <time>2016-05-05T13:42:50Z</time>
      </trkpt>
      <trkpt lat="47.24444" lon="2.97463">
        <ele>148.7</ele>
        <time>2016-05-05T13:42:54Z</time>
      </trkpt>
      <trkpt lat="47.24453" lon="2.97466">
        <ele>148.6</ele>
        <time>2016-05-05T13:42:57Z</time>
      </trkpt>
      <trkpt lat="47.24462" lon="2.97466">
        <ele>148.7</ele>
        <time>2016-05-05T13:43:00Z</time>
      </trkpt>
      <trkpt lat="47.24472" lon="2.97466">
        <ele>148.6</ele>
        <time>2016-05-05T13:43:03Z</time>
      </trkpt>
      <trkpt lat="47.24482" lon="2.97465">
        <ele>148.6</ele>
        <time>2016-05-05T13:43:06Z</time>
      </trkpt>
      <trkpt lat="47.24491" lon="2.97464">
        <ele>148.8</ele>
        <time>2016-05-05T13:43:09Z</time>
      </trkpt>
      <trkpt lat="47.24501" lon="2.97461">
        <ele>148.7</ele>
        <time>2016-05-05T13:43:12Z</time>
      </trkpt>
      <trkpt lat="47.24511" lon="2.9746">
        <ele>148.8</ele>
        <time>2016-05-05T13:43:15Z</time>
      </trkpt>
      <trkpt lat="47.24521" lon="2.97458">
        <ele>148.9</ele>
        <time>2016-05-05T13:43:18Z</time>
      </trkpt>
      <trkpt lat="47.24532" lon="2.97457">
        <ele>148.9</ele>
        <time>2016-05-05T13:43:21Z</time>
      </trkpt>
      <trkpt lat="47.24544" lon="2.97455">
        <ele>149.1</ele>
        <time>2016-05-05T13:43:24Z</time>
      </trkpt>
      <trkpt lat="47.24556" lon="2.97453">
        <ele>149.1</ele>
        <time>2016-05-05T13:43:27Z</time>
      </trkpt>
      <trkpt lat="47.24568" lon="2.97451">
        <ele>149</ele>
        <time>2016-05-05T13:43:30Z</time>
      </trkpt>
      <trkpt lat="47.24581" lon="2.97449">
        <ele>148.9</ele>
        <time>2016-05-05T13:43:33Z</time>
      </trkpt>
      <trkpt lat="47.24593" lon="2.97447">
        <ele>148.9</ele>
        <time>2016-05-05T13:43:36Z</time>
      </trkpt>
      <trkpt lat="47.24605" lon="2.97446">
        <ele>148.8</ele>
        <time>2016-05-05T13:43:39Z</time>
      </trkpt>
      <trkpt lat="47.24618" lon="2.97444">
        <ele>148.8</ele>
        <time>2016-05-05T13:43:42Z</time>
      </trkpt>
      <trkpt lat="47.2463" lon="2.97442">
        <ele>148.6</ele>
        <time>2016-05-05T13:43:45Z</time>
      </trkpt>
      <trkpt lat="47.24643" lon="2.97442">
        <ele>148.5</ele>
        <time>2016-05-05T13:43:48Z</time>
      </trkpt>
      <trkpt lat="47.24656" lon="2.97443">
        <ele>148.5</ele>
        <time>2016-05-05T13:43:51Z</time>
      </trkpt>
      <trkpt lat="47.24668" lon="2.97444">
        <ele>148.4</ele>
        <time>2016-05-05T13:43:54Z</time>
      </trkpt>
      <trkpt lat="47.2468" lon="2.97445">
        <ele>148.4</ele>
        <time>2016-05-05T13:43:57Z</time>
      </trkpt>
      <trkpt lat="47.24693" lon="2.97445">
        <ele>148.5</ele>
        <time>2016-05-05T13:44:00Z</time>
      </trkpt>
      <trkpt lat="47.24705" lon="2.97446">
        <ele>148.5</ele>
        <time>2016-05-05T13:44:03Z</time>
      </trkpt>
      <trkpt lat="47.24718" lon="2.97447">
        <ele>148.8</ele>
        <time>2016-05-05T13:44:06Z</time>
      </trkpt>
      <trkpt lat="47.24731" lon="2.97449">
        <ele>148.6</ele>
        <time>2016-05-05T13:44:09Z</time>
      </trkpt>
      <trkpt lat="47.24744" lon="2.97449">
        <ele>148.6</ele>
        <time>2016-05-05T13:44:12Z</time>
      </trkpt>
      <trkpt lat="47.24757" lon="2.9745">
        <ele>148.5</ele>
        <time>2016-05-05T13:44:15Z</time>
      </trkpt>
      <trkpt lat="47.2477" lon="2.97451">
        <ele>148.4</ele>
        <time>2016-05-05T13:44:18Z</time>
      </trkpt>
      <trkpt lat="47.24782" lon="2.97452">
        <ele>148.5</ele>
        <time>2016-05-05T13:44:21Z</time>
      </trkpt>
      <trkpt lat="47.24795" lon="2.97453">
        <ele>148.5</ele>
        <time>2016-05-05T13:44:24Z</time>
      </trkpt>
      <trkpt lat="47.24808" lon="2.97454">
        <ele>148.5</ele>
        <time>2016-05-05T13:44:27Z</time>
      </trkpt>
      <trkpt lat="47.24817" lon="2.97455">
        <ele>148.4</ele>
        <time>2016-05-05T13:44:29Z</time>
      </trkpt>
      <trkpt lat="47.24827" lon="2.97456">
        <ele>148.4</ele>
        <time>2016-05-05T13:44:31Z</time>
      </trkpt>
      <trkpt lat="47.24836" lon="2.97456">
        <ele>148.5</ele>
        <time>2016-05-05T13:44:33Z</time>
      </trkpt>
      <trkpt lat="47.24846" lon="2.97457">
        <ele>148.6</ele>
        <time>2016-05-05T13:44:35Z</time>
      </trkpt>
      <trkpt lat="47.24855" lon="2.97458">
        <ele>148.6</ele>
        <time>2016-05-05T13:44:37Z</time>
      </trkpt>
      <trkpt lat="47.24865" lon="2.97459">
        <ele>148.5</ele>
        <time>2016-05-05T13:44:39Z</time>
      </trkpt>
      <trkpt lat="47.24874" lon="2.97459">
        <ele>148.4</ele>
        <time>2016-05-05T13:44:41Z</time>
      </trkpt>
      <trkpt lat="47.24883" lon="2.9746">
        <ele>148.4</ele>
        <time>2016-05-05T13:44:43Z</time>
      </trkpt>
      <trkpt lat="47.24896" lon="2.97461">
        <ele>148.6</ele>
        <time>2016-05-05T13:44:46Z</time>
      </trkpt>
      <trkpt lat="47.24909" lon="2.97462">
        <ele>148.6</ele>
        <time>2016-05-05T13:44:49Z</time>
      </trkpt>
      <trkpt lat="47.24923" lon="2.97464">
        <ele>148.6</ele>
        <time>2016-05-05T13:44:52Z</time>
      </trkpt>
      <trkpt lat="47.24936" lon="2.97464">
        <ele>148.6</ele>
        <time>2016-05-05T13:44:55Z</time>
      </trkpt>
      <trkpt lat="47.24945" lon="2.97465">
        <ele>148.6</ele>
        <time>2016-05-05T13:44:57Z</time>
      </trkpt>
      <trkpt lat="47.24954" lon="2.97466">
        <ele>148.6</ele>
        <time>2016-05-05T13:44:59Z</time>
      </trkpt>
      <trkpt lat="47.24964" lon="2.97466">
        <ele>148.6</ele>
        <time>2016-05-05T13:45:01Z</time>
      </trkpt>
      <trkpt lat="47.24974" lon="2.97467">
        <ele>149</ele>
        <time>2016-05-05T13:45:03Z</time>
      </trkpt>
      <trkpt lat="47.24983" lon="2.97468">
        <ele>148.9</ele>
        <time>2016-05-05T13:45:05Z</time>
      </trkpt>
      <trkpt lat="47.24993" lon="2.97468">
        <ele>148.8</ele>
        <time>2016-05-05T13:45:07Z</time>
      </trkpt>
      <trkpt lat="47.25002" lon="2.97469">
        <ele>148.6</ele>
        <time>2016-05-05T13:45:09Z</time>
      </trkpt>
      <trkpt lat="47.25012" lon="2.9747">
        <ele>148.6</ele>
        <time>2016-05-05T13:45:11Z</time>
      </trkpt>
      <trkpt lat="47.25021" lon="2.97471">
        <ele>148.6</ele>
        <time>2016-05-05T13:45:13Z</time>
      </trkpt>
      <trkpt lat="47.25031" lon="2.97471">
        <ele>148.7</ele>
        <time>2016-05-05T13:45:15Z</time>
      </trkpt>
      <trkpt lat="47.2504" lon="2.97472">
        <ele>148.7</ele>
        <time>2016-05-05T13:45:17Z</time>
      </trkpt>
      <trkpt lat="47.2505" lon="2.97473">
        <ele>148.6</ele>
        <time>2016-05-05T13:45:19Z</time>
      </trkpt>
      <trkpt lat="47.2506" lon="2.97474">
        <ele>148.6</ele>
        <time>2016-05-05T13:45:21Z</time>
      </trkpt>
      <trkpt lat="47.25069" lon="2.97475">
        <ele>148.5</ele>
        <time>2016-05-05T13:45:23Z</time>
      </trkpt>
      <trkpt lat="47.25078" lon="2.97475">
        <ele>148.5</ele>
        <time>2016-05-05T13:45:25Z</time>
      </trkpt>
      <trkpt lat="47.25091" lon="2.97477">
        <ele>148.6</ele>
        <time>2016-05-05T13:45:28Z</time>
      </trkpt>
      <trkpt lat="47.251" lon="2.97477">
        <ele>148.5</ele>
        <time>2016-05-05T13:45:30Z</time>
      </trkpt>
      <trkpt lat="47.25109" lon="2.97478">
        <ele>148.4</ele>
        <time>2016-05-05T13:45:32Z</time>
      </trkpt>
      <trkpt lat="47.25118" lon="2.97479">
        <ele>148.4</ele>
        <time>2016-05-05T13:45:34Z</time>
      </trkpt>
      <trkpt lat="47.25128" lon="2.9748">
        <ele>148.4</ele>
        <time>2016-05-05T13:45:36Z</time>
      </trkpt>
      <trkpt lat="47.25137" lon="2.9748">
        <ele>148.4</ele>
        <time>2016-05-05T13:45:38Z</time>
      </trkpt>
      <trkpt lat="47.25146" lon="2.97481">
        <ele>148.4</ele>
        <time>2016-05-05T13:45:40Z</time>
      </trkpt>
      <trkpt lat="47.25155" lon="2.97482">
        <ele>148.5</ele>
        <time>2016-05-05T13:45:42Z</time>
      </trkpt>
      <trkpt lat="47.25165" lon="2.97482">
        <ele>148.5</ele>
        <time>2016-05-05T13:45:44Z</time>
      </trkpt>
      <trkpt lat="47.25174" lon="2.97483">
        <ele>148.5</ele>
        <time>2016-05-05T13:45:46Z</time>
      </trkpt>
      <trkpt lat="47.25183" lon="2.97484">
        <ele>148.5</ele>
        <time>2016-05-05T13:45:48Z</time>
      </trkpt>
      <trkpt lat="47.25193" lon="2.97483">
        <ele>148.5</ele>
        <time>2016-05-05T13:45:50Z</time>
      </trkpt>
      <trkpt lat="47.25202" lon="2.97483">
        <ele>148.4</ele>
        <time>2016-05-05T13:45:52Z</time>
      </trkpt>
      <trkpt lat="47.25211" lon="2.97483">
        <ele>148.5</ele>
        <time>2016-05-05T13:45:54Z</time>
      </trkpt>
      <trkpt lat="47.25221" lon="2.97483">
        <ele>148.5</ele>
        <time>2016-05-05T13:45:56Z</time>
      </trkpt>
      <trkpt lat="47.2523" lon="2.97483">
        <ele>148.5</ele>
        <time>2016-05-05T13:45:58Z</time>
      </trkpt>
      <trkpt lat="47.2524" lon="2.97483">
        <ele>148.5</ele>
        <time>2016-05-05T13:46:00Z</time>
      </trkpt>
      <trkpt lat="47.25249" lon="2.97483">
        <ele>148.6</ele>
        <time>2016-05-05T13:46:02Z</time>
      </trkpt>
      <trkpt lat="47.25259" lon="2.97482">
        <ele>148.6</ele>
        <time>2016-05-05T13:46:04Z</time>
      </trkpt>
      <trkpt lat="47.25269" lon="2.97482">
        <ele>148.8</ele>
        <time>2016-05-05T13:46:06Z</time>
      </trkpt>
      <trkpt lat="47.25278" lon="2.97482">
        <ele>148.8</ele>
        <time>2016-05-05T13:46:08Z</time>
      </trkpt>
      <trkpt lat="47.25287" lon="2.97482">
        <ele>148.8</ele>
        <time>2016-05-05T13:46:10Z</time>
      </trkpt>
      <trkpt lat="47.25297" lon="2.97481">
        <ele>148.8</ele>
        <time>2016-05-05T13:46:12Z</time>
      </trkpt>
      <trkpt lat="47.25306" lon="2.9748">
        <ele>148.7</ele>
        <time>2016-05-05T13:46:14Z</time>
      </trkpt>
      <trkpt lat="47.25315" lon="2.9748">
        <ele>148.7</ele>
        <time>2016-05-05T13:46:16Z</time>
      </trkpt>
      <trkpt lat="47.25324" lon="2.97479">
        <ele>148.7</ele>
        <time>2016-05-05T13:46:18Z</time>
      </trkpt>
      <trkpt lat="47.25334" lon="2.97478">
        <ele>148.5</ele>
        <time>2016-05-05T13:46:20Z</time>
      </trkpt>
      <trkpt lat="47.25343" lon="2.97478">
        <ele>148.5</ele>
        <time>2016-05-05T13:46:22Z</time>
      </trkpt>
      <trkpt lat="47.25352" lon="2.97477">
        <ele>148.4</ele>
        <time>2016-05-05T13:46:24Z</time>
      </trkpt>
      <trkpt lat="47.25362" lon="2.97476">
        <ele>148.4</ele>
        <time>2016-05-05T13:46:26Z</time>
      </trkpt>
      <trkpt lat="47.25375" lon="2.97475">
        <ele>148.4</ele>
        <time>2016-05-05T13:46:29Z</time>
      </trkpt>
      <trkpt lat="47.25385" lon="2.97474">
        <ele>148.4</ele>
        <time>2016-05-05T13:46:31Z</time>
      </trkpt>
      <trkpt lat="47.25394" lon="2.97473">
        <ele>148.4</ele>
        <time>2016-05-05T13:46:33Z</time>
      </trkpt>
      <trkpt lat="47.25404" lon="2.97472">
        <ele>148.5</ele>
        <time>2016-05-05T13:46:35Z</time>
      </trkpt>
      <trkpt lat="47.25413" lon="2.97471">
        <ele>148.6</ele>
        <time>2016-05-05T13:46:37Z</time>
      </trkpt>
      <trkpt lat="47.25423" lon="2.97469">
        <ele>148.7</ele>
        <time>2016-05-05T13:46:39Z</time>
      </trkpt>
      <trkpt lat="47.25432" lon="2.97468">
        <ele>148.6</ele>
        <time>2016-05-05T13:46:41Z</time>
      </trkpt>
      <trkpt lat="47.25442" lon="2.97466">
        <ele>148.5</ele>
        <time>2016-05-05T13:46:43Z</time>
      </trkpt>
      <trkpt lat="47.25452" lon="2.97465">
        <ele>148.3</ele>
        <time>2016-05-05T13:46:45Z</time>
      </trkpt>
      <trkpt lat="47.25463" lon="2.97463">
        <ele>148.2</ele>
        <time>2016-05-05T13:46:47Z</time>
      </trkpt>
      <trkpt lat="47.25473" lon="2.97462">
        <ele>148.3</ele>
        <time>2016-05-05T13:46:49Z</time>
      </trkpt>
      <trkpt lat="47.25483" lon="2.9746">
        <ele>148.4</ele>
        <time>2016-05-05T13:46:51Z</time>
      </trkpt>
      <trkpt lat="47.25493" lon="2.97458">
        <ele>148.4</ele>
        <time>2016-05-05T13:46:53Z</time>
      </trkpt>
      <trkpt lat="47.25503" lon="2.97456">
        <ele>148.6</ele>
        <time>2016-05-05T13:46:55Z</time>
      </trkpt>
      <trkpt lat="47.25512" lon="2.97454">
        <ele>148.9</ele>
        <time>2016-05-05T13:46:57Z</time>
      </trkpt>
      <trkpt lat="47.25522" lon="2.97452">
        <ele>149</ele>
        <time>2016-05-05T13:46:59Z</time>
      </trkpt>
      <trkpt lat="47.25532" lon="2.9745">
        <ele>149</ele>
        <time>2016-05-05T13:47:01Z</time>
      </trkpt>
      <trkpt lat="47.25543" lon="2.97446">
        <ele>148.9</ele>
        <time>2016-05-05T13:47:03Z</time>
      </trkpt>
      <trkpt lat="47.25555" lon="2.97443">
        <ele>148.9</ele>
        <time>2016-05-05T13:47:05Z</time>
      </trkpt>
      <trkpt lat="47.25566" lon="2.97441">
        <ele>148.9</ele>
        <time>2016-05-05T13:47:07Z</time>
      </trkpt>
      <trkpt lat="47.25578" lon="2.97437">
        <ele>148.8</ele>
        <time>2016-05-05T13:47:09Z</time>
      </trkpt>
      <trkpt lat="47.25589" lon="2.97435">
        <ele>148.9</ele>
        <time>2016-05-05T13:47:11Z</time>
      </trkpt>
      <trkpt lat="47.256" lon="2.97433">
        <ele>148.9</ele>
        <time>2016-05-05T13:47:13Z</time>
      </trkpt>
      <trkpt lat="47.2561" lon="2.9743">
        <ele>148.9</ele>
        <time>2016-05-05T13:47:15Z</time>
      </trkpt>
      <trkpt lat="47.25621" lon="2.97426">
        <ele>148.9</ele>
        <time>2016-05-05T13:47:17Z</time>
      </trkpt>
      <trkpt lat="47.25631" lon="2.97423">
        <ele>148.9</ele>
        <time>2016-05-05T13:47:19Z</time>
      </trkpt>
      <trkpt lat="47.25642" lon="2.97419">
        <ele>148.8</ele>
        <time>2016-05-05T13:47:21Z</time>
      </trkpt>
      <trkpt lat="47.25653" lon="2.97415">
        <ele>148.8</ele>
        <time>2016-05-05T13:47:23Z</time>
      </trkpt>
      <trkpt lat="47.25664" lon="2.97411">
        <ele>148.8</ele>
        <time>2016-05-05T13:47:25Z</time>
      </trkpt>
      <trkpt lat="47.25674" lon="2.97408">
        <ele>148.8</ele>
        <time>2016-05-05T13:47:27Z</time>
      </trkpt>
      <trkpt lat="47.25684" lon="2.97404">
        <ele>148.8</ele>
        <time>2016-05-05T13:47:29Z</time>
      </trkpt>
      <trkpt lat="47.25695" lon="2.97401">
        <ele>148.8</ele>
        <time>2016-05-05T13:47:31Z</time>
      </trkpt>
      <trkpt lat="47.25705" lon="2.97398">
        <ele>148.9</ele>
        <time>2016-05-05T13:47:33Z</time>
      </trkpt>
      <trkpt lat="47.25715" lon="2.97394">
        <ele>148.9</ele>
        <time>2016-05-05T13:47:35Z</time>
      </trkpt>
      <trkpt lat="47.25725" lon="2.9739">
        <ele>148.6</ele>
        <time>2016-05-05T13:47:37Z</time>
      </trkpt>
      <trkpt lat="47.25735" lon="2.97386">
        <ele>148.6</ele>
        <time>2016-05-05T13:47:39Z</time>
      </trkpt>
      <trkpt lat="47.25745" lon="2.97382">
        <ele>148.6</ele>
        <time>2016-05-05T13:47:41Z</time>
      </trkpt>
      <trkpt lat="47.25755" lon="2.97379">
        <ele>148.6</ele>
        <time>2016-05-05T13:47:43Z</time>
      </trkpt>
      <trkpt lat="47.25765" lon="2.97375">
        <ele>148.6</ele>
        <time>2016-05-05T13:47:45Z</time>
      </trkpt>
      <trkpt lat="47.25775" lon="2.97371">
        <ele>148.6</ele>
        <time>2016-05-05T13:47:47Z</time>
      </trkpt>
      <trkpt lat="47.25785" lon="2.97367">
        <ele>148.6</ele>
        <time>2016-05-05T13:47:49Z</time>
      </trkpt>
      <trkpt lat="47.25795" lon="2.97363">
        <ele>148.6</ele>
        <time>2016-05-05T13:47:51Z</time>
      </trkpt>
      <trkpt lat="47.25805" lon="2.97358">
        <ele>148.6</ele>
        <time>2016-05-05T13:47:53Z</time>
      </trkpt>
      <trkpt lat="47.25816" lon="2.97354">
        <ele>148.5</ele>
        <time>2016-05-05T13:47:55Z</time>
      </trkpt>
      <trkpt lat="47.25826" lon="2.97349">
        <ele>148.4</ele>
        <time>2016-05-05T13:47:57Z</time>
      </trkpt>
      <trkpt lat="47.25836" lon="2.97345">
        <ele>148.3</ele>
        <time>2016-05-05T13:47:59Z</time>
      </trkpt>
      <trkpt lat="47.25846" lon="2.9734">
        <ele>148.3</ele>
        <time>2016-05-05T13:48:01Z</time>
      </trkpt>
      <trkpt lat="47.25856" lon="2.97334">
        <ele>148.3</ele>
        <time>2016-05-05T13:48:03Z</time>
      </trkpt>
      <trkpt lat="47.25866" lon="2.97329">
        <ele>148.4</ele>
        <time>2016-05-05T13:48:05Z</time>
      </trkpt>
      <trkpt lat="47.25876" lon="2.97323">
        <ele>148.4</ele>
        <time>2016-05-05T13:48:07Z</time>
      </trkpt>
      <trkpt lat="47.25886" lon="2.97319">
        <ele>148.4</ele>
        <time>2016-05-05T13:48:09Z</time>
      </trkpt>
      <trkpt lat="47.25896" lon="2.97314">
        <ele>148.4</ele>
        <time>2016-05-05T13:48:11Z</time>
      </trkpt>
      <trkpt lat="47.25905" lon="2.97309">
        <ele>148.3</ele>
        <time>2016-05-05T13:48:13Z</time>
      </trkpt>
      <trkpt lat="47.25915" lon="2.97304">
        <ele>148.2</ele>
        <time>2016-05-05T13:48:15Z</time>
      </trkpt>
      <trkpt lat="47.25924" lon="2.97298">
        <ele>148.2</ele>
        <time>2016-05-05T13:48:17Z</time>
      </trkpt>
      <trkpt lat="47.25934" lon="2.97293">
        <ele>148</ele>
        <time>2016-05-05T13:48:19Z</time>
      </trkpt>
      <trkpt lat="47.25944" lon="2.97288">
        <ele>148</ele>
        <time>2016-05-05T13:48:21Z</time>
      </trkpt>
      <trkpt lat="47.25953" lon="2.97282">
        <ele>148</ele>
        <time>2016-05-05T13:48:23Z</time>
      </trkpt>
      <trkpt lat="47.25963" lon="2.97276">
        <ele>148.1</ele>
        <time>2016-05-05T13:48:25Z</time>
      </trkpt>
      <trkpt lat="47.25972" lon="2.9727">
        <ele>148</ele>
        <time>2016-05-05T13:48:27Z</time>
      </trkpt>
      <trkpt lat="47.25982" lon="2.97264">
        <ele>147.9</ele>
        <time>2016-05-05T13:48:29Z</time>
      </trkpt>
      <trkpt lat="47.25991" lon="2.97258">
        <ele>147.9</ele>
        <time>2016-05-05T13:48:31Z</time>
      </trkpt>
      <trkpt lat="47.26" lon="2.97252">
        <ele>148</ele>
        <time>2016-05-05T13:48:33Z</time>
      </trkpt>
      <trkpt lat="47.2601" lon="2.97246">
        <ele>148.1</ele>
        <time>2016-05-05T13:48:35Z</time>
      </trkpt>
      <trkpt lat="47.2602" lon="2.9724">
        <ele>148.2</ele>
        <time>2016-05-05T13:48:37Z</time>
      </trkpt>
      <trkpt lat="47.26029" lon="2.97234">
        <ele>148.1</ele>
        <time>2016-05-05T13:48:39Z</time>
      </trkpt>
      <trkpt lat="47.26038" lon="2.97228">
        <ele>148</ele>
        <time>2016-05-05T13:48:41Z</time>
      </trkpt>
      <trkpt lat="47.26047" lon="2.97222">
        <ele>148.1</ele>
        <time>2016-05-05T13:48:43Z</time>
      </trkpt>
      <trkpt lat="47.26056" lon="2.97216">
        <ele>148</ele>
        <time>2016-05-05T13:48:45Z</time>
      </trkpt>
      <trkpt lat="47.26065" lon="2.9721">
        <ele>148.1</ele>
        <time>2016-05-05T13:48:47Z</time>
      </trkpt>
      <trkpt lat="47.26074" lon="2.97204">
        <ele>148.2</ele>
        <time>2016-05-05T13:48:49Z</time>
      </trkpt>
      <trkpt lat="47.26083" lon="2.97198">
        <ele>148.2</ele>
        <time>2016-05-05T13:48:51Z</time>
      </trkpt>
      <trkpt lat="47.26092" lon="2.97192">
        <ele>148.4</ele>
        <time>2016-05-05T13:48:53Z</time>
      </trkpt>
      <trkpt lat="47.26101" lon="2.97186">
        <ele>148.4</ele>
        <time>2016-05-05T13:48:55Z</time>
      </trkpt>
      <trkpt lat="47.2611" lon="2.9718">
        <ele>148.3</ele>
        <time>2016-05-05T13:48:57Z</time>
      </trkpt>
      <trkpt lat="47.26118" lon="2.97173">
        <ele>148.3</ele>
        <time>2016-05-05T13:48:59Z</time>
      </trkpt>
      <trkpt lat="47.26127" lon="2.97167">
        <ele>148.3</ele>
        <time>2016-05-05T13:49:01Z</time>
      </trkpt>
      <trkpt lat="47.26135" lon="2.97161">
        <ele>148.3</ele>
        <time>2016-05-05T13:49:03Z</time>
      </trkpt>
      <trkpt lat="47.26143" lon="2.97154">
        <ele>148.4</ele>
        <time>2016-05-05T13:49:05Z</time>
      </trkpt>
      <trkpt lat="47.26151" lon="2.97148">
        <ele>148.5</ele>
        <time>2016-05-05T13:49:07Z</time>
      </trkpt>
      <trkpt lat="47.26159" lon="2.9714">
        <ele>148.5</ele>
        <time>2016-05-05T13:49:09Z</time>
      </trkpt>
      <trkpt lat="47.26168" lon="2.97133">
        <ele>148.5</ele>
        <time>2016-05-05T13:49:11Z</time>
      </trkpt>
      <trkpt lat="47.26176" lon="2.97126">
        <ele>148.4</ele>
        <time>2016-05-05T13:49:13Z</time>
      </trkpt>
      <trkpt lat="47.26185" lon="2.97119">
        <ele>148.2</ele>
        <time>2016-05-05T13:49:15Z</time>
      </trkpt>
      <trkpt lat="47.26193" lon="2.97112">
        <ele>148.1</ele>
        <time>2016-05-05T13:49:17Z</time>
      </trkpt>
      <trkpt lat="47.26201" lon="2.97105">
        <ele>148.1</ele>
        <time>2016-05-05T13:49:19Z</time>
      </trkpt>
      <trkpt lat="47.26209" lon="2.97098">
        <ele>148.1</ele>
        <time>2016-05-05T13:49:21Z</time>
      </trkpt>
      <trkpt lat="47.2622" lon="2.97087">
        <ele>148.1</ele>
        <time>2016-05-05T13:49:24Z</time>
      </trkpt>
      <trkpt lat="47.26228" lon="2.9708">
        <ele>148.1</ele>
        <time>2016-05-05T13:49:26Z</time>
      </trkpt>
      <trkpt lat="47.26235" lon="2.97072">
        <ele>148.1</ele>
        <time>2016-05-05T13:49:28Z</time>
      </trkpt>
      <trkpt lat="47.26243" lon="2.97065">
        <ele>148.1</ele>
        <time>2016-05-05T13:49:30Z</time>
      </trkpt>
      <trkpt lat="47.26251" lon="2.97058">
        <ele>148.1</ele>
        <time>2016-05-05T13:49:32Z</time>
      </trkpt>
      <trkpt lat="47.26258" lon="2.97051">
        <ele>147.9</ele>
        <time>2016-05-05T13:49:34Z</time>
      </trkpt>
      <trkpt lat="47.26266" lon="2.97043">
        <ele>147.9</ele>
        <time>2016-05-05T13:49:36Z</time>
      </trkpt>
      <trkpt lat="47.26274" lon="2.97036">
        <ele>147.6</ele>
        <time>2016-05-05T13:49:38Z</time>
      </trkpt>
      <trkpt lat="47.26282" lon="2.97028">
        <ele>147.6</ele>
        <time>2016-05-05T13:49:40Z</time>
      </trkpt>
      <trkpt lat="47.26291" lon="2.9702">
        <ele>147.6</ele>
        <time>2016-05-05T13:49:42Z</time>
      </trkpt>
      <trkpt lat="47.26299" lon="2.97012">
        <ele>147.5</ele>
        <time>2016-05-05T13:49:44Z</time>
      </trkpt>
      <trkpt lat="47.26307" lon="2.97004">
        <ele>147.5</ele>
        <time>2016-05-05T13:49:46Z</time>
      </trkpt>
      <trkpt lat="47.26315" lon="2.96996">
        <ele>147.4</ele>
        <time>2016-05-05T13:49:48Z</time>
      </trkpt>
      <trkpt lat="47.26323" lon="2.96988">
        <ele>147.3</ele>
        <time>2016-05-05T13:49:50Z</time>
      </trkpt>
      <trkpt lat="47.26332" lon="2.96979">
        <ele>147.1</ele>
        <time>2016-05-05T13:49:52Z</time>
      </trkpt>
      <trkpt lat="47.2634" lon="2.96971">
        <ele>147</ele>
        <time>2016-05-05T13:49:54Z</time>
      </trkpt>
      <trkpt lat="47.26348" lon="2.96962">
        <ele>146.9</ele>
        <time>2016-05-05T13:49:56Z</time>
      </trkpt>
      <trkpt lat="47.26356" lon="2.96954">
        <ele>146.9</ele>
        <time>2016-05-05T13:49:58Z</time>
      </trkpt>
      <trkpt lat="47.26364" lon="2.96946">
        <ele>146.9</ele>
        <time>2016-05-05T13:50:00Z</time>
      </trkpt>
      <trkpt lat="47.26372" lon="2.96937">
        <ele>146.9</ele>
        <time>2016-05-05T13:50:02Z</time>
      </trkpt>
      <trkpt lat="47.2638" lon="2.96928">
        <ele>146.9</ele>
        <time>2016-05-05T13:50:04Z</time>
      </trkpt>
      <trkpt lat="47.26389" lon="2.96919">
        <ele>146.8</ele>
        <time>2016-05-05T13:50:06Z</time>
      </trkpt>
      <trkpt lat="47.26398" lon="2.9691">
        <ele>146.7</ele>
        <time>2016-05-05T13:50:08Z</time>
      </trkpt>
      <trkpt lat="47.26406" lon="2.96901">
        <ele>146.8</ele>
        <time>2016-05-05T13:50:10Z</time>
      </trkpt>
      <trkpt lat="47.26413" lon="2.96892">
        <ele>146.9</ele>
        <time>2016-05-05T13:50:12Z</time>
      </trkpt>
      <trkpt lat="47.26421" lon="2.96884">
        <ele>147</ele>
        <time>2016-05-05T13:50:14Z</time>
      </trkpt>
      <trkpt lat="47.26428" lon="2.96876">
        <ele>147.1</ele>
        <time>2016-05-05T13:50:16Z</time>
      </trkpt>
      <trkpt lat="47.26436" lon="2.96867">
        <ele>147.2</ele>
        <time>2016-05-05T13:50:18Z</time>
      </trkpt>
      <trkpt lat="47.26444" lon="2.96858">
        <ele>147</ele>
        <time>2016-05-05T13:50:20Z</time>
      </trkpt>
      <trkpt lat="47.26451" lon="2.96849">
        <ele>147</ele>
        <time>2016-05-05T13:50:22Z</time>
      </trkpt>
      <trkpt lat="47.26459" lon="2.9684">
        <ele>147</ele>
        <time>2016-05-05T13:50:24Z</time>
      </trkpt>
      <trkpt lat="47.26467" lon="2.96831">
        <ele>147</ele>
        <time>2016-05-05T13:50:26Z</time>
      </trkpt>
      <trkpt lat="47.26474" lon="2.96822">
        <ele>147.1</ele>
        <time>2016-05-05T13:50:28Z</time>
      </trkpt>
      <trkpt lat="47.26482" lon="2.96813">
        <ele>147</ele>
        <time>2016-05-05T13:50:30Z</time>
      </trkpt>
      <trkpt lat="47.26489" lon="2.96804">
        <ele>147.1</ele>
        <time>2016-05-05T13:50:32Z</time>
      </trkpt>
      <trkpt lat="47.26497" lon="2.96795">
        <ele>147.1</ele>
        <time>2016-05-05T13:50:34Z</time>
      </trkpt>
      <trkpt lat="47.26504" lon="2.96786">
        <ele>147.1</ele>
        <time>2016-05-05T13:50:36Z</time>
      </trkpt>
      <trkpt lat="47.26512" lon="2.96776">
        <ele>147.1</ele>
        <time>2016-05-05T13:50:38Z</time>
      </trkpt>
      <trkpt lat="47.26519" lon="2.96767">
        <ele>147</ele>
        <time>2016-05-05T13:50:40Z</time>
      </trkpt>
      <trkpt lat="47.26527" lon="2.96757">
        <ele>147</ele>
        <time>2016-05-05T13:50:42Z</time>
      </trkpt>
      <trkpt lat="47.26534" lon="2.96747">
        <ele>146.9</ele>
        <time>2016-05-05T13:50:44Z</time>
      </trkpt>
      <trkpt lat="47.26541" lon="2.96738">
        <ele>146.9</ele>
        <time>2016-05-05T13:50:46Z</time>
      </trkpt>
      <trkpt lat="47.26549" lon="2.96727">
        <ele>146.9</ele>
        <time>2016-05-05T13:50:48Z</time>
      </trkpt>
      <trkpt lat="47.26556" lon="2.96717">
        <ele>146.9</ele>
        <time>2016-05-05T13:50:50Z</time>
      </trkpt>
      <trkpt lat="47.26563" lon="2.96707">
        <ele>146.9</ele>
        <time>2016-05-05T13:50:52Z</time>
      </trkpt>
      <trkpt lat="47.26571" lon="2.96697">
        <ele>146.8</ele>
        <time>2016-05-05T13:50:54Z</time>
      </trkpt>
      <trkpt lat="47.26578" lon="2.96688">
        <ele>146.8</ele>
        <time>2016-05-05T13:50:56Z</time>
      </trkpt>
      <trkpt lat="47.26584" lon="2.96679">
        <ele>146.9</ele>
        <time>2016-05-05T13:50:58Z</time>
      </trkpt>
      <trkpt lat="47.26591" lon="2.9667">
        <ele>146.8</ele>
        <time>2016-05-05T13:51:00Z</time>
      </trkpt>
      <trkpt lat="47.26598" lon="2.9666">
        <ele>146.8</ele>
        <time>2016-05-05T13:51:02Z</time>
      </trkpt>
      <trkpt lat="47.26604" lon="2.96651">
        <ele>147</ele>
        <time>2016-05-05T13:51:04Z</time>
      </trkpt>
      <trkpt lat="47.26611" lon="2.96641">
        <ele>147</ele>
        <time>2016-05-05T13:51:06Z</time>
      </trkpt>
      <trkpt lat="47.26618" lon="2.96631">
        <ele>147.2</ele>
        <time>2016-05-05T13:51:08Z</time>
      </trkpt>
      <trkpt lat="47.26625" lon="2.96621">
        <ele>147.3</ele>
        <time>2016-05-05T13:51:10Z</time>
      </trkpt>
      <trkpt lat="47.26632" lon="2.96611">
        <ele>147.3</ele>
        <time>2016-05-05T13:51:12Z</time>
      </trkpt>
      <trkpt lat="47.26639" lon="2.96602">
        <ele>147.2</ele>
        <time>2016-05-05T13:51:14Z</time>
      </trkpt>
      <trkpt lat="47.26646" lon="2.96592">
        <ele>147.1</ele>
        <time>2016-05-05T13:51:16Z</time>
      </trkpt>
      <trkpt lat="47.26653" lon="2.96583">
        <ele>147.1</ele>
        <time>2016-05-05T13:51:18Z</time>
      </trkpt>
      <trkpt lat="47.2666" lon="2.96573">
        <ele>147.1</ele>
        <time>2016-05-05T13:51:20Z</time>
      </trkpt>
      <trkpt lat="47.26667" lon="2.96563">
        <ele>147.1</ele>
        <time>2016-05-05T13:51:22Z</time>
      </trkpt>
      <trkpt lat="47.26674" lon="2.96553">
        <ele>147</ele>
        <time>2016-05-05T13:51:24Z</time>
      </trkpt>
      <trkpt lat="47.26681" lon="2.96543">
        <ele>147</ele>
        <time>2016-05-05T13:51:26Z</time>
      </trkpt>
      <trkpt lat="47.26688" lon="2.96534">
        <ele>147</ele>
        <time>2016-05-05T13:51:28Z</time>
      </trkpt>
      <trkpt lat="47.26696" lon="2.96524">
        <ele>147.1</ele>
        <time>2016-05-05T13:51:30Z</time>
      </trkpt>
      <trkpt lat="47.26703" lon="2.96514">
        <ele>147.1</ele>
        <time>2016-05-05T13:51:32Z</time>
      </trkpt>
      <trkpt lat="47.2671" lon="2.96504">
        <ele>147.1</ele>
        <time>2016-05-05T13:51:34Z</time>
      </trkpt>
      <trkpt lat="47.26717" lon="2.96494">
        <ele>147.2</ele>
        <time>2016-05-05T13:51:36Z</time>
      </trkpt>
      <trkpt lat="47.26724" lon="2.96483">
        <ele>147.3</ele>
        <time>2016-05-05T13:51:38Z</time>
      </trkpt>
      <trkpt lat="47.2673" lon="2.96474">
        <ele>147.4</ele>
        <time>2016-05-05T13:51:40Z</time>
      </trkpt>
      <trkpt lat="47.26737" lon="2.96464">
        <ele>147.3</ele>
        <time>2016-05-05T13:51:42Z</time>
      </trkpt>
      <trkpt lat="47.26744" lon="2.96455">
        <ele>147.4</ele>
        <time>2016-05-05T13:51:44Z</time>
      </trkpt>
      <trkpt lat="47.26751" lon="2.96446">
        <ele>147.5</ele>
        <time>2016-05-05T13:51:46Z</time>
      </trkpt>
      <trkpt lat="47.26758" lon="2.96436">
        <ele>147.2</ele>
        <time>2016-05-05T13:51:48Z</time>
      </trkpt>
      <trkpt lat="47.26765" lon="2.96427">
        <ele>147.3</ele>
        <time>2016-05-05T13:51:50Z</time>
      </trkpt>
      <trkpt lat="47.26772" lon="2.96417">
        <ele>147.4</ele>
        <time>2016-05-05T13:51:52Z</time>
      </trkpt>
      <trkpt lat="47.26779" lon="2.96407">
        <ele>147.5</ele>
        <time>2016-05-05T13:51:54Z</time>
      </trkpt>
      <trkpt lat="47.26787" lon="2.96398">
        <ele>147.5</ele>
        <time>2016-05-05T13:51:56Z</time>
      </trkpt>
      <trkpt lat="47.26794" lon="2.96388">
        <ele>147.6</ele>
        <time>2016-05-05T13:51:58Z</time>
      </trkpt>
      <trkpt lat="47.26801" lon="2.96378">
        <ele>147.7</ele>
        <time>2016-05-05T13:52:00Z</time>
      </trkpt>
      <trkpt lat="47.26808" lon="2.96369">
        <ele>147.9</ele>
        <time>2016-05-05T13:52:02Z</time>
      </trkpt>
      <trkpt lat="47.26814" lon="2.9636">
        <ele>148</ele>
        <time>2016-05-05T13:52:04Z</time>
      </trkpt>
      <trkpt lat="47.26821" lon="2.96351">
        <ele>148</ele>
        <time>2016-05-05T13:52:06Z</time>
      </trkpt>
      <trkpt lat="47.26831" lon="2.96337">
        <ele>148.1</ele>
        <time>2016-05-05T13:52:09Z</time>
      </trkpt>
      <trkpt lat="47.2684" lon="2.96324">
        <ele>148</ele>
        <time>2016-05-05T13:52:12Z</time>
      </trkpt>
      <trkpt lat="47.26847" lon="2.96315">
        <ele>148</ele>
        <time>2016-05-05T13:52:14Z</time>
      </trkpt>
      <trkpt lat="47.26857" lon="2.96301">
        <ele>148</ele>
        <time>2016-05-05T13:52:17Z</time>
      </trkpt>
      <trkpt lat="47.26866" lon="2.96288">
        <ele>148</ele>
        <time>2016-05-05T13:52:20Z</time>
      </trkpt>
      <trkpt lat="47.26876" lon="2.96274">
        <ele>147.9</ele>
        <time>2016-05-05T13:52:23Z</time>
      </trkpt>
      <trkpt lat="47.26885" lon="2.96261">
        <ele>147.9</ele>
        <time>2016-05-05T13:52:26Z</time>
      </trkpt>
      <trkpt lat="47.26895" lon="2.96247">
        <ele>147.9</ele>
        <time>2016-05-05T13:52:29Z</time>
      </trkpt>
      <trkpt lat="47.26905" lon="2.96233">
        <ele>147.8</ele>
        <time>2016-05-05T13:52:32Z</time>
      </trkpt>
      <trkpt lat="47.26914" lon="2.9622">
        <ele>147.9</ele>
        <time>2016-05-05T13:52:35Z</time>
      </trkpt>
      <trkpt lat="47.26921" lon="2.9621">
        <ele>147.8</ele>
        <time>2016-05-05T13:52:37Z</time>
      </trkpt>
      <trkpt lat="47.26928" lon="2.96201">
        <ele>147.8</ele>
        <time>2016-05-05T13:52:39Z</time>
      </trkpt>
      <trkpt lat="47.26934" lon="2.96191">
        <ele>147.9</ele>
        <time>2016-05-05T13:52:41Z</time>
      </trkpt>
      <trkpt lat="47.26941" lon="2.96181">
        <ele>147.9</ele>
        <time>2016-05-05T13:52:43Z</time>
      </trkpt>
      <trkpt lat="47.26948" lon="2.96172">
        <ele>148</ele>
        <time>2016-05-05T13:52:45Z</time>
      </trkpt>
      <trkpt lat="47.26955" lon="2.96163">
        <ele>148.1</ele>
        <time>2016-05-05T13:52:47Z</time>
      </trkpt>
      <trkpt lat="47.26962" lon="2.96153">
        <ele>148.1</ele>
        <time>2016-05-05T13:52:49Z</time>
      </trkpt>
      <trkpt lat="47.26969" lon="2.96143">
        <ele>148.1</ele>
        <time>2016-05-05T13:52:51Z</time>
      </trkpt>
      <trkpt lat="47.26976" lon="2.96133">
        <ele>148.1</ele>
        <time>2016-05-05T13:52:53Z</time>
      </trkpt>
      <trkpt lat="47.26984" lon="2.96124">
        <ele>148</ele>
        <time>2016-05-05T13:52:55Z</time>
      </trkpt>
      <trkpt lat="47.26991" lon="2.96115">
        <ele>147.9</ele>
        <time>2016-05-05T13:52:57Z</time>
      </trkpt>
      <trkpt lat="47.26998" lon="2.96104">
        <ele>148.2</ele>
        <time>2016-05-05T13:52:59Z</time>
      </trkpt>
      <trkpt lat="47.27005" lon="2.96094">
        <ele>148.2</ele>
        <time>2016-05-05T13:53:01Z</time>
      </trkpt>
      <trkpt lat="47.27012" lon="2.96084">
        <ele>148.2</ele>
        <time>2016-05-05T13:53:03Z</time>
      </trkpt>
      <trkpt lat="47.27019" lon="2.96073">
        <ele>148</ele>
        <time>2016-05-05T13:53:05Z</time>
      </trkpt>
      <trkpt lat="47.27026" lon="2.96062">
        <ele>148</ele>
        <time>2016-05-05T13:53:07Z</time>
      </trkpt>
      <trkpt lat="47.27033" lon="2.96052">
        <ele>148</ele>
        <time>2016-05-05T13:53:09Z</time>
      </trkpt>
      <trkpt lat="47.2704" lon="2.96043">
        <ele>147.9</ele>
        <time>2016-05-05T13:53:11Z</time>
      </trkpt>
      <trkpt lat="47.27047" lon="2.96032">
        <ele>147.9</ele>
        <time>2016-05-05T13:53:13Z</time>
      </trkpt>
      <trkpt lat="47.27054" lon="2.96023">
        <ele>147.9</ele>
        <time>2016-05-05T13:53:15Z</time>
      </trkpt>
      <trkpt lat="47.27061" lon="2.96013">
        <ele>147.9</ele>
        <time>2016-05-05T13:53:17Z</time>
      </trkpt>
      <trkpt lat="47.27069" lon="2.96004">
        <ele>147.8</ele>
        <time>2016-05-05T13:53:19Z</time>
      </trkpt>
      <trkpt lat="47.27076" lon="2.95994">
        <ele>147.8</ele>
        <time>2016-05-05T13:53:21Z</time>
      </trkpt>
      <trkpt lat="47.27083" lon="2.95984">
        <ele>147.8</ele>
        <time>2016-05-05T13:53:23Z</time>
      </trkpt>
      <trkpt lat="47.27091" lon="2.95974">
        <ele>147.9</ele>
        <time>2016-05-05T13:53:25Z</time>
      </trkpt>
      <trkpt lat="47.27098" lon="2.95965">
        <ele>147.9</ele>
        <time>2016-05-05T13:53:27Z</time>
      </trkpt>
      <trkpt lat="47.27105" lon="2.95955">
        <ele>147.9</ele>
        <time>2016-05-05T13:53:29Z</time>
      </trkpt>
      <trkpt lat="47.27112" lon="2.95946">
        <ele>147.8</ele>
        <time>2016-05-05T13:53:31Z</time>
      </trkpt>
      <trkpt lat="47.27119" lon="2.95937">
        <ele>147.8</ele>
        <time>2016-05-05T13:53:33Z</time>
      </trkpt>
      <trkpt lat="47.27126" lon="2.95927">
        <ele>147.8</ele>
        <time>2016-05-05T13:53:35Z</time>
      </trkpt>
      <trkpt lat="47.27133" lon="2.95918">
        <ele>147.8</ele>
        <time>2016-05-05T13:53:37Z</time>
      </trkpt>
      <trkpt lat="47.2714" lon="2.95908">
        <ele>147.8</ele>
        <time>2016-05-05T13:53:39Z</time>
      </trkpt>
      <trkpt lat="47.27147" lon="2.95898">
        <ele>147.8</ele>
        <time>2016-05-05T13:53:41Z</time>
      </trkpt>
      <trkpt lat="47.27153" lon="2.95889">
        <ele>147.8</ele>
        <time>2016-05-05T13:53:43Z</time>
      </trkpt>
      <trkpt lat="47.2716" lon="2.9588">
        <ele>147.8</ele>
        <time>2016-05-05T13:53:45Z</time>
      </trkpt>
      <trkpt lat="47.27167" lon="2.9587">
        <ele>147.9</ele>
        <time>2016-05-05T13:53:47Z</time>
      </trkpt>
      <trkpt lat="47.27174" lon="2.95861">
        <ele>147.9</ele>
        <time>2016-05-05T13:53:49Z</time>
      </trkpt>
      <trkpt lat="47.27181" lon="2.95851">
        <ele>147.9</ele>
        <time>2016-05-05T13:53:51Z</time>
      </trkpt>
      <trkpt lat="47.27188" lon="2.95841">
        <ele>147.8</ele>
        <time>2016-05-05T13:53:53Z</time>
      </trkpt>
      <trkpt lat="47.27195" lon="2.95831">
        <ele>147.8</ele>
        <time>2016-05-05T13:53:55Z</time>
      </trkpt>
      <trkpt lat="47.27201" lon="2.95822">
        <ele>147.8</ele>
        <time>2016-05-05T13:53:57Z</time>
      </trkpt>
      <trkpt lat="47.27209" lon="2.95812">
        <ele>147.9</ele>
        <time>2016-05-05T13:53:59Z</time>
      </trkpt>
      <trkpt lat="47.27216" lon="2.95803">
        <ele>147.8</ele>
        <time>2016-05-05T13:54:01Z</time>
      </trkpt>
      <trkpt lat="47.27223" lon="2.95793">
        <ele>147.8</ele>
        <time>2016-05-05T13:54:03Z</time>
      </trkpt>
      <trkpt lat="47.2723" lon="2.95783">
        <ele>147.7</ele>
        <time>2016-05-05T13:54:05Z</time>
      </trkpt>
      <trkpt lat="47.27237" lon="2.95772">
        <ele>147.7</ele>
        <time>2016-05-05T13:54:07Z</time>
      </trkpt>
      <trkpt lat="47.27245" lon="2.95762">
        <ele>147.8</ele>
        <time>2016-05-05T13:54:09Z</time>
      </trkpt>
      <trkpt lat="47.27252" lon="2.95752">
        <ele>147.7</ele>
        <time>2016-05-05T13:54:11Z</time>
      </trkpt>
      <trkpt lat="47.27259" lon="2.95742">
        <ele>147.7</ele>
        <time>2016-05-05T13:54:13Z</time>
      </trkpt>
      <trkpt lat="47.27267" lon="2.95732">
        <ele>147.7</ele>
        <time>2016-05-05T13:54:15Z</time>
      </trkpt>
      <trkpt lat="47.27274" lon="2.95721">
        <ele>147.6</ele>
        <time>2016-05-05T13:54:17Z</time>
      </trkpt>
      <trkpt lat="47.27282" lon="2.95711">
        <ele>147.5</ele>
        <time>2016-05-05T13:54:19Z</time>
      </trkpt>
      <trkpt lat="47.2729" lon="2.95701">
        <ele>147.5</ele>
        <time>2016-05-05T13:54:21Z</time>
      </trkpt>
      <trkpt lat="47.27297" lon="2.9569">
        <ele>147.5</ele>
        <time>2016-05-05T13:54:23Z</time>
      </trkpt>
      <trkpt lat="47.27304" lon="2.9568">
        <ele>147.5</ele>
        <time>2016-05-05T13:54:25Z</time>
      </trkpt>
      <trkpt lat="47.27312" lon="2.95669">
        <ele>147.5</ele>
        <time>2016-05-05T13:54:27Z</time>
      </trkpt>
      <trkpt lat="47.27318" lon="2.95658">
        <ele>147.4</ele>
        <time>2016-05-05T13:54:29Z</time>
      </trkpt>
      <trkpt lat="47.27322" lon="2.95645">
        <ele>147.4</ele>
        <time>2016-05-05T13:54:31Z</time>
      </trkpt>
      <trkpt lat="47.27325" lon="2.95632">
        <ele>147.3</ele>
        <time>2016-05-05T13:54:33Z</time>
      </trkpt>
      <trkpt lat="47.27324" lon="2.95617">
        <ele>147.3</ele>
        <time>2016-05-05T13:54:35Z</time>
      </trkpt>
      <trkpt lat="47.2732" lon="2.95603">
        <ele>147.2</ele>
        <time>2016-05-05T13:54:37Z</time>
      </trkpt>
      <trkpt lat="47.27316" lon="2.95589">
        <ele>147.1</ele>
        <time>2016-05-05T13:54:39Z</time>
      </trkpt>
      <trkpt lat="47.27312" lon="2.95574">
        <ele>147.1</ele>
        <time>2016-05-05T13:54:41Z</time>
      </trkpt>
      <trkpt lat="47.27308" lon="2.9556">
        <ele>147.1</ele>
        <time>2016-05-05T13:54:43Z</time>
      </trkpt>
      <trkpt lat="47.27304" lon="2.95545">
        <ele>147.1</ele>
        <time>2016-05-05T13:54:45Z</time>
      </trkpt>
      <trkpt lat="47.27299" lon="2.9553">
        <ele>147.2</ele>
        <time>2016-05-05T13:54:47Z</time>
      </trkpt>
      <trkpt lat="47.27295" lon="2.95515">
        <ele>147.1</ele>
        <time>2016-05-05T13:54:49Z</time>
      </trkpt>
      <trkpt lat="47.27291" lon="2.95499">
        <ele>147.1</ele>
        <time>2016-05-05T13:54:51Z</time>
      </trkpt>
      <trkpt lat="47.27287" lon="2.95483">
        <ele>147</ele>
        <time>2016-05-05T13:54:53Z</time>
      </trkpt>
      <trkpt lat="47.27284" lon="2.95467">
        <ele>147.2</ele>
        <time>2016-05-05T13:54:55Z</time>
      </trkpt>
      <trkpt lat="47.27281" lon="2.95451">
        <ele>147</ele>
        <time>2016-05-05T13:54:57Z</time>
      </trkpt>
      <trkpt lat="47.27279" lon="2.95436">
        <ele>147</ele>
        <time>2016-05-05T13:54:59Z</time>
      </trkpt>
      <trkpt lat="47.27277" lon="2.9542">
        <ele>146.9</ele>
        <time>2016-05-05T13:55:01Z</time>
      </trkpt>
      <trkpt lat="47.27275" lon="2.95405">
        <ele>146.9</ele>
        <time>2016-05-05T13:55:03Z</time>
      </trkpt>
      <trkpt lat="47.27274" lon="2.9539">
        <ele>146.8</ele>
        <time>2016-05-05T13:55:05Z</time>
      </trkpt>
      <trkpt lat="47.27273" lon="2.95375">
        <ele>146.8</ele>
        <time>2016-05-05T13:55:07Z</time>
      </trkpt>
      <trkpt lat="47.27273" lon="2.95359">
        <ele>146.7</ele>
        <time>2016-05-05T13:55:09Z</time>
      </trkpt>
      <trkpt lat="47.27273" lon="2.95343">
        <ele>146.7</ele>
        <time>2016-05-05T13:55:11Z</time>
      </trkpt>
      <trkpt lat="47.27274" lon="2.95327">
        <ele>146.7</ele>
        <time>2016-05-05T13:55:13Z</time>
      </trkpt>
      <trkpt lat="47.27275" lon="2.95311">
        <ele>146.8</ele>
        <time>2016-05-05T13:55:15Z</time>
      </trkpt>
      <trkpt lat="47.27277" lon="2.95296">
        <ele>146.8</ele>
        <time>2016-05-05T13:55:17Z</time>
      </trkpt>
      <trkpt lat="47.27279" lon="2.9528">
        <ele>146.8</ele>
        <time>2016-05-05T13:55:19Z</time>
      </trkpt>
      <trkpt lat="47.27283" lon="2.95265">
        <ele>146.8</ele>
        <time>2016-05-05T13:55:21Z</time>
      </trkpt>
      <trkpt lat="47.27288" lon="2.95251">
        <ele>146.7</ele>
        <time>2016-05-05T13:55:23Z</time>
      </trkpt>
      <trkpt lat="47.27292" lon="2.95236">
        <ele>146.7</ele>
        <time>2016-05-05T13:55:25Z</time>
      </trkpt>
      <trkpt lat="47.27296" lon="2.95221">
        <ele>146.6</ele>
        <time>2016-05-05T13:55:27Z</time>
      </trkpt>
      <trkpt lat="47.27298" lon="2.95206">
        <ele>146.5</ele>
        <time>2016-05-05T13:55:29Z</time>
      </trkpt>
      <trkpt lat="47.27296" lon="2.95191">
        <ele>146.4</ele>
        <time>2016-05-05T13:55:31Z</time>
      </trkpt>
      <trkpt lat="47.2729" lon="2.95177">
        <ele>146.3</ele>
        <time>2016-05-05T13:55:33Z</time>
      </trkpt>
      <trkpt lat="47.27282" lon="2.95165">
        <ele>146.3</ele>
        <time>2016-05-05T13:55:35Z</time>
      </trkpt>
      <trkpt lat="47.27272" lon="2.95153">
        <ele>146.5</ele>
        <time>2016-05-05T13:55:37Z</time>
      </trkpt>
      <trkpt lat="47.27262" lon="2.95143">
        <ele>146.4</ele>
        <time>2016-05-05T13:55:39Z</time>
      </trkpt>
      <trkpt lat="47.27251" lon="2.95132">
        <ele>146.5</ele>
        <time>2016-05-05T13:55:41Z</time>
      </trkpt>
      <trkpt lat="47.27241" lon="2.95121">
        <ele>146.3</ele>
        <time>2016-05-05T13:55:43Z</time>
      </trkpt>
      <trkpt lat="47.27229" lon="2.95111">
        <ele>146.2</ele>
        <time>2016-05-05T13:55:45Z</time>
      </trkpt>
      <trkpt lat="47.27218" lon="2.95099">
        <ele>146</ele>
        <time>2016-05-05T13:55:47Z</time>
      </trkpt>
      <trkpt lat="47.27206" lon="2.95088">
        <ele>146</ele>
        <time>2016-05-05T13:55:49Z</time>
      </trkpt>
      <trkpt lat="47.27194" lon="2.95076">
        <ele>145.9</ele>
        <time>2016-05-05T13:55:51Z</time>
      </trkpt>
      <trkpt lat="47.27184" lon="2.95067">
        <ele>145.7</ele>
        <time>2016-05-05T13:55:53Z</time>
      </trkpt>
      <trkpt lat="47.27178" lon="2.95054">
        <ele>145.7</ele>
        <time>2016-05-05T13:55:56Z</time>
      </trkpt>
      <trkpt lat="47.27184" lon="2.95041">
        <ele>146</ele>
        <time>2016-05-05T13:56:00Z</time>
      </trkpt>
      <trkpt lat="47.27193" lon="2.95035">
        <ele>146.2</ele>
        <time>2016-05-05T13:56:03Z</time>
      </trkpt>
      <trkpt lat="47.27202" lon="2.9503">
        <ele>146.1</ele>
        <time>2016-05-05T13:56:06Z</time>
      </trkpt>
      <trkpt lat="47.27212" lon="2.95022">
        <ele>146</ele>
        <time>2016-05-05T13:56:09Z</time>
      </trkpt>
      <trkpt lat="47.27223" lon="2.95014">
        <ele>146.1</ele>
        <time>2016-05-05T13:56:12Z</time>
      </trkpt>
      <trkpt lat="47.27233" lon="2.95007">
        <ele>145.9</ele>
        <time>2016-05-05T13:56:15Z</time>
      </trkpt>
      <trkpt lat="47.27243" lon="2.94998">
        <ele>146.1</ele>
        <time>2016-05-05T13:56:18Z</time>
      </trkpt>
      <trkpt lat="47.27252" lon="2.94989">
        <ele>146.1</ele>
        <time>2016-05-05T13:56:21Z</time>
      </trkpt>
      <trkpt lat="47.27261" lon="2.9498">
        <ele>146.2</ele>
        <time>2016-05-05T13:56:24Z</time>
      </trkpt>
      <trkpt lat="47.2727" lon="2.94972">
        <ele>146.2</ele>
        <time>2016-05-05T13:56:27Z</time>
      </trkpt>
      <trkpt lat="47.27279" lon="2.94962">
        <ele>146.3</ele>
        <time>2016-05-05T13:56:30Z</time>
      </trkpt>
      <trkpt lat="47.27289" lon="2.94952">
        <ele>146.1</ele>
        <time>2016-05-05T13:56:33Z</time>
      </trkpt>
      <trkpt lat="47.27299" lon="2.94942">
        <ele>146.2</ele>
        <time>2016-05-05T13:56:36Z</time>
      </trkpt>
      <trkpt lat="47.27309" lon="2.9493">
        <ele>146.2</ele>
        <time>2016-05-05T13:56:39Z</time>
      </trkpt>
      <trkpt lat="47.27318" lon="2.94918">
        <ele>146.1</ele>
        <time>2016-05-05T13:56:42Z</time>
      </trkpt>
      <trkpt lat="47.27327" lon="2.94905">
        <ele>146.2</ele>
        <time>2016-05-05T13:56:45Z</time>
      </trkpt>
      <trkpt lat="47.27335" lon="2.94893">
        <ele>146.3</ele>
        <time>2016-05-05T13:56:48Z</time>
      </trkpt>
      <trkpt lat="47.27344" lon="2.94879">
        <ele>146.3</ele>
        <time>2016-05-05T13:56:51Z</time>
      </trkpt>
      <trkpt lat="47.27352" lon="2.94864">
        <ele>146.3</ele>
        <time>2016-05-05T13:56:54Z</time>
      </trkpt>
      <trkpt lat="47.2736" lon="2.94851">
        <ele>146.1</ele>
        <time>2016-05-05T13:56:57Z</time>
      </trkpt>
      <trkpt lat="47.27366" lon="2.94838">
        <ele>146.1</ele>
        <time>2016-05-05T13:57:00Z</time>
      </trkpt>
      <trkpt lat="47.27371" lon="2.94824">
        <ele>146</ele>
        <time>2016-05-05T13:57:03Z</time>
      </trkpt>
      <trkpt lat="47.27376" lon="2.94813">
        <ele>146</ele>
        <time>2016-05-05T13:57:06Z</time>
      </trkpt>
      <trkpt lat="47.27383" lon="2.94798">
        <ele>146</ele>
        <time>2016-05-05T13:57:10Z</time>
      </trkpt>
      <trkpt lat="47.2739" lon="2.94786">
        <ele>146.1</ele>
        <time>2016-05-05T13:57:13Z</time>
      </trkpt>
      <trkpt lat="47.27397" lon="2.94775">
        <ele>146.1</ele>
        <time>2016-05-05T13:57:16Z</time>
      </trkpt>
      <trkpt lat="47.27404" lon="2.94762">
        <ele>146.3</ele>
        <time>2016-05-05T13:57:19Z</time>
      </trkpt>
      <trkpt lat="47.27411" lon="2.94749">
        <ele>146.5</ele>
        <time>2016-05-05T13:57:22Z</time>
      </trkpt>
      <trkpt lat="47.27418" lon="2.94735">
        <ele>146.5</ele>
        <time>2016-05-05T13:57:25Z</time>
      </trkpt>
      <trkpt lat="47.27424" lon="2.9472">
        <ele>146.6</ele>
        <time>2016-05-05T13:57:28Z</time>
      </trkpt>
      <trkpt lat="47.27431" lon="2.94706">
        <ele>147.2</ele>
        <time>2016-05-05T13:57:31Z</time>
      </trkpt>
      <trkpt lat="47.27437" lon="2.94692">
        <ele>147.1</ele>
        <time>2016-05-05T13:57:34Z</time>
      </trkpt>
      <trkpt lat="47.27445" lon="2.94678">
        <ele>146.9</ele>
        <time>2016-05-05T13:57:37Z</time>
      </trkpt>
      <trkpt lat="47.27453" lon="2.94666">
        <ele>146.6</ele>
        <time>2016-05-05T13:57:40Z</time>
      </trkpt>
      <trkpt lat="47.2746" lon="2.94654">
        <ele>146.3</ele>
        <time>2016-05-05T13:57:43Z</time>
      </trkpt>
      <trkpt lat="47.27469" lon="2.94641">
        <ele>146.1</ele>
        <time>2016-05-05T13:57:46Z</time>
      </trkpt>
      <trkpt lat="47.27477" lon="2.94628">
        <ele>146.3</ele>
        <time>2016-05-05T13:57:49Z</time>
      </trkpt>
      <trkpt lat="47.27485" lon="2.94616">
        <ele>146.4</ele>
        <time>2016-05-05T13:57:52Z</time>
      </trkpt>
      <trkpt lat="47.27493" lon="2.94603">
        <ele>146.4</ele>
        <time>2016-05-05T13:57:55Z</time>
      </trkpt>
      <trkpt lat="47.27501" lon="2.94589">
        <ele>146.3</ele>
        <time>2016-05-05T13:57:58Z</time>
      </trkpt>
      <trkpt lat="47.27509" lon="2.94576">
        <ele>146.5</ele>
        <time>2016-05-05T13:58:01Z</time>
      </trkpt>
      <trkpt lat="47.27517" lon="2.94561">
        <ele>146.5</ele>
        <time>2016-05-05T13:58:04Z</time>
      </trkpt>
      <trkpt lat="47.27526" lon="2.94547">
        <ele>146.4</ele>
        <time>2016-05-05T13:58:07Z</time>
      </trkpt>
      <trkpt lat="47.27535" lon="2.94533">
        <ele>146.5</ele>
        <time>2016-05-05T13:58:10Z</time>
      </trkpt>
      <trkpt lat="47.27545" lon="2.94519">
        <ele>146.5</ele>
        <time>2016-05-05T13:58:13Z</time>
      </trkpt>
      <trkpt lat="47.27551" lon="2.9451">
        <ele>146.4</ele>
        <time>2016-05-05T13:58:15Z</time>
      </trkpt>
      <trkpt lat="47.27558" lon="2.945">
        <ele>146.3</ele>
        <time>2016-05-05T13:58:17Z</time>
      </trkpt>
      <trkpt lat="47.27564" lon="2.9449">
        <ele>146.2</ele>
        <time>2016-05-05T13:58:19Z</time>
      </trkpt>
      <trkpt lat="47.27571" lon="2.94481">
        <ele>146.2</ele>
        <time>2016-05-05T13:58:21Z</time>
      </trkpt>
      <trkpt lat="47.2758" lon="2.94467">
        <ele>146.2</ele>
        <time>2016-05-05T13:58:24Z</time>
      </trkpt>
      <trkpt lat="47.27587" lon="2.94458">
        <ele>146.1</ele>
        <time>2016-05-05T13:58:26Z</time>
      </trkpt>
      <trkpt lat="47.27593" lon="2.94449">
        <ele>146</ele>
        <time>2016-05-05T13:58:28Z</time>
      </trkpt>
      <trkpt lat="47.27603" lon="2.94435">
        <ele>145.9</ele>
        <time>2016-05-05T13:58:31Z</time>
      </trkpt>
      <trkpt lat="47.2761" lon="2.94426">
        <ele>145.9</ele>
        <time>2016-05-05T13:58:33Z</time>
      </trkpt>
      <trkpt lat="47.27617" lon="2.94416">
        <ele>145.9</ele>
        <time>2016-05-05T13:58:35Z</time>
      </trkpt>
      <trkpt lat="47.27624" lon="2.94407">
        <ele>145.8</ele>
        <time>2016-05-05T13:58:37Z</time>
      </trkpt>
      <trkpt lat="47.27631" lon="2.94397">
        <ele>145.7</ele>
        <time>2016-05-05T13:58:39Z</time>
      </trkpt>
      <trkpt lat="47.27637" lon="2.94388">
        <ele>145.7</ele>
        <time>2016-05-05T13:58:41Z</time>
      </trkpt>
      <trkpt lat="47.27645" lon="2.94379">
        <ele>145.5</ele>
        <time>2016-05-05T13:58:43Z</time>
      </trkpt>
      <trkpt lat="47.27652" lon="2.9437">
        <ele>145.4</ele>
        <time>2016-05-05T13:58:45Z</time>
      </trkpt>
      <trkpt lat="47.2766" lon="2.94362">
        <ele>145.4</ele>
        <time>2016-05-05T13:58:47Z</time>
      </trkpt>
      <trkpt lat="47.27668" lon="2.94354">
        <ele>145.3</ele>
        <time>2016-05-05T13:58:49Z</time>
      </trkpt>
      <trkpt lat="47.27677" lon="2.94349">
        <ele>145.3</ele>
        <time>2016-05-05T13:58:51Z</time>
      </trkpt>
      <trkpt lat="47.27685" lon="2.94343">
        <ele>145.4</ele>
        <time>2016-05-05T13:58:53Z</time>
      </trkpt>
      <trkpt lat="47.27693" lon="2.94338">
        <ele>145.7</ele>
        <time>2016-05-05T13:58:55Z</time>
      </trkpt>
      <trkpt lat="47.27702" lon="2.94333">
        <ele>145.5</ele>
        <time>2016-05-05T13:58:57Z</time>
      </trkpt>
      <trkpt lat="47.27711" lon="2.94327">
        <ele>145.5</ele>
        <time>2016-05-05T13:58:59Z</time>
      </trkpt>
      <trkpt lat="47.2772" lon="2.94321">
        <ele>145.5</ele>
        <time>2016-05-05T13:59:01Z</time>
      </trkpt>
      <trkpt lat="47.27728" lon="2.94315">
        <ele>145.6</ele>
        <time>2016-05-05T13:59:03Z</time>
      </trkpt>
      <trkpt lat="47.27737" lon="2.94309">
        <ele>145.6</ele>
        <time>2016-05-05T13:59:05Z</time>
      </trkpt>
      <trkpt lat="47.27745" lon="2.94303">
        <ele>145.6</ele>
        <time>2016-05-05T13:59:07Z</time>
      </trkpt>
      <trkpt lat="47.27754" lon="2.94296">
        <ele>145.6</ele>
        <time>2016-05-05T13:59:09Z</time>
      </trkpt>
      <trkpt lat="47.27762" lon="2.94289">
        <ele>145.5</ele>
        <time>2016-05-05T13:59:11Z</time>
      </trkpt>
      <trkpt lat="47.27771" lon="2.94281">
        <ele>145.6</ele>
        <time>2016-05-05T13:59:13Z</time>
      </trkpt>
      <trkpt lat="47.2778" lon="2.94275">
        <ele>146</ele>
        <time>2016-05-05T13:59:15Z</time>
      </trkpt>
      <trkpt lat="47.27789" lon="2.94268">
        <ele>145.9</ele>
        <time>2016-05-05T13:59:17Z</time>
      </trkpt>
      <trkpt lat="47.27798" lon="2.94262">
        <ele>145.5</ele>
        <time>2016-05-05T13:59:19Z</time>
      </trkpt>
      <trkpt lat="47.27807" lon="2.94256">
        <ele>145.4</ele>
        <time>2016-05-05T13:59:21Z</time>
      </trkpt>
      <trkpt lat="47.27815" lon="2.9425">
        <ele>145.5</ele>
        <time>2016-05-05T13:59:23Z</time>
      </trkpt>
      <trkpt lat="47.27827" lon="2.9424">
        <ele>145.7</ele>
        <time>2016-05-05T13:59:26Z</time>
      </trkpt>
      <trkpt lat="47.27838" lon="2.94231">
        <ele>145.6</ele>
        <time>2016-05-05T13:59:29Z</time>
      </trkpt>
      <trkpt lat="47.27846" lon="2.94225">
        <ele>145.7</ele>
        <time>2016-05-05T13:59:31Z</time>
      </trkpt>
      <trkpt lat="47.27854" lon="2.94218">
        <ele>145.4</ele>
        <time>2016-05-05T13:59:33Z</time>
      </trkpt>
      <trkpt lat="47.27862" lon="2.94212">
        <ele>145.4</ele>
        <time>2016-05-05T13:59:35Z</time>
      </trkpt>
      <trkpt lat="47.2787" lon="2.94205">
        <ele>145.4</ele>
        <time>2016-05-05T13:59:37Z</time>
      </trkpt>
      <trkpt lat="47.27879" lon="2.94198">
        <ele>145.5</ele>
        <time>2016-05-05T13:59:39Z</time>
      </trkpt>
      <trkpt lat="47.27887" lon="2.94191">
        <ele>145.5</ele>
        <time>2016-05-05T13:59:41Z</time>
      </trkpt>
      <trkpt lat="47.27896" lon="2.94185">
        <ele>145.5</ele>
        <time>2016-05-05T13:59:43Z</time>
      </trkpt>
      <trkpt lat="47.27904" lon="2.94178">
        <ele>145.5</ele>
        <time>2016-05-05T13:59:45Z</time>
      </trkpt>
      <trkpt lat="47.27912" lon="2.94171">
        <ele>145.5</ele>
        <time>2016-05-05T13:59:47Z</time>
      </trkpt>
      <trkpt lat="47.27921" lon="2.94164">
        <ele>145.4</ele>
        <time>2016-05-05T13:59:49Z</time>
      </trkpt>
      <trkpt lat="47.27929" lon="2.94156">
        <ele>145.5</ele>
        <time>2016-05-05T13:59:51Z</time>
      </trkpt>
      <trkpt lat="47.27937" lon="2.94148">
        <ele>145.5</ele>
        <time>2016-05-05T13:59:53Z</time>
      </trkpt>
      <trkpt lat="47.27946" lon="2.94141">
        <ele>145.4</ele>
        <time>2016-05-05T13:59:55Z</time>
      </trkpt>
      <trkpt lat="47.27954" lon="2.94134">
        <ele>145.5</ele>
        <time>2016-05-05T13:59:57Z</time>
      </trkpt>
      <trkpt lat="47.27962" lon="2.94128">
        <ele>145.2</ele>
        <time>2016-05-05T13:59:59Z</time>
      </trkpt>
      <trkpt lat="47.27971" lon="2.94122">
        <ele>145.2</ele>
        <time>2016-05-05T14:00:01Z</time>
      </trkpt>
      <trkpt lat="47.27979" lon="2.94115">
        <ele>145.3</ele>
        <time>2016-05-05T14:00:03Z</time>
      </trkpt>
      <trkpt lat="47.27988" lon="2.94109">
        <ele>145.4</ele>
        <time>2016-05-05T14:00:05Z</time>
      </trkpt>
      <trkpt lat="47.27996" lon="2.94102">
        <ele>145.2</ele>
        <time>2016-05-05T14:00:07Z</time>
      </trkpt>
      <trkpt lat="47.28006" lon="2.94096">
        <ele>144.9</ele>
        <time>2016-05-05T14:00:09Z</time>
      </trkpt>
      <trkpt lat="47.28015" lon="2.9409">
        <ele>144.9</ele>
        <time>2016-05-05T14:00:11Z</time>
      </trkpt>
      <trkpt lat="47.28025" lon="2.94087">
        <ele>145</ele>
        <time>2016-05-05T14:00:13Z</time>
      </trkpt>
      <trkpt lat="47.28034" lon="2.94082">
        <ele>145</ele>
        <time>2016-05-05T14:00:15Z</time>
      </trkpt>
      <trkpt lat="47.28043" lon="2.94078">
        <ele>145.3</ele>
        <time>2016-05-05T14:00:17Z</time>
      </trkpt>
      <trkpt lat="47.28052" lon="2.94074">
        <ele>145.4</ele>
        <time>2016-05-05T14:00:19Z</time>
      </trkpt>
      <trkpt lat="47.28061" lon="2.94069">
        <ele>145.4</ele>
        <time>2016-05-05T14:00:21Z</time>
      </trkpt>
      <trkpt lat="47.28069" lon="2.94063">
        <ele>145.3</ele>
        <time>2016-05-05T14:00:23Z</time>
      </trkpt>
      <trkpt lat="47.28077" lon="2.94055">
        <ele>145.3</ele>
        <time>2016-05-05T14:00:25Z</time>
      </trkpt>
      <trkpt lat="47.28085" lon="2.94048">
        <ele>145.3</ele>
        <time>2016-05-05T14:00:27Z</time>
      </trkpt>
      <trkpt lat="47.28093" lon="2.94041">
        <ele>145.5</ele>
        <time>2016-05-05T14:00:29Z</time>
      </trkpt>
      <trkpt lat="47.28102" lon="2.94034">
        <ele>145.6</ele>
        <time>2016-05-05T14:00:31Z</time>
      </trkpt>
      <trkpt lat="47.2811" lon="2.94026">
        <ele>145.6</ele>
        <time>2016-05-05T14:00:33Z</time>
      </trkpt>
      <trkpt lat="47.28118" lon="2.94019">
        <ele>145.3</ele>
        <time>2016-05-05T14:00:35Z</time>
      </trkpt>
      <trkpt lat="47.28126" lon="2.94012">
        <ele>145.3</ele>
        <time>2016-05-05T14:00:37Z</time>
      </trkpt>
      <trkpt lat="47.28134" lon="2.94006">
        <ele>145.4</ele>
        <time>2016-05-05T14:00:39Z</time>
      </trkpt>
      <trkpt lat="47.28142" lon="2.94">
        <ele>145.4</ele>
        <time>2016-05-05T14:00:41Z</time>
      </trkpt>
      <trkpt lat="47.28154" lon="2.93992">
        <ele>145.2</ele>
        <time>2016-05-05T14:00:44Z</time>
      </trkpt>
      <trkpt lat="47.28165" lon="2.93987">
        <ele>145.1</ele>
        <time>2016-05-05T14:00:47Z</time>
      </trkpt>
      <trkpt lat="47.28175" lon="2.93982">
        <ele>145</ele>
        <time>2016-05-05T14:00:50Z</time>
      </trkpt>
      <trkpt lat="47.28184" lon="2.93978">
        <ele>144.8</ele>
        <time>2016-05-05T14:00:54Z</time>
      </trkpt>
      <trkpt lat="47.28193" lon="2.93973">
        <ele>145.5</ele>
        <time>2016-05-05T14:02:48Z</time>
      </trkpt>
      <trkpt lat="47.28202" lon="2.93967">
        <ele>145.5</ele>
        <time>2016-05-05T14:02:52Z</time>
      </trkpt>
      <trkpt lat="47.28211" lon="2.93963">
        <ele>145.3</ele>
        <time>2016-05-05T14:02:56Z</time>
      </trkpt>
      <trkpt lat="47.28222" lon="2.93957">
        <ele>145.3</ele>
        <time>2016-05-05T14:03:00Z</time>
      </trkpt>
      <trkpt lat="47.28233" lon="2.9395">
        <ele>145.5</ele>
        <time>2016-05-05T14:03:04Z</time>
      </trkpt>
      <trkpt lat="47.28242" lon="2.93943">
        <ele>145.3</ele>
        <time>2016-05-05T14:03:07Z</time>
      </trkpt>
      <trkpt lat="47.28252" lon="2.93938">
        <ele>145.1</ele>
        <time>2016-05-05T14:03:10Z</time>
      </trkpt>
      <trkpt lat="47.28261" lon="2.93932">
        <ele>145.2</ele>
        <time>2016-05-05T14:03:13Z</time>
      </trkpt>
      <trkpt lat="47.28272" lon="2.93927">
        <ele>145.2</ele>
        <time>2016-05-05T14:03:16Z</time>
      </trkpt>
      <trkpt lat="47.28282" lon="2.9392">
        <ele>145.2</ele>
        <time>2016-05-05T14:03:19Z</time>
      </trkpt>
      <trkpt lat="47.28292" lon="2.93913">
        <ele>145.1</ele>
        <time>2016-05-05T14:03:22Z</time>
      </trkpt>
      <trkpt lat="47.28301" lon="2.93906">
        <ele>145.1</ele>
        <time>2016-05-05T14:03:25Z</time>
      </trkpt>
      <trkpt lat="47.28312" lon="2.93898">
        <ele>145.2</ele>
        <time>2016-05-05T14:03:28Z</time>
      </trkpt>
      <trkpt lat="47.28322" lon="2.9389">
        <ele>145.2</ele>
        <time>2016-05-05T14:03:31Z</time>
      </trkpt>
      <trkpt lat="47.28332" lon="2.93883">
        <ele>145.1</ele>
        <time>2016-05-05T14:03:34Z</time>
      </trkpt>
      <trkpt lat="47.28342" lon="2.93875">
        <ele>145</ele>
        <time>2016-05-05T14:03:37Z</time>
      </trkpt>
      <trkpt lat="47.28353" lon="2.93868">
        <ele>145.1</ele>
        <time>2016-05-05T14:03:40Z</time>
      </trkpt>
      <trkpt lat="47.28363" lon="2.9386">
        <ele>144.9</ele>
        <time>2016-05-05T14:03:43Z</time>
      </trkpt>
      <trkpt lat="47.28375" lon="2.93854">
        <ele>144.7</ele>
        <time>2016-05-05T14:03:46Z</time>
      </trkpt>
      <trkpt lat="47.28387" lon="2.93849">
        <ele>144.7</ele>
        <time>2016-05-05T14:03:49Z</time>
      </trkpt>
      <trkpt lat="47.28398" lon="2.93844">
        <ele>144.8</ele>
        <time>2016-05-05T14:03:52Z</time>
      </trkpt>
      <trkpt lat="47.28409" lon="2.93837">
        <ele>144.6</ele>
        <time>2016-05-05T14:03:55Z</time>
      </trkpt>
      <trkpt lat="47.28421" lon="2.9383">
        <ele>144.4</ele>
        <time>2016-05-05T14:03:58Z</time>
      </trkpt>
      <trkpt lat="47.28433" lon="2.93822">
        <ele>144.7</ele>
        <time>2016-05-05T14:04:01Z</time>
      </trkpt>
      <trkpt lat="47.28444" lon="2.93813">
        <ele>144.9</ele>
        <time>2016-05-05T14:04:04Z</time>
      </trkpt>
      <trkpt lat="47.28454" lon="2.93802">
        <ele>145.1</ele>
        <time>2016-05-05T14:04:07Z</time>
      </trkpt>
      <trkpt lat="47.28463" lon="2.93788">
        <ele>145.3</ele>
        <time>2016-05-05T14:04:10Z</time>
      </trkpt>
      <trkpt lat="47.28471" lon="2.93773">
        <ele>145.1</ele>
        <time>2016-05-05T14:04:13Z</time>
      </trkpt>
      <trkpt lat="47.28477" lon="2.93763">
        <ele>145.1</ele>
        <time>2016-05-05T14:04:15Z</time>
      </trkpt>
      <trkpt lat="47.28483" lon="2.93752">
        <ele>145.1</ele>
        <time>2016-05-05T14:04:17Z</time>
      </trkpt>
      <trkpt lat="47.28489" lon="2.93742">
        <ele>145</ele>
        <time>2016-05-05T14:04:19Z</time>
      </trkpt>
      <trkpt lat="47.28496" lon="2.93731">
        <ele>144.8</ele>
        <time>2016-05-05T14:04:21Z</time>
      </trkpt>
      <trkpt lat="47.28502" lon="2.93721">
        <ele>144.8</ele>
        <time>2016-05-05T14:04:23Z</time>
      </trkpt>
      <trkpt lat="47.28508" lon="2.93711">
        <ele>144.7</ele>
        <time>2016-05-05T14:04:25Z</time>
      </trkpt>
      <trkpt lat="47.28514" lon="2.93701">
        <ele>144.9</ele>
        <time>2016-05-05T14:04:27Z</time>
      </trkpt>
      <trkpt lat="47.28522" lon="2.93686">
        <ele>144.9</ele>
        <time>2016-05-05T14:04:30Z</time>
      </trkpt>
      <trkpt lat="47.28531" lon="2.93671">
        <ele>144.7</ele>
        <time>2016-05-05T14:04:33Z</time>
      </trkpt>
      <trkpt lat="47.2854" lon="2.93656">
        <ele>144.8</ele>
        <time>2016-05-05T14:04:36Z</time>
      </trkpt>
      <trkpt lat="47.28547" lon="2.93646">
        <ele>144.8</ele>
        <time>2016-05-05T14:04:38Z</time>
      </trkpt>
      <trkpt lat="47.28556" lon="2.93632">
        <ele>144.9</ele>
        <time>2016-05-05T14:04:41Z</time>
      </trkpt>
      <trkpt lat="47.28563" lon="2.93623">
        <ele>145</ele>
        <time>2016-05-05T14:04:43Z</time>
      </trkpt>
      <trkpt lat="47.2857" lon="2.93615">
        <ele>145</ele>
        <time>2016-05-05T14:04:45Z</time>
      </trkpt>
      <trkpt lat="47.2858" lon="2.93603">
        <ele>144.9</ele>
        <time>2016-05-05T14:04:48Z</time>
      </trkpt>
      <trkpt lat="47.2859" lon="2.93593">
        <ele>144.6</ele>
        <time>2016-05-05T14:04:51Z</time>
      </trkpt>
      <trkpt lat="47.28601" lon="2.93583">
        <ele>144.8</ele>
        <time>2016-05-05T14:04:54Z</time>
      </trkpt>
      <trkpt lat="47.2861" lon="2.93572">
        <ele>144.8</ele>
        <time>2016-05-05T14:04:57Z</time>
      </trkpt>
      <trkpt lat="47.2862" lon="2.93562">
        <ele>144.6</ele>
        <time>2016-05-05T14:05:00Z</time>
      </trkpt>
      <trkpt lat="47.28631" lon="2.93552">
        <ele>144.9</ele>
        <time>2016-05-05T14:05:03Z</time>
      </trkpt>
      <trkpt lat="47.28641" lon="2.93542">
        <ele>145</ele>
        <time>2016-05-05T14:05:06Z</time>
      </trkpt>
      <trkpt lat="47.28651" lon="2.93532">
        <ele>145.1</ele>
        <time>2016-05-05T14:05:09Z</time>
      </trkpt>
      <trkpt lat="47.28661" lon="2.93521">
        <ele>145</ele>
        <time>2016-05-05T14:05:12Z</time>
      </trkpt>
      <trkpt lat="47.28672" lon="2.93511">
        <ele>144.6</ele>
        <time>2016-05-05T14:05:15Z</time>
      </trkpt>
      <trkpt lat="47.28683" lon="2.93501">
        <ele>144.6</ele>
        <time>2016-05-05T14:05:18Z</time>
      </trkpt>
      <trkpt lat="47.28694" lon="2.93491">
        <ele>144.6</ele>
        <time>2016-05-05T14:05:21Z</time>
      </trkpt>
      <trkpt lat="47.28705" lon="2.93481">
        <ele>144.7</ele>
        <time>2016-05-05T14:05:24Z</time>
      </trkpt>
      <trkpt lat="47.28715" lon="2.93472">
        <ele>144.7</ele>
        <time>2016-05-05T14:05:27Z</time>
      </trkpt>
      <trkpt lat="47.28724" lon="2.93461">
        <ele>144.8</ele>
        <time>2016-05-05T14:05:30Z</time>
      </trkpt>
      <trkpt lat="47.28734" lon="2.93451">
        <ele>144.9</ele>
        <time>2016-05-05T14:05:33Z</time>
      </trkpt>
      <trkpt lat="47.28744" lon="2.93439">
        <ele>144.8</ele>
        <time>2016-05-05T14:05:36Z</time>
      </trkpt>
      <trkpt lat="47.28754" lon="2.93426">
        <ele>144.7</ele>
        <time>2016-05-05T14:05:39Z</time>
      </trkpt>
      <trkpt lat="47.28764" lon="2.93413">
        <ele>144.5</ele>
        <time>2016-05-05T14:05:42Z</time>
      </trkpt>
      <trkpt lat="47.28774" lon="2.93401">
        <ele>144.6</ele>
        <time>2016-05-05T14:05:45Z</time>
      </trkpt>
      <trkpt lat="47.28785" lon="2.93388">
        <ele>144.5</ele>
        <time>2016-05-05T14:05:48Z</time>
      </trkpt>
      <trkpt lat="47.28792" lon="2.9338">
        <ele>144.4</ele>
        <time>2016-05-05T14:05:50Z</time>
      </trkpt>
      <trkpt lat="47.28799" lon="2.93371">
        <ele>144.3</ele>
        <time>2016-05-05T14:05:52Z</time>
      </trkpt>
      <trkpt lat="47.28806" lon="2.93361">
        <ele>144.3</ele>
        <time>2016-05-05T14:05:54Z</time>
      </trkpt>
      <trkpt lat="47.28813" lon="2.93351">
        <ele>144.5</ele>
        <time>2016-05-05T14:05:56Z</time>
      </trkpt>
      <trkpt lat="47.28819" lon="2.93341">
        <ele>144.3</ele>
        <time>2016-05-05T14:05:58Z</time>
      </trkpt>
      <trkpt lat="47.28826" lon="2.9333">
        <ele>144.4</ele>
        <time>2016-05-05T14:06:00Z</time>
      </trkpt>
      <trkpt lat="47.28832" lon="2.93321">
        <ele>144.6</ele>
        <time>2016-05-05T14:06:02Z</time>
      </trkpt>
      <trkpt lat="47.28838" lon="2.93311">
        <ele>144.8</ele>
        <time>2016-05-05T14:06:04Z</time>
      </trkpt>
      <trkpt lat="47.28844" lon="2.93301">
        <ele>144.8</ele>
        <time>2016-05-05T14:06:06Z</time>
      </trkpt>
      <trkpt lat="47.2885" lon="2.93291">
        <ele>144.8</ele>
        <time>2016-05-05T14:06:08Z</time>
      </trkpt>
      <trkpt lat="47.28859" lon="2.93276">
        <ele>145.1</ele>
        <time>2016-05-05T14:06:11Z</time>
      </trkpt>
      <trkpt lat="47.28864" lon="2.93265">
        <ele>145</ele>
        <time>2016-05-05T14:06:13Z</time>
      </trkpt>
      <trkpt lat="47.28869" lon="2.93254">
        <ele>144.9</ele>
        <time>2016-05-05T14:06:15Z</time>
      </trkpt>
      <trkpt lat="47.28874" lon="2.93242">
        <ele>144.9</ele>
        <time>2016-05-05T14:06:17Z</time>
      </trkpt>
      <trkpt lat="47.28879" lon="2.93231">
        <ele>144.8</ele>
        <time>2016-05-05T14:06:19Z</time>
      </trkpt>
      <trkpt lat="47.28884" lon="2.93219">
        <ele>144.8</ele>
        <time>2016-05-05T14:06:21Z</time>
      </trkpt>
      <trkpt lat="47.28889" lon="2.93207">
        <ele>144.9</ele>
        <time>2016-05-05T14:06:23Z</time>
      </trkpt>
      <trkpt lat="47.28894" lon="2.93196">
        <ele>144.9</ele>
        <time>2016-05-05T14:06:25Z</time>
      </trkpt>
      <trkpt lat="47.28899" lon="2.93185">
        <ele>144.9</ele>
        <time>2016-05-05T14:06:27Z</time>
      </trkpt>
      <trkpt lat="47.28906" lon="2.93174">
        <ele>144.8</ele>
        <time>2016-05-05T14:06:29Z</time>
      </trkpt>
      <trkpt lat="47.28912" lon="2.93163">
        <ele>144.7</ele>
        <time>2016-05-05T14:06:31Z</time>
      </trkpt>
      <trkpt lat="47.28919" lon="2.93152">
        <ele>144.9</ele>
        <time>2016-05-05T14:06:33Z</time>
      </trkpt>
      <trkpt lat="47.28925" lon="2.93142">
        <ele>144.9</ele>
        <time>2016-05-05T14:06:35Z</time>
      </trkpt>
      <trkpt lat="47.28932" lon="2.93132">
        <ele>144.8</ele>
        <time>2016-05-05T14:06:37Z</time>
      </trkpt>
      <trkpt lat="47.28939" lon="2.93121">
        <ele>144.8</ele>
        <time>2016-05-05T14:06:39Z</time>
      </trkpt>
      <trkpt lat="47.28945" lon="2.93111">
        <ele>144.7</ele>
        <time>2016-05-05T14:06:41Z</time>
      </trkpt>
      <trkpt lat="47.28952" lon="2.93102">
        <ele>144.8</ele>
        <time>2016-05-05T14:06:43Z</time>
      </trkpt>
      <trkpt lat="47.28959" lon="2.93092">
        <ele>144.9</ele>
        <time>2016-05-05T14:06:45Z</time>
      </trkpt>
      <trkpt lat="47.28965" lon="2.93082">
        <ele>145</ele>
        <time>2016-05-05T14:06:47Z</time>
      </trkpt>
      <trkpt lat="47.28972" lon="2.93073">
        <ele>144.9</ele>
        <time>2016-05-05T14:06:49Z</time>
      </trkpt>
      <trkpt lat="47.28979" lon="2.93063">
        <ele>144.9</ele>
        <time>2016-05-05T14:06:51Z</time>
      </trkpt>
      <trkpt lat="47.28985" lon="2.93054">
        <ele>145</ele>
        <time>2016-05-05T14:06:53Z</time>
      </trkpt>
      <trkpt lat="47.28994" lon="2.93039">
        <ele>144.9</ele>
        <time>2016-05-05T14:06:56Z</time>
      </trkpt>
      <trkpt lat="47.29" lon="2.93029">
        <ele>144.8</ele>
        <time>2016-05-05T14:06:58Z</time>
      </trkpt>
      <trkpt lat="47.29006" lon="2.93019">
        <ele>144.7</ele>
        <time>2016-05-05T14:07:00Z</time>
      </trkpt>
      <trkpt lat="47.29014" lon="2.9301">
        <ele>144.6</ele>
        <time>2016-05-05T14:07:02Z</time>
      </trkpt>
      <trkpt lat="47.29021" lon="2.93003">
        <ele>144.6</ele>
        <time>2016-05-05T14:07:04Z</time>
      </trkpt>
      <trkpt lat="47.29032" lon="2.92993">
        <ele>144.6</ele>
        <time>2016-05-05T14:07:07Z</time>
      </trkpt>
      <trkpt lat="47.29043" lon="2.92984">
        <ele>144.6</ele>
        <time>2016-05-05T14:07:10Z</time>
      </trkpt>
      <trkpt lat="47.29053" lon="2.92974">
        <ele>144.7</ele>
        <time>2016-05-05T14:07:13Z</time>
      </trkpt>
      <trkpt lat="47.29064" lon="2.92966">
        <ele>144.8</ele>
        <time>2016-05-05T14:07:16Z</time>
      </trkpt>
      <trkpt lat="47.29075" lon="2.92959">
        <ele>144.8</ele>
        <time>2016-05-05T14:07:19Z</time>
      </trkpt>
      <trkpt lat="47.29086" lon="2.9295">
        <ele>144.6</ele>
        <time>2016-05-05T14:07:22Z</time>
      </trkpt>
      <trkpt lat="47.29097" lon="2.9294">
        <ele>144.6</ele>
        <time>2016-05-05T14:07:25Z</time>
      </trkpt>
      <trkpt lat="47.29109" lon="2.92931">
        <ele>144.6</ele>
        <time>2016-05-05T14:07:28Z</time>
      </trkpt>
      <trkpt lat="47.2912" lon="2.92922">
        <ele>144.7</ele>
        <time>2016-05-05T14:07:31Z</time>
      </trkpt>
      <trkpt lat="47.29131" lon="2.92913">
        <ele>144.7</ele>
        <time>2016-05-05T14:07:34Z</time>
      </trkpt>
      <trkpt lat="47.29143" lon="2.92904">
        <ele>144.7</ele>
        <time>2016-05-05T14:07:37Z</time>
      </trkpt>
      <trkpt lat="47.29154" lon="2.92895">
        <ele>144.5</ele>
        <time>2016-05-05T14:07:40Z</time>
      </trkpt>
      <trkpt lat="47.29163" lon="2.92888">
        <ele>144.6</ele>
        <time>2016-05-05T14:07:42Z</time>
      </trkpt>
      <trkpt lat="47.29174" lon="2.92879">
        <ele>144.6</ele>
        <time>2016-05-05T14:07:45Z</time>
      </trkpt>
      <trkpt lat="47.29182" lon="2.92872">
        <ele>144.6</ele>
        <time>2016-05-05T14:07:47Z</time>
      </trkpt>
      <trkpt lat="47.2919" lon="2.92865">
        <ele>144.5</ele>
        <time>2016-05-05T14:07:49Z</time>
      </trkpt>
      <trkpt lat="47.29198" lon="2.92856">
        <ele>144.6</ele>
        <time>2016-05-05T14:07:51Z</time>
      </trkpt>
      <trkpt lat="47.29205" lon="2.92848">
        <ele>144.6</ele>
        <time>2016-05-05T14:07:53Z</time>
      </trkpt>
      <trkpt lat="47.29213" lon="2.9284">
        <ele>144.5</ele>
        <time>2016-05-05T14:07:55Z</time>
      </trkpt>
      <trkpt lat="47.2922" lon="2.92831">
        <ele>144.5</ele>
        <time>2016-05-05T14:07:57Z</time>
      </trkpt>
      <trkpt lat="47.29227" lon="2.92821">
        <ele>144.5</ele>
        <time>2016-05-05T14:07:59Z</time>
      </trkpt>
      <trkpt lat="47.29235" lon="2.92812">
        <ele>144.4</ele>
        <time>2016-05-05T14:08:01Z</time>
      </trkpt>
      <trkpt lat="47.29242" lon="2.92803">
        <ele>144.4</ele>
        <time>2016-05-05T14:08:03Z</time>
      </trkpt>
      <trkpt lat="47.29249" lon="2.92794">
        <ele>144.4</ele>
        <time>2016-05-05T14:08:05Z</time>
      </trkpt>
      <trkpt lat="47.29256" lon="2.92784">
        <ele>144.5</ele>
        <time>2016-05-05T14:08:07Z</time>
      </trkpt>
      <trkpt lat="47.29263" lon="2.92775">
        <ele>144.4</ele>
        <time>2016-05-05T14:08:09Z</time>
      </trkpt>
      <trkpt lat="47.2927" lon="2.92765">
        <ele>144.3</ele>
        <time>2016-05-05T14:08:11Z</time>
      </trkpt>
      <trkpt lat="47.29277" lon="2.92756">
        <ele>144.2</ele>
        <time>2016-05-05T14:08:13Z</time>
      </trkpt>
      <trkpt lat="47.29285" lon="2.92746">
        <ele>144.1</ele>
        <time>2016-05-05T14:08:15Z</time>
      </trkpt>
      <trkpt lat="47.29292" lon="2.92737">
        <ele>144.1</ele>
        <time>2016-05-05T14:08:17Z</time>
      </trkpt>
      <trkpt lat="47.29299" lon="2.92728">
        <ele>144.2</ele>
        <time>2016-05-05T14:08:19Z</time>
      </trkpt>
      <trkpt lat="47.29306" lon="2.92719">
        <ele>144.1</ele>
        <time>2016-05-05T14:08:21Z</time>
      </trkpt>
      <trkpt lat="47.29314" lon="2.9271">
        <ele>144</ele>
        <time>2016-05-05T14:08:23Z</time>
      </trkpt>
      <trkpt lat="47.29321" lon="2.927">
        <ele>144.1</ele>
        <time>2016-05-05T14:08:25Z</time>
      </trkpt>
      <trkpt lat="47.29328" lon="2.92691">
        <ele>144.2</ele>
        <time>2016-05-05T14:08:27Z</time>
      </trkpt>
      <trkpt lat="47.29336" lon="2.92682">
        <ele>144.3</ele>
        <time>2016-05-05T14:08:29Z</time>
      </trkpt>
      <trkpt lat="47.29343" lon="2.92672">
        <ele>144.3</ele>
        <time>2016-05-05T14:08:31Z</time>
      </trkpt>
      <trkpt lat="47.29351" lon="2.92663">
        <ele>144.4</ele>
        <time>2016-05-05T14:08:33Z</time>
      </trkpt>
      <trkpt lat="47.29358" lon="2.92654">
        <ele>144.4</ele>
        <time>2016-05-05T14:08:35Z</time>
      </trkpt>
      <trkpt lat="47.29366" lon="2.92645">
        <ele>144.3</ele>
        <time>2016-05-05T14:08:37Z</time>
      </trkpt>
      <trkpt lat="47.29373" lon="2.92636">
        <ele>144.3</ele>
        <time>2016-05-05T14:08:39Z</time>
      </trkpt>
      <trkpt lat="47.2938" lon="2.92627">
        <ele>144.3</ele>
        <time>2016-05-05T14:08:41Z</time>
      </trkpt>
      <trkpt lat="47.29388" lon="2.92618">
        <ele>144.2</ele>
        <time>2016-05-05T14:08:43Z</time>
      </trkpt>
      <trkpt lat="47.29395" lon="2.92609">
        <ele>144.2</ele>
        <time>2016-05-05T14:08:45Z</time>
      </trkpt>
      <trkpt lat="47.29403" lon="2.926">
        <ele>144.1</ele>
        <time>2016-05-05T14:08:47Z</time>
      </trkpt>
      <trkpt lat="47.2941" lon="2.92592">
        <ele>144</ele>
        <time>2016-05-05T14:08:49Z</time>
      </trkpt>
      <trkpt lat="47.29418" lon="2.92584">
        <ele>144</ele>
        <time>2016-05-05T14:08:51Z</time>
      </trkpt>
      <trkpt lat="47.29425" lon="2.92576">
        <ele>144</ele>
        <time>2016-05-05T14:08:53Z</time>
      </trkpt>
      <trkpt lat="47.29433" lon="2.92568">
        <ele>144</ele>
        <time>2016-05-05T14:08:55Z</time>
      </trkpt>
      <trkpt lat="47.29441" lon="2.92559">
        <ele>144</ele>
        <time>2016-05-05T14:08:57Z</time>
      </trkpt>
      <trkpt lat="47.29449" lon="2.92551">
        <ele>144.1</ele>
        <time>2016-05-05T14:08:59Z</time>
      </trkpt>
      <trkpt lat="47.29457" lon="2.92544">
        <ele>144.2</ele>
        <time>2016-05-05T14:09:01Z</time>
      </trkpt>
      <trkpt lat="47.29466" lon="2.92536">
        <ele>144.1</ele>
        <time>2016-05-05T14:09:03Z</time>
      </trkpt>
      <trkpt lat="47.29474" lon="2.92529">
        <ele>144.1</ele>
        <time>2016-05-05T14:09:05Z</time>
      </trkpt>
      <trkpt lat="47.29483" lon="2.92522">
        <ele>144.2</ele>
        <time>2016-05-05T14:09:07Z</time>
      </trkpt>
      <trkpt lat="47.29491" lon="2.92515">
        <ele>144.4</ele>
        <time>2016-05-05T14:09:09Z</time>
      </trkpt>
      <trkpt lat="47.29499" lon="2.92507">
        <ele>144.4</ele>
        <time>2016-05-05T14:09:11Z</time>
      </trkpt>
      <trkpt lat="47.29507" lon="2.92498">
        <ele>144.4</ele>
        <time>2016-05-05T14:09:13Z</time>
      </trkpt>
      <trkpt lat="47.29514" lon="2.92488">
        <ele>144.4</ele>
        <time>2016-05-05T14:09:15Z</time>
      </trkpt>
      <trkpt lat="47.29521" lon="2.92478">
        <ele>144.4</ele>
        <time>2016-05-05T14:09:17Z</time>
      </trkpt>
      <trkpt lat="47.29528" lon="2.92468">
        <ele>144.4</ele>
        <time>2016-05-05T14:09:19Z</time>
      </trkpt>
      <trkpt lat="47.29535" lon="2.92458">
        <ele>144.3</ele>
        <time>2016-05-05T14:09:21Z</time>
      </trkpt>
      <trkpt lat="47.29543" lon="2.92449">
        <ele>144.3</ele>
        <time>2016-05-05T14:09:23Z</time>
      </trkpt>
      <trkpt lat="47.2955" lon="2.92439">
        <ele>144.2</ele>
        <time>2016-05-05T14:09:25Z</time>
      </trkpt>
      <trkpt lat="47.29556" lon="2.92429">
        <ele>144.2</ele>
        <time>2016-05-05T14:09:27Z</time>
      </trkpt>
      <trkpt lat="47.29563" lon="2.92419">
        <ele>144.2</ele>
        <time>2016-05-05T14:09:29Z</time>
      </trkpt>
      <trkpt lat="47.2957" lon="2.9241">
        <ele>144.2</ele>
        <time>2016-05-05T14:09:31Z</time>
      </trkpt>
      <trkpt lat="47.29577" lon="2.92401">
        <ele>144.3</ele>
        <time>2016-05-05T14:09:33Z</time>
      </trkpt>
      <trkpt lat="47.29584" lon="2.92391">
        <ele>144.5</ele>
        <time>2016-05-05T14:09:35Z</time>
      </trkpt>
      <trkpt lat="47.29591" lon="2.92381">
        <ele>144.5</ele>
        <time>2016-05-05T14:09:37Z</time>
      </trkpt>
      <trkpt lat="47.29598" lon="2.92372">
        <ele>144.3</ele>
        <time>2016-05-05T14:09:39Z</time>
      </trkpt>
      <trkpt lat="47.29608" lon="2.92359">
        <ele>144.3</ele>
        <time>2016-05-05T14:09:42Z</time>
      </trkpt>
      <trkpt lat="47.29615" lon="2.9235">
        <ele>144.3</ele>
        <time>2016-05-05T14:09:44Z</time>
      </trkpt>
      <trkpt lat="47.29623" lon="2.92341">
        <ele>144.3</ele>
        <time>2016-05-05T14:09:46Z</time>
      </trkpt>
      <trkpt lat="47.2963" lon="2.92332">
        <ele>144.3</ele>
        <time>2016-05-05T14:09:48Z</time>
      </trkpt>
      <trkpt lat="47.29638" lon="2.92324">
        <ele>144.3</ele>
        <time>2016-05-05T14:09:50Z</time>
      </trkpt>
      <trkpt lat="47.29646" lon="2.92315">
        <ele>144.3</ele>
        <time>2016-05-05T14:09:52Z</time>
      </trkpt>
      <trkpt lat="47.29654" lon="2.92306">
        <ele>144.3</ele>
        <time>2016-05-05T14:09:54Z</time>
      </trkpt>
      <trkpt lat="47.29661" lon="2.92297">
        <ele>144.1</ele>
        <time>2016-05-05T14:09:56Z</time>
      </trkpt>
      <trkpt lat="47.29669" lon="2.92289">
        <ele>144.2</ele>
        <time>2016-05-05T14:09:58Z</time>
      </trkpt>
      <trkpt lat="47.29677" lon="2.92279">
        <ele>144.1</ele>
        <time>2016-05-05T14:10:00Z</time>
      </trkpt>
      <trkpt lat="47.29685" lon="2.9227">
        <ele>144.1</ele>
        <time>2016-05-05T14:10:02Z</time>
      </trkpt>
      <trkpt lat="47.29692" lon="2.92261">
        <ele>144.1</ele>
        <time>2016-05-05T14:10:04Z</time>
      </trkpt>
      <trkpt lat="47.29699" lon="2.9225">
        <ele>144.1</ele>
        <time>2016-05-05T14:10:06Z</time>
      </trkpt>
      <trkpt lat="47.29707" lon="2.9224">
        <ele>144.2</ele>
        <time>2016-05-05T14:10:08Z</time>
      </trkpt>
      <trkpt lat="47.29713" lon="2.92229">
        <ele>144.2</ele>
        <time>2016-05-05T14:10:10Z</time>
      </trkpt>
      <trkpt lat="47.29718" lon="2.92217">
        <ele>144.2</ele>
        <time>2016-05-05T14:10:12Z</time>
      </trkpt>
      <trkpt lat="47.29724" lon="2.92206">
        <ele>144.2</ele>
        <time>2016-05-05T14:10:14Z</time>
      </trkpt>
      <trkpt lat="47.29729" lon="2.92194">
        <ele>144.2</ele>
        <time>2016-05-05T14:10:16Z</time>
      </trkpt>
      <trkpt lat="47.29735" lon="2.92183">
        <ele>144.2</ele>
        <time>2016-05-05T14:10:18Z</time>
      </trkpt>
      <trkpt lat="47.29742" lon="2.92173">
        <ele>144.1</ele>
        <time>2016-05-05T14:10:20Z</time>
      </trkpt>
      <trkpt lat="47.29748" lon="2.92163">
        <ele>144.2</ele>
        <time>2016-05-05T14:10:22Z</time>
      </trkpt>
      <trkpt lat="47.29756" lon="2.92149">
        <ele>144.3</ele>
        <time>2016-05-05T14:10:25Z</time>
      </trkpt>
      <trkpt lat="47.29764" lon="2.92134">
        <ele>144.4</ele>
        <time>2016-05-05T14:10:28Z</time>
      </trkpt>
      <trkpt lat="47.29773" lon="2.92119">
        <ele>144.4</ele>
        <time>2016-05-05T14:10:31Z</time>
      </trkpt>
      <trkpt lat="47.2978" lon="2.9211">
        <ele>144.4</ele>
        <time>2016-05-05T14:10:33Z</time>
      </trkpt>
      <trkpt lat="47.2979" lon="2.92096">
        <ele>144.3</ele>
        <time>2016-05-05T14:10:36Z</time>
      </trkpt>
      <trkpt lat="47.29796" lon="2.92085">
        <ele>144.3</ele>
        <time>2016-05-05T14:10:38Z</time>
      </trkpt>
      <trkpt lat="47.29802" lon="2.92075">
        <ele>144.3</ele>
        <time>2016-05-05T14:10:40Z</time>
      </trkpt>
      <trkpt lat="47.29809" lon="2.92065">
        <ele>144.3</ele>
        <time>2016-05-05T14:10:42Z</time>
      </trkpt>
      <trkpt lat="47.29816" lon="2.92055">
        <ele>144.3</ele>
        <time>2016-05-05T14:10:44Z</time>
      </trkpt>
      <trkpt lat="47.29826" lon="2.92042">
        <ele>144.2</ele>
        <time>2016-05-05T14:10:47Z</time>
      </trkpt>
      <trkpt lat="47.29835" lon="2.92032">
        <ele>144.1</ele>
        <time>2016-05-05T14:10:50Z</time>
      </trkpt>
      <trkpt lat="47.29844" lon="2.92021">
        <ele>144.1</ele>
        <time>2016-05-05T14:10:53Z</time>
      </trkpt>
      <trkpt lat="47.29855" lon="2.92013">
        <ele>144</ele>
        <time>2016-05-05T14:10:56Z</time>
      </trkpt>
      <trkpt lat="47.29864" lon="2.92003">
        <ele>144</ele>
        <time>2016-05-05T14:10:59Z</time>
      </trkpt>
      <trkpt lat="47.29872" lon="2.91996">
        <ele>144.1</ele>
        <time>2016-05-05T14:11:01Z</time>
      </trkpt>
      <trkpt lat="47.29879" lon="2.91988">
        <ele>144.1</ele>
        <time>2016-05-05T14:11:03Z</time>
      </trkpt>
      <trkpt lat="47.29887" lon="2.91979">
        <ele>144.1</ele>
        <time>2016-05-05T14:11:05Z</time>
      </trkpt>
      <trkpt lat="47.29894" lon="2.91972">
        <ele>144.2</ele>
        <time>2016-05-05T14:11:07Z</time>
      </trkpt>
      <trkpt lat="47.29903" lon="2.91964">
        <ele>144.5</ele>
        <time>2016-05-05T14:11:09Z</time>
      </trkpt>
      <trkpt lat="47.29911" lon="2.91957">
        <ele>144.6</ele>
        <time>2016-05-05T14:11:11Z</time>
      </trkpt>
      <trkpt lat="47.2992" lon="2.91949">
        <ele>144.7</ele>
        <time>2016-05-05T14:11:13Z</time>
      </trkpt>
      <trkpt lat="47.29928" lon="2.91941">
        <ele>144.6</ele>
        <time>2016-05-05T14:11:15Z</time>
      </trkpt>
      <trkpt lat="47.29937" lon="2.9193">
        <ele>144.5</ele>
        <time>2016-05-05T14:11:17Z</time>
      </trkpt>
      <trkpt lat="47.29945" lon="2.91921">
        <ele>144.4</ele>
        <time>2016-05-05T14:11:19Z</time>
      </trkpt>
      <trkpt lat="47.29952" lon="2.91913">
        <ele>144.4</ele>
        <time>2016-05-05T14:11:21Z</time>
      </trkpt>
      <trkpt lat="47.29963" lon="2.91902">
        <ele>144.2</ele>
        <time>2016-05-05T14:11:24Z</time>
      </trkpt>
      <trkpt lat="47.29972" lon="2.91893">
        <ele>144.5</ele>
        <time>2016-05-05T14:11:27Z</time>
      </trkpt>
      <trkpt lat="47.29983" lon="2.91885">
        <ele>144.6</ele>
        <time>2016-05-05T14:11:30Z</time>
      </trkpt>
      <trkpt lat="47.29991" lon="2.91877">
        <ele>144.9</ele>
        <time>2016-05-05T14:11:32Z</time>
      </trkpt>
      <trkpt lat="47.29998" lon="2.91869">
        <ele>144.8</ele>
        <time>2016-05-05T14:11:34Z</time>
      </trkpt>
      <trkpt lat="47.30007" lon="2.91861">
        <ele>144.8</ele>
        <time>2016-05-05T14:11:36Z</time>
      </trkpt>
      <trkpt lat="47.30019" lon="2.91851">
        <ele>144.5</ele>
        <time>2016-05-05T14:11:39Z</time>
      </trkpt>
      <trkpt lat="47.30026" lon="2.91841">
        <ele>144.5</ele>
        <time>2016-05-05T14:11:41Z</time>
      </trkpt>
      <trkpt lat="47.30034" lon="2.91833">
        <ele>144.4</ele>
        <time>2016-05-05T14:11:43Z</time>
      </trkpt>
      <trkpt lat="47.30042" lon="2.91823">
        <ele>144.5</ele>
        <time>2016-05-05T14:11:45Z</time>
      </trkpt>
      <trkpt lat="47.30049" lon="2.91813">
        <ele>144.7</ele>
        <time>2016-05-05T14:11:47Z</time>
      </trkpt>
      <trkpt lat="47.30058" lon="2.91804">
        <ele>144.6</ele>
        <time>2016-05-05T14:11:49Z</time>
      </trkpt>
      <trkpt lat="47.30065" lon="2.91795">
        <ele>144.5</ele>
        <time>2016-05-05T14:11:51Z</time>
      </trkpt>
      <trkpt lat="47.30073" lon="2.91786">
        <ele>144.5</ele>
        <time>2016-05-05T14:11:53Z</time>
      </trkpt>
      <trkpt lat="47.30081" lon="2.91777">
        <ele>144.4</ele>
        <time>2016-05-05T14:11:55Z</time>
      </trkpt>
      <trkpt lat="47.3009" lon="2.91768">
        <ele>144.4</ele>
        <time>2016-05-05T14:11:57Z</time>
      </trkpt>
      <trkpt lat="47.30098" lon="2.91759">
        <ele>144.1</ele>
        <time>2016-05-05T14:11:59Z</time>
      </trkpt>
      <trkpt lat="47.30106" lon="2.91751">
        <ele>144.1</ele>
        <time>2016-05-05T14:12:01Z</time>
      </trkpt>
      <trkpt lat="47.30114" lon="2.91742">
        <ele>144</ele>
        <time>2016-05-05T14:12:03Z</time>
      </trkpt>
      <trkpt lat="47.30122" lon="2.91731">
        <ele>144</ele>
        <time>2016-05-05T14:12:05Z</time>
      </trkpt>
      <trkpt lat="47.30131" lon="2.9172">
        <ele>144</ele>
        <time>2016-05-05T14:12:07Z</time>
      </trkpt>
      <trkpt lat="47.30139" lon="2.9171">
        <ele>143.8</ele>
        <time>2016-05-05T14:12:09Z</time>
      </trkpt>
      <trkpt lat="47.30147" lon="2.91701">
        <ele>143.9</ele>
        <time>2016-05-05T14:12:11Z</time>
      </trkpt>
      <trkpt lat="47.30155" lon="2.91693">
        <ele>143.9</ele>
        <time>2016-05-05T14:12:13Z</time>
      </trkpt>
      <trkpt lat="47.30166" lon="2.91682">
        <ele>143.9</ele>
        <time>2016-05-05T14:12:16Z</time>
      </trkpt>
      <trkpt lat="47.30173" lon="2.91674">
        <ele>143.8</ele>
        <time>2016-05-05T14:12:18Z</time>
      </trkpt>
      <trkpt lat="47.3018" lon="2.91665">
        <ele>143.8</ele>
        <time>2016-05-05T14:12:20Z</time>
      </trkpt>
      <trkpt lat="47.30188" lon="2.91657">
        <ele>143.8</ele>
        <time>2016-05-05T14:12:22Z</time>
      </trkpt>
      <trkpt lat="47.30194" lon="2.91647">
        <ele>143.8</ele>
        <time>2016-05-05T14:12:24Z</time>
      </trkpt>
      <trkpt lat="47.30204" lon="2.91634">
        <ele>143.8</ele>
        <time>2016-05-05T14:12:27Z</time>
      </trkpt>
      <trkpt lat="47.30211" lon="2.91624">
        <ele>143.8</ele>
        <time>2016-05-05T14:12:29Z</time>
      </trkpt>
      <trkpt lat="47.30217" lon="2.91614">
        <ele>143.8</ele>
        <time>2016-05-05T14:12:31Z</time>
      </trkpt>
      <trkpt lat="47.30223" lon="2.91602">
        <ele>143.8</ele>
        <time>2016-05-05T14:12:33Z</time>
      </trkpt>
      <trkpt lat="47.3023" lon="2.91591">
        <ele>143.9</ele>
        <time>2016-05-05T14:12:35Z</time>
      </trkpt>
      <trkpt lat="47.30236" lon="2.91581">
        <ele>143.8</ele>
        <time>2016-05-05T14:12:37Z</time>
      </trkpt>
      <trkpt lat="47.30243" lon="2.91572">
        <ele>143.9</ele>
        <time>2016-05-05T14:12:39Z</time>
      </trkpt>
      <trkpt lat="47.3025" lon="2.91562">
        <ele>143.7</ele>
        <time>2016-05-05T14:12:41Z</time>
      </trkpt>
      <trkpt lat="47.30257" lon="2.91552">
        <ele>143.5</ele>
        <time>2016-05-05T14:12:43Z</time>
      </trkpt>
      <trkpt lat="47.30265" lon="2.9154">
        <ele>143.3</ele>
        <time>2016-05-05T14:12:45Z</time>
      </trkpt>
      <trkpt lat="47.30271" lon="2.91529">
        <ele>143.3</ele>
        <time>2016-05-05T14:12:47Z</time>
      </trkpt>
      <trkpt lat="47.30277" lon="2.91519">
        <ele>143.4</ele>
        <time>2016-05-05T14:12:49Z</time>
      </trkpt>
      <trkpt lat="47.30284" lon="2.91509">
        <ele>143.5</ele>
        <time>2016-05-05T14:12:51Z</time>
      </trkpt>
      <trkpt lat="47.30291" lon="2.91499">
        <ele>143.5</ele>
        <time>2016-05-05T14:12:53Z</time>
      </trkpt>
      <trkpt lat="47.30298" lon="2.91488">
        <ele>143.4</ele>
        <time>2016-05-05T14:12:55Z</time>
      </trkpt>
      <trkpt lat="47.30304" lon="2.91478">
        <ele>143.4</ele>
        <time>2016-05-05T14:12:57Z</time>
      </trkpt>
      <trkpt lat="47.30311" lon="2.91469">
        <ele>143.4</ele>
        <time>2016-05-05T14:12:59Z</time>
      </trkpt>
      <trkpt lat="47.30318" lon="2.91461">
        <ele>143.5</ele>
        <time>2016-05-05T14:13:01Z</time>
      </trkpt>
      <trkpt lat="47.30325" lon="2.91452">
        <ele>143.4</ele>
        <time>2016-05-05T14:13:03Z</time>
      </trkpt>
      <trkpt lat="47.30336" lon="2.91443">
        <ele>143.5</ele>
        <time>2016-05-05T14:13:06Z</time>
      </trkpt>
      <trkpt lat="47.30349" lon="2.91434">
        <ele>143.7</ele>
        <time>2016-05-05T14:13:09Z</time>
      </trkpt>
      <trkpt lat="47.30357" lon="2.91427">
        <ele>143.7</ele>
        <time>2016-05-05T14:13:11Z</time>
      </trkpt>
      <trkpt lat="47.30368" lon="2.91415">
        <ele>143.6</ele>
        <time>2016-05-05T14:13:14Z</time>
      </trkpt>
      <trkpt lat="47.30374" lon="2.91405">
        <ele>143.7</ele>
        <time>2016-05-05T14:13:16Z</time>
      </trkpt>
      <trkpt lat="47.30383" lon="2.91394">
        <ele>143.8</ele>
        <time>2016-05-05T14:13:19Z</time>
      </trkpt>
      <trkpt lat="47.30393" lon="2.91391">
        <ele>143.9</ele>
        <time>2016-05-05T14:13:22Z</time>
      </trkpt>
      <trkpt lat="47.30403" lon="2.91389">
        <ele>143.9</ele>
        <time>2016-05-05T14:13:25Z</time>
      </trkpt>
      <trkpt lat="47.30412" lon="2.91386">
        <ele>144</ele>
        <time>2016-05-05T14:13:31Z</time>
      </trkpt>
      <trkpt lat="47.3042" lon="2.91395">
        <ele>143.5</ele>
        <time>2016-05-05T14:14:05Z</time>
      </trkpt>
      <trkpt lat="47.30429" lon="2.91401">
        <ele>143.3</ele>
        <time>2016-05-05T14:14:08Z</time>
      </trkpt>
      <trkpt lat="47.30438" lon="2.91402">
        <ele>142.8</ele>
        <time>2016-05-05T14:14:12Z</time>
      </trkpt>
      <trkpt lat="47.3045" lon="2.91403">
        <ele>142.4</ele>
        <time>2016-05-05T14:14:17Z</time>
      </trkpt>
      <trkpt lat="47.30459" lon="2.91401">
        <ele>141.8</ele>
        <time>2016-05-05T14:14:45Z</time>
      </trkpt>
      <trkpt lat="47.3045" lon="2.91404">
        <ele>141.5</ele>
        <time>2016-05-05T14:16:42Z</time>
      </trkpt>
      <trkpt lat="47.3044" lon="2.91405">
        <ele>142</ele>
        <time>2016-05-05T14:16:48Z</time>
      </trkpt>
      <trkpt lat="47.30431" lon="2.91402">
        <ele>142.2</ele>
        <time>2016-05-05T14:16:53Z</time>
      </trkpt>
      <trkpt lat="47.30423" lon="2.91396">
        <ele>142.4</ele>
        <time>2016-05-05T14:16:58Z</time>
      </trkpt>
      <trkpt lat="47.3042" lon="2.91382">
        <ele>143.5</ele>
        <time>2016-05-05T14:17:05Z</time>
      </trkpt>
      <trkpt lat="47.30428" lon="2.91375">
        <ele>143.7</ele>
        <time>2016-05-05T14:17:10Z</time>
      </trkpt>
      <trkpt lat="47.30436" lon="2.91365">
        <ele>143.8</ele>
        <time>2016-05-05T14:17:15Z</time>
      </trkpt>
      <trkpt lat="47.30443" lon="2.91356">
        <ele>143.8</ele>
        <time>2016-05-05T14:17:20Z</time>
      </trkpt>
      <trkpt lat="47.3045" lon="2.91346">
        <ele>143.9</ele>
        <time>2016-05-05T14:17:24Z</time>
      </trkpt>
      <trkpt lat="47.30457" lon="2.91332">
        <ele>144.1</ele>
        <time>2016-05-05T14:17:29Z</time>
      </trkpt>
      <trkpt lat="47.30463" lon="2.91322">
        <ele>144.1</ele>
        <time>2016-05-05T14:17:32Z</time>
      </trkpt>
      <trkpt lat="47.3047" lon="2.91311">
        <ele>144</ele>
        <time>2016-05-05T14:17:35Z</time>
      </trkpt>
      <trkpt lat="47.30477" lon="2.91297">
        <ele>143.8</ele>
        <time>2016-05-05T14:17:38Z</time>
      </trkpt>
      <trkpt lat="47.30485" lon="2.91285">
        <ele>143.6</ele>
        <time>2016-05-05T14:17:41Z</time>
      </trkpt>
      <trkpt lat="47.30494" lon="2.91274">
        <ele>143.5</ele>
        <time>2016-05-05T14:17:44Z</time>
      </trkpt>
      <trkpt lat="47.30504" lon="2.91265">
        <ele>143.6</ele>
        <time>2016-05-05T14:17:47Z</time>
      </trkpt>
      <trkpt lat="47.30514" lon="2.91258">
        <ele>143.7</ele>
        <time>2016-05-05T14:17:50Z</time>
      </trkpt>
      <trkpt lat="47.30525" lon="2.91251">
        <ele>143.8</ele>
        <time>2016-05-05T14:17:53Z</time>
      </trkpt>
      <trkpt lat="47.30535" lon="2.91244">
        <ele>143.9</ele>
        <time>2016-05-05T14:17:56Z</time>
      </trkpt>
      <trkpt lat="47.30545" lon="2.91237">
        <ele>144.2</ele>
        <time>2016-05-05T14:17:59Z</time>
      </trkpt>
      <trkpt lat="47.30556" lon="2.9123">
        <ele>144.3</ele>
        <time>2016-05-05T14:18:02Z</time>
      </trkpt>
      <trkpt lat="47.30567" lon="2.91223">
        <ele>144.5</ele>
        <time>2016-05-05T14:18:05Z</time>
      </trkpt>
      <trkpt lat="47.30579" lon="2.91215">
        <ele>144.7</ele>
        <time>2016-05-05T14:18:08Z</time>
      </trkpt>
      <trkpt lat="47.30591" lon="2.91207">
        <ele>144.7</ele>
        <time>2016-05-05T14:18:11Z</time>
      </trkpt>
      <trkpt lat="47.30599" lon="2.912">
        <ele>144.5</ele>
        <time>2016-05-05T14:18:13Z</time>
      </trkpt>
      <trkpt lat="47.30607" lon="2.91193">
        <ele>144.5</ele>
        <time>2016-05-05T14:18:15Z</time>
      </trkpt>
      <trkpt lat="47.30616" lon="2.91186">
        <ele>144.4</ele>
        <time>2016-05-05T14:18:17Z</time>
      </trkpt>
      <trkpt lat="47.30625" lon="2.91179">
        <ele>144.2</ele>
        <time>2016-05-05T14:18:19Z</time>
      </trkpt>
      <trkpt lat="47.30633" lon="2.91171">
        <ele>144</ele>
        <time>2016-05-05T14:18:21Z</time>
      </trkpt>
      <trkpt lat="47.30642" lon="2.91164">
        <ele>143.8</ele>
        <time>2016-05-05T14:18:23Z</time>
      </trkpt>
      <trkpt lat="47.30651" lon="2.91155">
        <ele>143.8</ele>
        <time>2016-05-05T14:18:25Z</time>
      </trkpt>
      <trkpt lat="47.30659" lon="2.91145">
        <ele>143.7</ele>
        <time>2016-05-05T14:18:27Z</time>
      </trkpt>
      <trkpt lat="47.30668" lon="2.91132">
        <ele>143.5</ele>
        <time>2016-05-05T14:18:29Z</time>
      </trkpt>
      <trkpt lat="47.30676" lon="2.9112">
        <ele>143.4</ele>
        <time>2016-05-05T14:18:31Z</time>
      </trkpt>
      <trkpt lat="47.30683" lon="2.91107">
        <ele>143.5</ele>
        <time>2016-05-05T14:18:33Z</time>
      </trkpt>
      <trkpt lat="47.3069" lon="2.91093">
        <ele>143.5</ele>
        <time>2016-05-05T14:18:35Z</time>
      </trkpt>
      <trkpt lat="47.30697" lon="2.9108">
        <ele>143.3</ele>
        <time>2016-05-05T14:18:37Z</time>
      </trkpt>
      <trkpt lat="47.30703" lon="2.91066">
        <ele>143.2</ele>
        <time>2016-05-05T14:18:39Z</time>
      </trkpt>
      <trkpt lat="47.30706" lon="2.91051">
        <ele>143.3</ele>
        <time>2016-05-05T14:18:41Z</time>
      </trkpt>
      <trkpt lat="47.3071" lon="2.91035">
        <ele>143.2</ele>
        <time>2016-05-05T14:18:43Z</time>
      </trkpt>
      <trkpt lat="47.30712" lon="2.9102">
        <ele>143.1</ele>
        <time>2016-05-05T14:18:45Z</time>
      </trkpt>
      <trkpt lat="47.30714" lon="2.91004">
        <ele>143.1</ele>
        <time>2016-05-05T14:18:47Z</time>
      </trkpt>
      <trkpt lat="47.30716" lon="2.90987">
        <ele>143</ele>
        <time>2016-05-05T14:18:49Z</time>
      </trkpt>
      <trkpt lat="47.30718" lon="2.90971">
        <ele>142.9</ele>
        <time>2016-05-05T14:18:51Z</time>
      </trkpt>
      <trkpt lat="47.30718" lon="2.90955">
        <ele>142.9</ele>
        <time>2016-05-05T14:18:53Z</time>
      </trkpt>
      <trkpt lat="47.30719" lon="2.9094">
        <ele>143</ele>
        <time>2016-05-05T14:18:55Z</time>
      </trkpt>
      <trkpt lat="47.30721" lon="2.90926">
        <ele>142.9</ele>
        <time>2016-05-05T14:18:57Z</time>
      </trkpt>
      <trkpt lat="47.30725" lon="2.90913">
        <ele>143.1</ele>
        <time>2016-05-05T14:18:59Z</time>
      </trkpt>
      <trkpt lat="47.30729" lon="2.90899">
        <ele>143.1</ele>
        <time>2016-05-05T14:19:01Z</time>
      </trkpt>
      <trkpt lat="47.30731" lon="2.90884">
        <ele>143.1</ele>
        <time>2016-05-05T14:19:03Z</time>
      </trkpt>
      <trkpt lat="47.30735" lon="2.90869">
        <ele>142.9</ele>
        <time>2016-05-05T14:19:05Z</time>
      </trkpt>
      <trkpt lat="47.3074" lon="2.90854">
        <ele>143.1</ele>
        <time>2016-05-05T14:19:07Z</time>
      </trkpt>
      <trkpt lat="47.30744" lon="2.90839">
        <ele>143.1</ele>
        <time>2016-05-05T14:19:09Z</time>
      </trkpt>
      <trkpt lat="47.30748" lon="2.90822">
        <ele>143.1</ele>
        <time>2016-05-05T14:19:11Z</time>
      </trkpt>
      <trkpt lat="47.30753" lon="2.90807">
        <ele>143.1</ele>
        <time>2016-05-05T14:19:13Z</time>
      </trkpt>
      <trkpt lat="47.30759" lon="2.9079">
        <ele>142.8</ele>
        <time>2016-05-05T14:19:15Z</time>
      </trkpt>
      <trkpt lat="47.30764" lon="2.90774">
        <ele>142.9</ele>
        <time>2016-05-05T14:19:17Z</time>
      </trkpt>
      <trkpt lat="47.30771" lon="2.90759">
        <ele>143.1</ele>
        <time>2016-05-05T14:19:19Z</time>
      </trkpt>
      <trkpt lat="47.30778" lon="2.90743">
        <ele>143.3</ele>
        <time>2016-05-05T14:19:21Z</time>
      </trkpt>
      <trkpt lat="47.30783" lon="2.90726">
        <ele>143.4</ele>
        <time>2016-05-05T14:19:23Z</time>
      </trkpt>
      <trkpt lat="47.30789" lon="2.9071">
        <ele>143.5</ele>
        <time>2016-05-05T14:19:25Z</time>
      </trkpt>
      <trkpt lat="47.30795" lon="2.90696">
        <ele>143.6</ele>
        <time>2016-05-05T14:19:27Z</time>
      </trkpt>
      <trkpt lat="47.30802" lon="2.90683">
        <ele>143.6</ele>
        <time>2016-05-05T14:19:29Z</time>
      </trkpt>
      <trkpt lat="47.30806" lon="2.90669">
        <ele>144</ele>
        <time>2016-05-05T14:19:31Z</time>
      </trkpt>
      <trkpt lat="47.3081" lon="2.90654">
        <ele>144.3</ele>
        <time>2016-05-05T14:19:33Z</time>
      </trkpt>
      <trkpt lat="47.30815" lon="2.9064">
        <ele>144.2</ele>
        <time>2016-05-05T14:19:35Z</time>
      </trkpt>
      <trkpt lat="47.30821" lon="2.90628">
        <ele>144.3</ele>
        <time>2016-05-05T14:19:37Z</time>
      </trkpt>
      <trkpt lat="47.30825" lon="2.90616">
        <ele>144.4</ele>
        <time>2016-05-05T14:19:39Z</time>
      </trkpt>
      <trkpt lat="47.30829" lon="2.90604">
        <ele>144.4</ele>
        <time>2016-05-05T14:19:41Z</time>
      </trkpt>
      <trkpt lat="47.30833" lon="2.90592">
        <ele>144.6</ele>
        <time>2016-05-05T14:19:43Z</time>
      </trkpt>
      <trkpt lat="47.30838" lon="2.90575">
        <ele>144.8</ele>
        <time>2016-05-05T14:19:46Z</time>
      </trkpt>
      <trkpt lat="47.30844" lon="2.90558">
        <ele>144.9</ele>
        <time>2016-05-05T14:19:49Z</time>
      </trkpt>
      <trkpt lat="47.30849" lon="2.90546">
        <ele>144.9</ele>
        <time>2016-05-05T14:19:51Z</time>
      </trkpt>
      <trkpt lat="47.30854" lon="2.90529">
        <ele>144.9</ele>
        <time>2016-05-05T14:19:54Z</time>
      </trkpt>
      <trkpt lat="47.30859" lon="2.90518">
        <ele>144.9</ele>
        <time>2016-05-05T14:19:56Z</time>
      </trkpt>
      <trkpt lat="47.30863" lon="2.90505">
        <ele>145</ele>
        <time>2016-05-05T14:19:58Z</time>
      </trkpt>
      <trkpt lat="47.30867" lon="2.90492">
        <ele>145.1</ele>
        <time>2016-05-05T14:20:00Z</time>
      </trkpt>
      <trkpt lat="47.30872" lon="2.90479">
        <ele>145.1</ele>
        <time>2016-05-05T14:20:02Z</time>
      </trkpt>
      <trkpt lat="47.30877" lon="2.90468">
        <ele>145.1</ele>
        <time>2016-05-05T14:20:04Z</time>
      </trkpt>
      <trkpt lat="47.30884" lon="2.90458">
        <ele>144.9</ele>
        <time>2016-05-05T14:20:06Z</time>
      </trkpt>
      <trkpt lat="47.30889" lon="2.90447">
        <ele>144.8</ele>
        <time>2016-05-05T14:20:08Z</time>
      </trkpt>
      <trkpt lat="47.30895" lon="2.90435">
        <ele>144.8</ele>
        <time>2016-05-05T14:20:10Z</time>
      </trkpt>
      <trkpt lat="47.30902" lon="2.90421">
        <ele>144.9</ele>
        <time>2016-05-05T14:20:12Z</time>
      </trkpt>
      <trkpt lat="47.30907" lon="2.90407">
        <ele>144.9</ele>
        <time>2016-05-05T14:20:14Z</time>
      </trkpt>
      <trkpt lat="47.30913" lon="2.90393">
        <ele>144.8</ele>
        <time>2016-05-05T14:20:16Z</time>
      </trkpt>
      <trkpt lat="47.30917" lon="2.9038">
        <ele>144.7</ele>
        <time>2016-05-05T14:20:18Z</time>
      </trkpt>
      <trkpt lat="47.30923" lon="2.90369">
        <ele>144.9</ele>
        <time>2016-05-05T14:20:20Z</time>
      </trkpt>
      <trkpt lat="47.30929" lon="2.90359">
        <ele>144.8</ele>
        <time>2016-05-05T14:20:22Z</time>
      </trkpt>
      <trkpt lat="47.30936" lon="2.90348">
        <ele>144.7</ele>
        <time>2016-05-05T14:20:24Z</time>
      </trkpt>
      <trkpt lat="47.30939" lon="2.90335">
        <ele>144.7</ele>
        <time>2016-05-05T14:20:26Z</time>
      </trkpt>
      <trkpt lat="47.30947" lon="2.90318">
        <ele>144.6</ele>
        <time>2016-05-05T14:20:29Z</time>
      </trkpt>
      <trkpt lat="47.30951" lon="2.90307">
        <ele>144.8</ele>
        <time>2016-05-05T14:20:31Z</time>
      </trkpt>
      <trkpt lat="47.30956" lon="2.90294">
        <ele>144.8</ele>
        <time>2016-05-05T14:20:33Z</time>
      </trkpt>
      <trkpt lat="47.30963" lon="2.9028">
        <ele>144.8</ele>
        <time>2016-05-05T14:20:35Z</time>
      </trkpt>
      <trkpt lat="47.30969" lon="2.90268">
        <ele>144.6</ele>
        <time>2016-05-05T14:20:37Z</time>
      </trkpt>
      <trkpt lat="47.30978" lon="2.90257">
        <ele>144.8</ele>
        <time>2016-05-05T14:20:39Z</time>
      </trkpt>
      <trkpt lat="47.30986" lon="2.90246">
        <ele>144.8</ele>
        <time>2016-05-05T14:20:41Z</time>
      </trkpt>
      <trkpt lat="47.30994" lon="2.90234">
        <ele>144.7</ele>
        <time>2016-05-05T14:20:43Z</time>
      </trkpt>
      <trkpt lat="47.31001" lon="2.90222">
        <ele>144.8</ele>
        <time>2016-05-05T14:20:45Z</time>
      </trkpt>
      <trkpt lat="47.31008" lon="2.90209">
        <ele>144.6</ele>
        <time>2016-05-05T14:20:47Z</time>
      </trkpt>
      <trkpt lat="47.31016" lon="2.90197">
        <ele>144.4</ele>
        <time>2016-05-05T14:20:49Z</time>
      </trkpt>
      <trkpt lat="47.31022" lon="2.90185">
        <ele>144.6</ele>
        <time>2016-05-05T14:20:51Z</time>
      </trkpt>
      <trkpt lat="47.31029" lon="2.90173">
        <ele>144.5</ele>
        <time>2016-05-05T14:20:53Z</time>
      </trkpt>
      <trkpt lat="47.31036" lon="2.90161">
        <ele>144.5</ele>
        <time>2016-05-05T14:20:55Z</time>
      </trkpt>
      <trkpt lat="47.31043" lon="2.90149">
        <ele>144.5</ele>
        <time>2016-05-05T14:20:57Z</time>
      </trkpt>
      <trkpt lat="47.31052" lon="2.90139">
        <ele>144.4</ele>
        <time>2016-05-05T14:20:59Z</time>
      </trkpt>
      <trkpt lat="47.31061" lon="2.90127">
        <ele>144.3</ele>
        <time>2016-05-05T14:21:01Z</time>
      </trkpt>
      <trkpt lat="47.31069" lon="2.90116">
        <ele>144.2</ele>
        <time>2016-05-05T14:21:03Z</time>
      </trkpt>
      <trkpt lat="47.31078" lon="2.90106">
        <ele>144.2</ele>
        <time>2016-05-05T14:21:05Z</time>
      </trkpt>
      <trkpt lat="47.31087" lon="2.90097">
        <ele>144.2</ele>
        <time>2016-05-05T14:21:07Z</time>
      </trkpt>
      <trkpt lat="47.31098" lon="2.90088">
        <ele>144.2</ele>
        <time>2016-05-05T14:21:09Z</time>
      </trkpt>
      <trkpt lat="47.31107" lon="2.9008">
        <ele>144.1</ele>
        <time>2016-05-05T14:21:11Z</time>
      </trkpt>
      <trkpt lat="47.31117" lon="2.90071">
        <ele>143.9</ele>
        <time>2016-05-05T14:21:13Z</time>
      </trkpt>
      <trkpt lat="47.31127" lon="2.90061">
        <ele>143.9</ele>
        <time>2016-05-05T14:21:15Z</time>
      </trkpt>
      <trkpt lat="47.31137" lon="2.90052">
        <ele>143.8</ele>
        <time>2016-05-05T14:21:17Z</time>
      </trkpt>
      <trkpt lat="47.31146" lon="2.90043">
        <ele>143.8</ele>
        <time>2016-05-05T14:21:19Z</time>
      </trkpt>
      <trkpt lat="47.31157" lon="2.90032">
        <ele>143.5</ele>
        <time>2016-05-05T14:21:21Z</time>
      </trkpt>
      <trkpt lat="47.31165" lon="2.9002">
        <ele>143.2</ele>
        <time>2016-05-05T14:21:23Z</time>
      </trkpt>
      <trkpt lat="47.31171" lon="2.90008">
        <ele>143</ele>
        <time>2016-05-05T14:21:25Z</time>
      </trkpt>
      <trkpt lat="47.31177" lon="2.89995">
        <ele>142.8</ele>
        <time>2016-05-05T14:21:27Z</time>
      </trkpt>
      <trkpt lat="47.31182" lon="2.89983">
        <ele>142.9</ele>
        <time>2016-05-05T14:21:29Z</time>
      </trkpt>
      <trkpt lat="47.31184" lon="2.89964">
        <ele>142.8</ele>
        <time>2016-05-05T14:21:32Z</time>
      </trkpt>
      <trkpt lat="47.31186" lon="2.89951">
        <ele>142.8</ele>
        <time>2016-05-05T14:21:34Z</time>
      </trkpt>
      <trkpt lat="47.31189" lon="2.89937">
        <ele>142.7</ele>
        <time>2016-05-05T14:21:36Z</time>
      </trkpt>
      <trkpt lat="47.31193" lon="2.89924">
        <ele>142.7</ele>
        <time>2016-05-05T14:21:38Z</time>
      </trkpt>
      <trkpt lat="47.31197" lon="2.89911">
        <ele>142.8</ele>
        <time>2016-05-05T14:21:40Z</time>
      </trkpt>
      <trkpt lat="47.31198" lon="2.89894">
        <ele>142.9</ele>
        <time>2016-05-05T14:21:43Z</time>
      </trkpt>
      <trkpt lat="47.31198" lon="2.8988">
        <ele>143.2</ele>
        <time>2016-05-05T14:21:46Z</time>
      </trkpt>
      <trkpt lat="47.31198" lon="2.89864">
        <ele>143.6</ele>
        <time>2016-05-05T14:21:50Z</time>
      </trkpt>
      <trkpt lat="47.31197" lon="2.89849">
        <ele>143.7</ele>
        <time>2016-05-05T14:21:54Z</time>
      </trkpt>
      <trkpt lat="47.31195" lon="2.89836">
        <ele>144.1</ele>
        <time>2016-05-05T14:22:13Z</time>
      </trkpt>
      <trkpt lat="47.31198" lon="2.89821">
        <ele>143.9</ele>
        <time>2016-05-05T14:22:38Z</time>
      </trkpt>
      <trkpt lat="47.31199" lon="2.89808">
        <ele>143.8</ele>
        <time>2016-05-05T14:22:41Z</time>
      </trkpt>
      <trkpt lat="47.31199" lon="2.89793">
        <ele>143.8</ele>
        <time>2016-05-05T14:22:44Z</time>
      </trkpt>
      <trkpt lat="47.312" lon="2.89779">
        <ele>143.6</ele>
        <time>2016-05-05T14:22:47Z</time>
      </trkpt>
      <trkpt lat="47.31201" lon="2.89763">
        <ele>143.6</ele>
        <time>2016-05-05T14:22:50Z</time>
      </trkpt>
      <trkpt lat="47.31201" lon="2.89747">
        <ele>143.7</ele>
        <time>2016-05-05T14:22:53Z</time>
      </trkpt>
      <trkpt lat="47.31201" lon="2.8973">
        <ele>143.8</ele>
        <time>2016-05-05T14:22:56Z</time>
      </trkpt>
      <trkpt lat="47.31201" lon="2.89712">
        <ele>144</ele>
        <time>2016-05-05T14:22:59Z</time>
      </trkpt>
      <trkpt lat="47.31201" lon="2.89694">
        <ele>144</ele>
        <time>2016-05-05T14:23:02Z</time>
      </trkpt>
      <trkpt lat="47.31202" lon="2.89676">
        <ele>144.1</ele>
        <time>2016-05-05T14:23:05Z</time>
      </trkpt>
      <trkpt lat="47.31205" lon="2.89657">
        <ele>144</ele>
        <time>2016-05-05T14:23:08Z</time>
      </trkpt>
      <trkpt lat="47.3121" lon="2.89639">
        <ele>144</ele>
        <time>2016-05-05T14:23:11Z</time>
      </trkpt>
      <trkpt lat="47.31214" lon="2.8962">
        <ele>144</ele>
        <time>2016-05-05T14:23:14Z</time>
      </trkpt>
      <trkpt lat="47.3122" lon="2.89603">
        <ele>144</ele>
        <time>2016-05-05T14:23:17Z</time>
      </trkpt>
      <trkpt lat="47.31224" lon="2.89586">
        <ele>143.9</ele>
        <time>2016-05-05T14:23:20Z</time>
      </trkpt>
      <trkpt lat="47.31228" lon="2.89573">
        <ele>143.7</ele>
        <time>2016-05-05T14:23:22Z</time>
      </trkpt>
      <trkpt lat="47.31232" lon="2.89559">
        <ele>143.5</ele>
        <time>2016-05-05T14:23:24Z</time>
      </trkpt>
      <trkpt lat="47.31237" lon="2.89545">
        <ele>143.4</ele>
        <time>2016-05-05T14:23:26Z</time>
      </trkpt>
      <trkpt lat="47.31242" lon="2.89531">
        <ele>143.1</ele>
        <time>2016-05-05T14:23:28Z</time>
      </trkpt>
      <trkpt lat="47.31247" lon="2.89518">
        <ele>143.1</ele>
        <time>2016-05-05T14:23:30Z</time>
      </trkpt>
      <trkpt lat="47.31249" lon="2.89505">
        <ele>143.1</ele>
        <time>2016-05-05T14:23:32Z</time>
      </trkpt>
      <trkpt lat="47.31252" lon="2.89486">
        <ele>143</ele>
        <time>2016-05-05T14:23:35Z</time>
      </trkpt>
      <trkpt lat="47.31256" lon="2.89467">
        <ele>142.8</ele>
        <time>2016-05-05T14:23:38Z</time>
      </trkpt>
      <trkpt lat="47.31258" lon="2.89449">
        <ele>142.8</ele>
        <time>2016-05-05T14:23:41Z</time>
      </trkpt>
      <trkpt lat="47.31261" lon="2.89434">
        <ele>142.7</ele>
        <time>2016-05-05T14:23:44Z</time>
      </trkpt>
      <trkpt lat="47.31264" lon="2.89417">
        <ele>142.7</ele>
        <time>2016-05-05T14:23:47Z</time>
      </trkpt>
      <trkpt lat="47.31268" lon="2.89403">
        <ele>142.8</ele>
        <time>2016-05-05T14:23:50Z</time>
      </trkpt>
      <trkpt lat="47.31271" lon="2.89385">
        <ele>142.6</ele>
        <time>2016-05-05T14:23:54Z</time>
      </trkpt>
      <trkpt lat="47.31273" lon="2.8937">
        <ele>142.5</ele>
        <time>2016-05-05T14:23:57Z</time>
      </trkpt>
      <trkpt lat="47.31274" lon="2.89357">
        <ele>142.6</ele>
        <time>2016-05-05T14:24:00Z</time>
      </trkpt>
      <trkpt lat="47.31275" lon="2.89342">
        <ele>142.7</ele>
        <time>2016-05-05T14:24:03Z</time>
      </trkpt>
      <trkpt lat="47.31278" lon="2.89324">
        <ele>142.7</ele>
        <time>2016-05-05T14:24:06Z</time>
      </trkpt>
      <trkpt lat="47.31281" lon="2.89308">
        <ele>143</ele>
        <time>2016-05-05T14:24:09Z</time>
      </trkpt>
      <trkpt lat="47.31285" lon="2.89293">
        <ele>143.1</ele>
        <time>2016-05-05T14:24:12Z</time>
      </trkpt>
      <trkpt lat="47.31288" lon="2.89279">
        <ele>143.2</ele>
        <time>2016-05-05T14:24:15Z</time>
      </trkpt>
      <trkpt lat="47.31291" lon="2.89265">
        <ele>143.2</ele>
        <time>2016-05-05T14:24:18Z</time>
      </trkpt>
      <trkpt lat="47.31292" lon="2.89249">
        <ele>143</ele>
        <time>2016-05-05T14:24:21Z</time>
      </trkpt>
      <trkpt lat="47.31295" lon="2.89235">
        <ele>142.8</ele>
        <time>2016-05-05T14:24:24Z</time>
      </trkpt>
      <trkpt lat="47.31297" lon="2.89221">
        <ele>142.8</ele>
        <time>2016-05-05T14:24:27Z</time>
      </trkpt>
      <trkpt lat="47.31299" lon="2.89206">
        <ele>142.7</ele>
        <time>2016-05-05T14:24:30Z</time>
      </trkpt>
      <trkpt lat="47.31303" lon="2.89191">
        <ele>142.5</ele>
        <time>2016-05-05T14:24:33Z</time>
      </trkpt>
      <trkpt lat="47.31306" lon="2.89179">
        <ele>142.7</ele>
        <time>2016-05-05T14:24:36Z</time>
      </trkpt>
      <trkpt lat="47.31312" lon="2.89164">
        <ele>142.5</ele>
        <time>2016-05-05T14:24:39Z</time>
      </trkpt>
      <trkpt lat="47.31315" lon="2.89147">
        <ele>142.4</ele>
        <time>2016-05-05T14:24:42Z</time>
      </trkpt>
      <trkpt lat="47.31318" lon="2.89134">
        <ele>142.6</ele>
        <time>2016-05-05T14:24:44Z</time>
      </trkpt>
      <trkpt lat="47.31322" lon="2.89122">
        <ele>142.8</ele>
        <time>2016-05-05T14:24:46Z</time>
      </trkpt>
      <trkpt lat="47.31328" lon="2.89106">
        <ele>143.4</ele>
        <time>2016-05-05T14:24:49Z</time>
      </trkpt>
      <trkpt lat="47.31334" lon="2.89091">
        <ele>143.4</ele>
        <time>2016-05-05T14:24:52Z</time>
      </trkpt>
      <trkpt lat="47.3134" lon="2.89075">
        <ele>142.9</ele>
        <time>2016-05-05T14:24:55Z</time>
      </trkpt>
      <trkpt lat="47.31346" lon="2.89063">
        <ele>142.7</ele>
        <time>2016-05-05T14:24:58Z</time>
      </trkpt>
      <trkpt lat="47.31353" lon="2.89053">
        <ele>143.3</ele>
        <time>2016-05-05T14:25:01Z</time>
      </trkpt>
      <trkpt lat="47.31361" lon="2.89044">
        <ele>143.3</ele>
        <time>2016-05-05T14:25:05Z</time>
      </trkpt>
      <trkpt lat="47.31369" lon="2.89036">
        <ele>143.3</ele>
        <time>2016-05-05T14:25:08Z</time>
      </trkpt>
      <trkpt lat="47.31377" lon="2.89026">
        <ele>143.1</ele>
        <time>2016-05-05T14:25:12Z</time>
      </trkpt>
      <trkpt lat="47.31385" lon="2.89017">
        <ele>142.8</ele>
        <time>2016-05-05T14:25:16Z</time>
      </trkpt>
      <trkpt lat="47.31391" lon="2.89007">
        <ele>142.6</ele>
        <time>2016-05-05T14:25:20Z</time>
      </trkpt>
      <trkpt lat="47.31398" lon="2.88998">
        <ele>142.1</ele>
        <time>2016-05-05T14:25:24Z</time>
      </trkpt>
      <trkpt lat="47.31404" lon="2.88985">
        <ele>142.6</ele>
        <time>2016-05-05T14:25:28Z</time>
      </trkpt>
      <trkpt lat="47.31409" lon="2.8897">
        <ele>142.9</ele>
        <time>2016-05-05T14:25:32Z</time>
      </trkpt>
      <trkpt lat="47.31413" lon="2.88955">
        <ele>142.7</ele>
        <time>2016-05-05T14:25:36Z</time>
      </trkpt>
      <trkpt lat="47.31416" lon="2.8894">
        <ele>142.9</ele>
        <time>2016-05-05T14:25:40Z</time>
      </trkpt>
      <trkpt lat="47.31417" lon="2.88923">
        <ele>143</ele>
        <time>2016-05-05T14:25:44Z</time>
      </trkpt>
      <trkpt lat="47.31417" lon="2.8891">
        <ele>142.9</ele>
        <time>2016-05-05T14:25:47Z</time>
      </trkpt>
      <trkpt lat="47.31413" lon="2.88895">
        <ele>143</ele>
        <time>2016-05-05T14:25:52Z</time>
      </trkpt>
      <trkpt lat="47.31407" lon="2.88882">
        <ele>142.1</ele>
        <time>2016-05-05T14:25:59Z</time>
      </trkpt>
      <trkpt lat="47.31401" lon="2.88872">
        <ele>140.1</ele>
        <time>2016-05-05T14:26:16Z</time>
      </trkpt>
      <trkpt lat="47.31409" lon="2.88868">
        <ele>142.5</ele>
        <time>2016-05-05T14:27:50Z</time>
      </trkpt>
      <trkpt lat="47.31417" lon="2.88876">
        <ele>143.9</ele>
        <time>2016-05-05T14:29:29Z</time>
      </trkpt>
      <trkpt lat="47.31418" lon="2.8889">
        <ele>143.6</ele>
        <time>2016-05-05T14:29:45Z</time>
      </trkpt>
      <trkpt lat="47.31418" lon="2.88905">
        <ele>143.5</ele>
        <time>2016-05-05T14:29:51Z</time>
      </trkpt>
      <trkpt lat="47.31416" lon="2.88922">
        <ele>143.6</ele>
        <time>2016-05-05T14:29:56Z</time>
      </trkpt>
      <trkpt lat="47.31415" lon="2.88937">
        <ele>143.3</ele>
        <time>2016-05-05T14:30:00Z</time>
      </trkpt>
      <trkpt lat="47.31411" lon="2.88953">
        <ele>143.3</ele>
        <time>2016-05-05T14:30:04Z</time>
      </trkpt>
      <trkpt lat="47.31407" lon="2.88967">
        <ele>143.5</ele>
        <time>2016-05-05T14:30:08Z</time>
      </trkpt>
      <trkpt lat="47.31402" lon="2.8898">
        <ele>143.5</ele>
        <time>2016-05-05T14:30:12Z</time>
      </trkpt>
      <trkpt lat="47.31396" lon="2.88991">
        <ele>143.7</ele>
        <time>2016-05-05T14:30:16Z</time>
      </trkpt>
      <trkpt lat="47.31389" lon="2.89">
        <ele>143.8</ele>
        <time>2016-05-05T14:30:20Z</time>
      </trkpt>
      <trkpt lat="47.31382" lon="2.8901">
        <ele>143.6</ele>
        <time>2016-05-05T14:30:24Z</time>
      </trkpt>
      <trkpt lat="47.31373" lon="2.8902">
        <ele>144.1</ele>
        <time>2016-05-05T14:30:29Z</time>
      </trkpt>
      <trkpt lat="47.31364" lon="2.89028">
        <ele>144.2</ele>
        <time>2016-05-05T14:30:33Z</time>
      </trkpt>
      <trkpt lat="47.31355" lon="2.89037">
        <ele>144.3</ele>
        <time>2016-05-05T14:30:37Z</time>
      </trkpt>
      <trkpt lat="47.31347" lon="2.89048">
        <ele>144</ele>
        <time>2016-05-05T14:30:41Z</time>
      </trkpt>
      <trkpt lat="47.3134" lon="2.8906">
        <ele>144.1</ele>
        <time>2016-05-05T14:30:46Z</time>
      </trkpt>
      <trkpt lat="47.31336" lon="2.89074">
        <ele>143.8</ele>
        <time>2016-05-05T14:30:51Z</time>
      </trkpt>
      <trkpt lat="47.31331" lon="2.89089">
        <ele>144</ele>
        <time>2016-05-05T14:30:55Z</time>
      </trkpt>
      <trkpt lat="47.31327" lon="2.89104">
        <ele>143.8</ele>
        <time>2016-05-05T14:30:59Z</time>
      </trkpt>
      <trkpt lat="47.31323" lon="2.89117">
        <ele>143.6</ele>
        <time>2016-05-05T14:31:02Z</time>
      </trkpt>
      <trkpt lat="47.31319" lon="2.8913">
        <ele>143.4</ele>
        <time>2016-05-05T14:31:05Z</time>
      </trkpt>
      <trkpt lat="47.31315" lon="2.89142">
        <ele>143</ele>
        <time>2016-05-05T14:31:08Z</time>
      </trkpt>
      <trkpt lat="47.31311" lon="2.89155">
        <ele>143.1</ele>
        <time>2016-05-05T14:31:11Z</time>
      </trkpt>
      <trkpt lat="47.31306" lon="2.8917">
        <ele>143.2</ele>
        <time>2016-05-05T14:31:15Z</time>
      </trkpt>
      <trkpt lat="47.31303" lon="2.89186">
        <ele>143</ele>
        <time>2016-05-05T14:31:19Z</time>
      </trkpt>
      <trkpt lat="47.31299" lon="2.89199">
        <ele>143</ele>
        <time>2016-05-05T14:31:22Z</time>
      </trkpt>
      <trkpt lat="47.31296" lon="2.89213">
        <ele>143.2</ele>
        <time>2016-05-05T14:31:25Z</time>
      </trkpt>
      <trkpt lat="47.31294" lon="2.89226">
        <ele>143.3</ele>
        <time>2016-05-05T14:31:28Z</time>
      </trkpt>
      <trkpt lat="47.31292" lon="2.89241">
        <ele>143.6</ele>
        <time>2016-05-05T14:31:32Z</time>
      </trkpt>
      <trkpt lat="47.31289" lon="2.89255">
        <ele>143.7</ele>
        <time>2016-05-05T14:31:36Z</time>
      </trkpt>
      <trkpt lat="47.31287" lon="2.89272">
        <ele>143.5</ele>
        <time>2016-05-05T14:31:40Z</time>
      </trkpt>
      <trkpt lat="47.31285" lon="2.89286">
        <ele>143.7</ele>
        <time>2016-05-05T14:31:43Z</time>
      </trkpt>
      <trkpt lat="47.31283" lon="2.89304">
        <ele>143.7</ele>
        <time>2016-05-05T14:31:46Z</time>
      </trkpt>
      <trkpt lat="47.3128" lon="2.89322">
        <ele>143.2</ele>
        <time>2016-05-05T14:31:49Z</time>
      </trkpt>
      <trkpt lat="47.31279" lon="2.89338">
        <ele>143</ele>
        <time>2016-05-05T14:31:52Z</time>
      </trkpt>
      <trkpt lat="47.31278" lon="2.89354">
        <ele>143.1</ele>
        <time>2016-05-05T14:31:55Z</time>
      </trkpt>
      <trkpt lat="47.31276" lon="2.89368">
        <ele>142.9</ele>
        <time>2016-05-05T14:31:58Z</time>
      </trkpt>
      <trkpt lat="47.31272" lon="2.89384">
        <ele>143.3</ele>
        <time>2016-05-05T14:32:02Z</time>
      </trkpt>
      <trkpt lat="47.3127" lon="2.89399">
        <ele>143.1</ele>
        <time>2016-05-05T14:32:06Z</time>
      </trkpt>
      <trkpt lat="47.31268" lon="2.89416">
        <ele>143</ele>
        <time>2016-05-05T14:32:10Z</time>
      </trkpt>
      <trkpt lat="47.31267" lon="2.89429">
        <ele>143.1</ele>
        <time>2016-05-05T14:32:13Z</time>
      </trkpt>
      <trkpt lat="47.31263" lon="2.89446">
        <ele>143.1</ele>
        <time>2016-05-05T14:32:17Z</time>
      </trkpt>
      <trkpt lat="47.31261" lon="2.89463">
        <ele>143.1</ele>
        <time>2016-05-05T14:32:21Z</time>
      </trkpt>
      <trkpt lat="47.31257" lon="2.89478">
        <ele>143.3</ele>
        <time>2016-05-05T14:32:25Z</time>
      </trkpt>
      <trkpt lat="47.31255" lon="2.89494">
        <ele>143.4</ele>
        <time>2016-05-05T14:32:29Z</time>
      </trkpt>
      <trkpt lat="47.31251" lon="2.89509">
        <ele>143.2</ele>
        <time>2016-05-05T14:32:33Z</time>
      </trkpt>
      <trkpt lat="47.31246" lon="2.89524">
        <ele>143.4</ele>
        <time>2016-05-05T14:32:37Z</time>
      </trkpt>
      <trkpt lat="47.31241" lon="2.89536">
        <ele>143.5</ele>
        <time>2016-05-05T14:32:40Z</time>
      </trkpt>
      <trkpt lat="47.31236" lon="2.89548">
        <ele>143.6</ele>
        <time>2016-05-05T14:32:43Z</time>
      </trkpt>
      <trkpt lat="47.31231" lon="2.89563">
        <ele>143.7</ele>
        <time>2016-05-05T14:32:47Z</time>
      </trkpt>
      <trkpt lat="47.31227" lon="2.89579">
        <ele>143.9</ele>
        <time>2016-05-05T14:32:51Z</time>
      </trkpt>
      <trkpt lat="47.31222" lon="2.89594">
        <ele>144</ele>
        <time>2016-05-05T14:32:55Z</time>
      </trkpt>
      <trkpt lat="47.31217" lon="2.8961">
        <ele>144.2</ele>
        <time>2016-05-05T14:32:59Z</time>
      </trkpt>
      <trkpt lat="47.31213" lon="2.89626">
        <ele>144.4</ele>
        <time>2016-05-05T14:33:03Z</time>
      </trkpt>
      <trkpt lat="47.31208" lon="2.89642">
        <ele>144.2</ele>
        <time>2016-05-05T14:33:07Z</time>
      </trkpt>
      <trkpt lat="47.31205" lon="2.89655">
        <ele>144.3</ele>
        <time>2016-05-05T14:33:10Z</time>
      </trkpt>
      <trkpt lat="47.31203" lon="2.89672">
        <ele>144.5</ele>
        <time>2016-05-05T14:33:14Z</time>
      </trkpt>
      <trkpt lat="47.31202" lon="2.89689">
        <ele>144.5</ele>
        <time>2016-05-05T14:33:18Z</time>
      </trkpt>
      <trkpt lat="47.31202" lon="2.89703">
        <ele>144.6</ele>
        <time>2016-05-05T14:33:21Z</time>
      </trkpt>
      <trkpt lat="47.31202" lon="2.89717">
        <ele>144.4</ele>
        <time>2016-05-05T14:33:24Z</time>
      </trkpt>
      <trkpt lat="47.31202" lon="2.89732">
        <ele>144.4</ele>
        <time>2016-05-05T14:33:27Z</time>
      </trkpt>
      <trkpt lat="47.31202" lon="2.89746">
        <ele>144.5</ele>
        <time>2016-05-05T14:33:30Z</time>
      </trkpt>
      <trkpt lat="47.31202" lon="2.89761">
        <ele>144.5</ele>
        <time>2016-05-05T14:33:33Z</time>
      </trkpt>
      <trkpt lat="47.31201" lon="2.89776">
        <ele>144.6</ele>
        <time>2016-05-05T14:33:36Z</time>
      </trkpt>
      <trkpt lat="47.31201" lon="2.89791">
        <ele>144.4</ele>
        <time>2016-05-05T14:33:39Z</time>
      </trkpt>
      <trkpt lat="47.312" lon="2.89806">
        <ele>144.2</ele>
        <time>2016-05-05T14:33:42Z</time>
      </trkpt>
      <trkpt lat="47.312" lon="2.8982">
        <ele>144</ele>
        <time>2016-05-05T14:33:45Z</time>
      </trkpt>
      <trkpt lat="47.31196" lon="2.89835">
        <ele>144</ele>
        <time>2016-05-05T14:33:51Z</time>
      </trkpt>
      <trkpt lat="47.31197" lon="2.89851">
        <ele>143.8</ele>
        <time>2016-05-05T14:33:57Z</time>
      </trkpt>
      <trkpt lat="47.31197" lon="2.89866">
        <ele>143.6</ele>
        <time>2016-05-05T14:34:02Z</time>
      </trkpt>
      <trkpt lat="47.31197" lon="2.89882">
        <ele>143.4</ele>
        <time>2016-05-05T14:34:06Z</time>
      </trkpt>
      <trkpt lat="47.31196" lon="2.89896">
        <ele>143.3</ele>
        <time>2016-05-05T14:34:09Z</time>
      </trkpt>
      <trkpt lat="47.31193" lon="2.89913">
        <ele>143.2</ele>
        <time>2016-05-05T14:34:13Z</time>
      </trkpt>
      <trkpt lat="47.31192" lon="2.89927">
        <ele>143.4</ele>
        <time>2016-05-05T14:34:16Z</time>
      </trkpt>
      <trkpt lat="47.31191" lon="2.89941">
        <ele>143.4</ele>
        <time>2016-05-05T14:34:19Z</time>
      </trkpt>
      <trkpt lat="47.31188" lon="2.89954">
        <ele>143.2</ele>
        <time>2016-05-05T14:34:22Z</time>
      </trkpt>
      <trkpt lat="47.31182" lon="2.89963">
        <ele>143.1</ele>
        <time>2016-05-05T14:34:26Z</time>
      </trkpt>
      <trkpt lat="47.31192" lon="2.89959">
        <ele>142.8</ele>
        <time>2016-05-05T14:34:40Z</time>
      </trkpt>
      <trkpt lat="47.31183" lon="2.89961">
        <ele>143.2</ele>
        <time>2016-05-05T14:35:11Z</time>
      </trkpt>
      <trkpt lat="47.31173" lon="2.89958">
        <ele>143.2</ele>
        <time>2016-05-05T14:35:16Z</time>
      </trkpt>
      <trkpt lat="47.31165" lon="2.89948">
        <ele>143.1</ele>
        <time>2016-05-05T14:35:20Z</time>
      </trkpt>
      <trkpt lat="47.31157" lon="2.89938">
        <ele>143.1</ele>
        <time>2016-05-05T14:35:24Z</time>
      </trkpt>
      <trkpt lat="47.31146" lon="2.8993">
        <ele>143.2</ele>
        <time>2016-05-05T14:35:28Z</time>
      </trkpt>
      <trkpt lat="47.31138" lon="2.89922">
        <ele>143.6</ele>
        <time>2016-05-05T14:35:32Z</time>
      </trkpt>
      <trkpt lat="47.31128" lon="2.89915">
        <ele>144</ele>
        <time>2016-05-05T14:35:37Z</time>
      </trkpt>
      <trkpt lat="47.31119" lon="2.89924">
        <ele>144</ele>
        <time>2016-05-05T14:35:42Z</time>
      </trkpt>
      <trkpt lat="47.31116" lon="2.89941">
        <ele>144</ele>
        <time>2016-05-05T14:35:46Z</time>
      </trkpt>
      <trkpt lat="47.31115" lon="2.89955">
        <ele>144.1</ele>
        <time>2016-05-05T14:35:49Z</time>
      </trkpt>
      <trkpt lat="47.31113" lon="2.89969">
        <ele>144.3</ele>
        <time>2016-05-05T14:35:52Z</time>
      </trkpt>
      <trkpt lat="47.31112" lon="2.89983">
        <ele>144.4</ele>
        <time>2016-05-05T14:35:55Z</time>
      </trkpt>
      <trkpt lat="47.31111" lon="2.89997">
        <ele>144.4</ele>
        <time>2016-05-05T14:35:58Z</time>
      </trkpt>
      <trkpt lat="47.31109" lon="2.90013">
        <ele>144.3</ele>
        <time>2016-05-05T14:36:01Z</time>
      </trkpt>
      <trkpt lat="47.31105" lon="2.90026">
        <ele>144</ele>
        <time>2016-05-05T14:36:04Z</time>
      </trkpt>
      <trkpt lat="47.311" lon="2.9004">
        <ele>144.2</ele>
        <time>2016-05-05T14:36:07Z</time>
      </trkpt>
      <trkpt lat="47.31095" lon="2.90054">
        <ele>144.3</ele>
        <time>2016-05-05T14:36:10Z</time>
      </trkpt>
      <trkpt lat="47.3109" lon="2.90067">
        <ele>144.4</ele>
        <time>2016-05-05T14:36:13Z</time>
      </trkpt>
      <trkpt lat="47.31085" lon="2.9008">
        <ele>144.5</ele>
        <time>2016-05-05T14:36:16Z</time>
      </trkpt>
      <trkpt lat="47.3108" lon="2.90091">
        <ele>144.4</ele>
        <time>2016-05-05T14:36:20Z</time>
      </trkpt>
      <trkpt lat="47.31074" lon="2.90102">
        <ele>144.4</ele>
        <time>2016-05-05T14:36:26Z</time>
      </trkpt>
      <trkpt lat="47.31069" lon="2.90114">
        <ele>144.3</ele>
        <time>2016-05-05T14:36:30Z</time>
      </trkpt>
      <trkpt lat="47.31061" lon="2.90125">
        <ele>144.3</ele>
        <time>2016-05-05T14:36:34Z</time>
      </trkpt>
      <trkpt lat="47.31052" lon="2.90137">
        <ele>144.4</ele>
        <time>2016-05-05T14:36:38Z</time>
      </trkpt>
      <trkpt lat="47.31043" lon="2.90148">
        <ele>144.6</ele>
        <time>2016-05-05T14:36:42Z</time>
      </trkpt>
      <trkpt lat="47.31035" lon="2.9016">
        <ele>144.8</ele>
        <time>2016-05-05T14:36:46Z</time>
      </trkpt>
      <trkpt lat="47.31029" lon="2.90171">
        <ele>144.9</ele>
        <time>2016-05-05T14:36:49Z</time>
      </trkpt>
      <trkpt lat="47.31022" lon="2.90185">
        <ele>145</ele>
        <time>2016-05-05T14:36:53Z</time>
      </trkpt>
      <trkpt lat="47.31016" lon="2.90195">
        <ele>144.9</ele>
        <time>2016-05-05T14:36:56Z</time>
      </trkpt>
      <trkpt lat="47.3101" lon="2.90206">
        <ele>144.7</ele>
        <time>2016-05-05T14:36:59Z</time>
      </trkpt>
      <trkpt lat="47.31003" lon="2.90216">
        <ele>144.8</ele>
        <time>2016-05-05T14:37:02Z</time>
      </trkpt>
      <trkpt lat="47.30997" lon="2.90228">
        <ele>144.9</ele>
        <time>2016-05-05T14:37:05Z</time>
      </trkpt>
      <trkpt lat="47.3099" lon="2.90239">
        <ele>144.9</ele>
        <time>2016-05-05T14:37:08Z</time>
      </trkpt>
      <trkpt lat="47.30982" lon="2.90249">
        <ele>144.8</ele>
        <time>2016-05-05T14:37:11Z</time>
      </trkpt>
      <trkpt lat="47.30975" lon="2.9026">
        <ele>144.9</ele>
        <time>2016-05-05T14:37:14Z</time>
      </trkpt>
      <trkpt lat="47.30969" lon="2.90271">
        <ele>144.9</ele>
        <time>2016-05-05T14:37:17Z</time>
      </trkpt>
      <trkpt lat="47.30963" lon="2.90283">
        <ele>144.8</ele>
        <time>2016-05-05T14:37:20Z</time>
      </trkpt>
      <trkpt lat="47.30957" lon="2.90294">
        <ele>145</ele>
        <time>2016-05-05T14:37:23Z</time>
      </trkpt>
      <trkpt lat="47.30952" lon="2.90306">
        <ele>145.2</ele>
        <time>2016-05-05T14:37:26Z</time>
      </trkpt>
      <trkpt lat="47.30946" lon="2.90318">
        <ele>145.1</ele>
        <time>2016-05-05T14:37:29Z</time>
      </trkpt>
      <trkpt lat="47.30942" lon="2.90331">
        <ele>145.2</ele>
        <time>2016-05-05T14:37:32Z</time>
      </trkpt>
      <trkpt lat="47.30937" lon="2.90346">
        <ele>145.1</ele>
        <time>2016-05-05T14:37:35Z</time>
      </trkpt>
      <trkpt lat="47.30929" lon="2.90354">
        <ele>145.6</ele>
        <time>2016-05-05T14:38:35Z</time>
      </trkpt>
      <trkpt lat="47.30921" lon="2.90363">
        <ele>145.8</ele>
        <time>2016-05-05T14:38:40Z</time>
      </trkpt>
      <trkpt lat="47.30914" lon="2.90376">
        <ele>145.7</ele>
        <time>2016-05-05T14:38:45Z</time>
      </trkpt>
      <trkpt lat="47.30908" lon="2.90389">
        <ele>145.7</ele>
        <time>2016-05-05T14:38:49Z</time>
      </trkpt>
      <trkpt lat="47.30903" lon="2.90402">
        <ele>145.9</ele>
        <time>2016-05-05T14:38:53Z</time>
      </trkpt>
      <trkpt lat="47.30898" lon="2.90417">
        <ele>146.1</ele>
        <time>2016-05-05T14:38:57Z</time>
      </trkpt>
      <trkpt lat="47.30892" lon="2.90431">
        <ele>146.3</ele>
        <time>2016-05-05T14:39:01Z</time>
      </trkpt>
      <trkpt lat="47.30888" lon="2.90445">
        <ele>146.3</ele>
        <time>2016-05-05T14:39:05Z</time>
      </trkpt>
      <trkpt lat="47.30882" lon="2.90459">
        <ele>146.3</ele>
        <time>2016-05-05T14:39:09Z</time>
      </trkpt>
      <trkpt lat="47.30875" lon="2.9047">
        <ele>146.4</ele>
        <time>2016-05-05T14:39:13Z</time>
      </trkpt>
      <trkpt lat="47.30871" lon="2.90485">
        <ele>146.6</ele>
        <time>2016-05-05T14:39:17Z</time>
      </trkpt>
      <trkpt lat="47.30866" lon="2.905">
        <ele>146.6</ele>
        <time>2016-05-05T14:39:21Z</time>
      </trkpt>
      <trkpt lat="47.30859" lon="2.90514">
        <ele>146.5</ele>
        <time>2016-05-05T14:39:25Z</time>
      </trkpt>
      <trkpt lat="47.30854" lon="2.90527">
        <ele>146.6</ele>
        <time>2016-05-05T14:39:28Z</time>
      </trkpt>
      <trkpt lat="47.3085" lon="2.90541">
        <ele>146.6</ele>
        <time>2016-05-05T14:39:31Z</time>
      </trkpt>
      <trkpt lat="47.30845" lon="2.90554">
        <ele>146.7</ele>
        <time>2016-05-05T14:39:34Z</time>
      </trkpt>
      <trkpt lat="47.3084" lon="2.90566">
        <ele>146.4</ele>
        <time>2016-05-05T14:39:37Z</time>
      </trkpt>
      <trkpt lat="47.30835" lon="2.90578">
        <ele>146.6</ele>
        <time>2016-05-05T14:39:40Z</time>
      </trkpt>
      <trkpt lat="47.3083" lon="2.90594">
        <ele>146.9</ele>
        <time>2016-05-05T14:39:44Z</time>
      </trkpt>
      <trkpt lat="47.30826" lon="2.90607">
        <ele>146.9</ele>
        <time>2016-05-05T14:39:47Z</time>
      </trkpt>
      <trkpt lat="47.30821" lon="2.9062">
        <ele>147</ele>
        <time>2016-05-05T14:39:50Z</time>
      </trkpt>
      <trkpt lat="47.30816" lon="2.90632">
        <ele>147</ele>
        <time>2016-05-05T14:39:53Z</time>
      </trkpt>
      <trkpt lat="47.30811" lon="2.90645">
        <ele>146.8</ele>
        <time>2016-05-05T14:39:56Z</time>
      </trkpt>
      <trkpt lat="47.30805" lon="2.90659">
        <ele>146.7</ele>
        <time>2016-05-05T14:39:59Z</time>
      </trkpt>
      <trkpt lat="47.30801" lon="2.90674">
        <ele>146.6</ele>
        <time>2016-05-05T14:40:02Z</time>
      </trkpt>
      <trkpt lat="47.30795" lon="2.90688">
        <ele>146.5</ele>
        <time>2016-05-05T14:40:05Z</time>
      </trkpt>
      <trkpt lat="47.3079" lon="2.90704">
        <ele>146.4</ele>
        <time>2016-05-05T14:40:08Z</time>
      </trkpt>
      <trkpt lat="47.30786" lon="2.90722">
        <ele>146.4</ele>
        <time>2016-05-05T14:40:11Z</time>
      </trkpt>
      <trkpt lat="47.30782" lon="2.90735">
        <ele>146.5</ele>
        <time>2016-05-05T14:40:13Z</time>
      </trkpt>
      <trkpt lat="47.30777" lon="2.90749">
        <ele>146.2</ele>
        <time>2016-05-05T14:40:15Z</time>
      </trkpt>
      <trkpt lat="47.30772" lon="2.90762">
        <ele>145.8</ele>
        <time>2016-05-05T14:40:17Z</time>
      </trkpt>
      <trkpt lat="47.30767" lon="2.90777">
        <ele>145.8</ele>
        <time>2016-05-05T14:40:19Z</time>
      </trkpt>
      <trkpt lat="47.30764" lon="2.9079">
        <ele>145.7</ele>
        <time>2016-05-05T14:40:21Z</time>
      </trkpt>
      <trkpt lat="47.30759" lon="2.90803">
        <ele>145.7</ele>
        <time>2016-05-05T14:40:23Z</time>
      </trkpt>
      <trkpt lat="47.30755" lon="2.90815">
        <ele>145.5</ele>
        <time>2016-05-05T14:40:25Z</time>
      </trkpt>
      <trkpt lat="47.30751" lon="2.90827">
        <ele>145.3</ele>
        <time>2016-05-05T14:40:27Z</time>
      </trkpt>
      <trkpt lat="47.30748" lon="2.9084">
        <ele>145.2</ele>
        <time>2016-05-05T14:40:29Z</time>
      </trkpt>
      <trkpt lat="47.30742" lon="2.90857">
        <ele>145.3</ele>
        <time>2016-05-05T14:40:32Z</time>
      </trkpt>
      <trkpt lat="47.30738" lon="2.90874">
        <ele>145.4</ele>
        <time>2016-05-05T14:40:35Z</time>
      </trkpt>
      <trkpt lat="47.30736" lon="2.90889">
        <ele>145.5</ele>
        <time>2016-05-05T14:40:38Z</time>
      </trkpt>
      <trkpt lat="47.30732" lon="2.90902">
        <ele>145.4</ele>
        <time>2016-05-05T14:40:41Z</time>
      </trkpt>
      <trkpt lat="47.30728" lon="2.90916">
        <ele>145.3</ele>
        <time>2016-05-05T14:40:44Z</time>
      </trkpt>
      <trkpt lat="47.30725" lon="2.90932">
        <ele>145.3</ele>
        <time>2016-05-05T14:40:47Z</time>
      </trkpt>
      <trkpt lat="47.30723" lon="2.90948">
        <ele>145.2</ele>
        <time>2016-05-05T14:40:50Z</time>
      </trkpt>
      <trkpt lat="47.30713" lon="2.90952">
        <ele>145</ele>
        <time>2016-05-05T14:40:54Z</time>
      </trkpt>
      <trkpt lat="47.30705" lon="2.90942">
        <ele>145.1</ele>
        <time>2016-05-05T14:40:57Z</time>
      </trkpt>
      <trkpt lat="47.30699" lon="2.90931">
        <ele>145.1</ele>
        <time>2016-05-05T14:41:00Z</time>
      </trkpt>
      <trkpt lat="47.30693" lon="2.90919">
        <ele>144.9</ele>
        <time>2016-05-05T14:41:03Z</time>
      </trkpt>
      <trkpt lat="47.30689" lon="2.90905">
        <ele>144.9</ele>
        <time>2016-05-05T14:41:06Z</time>
      </trkpt>
      <trkpt lat="47.30683" lon="2.90891">
        <ele>144.9</ele>
        <time>2016-05-05T14:41:09Z</time>
      </trkpt>
      <trkpt lat="47.30677" lon="2.90876">
        <ele>144.7</ele>
        <time>2016-05-05T14:41:12Z</time>
      </trkpt>
      <trkpt lat="47.30671" lon="2.90861">
        <ele>144.6</ele>
        <time>2016-05-05T14:41:15Z</time>
      </trkpt>
      <trkpt lat="47.30665" lon="2.90847">
        <ele>144.6</ele>
        <time>2016-05-05T14:41:18Z</time>
      </trkpt>
      <trkpt lat="47.30659" lon="2.90832">
        <ele>144.7</ele>
        <time>2016-05-05T14:41:21Z</time>
      </trkpt>
      <trkpt lat="47.30654" lon="2.90818">
        <ele>144.8</ele>
        <time>2016-05-05T14:41:24Z</time>
      </trkpt>
      <trkpt lat="47.30649" lon="2.90805">
        <ele>144.9</ele>
        <time>2016-05-05T14:41:27Z</time>
      </trkpt>
      <trkpt lat="47.30643" lon="2.90791">
        <ele>145</ele>
        <time>2016-05-05T14:41:30Z</time>
      </trkpt>
      <trkpt lat="47.30638" lon="2.90776">
        <ele>145.1</ele>
        <time>2016-05-05T14:41:33Z</time>
      </trkpt>
      <trkpt lat="47.30631" lon="2.90761">
        <ele>145.1</ele>
        <time>2016-05-05T14:41:36Z</time>
      </trkpt>
      <trkpt lat="47.30625" lon="2.90745">
        <ele>145</ele>
        <time>2016-05-05T14:41:39Z</time>
      </trkpt>
      <trkpt lat="47.30621" lon="2.90734">
        <ele>144.9</ele>
        <time>2016-05-05T14:41:41Z</time>
      </trkpt>
      <trkpt lat="47.30616" lon="2.90722">
        <ele>144.8</ele>
        <time>2016-05-05T14:41:43Z</time>
      </trkpt>
      <trkpt lat="47.30611" lon="2.90711">
        <ele>144.7</ele>
        <time>2016-05-05T14:41:45Z</time>
      </trkpt>
      <trkpt lat="47.30606" lon="2.90699">
        <ele>144.6</ele>
        <time>2016-05-05T14:41:47Z</time>
      </trkpt>
      <trkpt lat="47.30601" lon="2.90687">
        <ele>144.5</ele>
        <time>2016-05-05T14:41:49Z</time>
      </trkpt>
      <trkpt lat="47.30596" lon="2.90675">
        <ele>144.5</ele>
        <time>2016-05-05T14:41:51Z</time>
      </trkpt>
      <trkpt lat="47.30591" lon="2.90663">
        <ele>144.4</ele>
        <time>2016-05-05T14:41:53Z</time>
      </trkpt>
      <trkpt lat="47.30587" lon="2.90651">
        <ele>144.4</ele>
        <time>2016-05-05T14:41:55Z</time>
      </trkpt>
      <trkpt lat="47.30582" lon="2.90639">
        <ele>144.3</ele>
        <time>2016-05-05T14:41:57Z</time>
      </trkpt>
      <trkpt lat="47.30577" lon="2.90626">
        <ele>144.2</ele>
        <time>2016-05-05T14:41:59Z</time>
      </trkpt>
      <trkpt lat="47.30571" lon="2.90613">
        <ele>144.1</ele>
        <time>2016-05-05T14:42:01Z</time>
      </trkpt>
      <trkpt lat="47.30566" lon="2.90601">
        <ele>144.1</ele>
        <time>2016-05-05T14:42:03Z</time>
      </trkpt>
      <trkpt lat="47.30561" lon="2.90589">
        <ele>144.2</ele>
        <time>2016-05-05T14:42:05Z</time>
      </trkpt>
      <trkpt lat="47.30556" lon="2.90577">
        <ele>144.3</ele>
        <time>2016-05-05T14:42:07Z</time>
      </trkpt>
      <trkpt lat="47.30551" lon="2.90565">
        <ele>144.5</ele>
        <time>2016-05-05T14:42:09Z</time>
      </trkpt>
      <trkpt lat="47.30546" lon="2.90552">
        <ele>144.8</ele>
        <time>2016-05-05T14:42:11Z</time>
      </trkpt>
      <trkpt lat="47.30541" lon="2.90539">
        <ele>144.9</ele>
        <time>2016-05-05T14:42:13Z</time>
      </trkpt>
      <trkpt lat="47.30535" lon="2.90526">
        <ele>144.9</ele>
        <time>2016-05-05T14:42:15Z</time>
      </trkpt>
      <trkpt lat="47.30529" lon="2.90511">
        <ele>144.9</ele>
        <time>2016-05-05T14:42:17Z</time>
      </trkpt>
      <trkpt lat="47.30523" lon="2.90496">
        <ele>144.5</ele>
        <time>2016-05-05T14:42:19Z</time>
      </trkpt>
      <trkpt lat="47.30517" lon="2.90481">
        <ele>144.3</ele>
        <time>2016-05-05T14:42:21Z</time>
      </trkpt>
      <trkpt lat="47.30511" lon="2.90467">
        <ele>144.3</ele>
        <time>2016-05-05T14:42:23Z</time>
      </trkpt>
      <trkpt lat="47.30505" lon="2.90453">
        <ele>144.4</ele>
        <time>2016-05-05T14:42:25Z</time>
      </trkpt>
      <trkpt lat="47.30499" lon="2.90439">
        <ele>144.5</ele>
        <time>2016-05-05T14:42:27Z</time>
      </trkpt>
      <trkpt lat="47.30494" lon="2.90425">
        <ele>144.5</ele>
        <time>2016-05-05T14:42:29Z</time>
      </trkpt>
      <trkpt lat="47.30488" lon="2.90411">
        <ele>144.4</ele>
        <time>2016-05-05T14:42:31Z</time>
      </trkpt>
      <trkpt lat="47.30482" lon="2.90397">
        <ele>144.3</ele>
        <time>2016-05-05T14:42:33Z</time>
      </trkpt>
      <trkpt lat="47.30476" lon="2.90383">
        <ele>144.2</ele>
        <time>2016-05-05T14:42:35Z</time>
      </trkpt>
      <trkpt lat="47.30471" lon="2.9037">
        <ele>144.2</ele>
        <time>2016-05-05T14:42:37Z</time>
      </trkpt>
      <trkpt lat="47.30465" lon="2.90357">
        <ele>144.4</ele>
        <time>2016-05-05T14:42:39Z</time>
      </trkpt>
      <trkpt lat="47.3046" lon="2.90344">
        <ele>144.5</ele>
        <time>2016-05-05T14:42:41Z</time>
      </trkpt>
      <trkpt lat="47.30454" lon="2.90332">
        <ele>144.6</ele>
        <time>2016-05-05T14:42:43Z</time>
      </trkpt>
      <trkpt lat="47.30448" lon="2.90321">
        <ele>144.6</ele>
        <time>2016-05-05T14:42:45Z</time>
      </trkpt>
      <trkpt lat="47.30442" lon="2.9031">
        <ele>144.8</ele>
        <time>2016-05-05T14:42:47Z</time>
      </trkpt>
      <trkpt lat="47.30437" lon="2.90293">
        <ele>145</ele>
        <time>2016-05-05T14:42:50Z</time>
      </trkpt>
      <trkpt lat="47.30433" lon="2.90279">
        <ele>145.6</ele>
        <time>2016-05-05T14:42:54Z</time>
      </trkpt>
      <trkpt lat="47.30436" lon="2.90264">
        <ele>146.1</ele>
        <time>2016-05-05T14:42:57Z</time>
      </trkpt>
      <trkpt lat="47.30448" lon="2.90256">
        <ele>146.1</ele>
        <time>2016-05-05T14:43:00Z</time>
      </trkpt>
      <trkpt lat="47.30457" lon="2.90252">
        <ele>146</ele>
        <time>2016-05-05T14:43:02Z</time>
      </trkpt>
      <trkpt lat="47.30466" lon="2.90246">
        <ele>146</ele>
        <time>2016-05-05T14:43:04Z</time>
      </trkpt>
      <trkpt lat="47.30474" lon="2.90239">
        <ele>145.9</ele>
        <time>2016-05-05T14:43:06Z</time>
      </trkpt>
      <trkpt lat="47.30481" lon="2.90229">
        <ele>145.8</ele>
        <time>2016-05-05T14:43:08Z</time>
      </trkpt>
      <trkpt lat="47.30486" lon="2.90218">
        <ele>145.8</ele>
        <time>2016-05-05T14:43:10Z</time>
      </trkpt>
      <trkpt lat="47.30491" lon="2.90206">
        <ele>145.8</ele>
        <time>2016-05-05T14:43:12Z</time>
      </trkpt>
      <trkpt lat="47.30496" lon="2.90195">
        <ele>145.8</ele>
        <time>2016-05-05T14:43:14Z</time>
      </trkpt>
      <trkpt lat="47.30501" lon="2.90183">
        <ele>145.8</ele>
        <time>2016-05-05T14:43:16Z</time>
      </trkpt>
      <trkpt lat="47.30507" lon="2.90171">
        <ele>145.7</ele>
        <time>2016-05-05T14:43:18Z</time>
      </trkpt>
      <trkpt lat="47.30512" lon="2.9016">
        <ele>145.8</ele>
        <time>2016-05-05T14:43:20Z</time>
      </trkpt>
      <trkpt lat="47.30517" lon="2.90148">
        <ele>145.8</ele>
        <time>2016-05-05T14:43:22Z</time>
      </trkpt>
      <trkpt lat="47.30523" lon="2.90136">
        <ele>145.8</ele>
        <time>2016-05-05T14:43:24Z</time>
      </trkpt>
      <trkpt lat="47.30528" lon="2.90124">
        <ele>145.8</ele>
        <time>2016-05-05T14:43:26Z</time>
      </trkpt>
      <trkpt lat="47.30534" lon="2.90112">
        <ele>145.7</ele>
        <time>2016-05-05T14:43:28Z</time>
      </trkpt>
      <trkpt lat="47.3054" lon="2.901">
        <ele>145.6</ele>
        <time>2016-05-05T14:43:30Z</time>
      </trkpt>
      <trkpt lat="47.30545" lon="2.90087">
        <ele>145.6</ele>
        <time>2016-05-05T14:43:32Z</time>
      </trkpt>
      <trkpt lat="47.30551" lon="2.90074">
        <ele>145.5</ele>
        <time>2016-05-05T14:43:34Z</time>
      </trkpt>
      <trkpt lat="47.30556" lon="2.90062">
        <ele>145.4</ele>
        <time>2016-05-05T14:43:36Z</time>
      </trkpt>
      <trkpt lat="47.30562" lon="2.90049">
        <ele>145.3</ele>
        <time>2016-05-05T14:43:38Z</time>
      </trkpt>
      <trkpt lat="47.30568" lon="2.90036">
        <ele>145.1</ele>
        <time>2016-05-05T14:43:40Z</time>
      </trkpt>
      <trkpt lat="47.30574" lon="2.90023">
        <ele>145</ele>
        <time>2016-05-05T14:43:42Z</time>
      </trkpt>
      <trkpt lat="47.3058" lon="2.9001">
        <ele>144.9</ele>
        <time>2016-05-05T14:43:44Z</time>
      </trkpt>
      <trkpt lat="47.30586" lon="2.89997">
        <ele>144.9</ele>
        <time>2016-05-05T14:43:46Z</time>
      </trkpt>
      <trkpt lat="47.30592" lon="2.89984">
        <ele>144.9</ele>
        <time>2016-05-05T14:43:48Z</time>
      </trkpt>
      <trkpt lat="47.30598" lon="2.89971">
        <ele>144.9</ele>
        <time>2016-05-05T14:43:50Z</time>
      </trkpt>
      <trkpt lat="47.30604" lon="2.89959">
        <ele>144.9</ele>
        <time>2016-05-05T14:43:52Z</time>
      </trkpt>
      <trkpt lat="47.3061" lon="2.89947">
        <ele>144.9</ele>
        <time>2016-05-05T14:43:54Z</time>
      </trkpt>
      <trkpt lat="47.30616" lon="2.89934">
        <ele>144.9</ele>
        <time>2016-05-05T14:43:56Z</time>
      </trkpt>
      <trkpt lat="47.30622" lon="2.89922">
        <ele>144.8</ele>
        <time>2016-05-05T14:43:58Z</time>
      </trkpt>
      <trkpt lat="47.30628" lon="2.8991">
        <ele>144.6</ele>
        <time>2016-05-05T14:44:00Z</time>
      </trkpt>
      <trkpt lat="47.30633" lon="2.89898">
        <ele>144.6</ele>
        <time>2016-05-05T14:44:02Z</time>
      </trkpt>
      <trkpt lat="47.30638" lon="2.89886">
        <ele>144.7</ele>
        <time>2016-05-05T14:44:04Z</time>
      </trkpt>
      <trkpt lat="47.30645" lon="2.8987">
        <ele>144.8</ele>
        <time>2016-05-05T14:44:07Z</time>
      </trkpt>
      <trkpt lat="47.30651" lon="2.8986">
        <ele>144.9</ele>
        <time>2016-05-05T14:44:09Z</time>
      </trkpt>
      <trkpt lat="47.30656" lon="2.8985">
        <ele>145.1</ele>
        <time>2016-05-05T14:44:11Z</time>
      </trkpt>
      <trkpt lat="47.30665" lon="2.89835">
        <ele>145.1</ele>
        <time>2016-05-05T14:44:14Z</time>
      </trkpt>
      <trkpt lat="47.30673" lon="2.89821">
        <ele>145.1</ele>
        <time>2016-05-05T14:44:17Z</time>
      </trkpt>
      <trkpt lat="47.30679" lon="2.89811">
        <ele>145.1</ele>
        <time>2016-05-05T14:44:19Z</time>
      </trkpt>
      <trkpt lat="47.30685" lon="2.89799">
        <ele>145.1</ele>
        <time>2016-05-05T14:44:21Z</time>
      </trkpt>
      <trkpt lat="47.30691" lon="2.89788">
        <ele>145.1</ele>
        <time>2016-05-05T14:44:23Z</time>
      </trkpt>
      <trkpt lat="47.30696" lon="2.89775">
        <ele>145.1</ele>
        <time>2016-05-05T14:44:25Z</time>
      </trkpt>
      <trkpt lat="47.30701" lon="2.89763">
        <ele>145</ele>
        <time>2016-05-05T14:44:27Z</time>
      </trkpt>
      <trkpt lat="47.30706" lon="2.8975">
        <ele>145</ele>
        <time>2016-05-05T14:44:29Z</time>
      </trkpt>
      <trkpt lat="47.3071" lon="2.89737">
        <ele>144.9</ele>
        <time>2016-05-05T14:44:31Z</time>
      </trkpt>
      <trkpt lat="47.30714" lon="2.89725">
        <ele>145</ele>
        <time>2016-05-05T14:44:33Z</time>
      </trkpt>
      <trkpt lat="47.30717" lon="2.89712">
        <ele>145</ele>
        <time>2016-05-05T14:44:35Z</time>
      </trkpt>
      <trkpt lat="47.3072" lon="2.89699">
        <ele>145</ele>
        <time>2016-05-05T14:44:37Z</time>
      </trkpt>
      <trkpt lat="47.30723" lon="2.89687">
        <ele>144.9</ele>
        <time>2016-05-05T14:44:39Z</time>
      </trkpt>
      <trkpt lat="47.30726" lon="2.89674">
        <ele>144.9</ele>
        <time>2016-05-05T14:44:41Z</time>
      </trkpt>
      <trkpt lat="47.30729" lon="2.89661">
        <ele>144.9</ele>
        <time>2016-05-05T14:44:43Z</time>
      </trkpt>
      <trkpt lat="47.30736" lon="2.89643">
        <ele>144.9</ele>
        <time>2016-05-05T14:44:46Z</time>
      </trkpt>
      <trkpt lat="47.3074" lon="2.89631">
        <ele>144.9</ele>
        <time>2016-05-05T14:44:48Z</time>
      </trkpt>
      <trkpt lat="47.30745" lon="2.89619">
        <ele>144.9</ele>
        <time>2016-05-05T14:44:50Z</time>
      </trkpt>
      <trkpt lat="47.30749" lon="2.89607">
        <ele>144.7</ele>
        <time>2016-05-05T14:44:52Z</time>
      </trkpt>
      <trkpt lat="47.30754" lon="2.89595">
        <ele>144.7</ele>
        <time>2016-05-05T14:44:54Z</time>
      </trkpt>
      <trkpt lat="47.30759" lon="2.89583">
        <ele>144.6</ele>
        <time>2016-05-05T14:44:56Z</time>
      </trkpt>
      <trkpt lat="47.30764" lon="2.8957">
        <ele>144.5</ele>
        <time>2016-05-05T14:44:58Z</time>
      </trkpt>
      <trkpt lat="47.30768" lon="2.89558">
        <ele>144.6</ele>
        <time>2016-05-05T14:45:00Z</time>
      </trkpt>
      <trkpt lat="47.30773" lon="2.89547">
        <ele>144.7</ele>
        <time>2016-05-05T14:45:02Z</time>
      </trkpt>
      <trkpt lat="47.30781" lon="2.89531">
        <ele>144.8</ele>
        <time>2016-05-05T14:45:05Z</time>
      </trkpt>
      <trkpt lat="47.30787" lon="2.89515">
        <ele>144.9</ele>
        <time>2016-05-05T14:45:08Z</time>
      </trkpt>
      <trkpt lat="47.30795" lon="2.89499">
        <ele>144.7</ele>
        <time>2016-05-05T14:45:11Z</time>
      </trkpt>
      <trkpt lat="47.30803" lon="2.89484">
        <ele>144.5</ele>
        <time>2016-05-05T14:45:14Z</time>
      </trkpt>
      <trkpt lat="47.30811" lon="2.89471">
        <ele>144.4</ele>
        <time>2016-05-05T14:45:17Z</time>
      </trkpt>
      <trkpt lat="47.30822" lon="2.89459">
        <ele>144.5</ele>
        <time>2016-05-05T14:45:20Z</time>
      </trkpt>
      <trkpt lat="47.30833" lon="2.89447">
        <ele>144.4</ele>
        <time>2016-05-05T14:45:23Z</time>
      </trkpt>
      <trkpt lat="47.30843" lon="2.89435">
        <ele>144.4</ele>
        <time>2016-05-05T14:45:26Z</time>
      </trkpt>
      <trkpt lat="47.30853" lon="2.89423">
        <ele>144.4</ele>
        <time>2016-05-05T14:45:29Z</time>
      </trkpt>
      <trkpt lat="47.30862" lon="2.89409">
        <ele>144.4</ele>
        <time>2016-05-05T14:45:32Z</time>
      </trkpt>
      <trkpt lat="47.30871" lon="2.89395">
        <ele>144.3</ele>
        <time>2016-05-05T14:45:35Z</time>
      </trkpt>
      <trkpt lat="47.3088" lon="2.89381">
        <ele>144.3</ele>
        <time>2016-05-05T14:45:38Z</time>
      </trkpt>
      <trkpt lat="47.30889" lon="2.89366">
        <ele>144.3</ele>
        <time>2016-05-05T14:45:41Z</time>
      </trkpt>
      <trkpt lat="47.30897" lon="2.89352">
        <ele>144.2</ele>
        <time>2016-05-05T14:45:44Z</time>
      </trkpt>
      <trkpt lat="47.30905" lon="2.89339">
        <ele>144.2</ele>
        <time>2016-05-05T14:45:47Z</time>
      </trkpt>
      <trkpt lat="47.30912" lon="2.89329">
        <ele>144.2</ele>
        <time>2016-05-05T14:45:49Z</time>
      </trkpt>
      <trkpt lat="47.30921" lon="2.89313">
        <ele>144.2</ele>
        <time>2016-05-05T14:45:52Z</time>
      </trkpt>
      <trkpt lat="47.30926" lon="2.89302">
        <ele>144.2</ele>
        <time>2016-05-05T14:45:54Z</time>
      </trkpt>
      <trkpt lat="47.30932" lon="2.89291">
        <ele>144.2</ele>
        <time>2016-05-05T14:45:56Z</time>
      </trkpt>
      <trkpt lat="47.30936" lon="2.89279">
        <ele>144.1</ele>
        <time>2016-05-05T14:45:58Z</time>
      </trkpt>
      <trkpt lat="47.30943" lon="2.89263">
        <ele>144.2</ele>
        <time>2016-05-05T14:46:01Z</time>
      </trkpt>
      <trkpt lat="47.30951" lon="2.89247">
        <ele>144.2</ele>
        <time>2016-05-05T14:46:04Z</time>
      </trkpt>
      <trkpt lat="47.30958" lon="2.89232">
        <ele>144.2</ele>
        <time>2016-05-05T14:46:07Z</time>
      </trkpt>
      <trkpt lat="47.30965" lon="2.89215">
        <ele>144.2</ele>
        <time>2016-05-05T14:46:10Z</time>
      </trkpt>
      <trkpt lat="47.30972" lon="2.892">
        <ele>144.3</ele>
        <time>2016-05-05T14:46:13Z</time>
      </trkpt>
      <trkpt lat="47.30979" lon="2.89184">
        <ele>144.4</ele>
        <time>2016-05-05T14:46:16Z</time>
      </trkpt>
      <trkpt lat="47.30986" lon="2.89167">
        <ele>144.5</ele>
        <time>2016-05-05T14:46:19Z</time>
      </trkpt>
      <trkpt lat="47.30992" lon="2.89151">
        <ele>144.6</ele>
        <time>2016-05-05T14:46:22Z</time>
      </trkpt>
      <trkpt lat="47.30999" lon="2.89135">
        <ele>144.6</ele>
        <time>2016-05-05T14:46:25Z</time>
      </trkpt>
      <trkpt lat="47.31006" lon="2.89118">
        <ele>144.6</ele>
        <time>2016-05-05T14:46:28Z</time>
      </trkpt>
      <trkpt lat="47.31012" lon="2.89107">
        <ele>144.7</ele>
        <time>2016-05-05T14:46:30Z</time>
      </trkpt>
      <trkpt lat="47.3102" lon="2.89091">
        <ele>144.6</ele>
        <time>2016-05-05T14:46:33Z</time>
      </trkpt>
      <trkpt lat="47.31026" lon="2.89081">
        <ele>144.5</ele>
        <time>2016-05-05T14:46:35Z</time>
      </trkpt>
      <trkpt lat="47.31032" lon="2.8907">
        <ele>144.5</ele>
        <time>2016-05-05T14:46:37Z</time>
      </trkpt>
      <trkpt lat="47.31038" lon="2.89059">
        <ele>144.5</ele>
        <time>2016-05-05T14:46:39Z</time>
      </trkpt>
      <trkpt lat="47.31045" lon="2.89049">
        <ele>144.5</ele>
        <time>2016-05-05T14:46:41Z</time>
      </trkpt>
      <trkpt lat="47.31051" lon="2.89038">
        <ele>144.5</ele>
        <time>2016-05-05T14:46:43Z</time>
      </trkpt>
      <trkpt lat="47.31057" lon="2.89025">
        <ele>144.4</ele>
        <time>2016-05-05T14:46:45Z</time>
      </trkpt>
      <trkpt lat="47.31062" lon="2.89012">
        <ele>144.3</ele>
        <time>2016-05-05T14:46:47Z</time>
      </trkpt>
      <trkpt lat="47.31067" lon="2.88999">
        <ele>144.2</ele>
        <time>2016-05-05T14:46:49Z</time>
      </trkpt>
      <trkpt lat="47.31071" lon="2.88986">
        <ele>144</ele>
        <time>2016-05-05T14:46:51Z</time>
      </trkpt>
      <trkpt lat="47.31074" lon="2.88972">
        <ele>143.8</ele>
        <time>2016-05-05T14:46:53Z</time>
      </trkpt>
      <trkpt lat="47.31077" lon="2.88959">
        <ele>143.9</ele>
        <time>2016-05-05T14:46:55Z</time>
      </trkpt>
      <trkpt lat="47.31079" lon="2.88946">
        <ele>143.9</ele>
        <time>2016-05-05T14:46:57Z</time>
      </trkpt>
      <trkpt lat="47.31082" lon="2.88933">
        <ele>144.1</ele>
        <time>2016-05-05T14:46:59Z</time>
      </trkpt>
      <trkpt lat="47.31085" lon="2.88919">
        <ele>144.2</ele>
        <time>2016-05-05T14:47:01Z</time>
      </trkpt>
      <trkpt lat="47.31088" lon="2.88906">
        <ele>144.4</ele>
        <time>2016-05-05T14:47:03Z</time>
      </trkpt>
      <trkpt lat="47.3109" lon="2.88893">
        <ele>144.4</ele>
        <time>2016-05-05T14:47:05Z</time>
      </trkpt>
      <trkpt lat="47.31092" lon="2.88879">
        <ele>144.1</ele>
        <time>2016-05-05T14:47:07Z</time>
      </trkpt>
      <trkpt lat="47.31094" lon="2.88865">
        <ele>143.9</ele>
        <time>2016-05-05T14:47:09Z</time>
      </trkpt>
      <trkpt lat="47.31096" lon="2.88851">
        <ele>144.1</ele>
        <time>2016-05-05T14:47:11Z</time>
      </trkpt>
      <trkpt lat="47.31099" lon="2.88837">
        <ele>144.1</ele>
        <time>2016-05-05T14:47:13Z</time>
      </trkpt>
      <trkpt lat="47.31101" lon="2.88823">
        <ele>144.1</ele>
        <time>2016-05-05T14:47:15Z</time>
      </trkpt>
      <trkpt lat="47.31104" lon="2.88809">
        <ele>144.3</ele>
        <time>2016-05-05T14:47:17Z</time>
      </trkpt>
      <trkpt lat="47.31106" lon="2.88795">
        <ele>144.3</ele>
        <time>2016-05-05T14:47:19Z</time>
      </trkpt>
      <trkpt lat="47.31107" lon="2.88781">
        <ele>144.4</ele>
        <time>2016-05-05T14:47:21Z</time>
      </trkpt>
      <trkpt lat="47.31109" lon="2.88767">
        <ele>144.3</ele>
        <time>2016-05-05T14:47:23Z</time>
      </trkpt>
      <trkpt lat="47.31111" lon="2.88753">
        <ele>144.1</ele>
        <time>2016-05-05T14:47:25Z</time>
      </trkpt>
      <trkpt lat="47.31112" lon="2.8874">
        <ele>144</ele>
        <time>2016-05-05T14:47:27Z</time>
      </trkpt>
      <trkpt lat="47.31114" lon="2.88726">
        <ele>144</ele>
        <time>2016-05-05T14:47:29Z</time>
      </trkpt>
      <trkpt lat="47.31116" lon="2.88707">
        <ele>143.6</ele>
        <time>2016-05-05T14:47:32Z</time>
      </trkpt>
      <trkpt lat="47.31117" lon="2.88688">
        <ele>143.5</ele>
        <time>2016-05-05T14:47:35Z</time>
      </trkpt>
      <trkpt lat="47.31119" lon="2.88669">
        <ele>143.6</ele>
        <time>2016-05-05T14:47:38Z</time>
      </trkpt>
      <trkpt lat="47.3112" lon="2.88651">
        <ele>143.7</ele>
        <time>2016-05-05T14:47:41Z</time>
      </trkpt>
      <trkpt lat="47.31121" lon="2.88635">
        <ele>143.9</ele>
        <time>2016-05-05T14:47:44Z</time>
      </trkpt>
      <trkpt lat="47.31123" lon="2.88618">
        <ele>143.7</ele>
        <time>2016-05-05T14:47:47Z</time>
      </trkpt>
      <trkpt lat="47.31124" lon="2.886">
        <ele>143.5</ele>
        <time>2016-05-05T14:47:50Z</time>
      </trkpt>
      <trkpt lat="47.31126" lon="2.88582">
        <ele>143.6</ele>
        <time>2016-05-05T14:47:53Z</time>
      </trkpt>
      <trkpt lat="47.31127" lon="2.88563">
        <ele>143.7</ele>
        <time>2016-05-05T14:47:56Z</time>
      </trkpt>
      <trkpt lat="47.31129" lon="2.88544">
        <ele>143.8</ele>
        <time>2016-05-05T14:47:59Z</time>
      </trkpt>
      <trkpt lat="47.3113" lon="2.88525">
        <ele>143.6</ele>
        <time>2016-05-05T14:48:02Z</time>
      </trkpt>
      <trkpt lat="47.31131" lon="2.88507">
        <ele>143.6</ele>
        <time>2016-05-05T14:48:05Z</time>
      </trkpt>
      <trkpt lat="47.31133" lon="2.8849">
        <ele>143.4</ele>
        <time>2016-05-05T14:48:08Z</time>
      </trkpt>
      <trkpt lat="47.31136" lon="2.88477">
        <ele>143.5</ele>
        <time>2016-05-05T14:48:11Z</time>
      </trkpt>
      <trkpt lat="47.31146" lon="2.88481">
        <ele>143.6</ele>
        <time>2016-05-05T14:48:15Z</time>
      </trkpt>
      <trkpt lat="47.31156" lon="2.88479">
        <ele>144.4</ele>
        <time>2016-05-05T14:54:55Z</time>
      </trkpt>
      <trkpt lat="47.31165" lon="2.8848">
        <ele>144.4</ele>
        <time>2016-05-05T14:55:03Z</time>
      </trkpt>
      <trkpt lat="47.31176" lon="2.88477">
        <ele>144.3</ele>
        <time>2016-05-05T14:55:10Z</time>
      </trkpt>
      <trkpt lat="47.31183" lon="2.88465">
        <ele>144</ele>
        <time>2016-05-05T14:55:16Z</time>
      </trkpt>
      <trkpt lat="47.31188" lon="2.88451">
        <ele>143.8</ele>
        <time>2016-05-05T14:55:20Z</time>
      </trkpt>
      <trkpt lat="47.31192" lon="2.88437">
        <ele>143.8</ele>
        <time>2016-05-05T14:55:24Z</time>
      </trkpt>
      <trkpt lat="47.31197" lon="2.88422">
        <ele>143.8</ele>
        <time>2016-05-05T14:55:28Z</time>
      </trkpt>
      <trkpt lat="47.31202" lon="2.88408">
        <ele>143.8</ele>
        <time>2016-05-05T14:55:32Z</time>
      </trkpt>
      <trkpt lat="47.31208" lon="2.88393">
        <ele>143.9</ele>
        <time>2016-05-05T14:55:36Z</time>
      </trkpt>
      <trkpt lat="47.31214" lon="2.88378">
        <ele>144</ele>
        <time>2016-05-05T14:55:40Z</time>
      </trkpt>
      <trkpt lat="47.3122" lon="2.88364">
        <ele>144</ele>
        <time>2016-05-05T14:55:44Z</time>
      </trkpt>
      <trkpt lat="47.31226" lon="2.8835">
        <ele>144</ele>
        <time>2016-05-05T14:55:48Z</time>
      </trkpt>
      <trkpt lat="47.31232" lon="2.88334">
        <ele>144</ele>
        <time>2016-05-05T14:55:52Z</time>
      </trkpt>
      <trkpt lat="47.31236" lon="2.88323">
        <ele>143.9</ele>
        <time>2016-05-05T14:55:55Z</time>
      </trkpt>
      <trkpt lat="47.31241" lon="2.88311">
        <ele>143.9</ele>
        <time>2016-05-05T14:55:58Z</time>
      </trkpt>
      <trkpt lat="47.31246" lon="2.88298">
        <ele>143.9</ele>
        <time>2016-05-05T14:56:01Z</time>
      </trkpt>
      <trkpt lat="47.31251" lon="2.88285">
        <ele>143.8</ele>
        <time>2016-05-05T14:56:04Z</time>
      </trkpt>
      <trkpt lat="47.31256" lon="2.88272">
        <ele>144</ele>
        <time>2016-05-05T14:56:07Z</time>
      </trkpt>
      <trkpt lat="47.31262" lon="2.88259">
        <ele>143.8</ele>
        <time>2016-05-05T14:56:10Z</time>
      </trkpt>
      <trkpt lat="47.31269" lon="2.88247">
        <ele>143.7</ele>
        <time>2016-05-05T14:56:13Z</time>
      </trkpt>
      <trkpt lat="47.31274" lon="2.88235">
        <ele>143.6</ele>
        <time>2016-05-05T14:56:16Z</time>
      </trkpt>
      <trkpt lat="47.3128" lon="2.88223">
        <ele>143.6</ele>
        <time>2016-05-05T14:56:19Z</time>
      </trkpt>
      <trkpt lat="47.31287" lon="2.8821">
        <ele>143.7</ele>
        <time>2016-05-05T14:56:22Z</time>
      </trkpt>
      <trkpt lat="47.31295" lon="2.88198">
        <ele>143.6</ele>
        <time>2016-05-05T14:56:25Z</time>
      </trkpt>
      <trkpt lat="47.31301" lon="2.88186">
        <ele>143.6</ele>
        <time>2016-05-05T14:56:28Z</time>
      </trkpt>
      <trkpt lat="47.31308" lon="2.88173">
        <ele>143.7</ele>
        <time>2016-05-05T14:56:31Z</time>
      </trkpt>
      <trkpt lat="47.31316" lon="2.88161">
        <ele>143.8</ele>
        <time>2016-05-05T14:56:34Z</time>
      </trkpt>
      <trkpt lat="47.31322" lon="2.88149">
        <ele>143.9</ele>
        <time>2016-05-05T14:56:37Z</time>
      </trkpt>
      <trkpt lat="47.31328" lon="2.88137">
        <ele>144</ele>
        <time>2016-05-05T14:56:40Z</time>
      </trkpt>
      <trkpt lat="47.31334" lon="2.88123">
        <ele>144</ele>
        <time>2016-05-05T14:56:43Z</time>
      </trkpt>
      <trkpt lat="47.3134" lon="2.88109">
        <ele>144</ele>
        <time>2016-05-05T14:56:46Z</time>
      </trkpt>
      <trkpt lat="47.31346" lon="2.88095">
        <ele>144</ele>
        <time>2016-05-05T14:56:49Z</time>
      </trkpt>
      <trkpt lat="47.31353" lon="2.88079">
        <ele>143.9</ele>
        <time>2016-05-05T14:56:52Z</time>
      </trkpt>
      <trkpt lat="47.31359" lon="2.88064">
        <ele>143.9</ele>
        <time>2016-05-05T14:56:55Z</time>
      </trkpt>
      <trkpt lat="47.31364" lon="2.88047">
        <ele>143.8</ele>
        <time>2016-05-05T14:56:58Z</time>
      </trkpt>
      <trkpt lat="47.31371" lon="2.88033">
        <ele>143.9</ele>
        <time>2016-05-05T14:57:01Z</time>
      </trkpt>
      <trkpt lat="47.31377" lon="2.88017">
        <ele>144</ele>
        <time>2016-05-05T14:57:04Z</time>
      </trkpt>
      <trkpt lat="47.31382" lon="2.88001">
        <ele>144.1</ele>
        <time>2016-05-05T14:57:07Z</time>
      </trkpt>
      <trkpt lat="47.31388" lon="2.87985">
        <ele>144.2</ele>
        <time>2016-05-05T14:57:10Z</time>
      </trkpt>
      <trkpt lat="47.31394" lon="2.87969">
        <ele>144.2</ele>
        <time>2016-05-05T14:57:13Z</time>
      </trkpt>
      <trkpt lat="47.31399" lon="2.87953">
        <ele>144.1</ele>
        <time>2016-05-05T14:57:16Z</time>
      </trkpt>
      <trkpt lat="47.31405" lon="2.87936">
        <ele>144.1</ele>
        <time>2016-05-05T14:57:19Z</time>
      </trkpt>
      <trkpt lat="47.31409" lon="2.87923">
        <ele>144.2</ele>
        <time>2016-05-05T14:57:21Z</time>
      </trkpt>
      <trkpt lat="47.31414" lon="2.87907">
        <ele>144.1</ele>
        <time>2016-05-05T14:57:24Z</time>
      </trkpt>
      <trkpt lat="47.31418" lon="2.8789">
        <ele>144</ele>
        <time>2016-05-05T14:57:27Z</time>
      </trkpt>
      <trkpt lat="47.31423" lon="2.87874">
        <ele>144.2</ele>
        <time>2016-05-05T14:57:30Z</time>
      </trkpt>
      <trkpt lat="47.31427" lon="2.87858">
        <ele>144.4</ele>
        <time>2016-05-05T14:57:33Z</time>
      </trkpt>
      <trkpt lat="47.31432" lon="2.87842">
        <ele>144.6</ele>
        <time>2016-05-05T14:57:36Z</time>
      </trkpt>
      <trkpt lat="47.31438" lon="2.87827">
        <ele>144.8</ele>
        <time>2016-05-05T14:57:39Z</time>
      </trkpt>
      <trkpt lat="47.31444" lon="2.87813">
        <ele>144.9</ele>
        <time>2016-05-05T14:57:42Z</time>
      </trkpt>
      <trkpt lat="47.3145" lon="2.87798">
        <ele>145</ele>
        <time>2016-05-05T14:57:45Z</time>
      </trkpt>
      <trkpt lat="47.31458" lon="2.87783">
        <ele>145</ele>
        <time>2016-05-05T14:57:48Z</time>
      </trkpt>
      <trkpt lat="47.31466" lon="2.87767">
        <ele>144.9</ele>
        <time>2016-05-05T14:57:51Z</time>
      </trkpt>
      <trkpt lat="47.31473" lon="2.87752">
        <ele>144.7</ele>
        <time>2016-05-05T14:57:54Z</time>
      </trkpt>
      <trkpt lat="47.31481" lon="2.87738">
        <ele>144.7</ele>
        <time>2016-05-05T14:57:57Z</time>
      </trkpt>
      <trkpt lat="47.3149" lon="2.87723">
        <ele>144.6</ele>
        <time>2016-05-05T14:58:00Z</time>
      </trkpt>
      <trkpt lat="47.31498" lon="2.87708">
        <ele>144.5</ele>
        <time>2016-05-05T14:58:03Z</time>
      </trkpt>
      <trkpt lat="47.31507" lon="2.87695">
        <ele>144.4</ele>
        <time>2016-05-05T14:58:06Z</time>
      </trkpt>
      <trkpt lat="47.31517" lon="2.87682">
        <ele>144.3</ele>
        <time>2016-05-05T14:58:09Z</time>
      </trkpt>
      <trkpt lat="47.31528" lon="2.8767">
        <ele>144.3</ele>
        <time>2016-05-05T14:58:12Z</time>
      </trkpt>
      <trkpt lat="47.31538" lon="2.87658">
        <ele>144.4</ele>
        <time>2016-05-05T14:58:15Z</time>
      </trkpt>
      <trkpt lat="47.31547" lon="2.87644">
        <ele>144.6</ele>
        <time>2016-05-05T14:58:18Z</time>
      </trkpt>
      <trkpt lat="47.31554" lon="2.87628">
        <ele>144.6</ele>
        <time>2016-05-05T14:58:21Z</time>
      </trkpt>
      <trkpt lat="47.31561" lon="2.87612">
        <ele>144.8</ele>
        <time>2016-05-05T14:58:24Z</time>
      </trkpt>
      <trkpt lat="47.31565" lon="2.87599">
        <ele>144.8</ele>
        <time>2016-05-05T14:58:26Z</time>
      </trkpt>
      <trkpt lat="47.31569" lon="2.87587">
        <ele>144.7</ele>
        <time>2016-05-05T14:58:28Z</time>
      </trkpt>
      <trkpt lat="47.31573" lon="2.87575">
        <ele>144.6</ele>
        <time>2016-05-05T14:58:30Z</time>
      </trkpt>
      <trkpt lat="47.31578" lon="2.87557">
        <ele>144.7</ele>
        <time>2016-05-05T14:58:33Z</time>
      </trkpt>
      <trkpt lat="47.31582" lon="2.87545">
        <ele>144.7</ele>
        <time>2016-05-05T14:58:35Z</time>
      </trkpt>
      <trkpt lat="47.31587" lon="2.87533">
        <ele>144.6</ele>
        <time>2016-05-05T14:58:37Z</time>
      </trkpt>
      <trkpt lat="47.31594" lon="2.87517">
        <ele>144.7</ele>
        <time>2016-05-05T14:58:40Z</time>
      </trkpt>
      <trkpt lat="47.31599" lon="2.87505">
        <ele>144.7</ele>
        <time>2016-05-05T14:58:42Z</time>
      </trkpt>
      <trkpt lat="47.31604" lon="2.87494">
        <ele>144.5</ele>
        <time>2016-05-05T14:58:44Z</time>
      </trkpt>
      <trkpt lat="47.31612" lon="2.87478">
        <ele>144.4</ele>
        <time>2016-05-05T14:58:47Z</time>
      </trkpt>
      <trkpt lat="47.31618" lon="2.87462">
        <ele>144.4</ele>
        <time>2016-05-05T14:58:50Z</time>
      </trkpt>
      <trkpt lat="47.31624" lon="2.87446">
        <ele>144.5</ele>
        <time>2016-05-05T14:58:53Z</time>
      </trkpt>
      <trkpt lat="47.3163" lon="2.8743">
        <ele>144.6</ele>
        <time>2016-05-05T14:58:56Z</time>
      </trkpt>
      <trkpt lat="47.31635" lon="2.87412">
        <ele>144.6</ele>
        <time>2016-05-05T14:58:59Z</time>
      </trkpt>
      <trkpt lat="47.3164" lon="2.87401">
        <ele>144.6</ele>
        <time>2016-05-05T14:59:01Z</time>
      </trkpt>
      <trkpt lat="47.31645" lon="2.87388">
        <ele>144.4</ele>
        <time>2016-05-05T14:59:03Z</time>
      </trkpt>
      <trkpt lat="47.3165" lon="2.87375">
        <ele>144.3</ele>
        <time>2016-05-05T14:59:05Z</time>
      </trkpt>
      <trkpt lat="47.31656" lon="2.87364">
        <ele>144.1</ele>
        <time>2016-05-05T14:59:07Z</time>
      </trkpt>
      <trkpt lat="47.31661" lon="2.87352">
        <ele>144.2</ele>
        <time>2016-05-05T14:59:09Z</time>
      </trkpt>
      <trkpt lat="47.31667" lon="2.87341">
        <ele>144.2</ele>
        <time>2016-05-05T14:59:11Z</time>
      </trkpt>
      <trkpt lat="47.31673" lon="2.87331">
        <ele>144.2</ele>
        <time>2016-05-05T14:59:13Z</time>
      </trkpt>
      <trkpt lat="47.31679" lon="2.8732">
        <ele>144.1</ele>
        <time>2016-05-05T14:59:15Z</time>
      </trkpt>
      <trkpt lat="47.31685" lon="2.87309">
        <ele>144</ele>
        <time>2016-05-05T14:59:17Z</time>
      </trkpt>
      <trkpt lat="47.31691" lon="2.87299">
        <ele>144</ele>
        <time>2016-05-05T14:59:19Z</time>
      </trkpt>
      <trkpt lat="47.31697" lon="2.87288">
        <ele>144.1</ele>
        <time>2016-05-05T14:59:21Z</time>
      </trkpt>
      <trkpt lat="47.31703" lon="2.87277">
        <ele>144</ele>
        <time>2016-05-05T14:59:23Z</time>
      </trkpt>
      <trkpt lat="47.3171" lon="2.87266">
        <ele>143.9</ele>
        <time>2016-05-05T14:59:25Z</time>
      </trkpt>
      <trkpt lat="47.31717" lon="2.87254">
        <ele>143.8</ele>
        <time>2016-05-05T14:59:27Z</time>
      </trkpt>
      <trkpt lat="47.31723" lon="2.87243">
        <ele>143.7</ele>
        <time>2016-05-05T14:59:29Z</time>
      </trkpt>
      <trkpt lat="47.31729" lon="2.87232">
        <ele>143.5</ele>
        <time>2016-05-05T14:59:31Z</time>
      </trkpt>
      <trkpt lat="47.31735" lon="2.87221">
        <ele>143.5</ele>
        <time>2016-05-05T14:59:33Z</time>
      </trkpt>
      <trkpt lat="47.31741" lon="2.8721">
        <ele>143.4</ele>
        <time>2016-05-05T14:59:35Z</time>
      </trkpt>
      <trkpt lat="47.31747" lon="2.87198">
        <ele>143.4</ele>
        <time>2016-05-05T14:59:37Z</time>
      </trkpt>
      <trkpt lat="47.31753" lon="2.87187">
        <ele>143.3</ele>
        <time>2016-05-05T14:59:39Z</time>
      </trkpt>
      <trkpt lat="47.31759" lon="2.87176">
        <ele>143.3</ele>
        <time>2016-05-05T14:59:41Z</time>
      </trkpt>
      <trkpt lat="47.31765" lon="2.87164">
        <ele>143.2</ele>
        <time>2016-05-05T14:59:43Z</time>
      </trkpt>
      <trkpt lat="47.31771" lon="2.87152">
        <ele>143.1</ele>
        <time>2016-05-05T14:59:45Z</time>
      </trkpt>
      <trkpt lat="47.31777" lon="2.8714">
        <ele>143.1</ele>
        <time>2016-05-05T14:59:47Z</time>
      </trkpt>
      <trkpt lat="47.31784" lon="2.87129">
        <ele>142.9</ele>
        <time>2016-05-05T14:59:49Z</time>
      </trkpt>
      <trkpt lat="47.31791" lon="2.8712">
        <ele>143</ele>
        <time>2016-05-05T14:59:51Z</time>
      </trkpt>
      <trkpt lat="47.31799" lon="2.87111">
        <ele>142.9</ele>
        <time>2016-05-05T14:59:53Z</time>
      </trkpt>
      <trkpt lat="47.31806" lon="2.87103">
        <ele>142.8</ele>
        <time>2016-05-05T14:59:55Z</time>
      </trkpt>
      <trkpt lat="47.31816" lon="2.87091">
        <ele>142.7</ele>
        <time>2016-05-05T14:59:58Z</time>
      </trkpt>
      <trkpt lat="47.31825" lon="2.87079">
        <ele>142.7</ele>
        <time>2016-05-05T15:00:01Z</time>
      </trkpt>
      <trkpt lat="47.31835" lon="2.87067">
        <ele>142.9</ele>
        <time>2016-05-05T15:00:04Z</time>
      </trkpt>
      <trkpt lat="47.31845" lon="2.87056">
        <ele>143</ele>
        <time>2016-05-05T15:00:07Z</time>
      </trkpt>
      <trkpt lat="47.31857" lon="2.87045">
        <ele>143.1</ele>
        <time>2016-05-05T15:00:10Z</time>
      </trkpt>
      <trkpt lat="47.31869" lon="2.87036">
        <ele>143.1</ele>
        <time>2016-05-05T15:00:13Z</time>
      </trkpt>
      <trkpt lat="47.31877" lon="2.87032">
        <ele>143.1</ele>
        <time>2016-05-05T15:00:15Z</time>
      </trkpt>
      <trkpt lat="47.31886" lon="2.87028">
        <ele>143.1</ele>
        <time>2016-05-05T15:00:17Z</time>
      </trkpt>
      <trkpt lat="47.31899" lon="2.87022">
        <ele>143.1</ele>
        <time>2016-05-05T15:00:20Z</time>
      </trkpt>
      <trkpt lat="47.31911" lon="2.87016">
        <ele>143.3</ele>
        <time>2016-05-05T15:00:23Z</time>
      </trkpt>
      <trkpt lat="47.3192" lon="2.87011">
        <ele>143.2</ele>
        <time>2016-05-05T15:00:25Z</time>
      </trkpt>
      <trkpt lat="47.31932" lon="2.87002">
        <ele>143.2</ele>
        <time>2016-05-05T15:00:28Z</time>
      </trkpt>
      <trkpt lat="47.31939" lon="2.86995">
        <ele>143.2</ele>
        <time>2016-05-05T15:00:30Z</time>
      </trkpt>
      <trkpt lat="47.3195" lon="2.86983">
        <ele>143.2</ele>
        <time>2016-05-05T15:00:33Z</time>
      </trkpt>
      <trkpt lat="47.31958" lon="2.86975">
        <ele>143.2</ele>
        <time>2016-05-05T15:00:35Z</time>
      </trkpt>
      <trkpt lat="47.31965" lon="2.86966">
        <ele>143.2</ele>
        <time>2016-05-05T15:00:37Z</time>
      </trkpt>
      <trkpt lat="47.31972" lon="2.86957">
        <ele>143.2</ele>
        <time>2016-05-05T15:00:39Z</time>
      </trkpt>
      <trkpt lat="47.31979" lon="2.86948">
        <ele>143.2</ele>
        <time>2016-05-05T15:00:41Z</time>
      </trkpt>
      <trkpt lat="47.31987" lon="2.86939">
        <ele>143.2</ele>
        <time>2016-05-05T15:00:43Z</time>
      </trkpt>
      <trkpt lat="47.31995" lon="2.86932">
        <ele>143.2</ele>
        <time>2016-05-05T15:00:45Z</time>
      </trkpt>
      <trkpt lat="47.32003" lon="2.86924">
        <ele>143.1</ele>
        <time>2016-05-05T15:00:47Z</time>
      </trkpt>
      <trkpt lat="47.32011" lon="2.86916">
        <ele>143.1</ele>
        <time>2016-05-05T15:00:49Z</time>
      </trkpt>
      <trkpt lat="47.3202" lon="2.86909">
        <ele>142.9</ele>
        <time>2016-05-05T15:00:51Z</time>
      </trkpt>
      <trkpt lat="47.32028" lon="2.86903">
        <ele>142.9</ele>
        <time>2016-05-05T15:00:53Z</time>
      </trkpt>
      <trkpt lat="47.32036" lon="2.86896">
        <ele>142.9</ele>
        <time>2016-05-05T15:00:55Z</time>
      </trkpt>
      <trkpt lat="47.32045" lon="2.86889">
        <ele>142.9</ele>
        <time>2016-05-05T15:00:57Z</time>
      </trkpt>
      <trkpt lat="47.32054" lon="2.86884">
        <ele>143</ele>
        <time>2016-05-05T15:00:59Z</time>
      </trkpt>
      <trkpt lat="47.32063" lon="2.86878">
        <ele>143.1</ele>
        <time>2016-05-05T15:01:01Z</time>
      </trkpt>
      <trkpt lat="47.32071" lon="2.86872">
        <ele>143.2</ele>
        <time>2016-05-05T15:01:03Z</time>
      </trkpt>
      <trkpt lat="47.32079" lon="2.86865">
        <ele>143.3</ele>
        <time>2016-05-05T15:01:05Z</time>
      </trkpt>
      <trkpt lat="47.32091" lon="2.86856">
        <ele>143.6</ele>
        <time>2016-05-05T15:01:08Z</time>
      </trkpt>
      <trkpt lat="47.32102" lon="2.86847">
        <ele>143.9</ele>
        <time>2016-05-05T15:01:11Z</time>
      </trkpt>
      <trkpt lat="47.32113" lon="2.86838">
        <ele>144.1</ele>
        <time>2016-05-05T15:01:14Z</time>
      </trkpt>
      <trkpt lat="47.32125" lon="2.8683">
        <ele>144.1</ele>
        <time>2016-05-05T15:01:17Z</time>
      </trkpt>
      <trkpt lat="47.32133" lon="2.86824">
        <ele>144.2</ele>
        <time>2016-05-05T15:01:19Z</time>
      </trkpt>
      <trkpt lat="47.32142" lon="2.86818">
        <ele>144</ele>
        <time>2016-05-05T15:01:21Z</time>
      </trkpt>
      <trkpt lat="47.3215" lon="2.86812">
        <ele>144</ele>
        <time>2016-05-05T15:01:23Z</time>
      </trkpt>
      <trkpt lat="47.3216" lon="2.86807">
        <ele>144.1</ele>
        <time>2016-05-05T15:01:25Z</time>
      </trkpt>
      <trkpt lat="47.32168" lon="2.86801">
        <ele>144</ele>
        <time>2016-05-05T15:01:27Z</time>
      </trkpt>
      <trkpt lat="47.32177" lon="2.86795">
        <ele>143.9</ele>
        <time>2016-05-05T15:01:29Z</time>
      </trkpt>
      <trkpt lat="47.32185" lon="2.8679">
        <ele>143.8</ele>
        <time>2016-05-05T15:01:31Z</time>
      </trkpt>
      <trkpt lat="47.32197" lon="2.86781">
        <ele>143.7</ele>
        <time>2016-05-05T15:01:34Z</time>
      </trkpt>
      <trkpt lat="47.32205" lon="2.86768">
        <ele>143.7</ele>
        <time>2016-05-05T15:01:37Z</time>
      </trkpt>
      <trkpt lat="47.32201" lon="2.86752">
        <ele>143.9</ele>
        <time>2016-05-05T15:01:40Z</time>
      </trkpt>
      <trkpt lat="47.32194" lon="2.86738">
        <ele>143.7</ele>
        <time>2016-05-05T15:01:43Z</time>
      </trkpt>
      <trkpt lat="47.32186" lon="2.86723">
        <ele>143.8</ele>
        <time>2016-05-05T15:01:46Z</time>
      </trkpt>
      <trkpt lat="47.32177" lon="2.8671">
        <ele>143.9</ele>
        <time>2016-05-05T15:01:49Z</time>
      </trkpt>
      <trkpt lat="47.32168" lon="2.86696">
        <ele>144</ele>
        <time>2016-05-05T15:01:52Z</time>
      </trkpt>
      <trkpt lat="47.32158" lon="2.86683">
        <ele>143.9</ele>
        <time>2016-05-05T15:01:55Z</time>
      </trkpt>
      <trkpt lat="47.32151" lon="2.86674">
        <ele>144</ele>
        <time>2016-05-05T15:01:57Z</time>
      </trkpt>
      <trkpt lat="47.32144" lon="2.86666">
        <ele>144</ele>
        <time>2016-05-05T15:01:59Z</time>
      </trkpt>
      <trkpt lat="47.32136" lon="2.86657">
        <ele>144</ele>
        <time>2016-05-05T15:02:01Z</time>
      </trkpt>
      <trkpt lat="47.32129" lon="2.86648">
        <ele>144.1</ele>
        <time>2016-05-05T15:02:03Z</time>
      </trkpt>
      <trkpt lat="47.32121" lon="2.8664">
        <ele>144</ele>
        <time>2016-05-05T15:02:05Z</time>
      </trkpt>
      <trkpt lat="47.32114" lon="2.86631">
        <ele>143.8</ele>
        <time>2016-05-05T15:02:07Z</time>
      </trkpt>
      <trkpt lat="47.32105" lon="2.86623">
        <ele>143.9</ele>
        <time>2016-05-05T15:02:09Z</time>
      </trkpt>
      <trkpt lat="47.32097" lon="2.86616">
        <ele>143.9</ele>
        <time>2016-05-05T15:02:11Z</time>
      </trkpt>
      <trkpt lat="47.32089" lon="2.86607">
        <ele>144</ele>
        <time>2016-05-05T15:02:13Z</time>
      </trkpt>
      <trkpt lat="47.3208" lon="2.86599">
        <ele>143.7</ele>
        <time>2016-05-05T15:02:15Z</time>
      </trkpt>
      <trkpt lat="47.32072" lon="2.8659">
        <ele>143.7</ele>
        <time>2016-05-05T15:02:17Z</time>
      </trkpt>
      <trkpt lat="47.32065" lon="2.86581">
        <ele>143.8</ele>
        <time>2016-05-05T15:02:19Z</time>
      </trkpt>
      <trkpt lat="47.32059" lon="2.8657">
        <ele>143.6</ele>
        <time>2016-05-05T15:02:21Z</time>
      </trkpt>
      <trkpt lat="47.32053" lon="2.86559">
        <ele>143.7</ele>
        <time>2016-05-05T15:02:23Z</time>
      </trkpt>
      <trkpt lat="47.32048" lon="2.86546">
        <ele>143.6</ele>
        <time>2016-05-05T15:02:25Z</time>
      </trkpt>
      <trkpt lat="47.32044" lon="2.86533">
        <ele>143.6</ele>
        <time>2016-05-05T15:02:27Z</time>
      </trkpt>
      <trkpt lat="47.32041" lon="2.8652">
        <ele>143.5</ele>
        <time>2016-05-05T15:02:29Z</time>
      </trkpt>
      <trkpt lat="47.32038" lon="2.86506">
        <ele>143.4</ele>
        <time>2016-05-05T15:02:31Z</time>
      </trkpt>
      <trkpt lat="47.32035" lon="2.86493">
        <ele>143.5</ele>
        <time>2016-05-05T15:02:33Z</time>
      </trkpt>
      <trkpt lat="47.32032" lon="2.8648">
        <ele>143.6</ele>
        <time>2016-05-05T15:02:35Z</time>
      </trkpt>
      <trkpt lat="47.32028" lon="2.86467">
        <ele>143.5</ele>
        <time>2016-05-05T15:02:37Z</time>
      </trkpt>
      <trkpt lat="47.32024" lon="2.86455">
        <ele>143.4</ele>
        <time>2016-05-05T15:02:39Z</time>
      </trkpt>
      <trkpt lat="47.3202" lon="2.86443">
        <ele>143.4</ele>
        <time>2016-05-05T15:02:41Z</time>
      </trkpt>
      <trkpt lat="47.32014" lon="2.86425">
        <ele>143.4</ele>
        <time>2016-05-05T15:02:44Z</time>
      </trkpt>
      <trkpt lat="47.3201" lon="2.86413">
        <ele>143.8</ele>
        <time>2016-05-05T15:02:46Z</time>
      </trkpt>
      <trkpt lat="47.32006" lon="2.86401">
        <ele>143.8</ele>
        <time>2016-05-05T15:02:48Z</time>
      </trkpt>
      <trkpt lat="47.32002" lon="2.86389">
        <ele>143.8</ele>
        <time>2016-05-05T15:02:50Z</time>
      </trkpt>
      <trkpt lat="47.31997" lon="2.86376">
        <ele>143.9</ele>
        <time>2016-05-05T15:02:52Z</time>
      </trkpt>
      <trkpt lat="47.31992" lon="2.86365">
        <ele>143.9</ele>
        <time>2016-05-05T15:02:54Z</time>
      </trkpt>
      <trkpt lat="47.31988" lon="2.86353">
        <ele>143.9</ele>
        <time>2016-05-05T15:02:56Z</time>
      </trkpt>
      <trkpt lat="47.31983" lon="2.86342">
        <ele>143.8</ele>
        <time>2016-05-05T15:02:58Z</time>
      </trkpt>
      <trkpt lat="47.31978" lon="2.86331">
        <ele>143.9</ele>
        <time>2016-05-05T15:03:00Z</time>
      </trkpt>
      <trkpt lat="47.31971" lon="2.86315">
        <ele>144</ele>
        <time>2016-05-05T15:03:03Z</time>
      </trkpt>
      <trkpt lat="47.31963" lon="2.86299">
        <ele>144.1</ele>
        <time>2016-05-05T15:03:06Z</time>
      </trkpt>
      <trkpt lat="47.31955" lon="2.86284">
        <ele>144</ele>
        <time>2016-05-05T15:03:09Z</time>
      </trkpt>
      <trkpt lat="47.31947" lon="2.86268">
        <ele>143.9</ele>
        <time>2016-05-05T15:03:12Z</time>
      </trkpt>
      <trkpt lat="47.31941" lon="2.86257">
        <ele>144</ele>
        <time>2016-05-05T15:03:14Z</time>
      </trkpt>
      <trkpt lat="47.31936" lon="2.86245">
        <ele>144.1</ele>
        <time>2016-05-05T15:03:16Z</time>
      </trkpt>
      <trkpt lat="47.3193" lon="2.86234">
        <ele>144</ele>
        <time>2016-05-05T15:03:18Z</time>
      </trkpt>
      <trkpt lat="47.31924" lon="2.86221">
        <ele>144</ele>
        <time>2016-05-05T15:03:20Z</time>
      </trkpt>
      <trkpt lat="47.31919" lon="2.86209">
        <ele>143.9</ele>
        <time>2016-05-05T15:03:22Z</time>
      </trkpt>
      <trkpt lat="47.31914" lon="2.86196">
        <ele>143.8</ele>
        <time>2016-05-05T15:03:24Z</time>
      </trkpt>
      <trkpt lat="47.3191" lon="2.86184">
        <ele>143.8</ele>
        <time>2016-05-05T15:03:26Z</time>
      </trkpt>
      <trkpt lat="47.31906" lon="2.86171">
        <ele>143.9</ele>
        <time>2016-05-05T15:03:28Z</time>
      </trkpt>
      <trkpt lat="47.31902" lon="2.86159">
        <ele>144</ele>
        <time>2016-05-05T15:03:30Z</time>
      </trkpt>
      <trkpt lat="47.31897" lon="2.86146">
        <ele>144.1</ele>
        <time>2016-05-05T15:03:32Z</time>
      </trkpt>
      <trkpt lat="47.31891" lon="2.86136">
        <ele>144.1</ele>
        <time>2016-05-05T15:03:34Z</time>
      </trkpt>
      <trkpt lat="47.31884" lon="2.86127">
        <ele>143.9</ele>
        <time>2016-05-05T15:03:36Z</time>
      </trkpt>
      <trkpt lat="47.31876" lon="2.86119">
        <ele>144.1</ele>
        <time>2016-05-05T15:03:38Z</time>
      </trkpt>
      <trkpt lat="47.31867" lon="2.86113">
        <ele>143.8</ele>
        <time>2016-05-05T15:03:40Z</time>
      </trkpt>
      <trkpt lat="47.31858" lon="2.86109">
        <ele>143.8</ele>
        <time>2016-05-05T15:03:42Z</time>
      </trkpt>
      <trkpt lat="47.31849" lon="2.86107">
        <ele>143.8</ele>
        <time>2016-05-05T15:03:44Z</time>
      </trkpt>
      <trkpt lat="47.3184" lon="2.86107">
        <ele>143.8</ele>
        <time>2016-05-05T15:03:46Z</time>
      </trkpt>
      <trkpt lat="47.31827" lon="2.86106">
        <ele>143.8</ele>
        <time>2016-05-05T15:03:49Z</time>
      </trkpt>
      <trkpt lat="47.31816" lon="2.86103">
        <ele>143.9</ele>
        <time>2016-05-05T15:03:52Z</time>
      </trkpt>
      <trkpt lat="47.31808" lon="2.86093">
        <ele>143.9</ele>
        <time>2016-05-05T15:03:55Z</time>
      </trkpt>
      <trkpt lat="47.31803" lon="2.86078">
        <ele>143.9</ele>
        <time>2016-05-05T15:03:58Z</time>
      </trkpt>
      <trkpt lat="47.31803" lon="2.8606">
        <ele>143.9</ele>
        <time>2016-05-05T15:04:01Z</time>
      </trkpt>
      <trkpt lat="47.31801" lon="2.86044">
        <ele>143.9</ele>
        <time>2016-05-05T15:04:04Z</time>
      </trkpt>
      <trkpt lat="47.31798" lon="2.86029">
        <ele>144</ele>
        <time>2016-05-05T15:04:07Z</time>
      </trkpt>
      <trkpt lat="47.31797" lon="2.86013">
        <ele>144.1</ele>
        <time>2016-05-05T15:04:10Z</time>
      </trkpt>
      <trkpt lat="47.31797" lon="2.85998">
        <ele>144</ele>
        <time>2016-05-05T15:04:13Z</time>
      </trkpt>
      <trkpt lat="47.31793" lon="2.8598">
        <ele>144.1</ele>
        <time>2016-05-05T15:04:16Z</time>
      </trkpt>
      <trkpt lat="47.31791" lon="2.85963">
        <ele>143.9</ele>
        <time>2016-05-05T15:04:19Z</time>
      </trkpt>
      <trkpt lat="47.31788" lon="2.85948">
        <ele>144</ele>
        <time>2016-05-05T15:04:22Z</time>
      </trkpt>
      <trkpt lat="47.31785" lon="2.8593">
        <ele>144</ele>
        <time>2016-05-05T15:04:25Z</time>
      </trkpt>
      <trkpt lat="47.31781" lon="2.85914">
        <ele>143.9</ele>
        <time>2016-05-05T15:04:28Z</time>
      </trkpt>
      <trkpt lat="47.31779" lon="2.85897">
        <ele>144.2</ele>
        <time>2016-05-05T15:04:31Z</time>
      </trkpt>
      <trkpt lat="47.31777" lon="2.8588">
        <ele>144.5</ele>
        <time>2016-05-05T15:04:34Z</time>
      </trkpt>
      <trkpt lat="47.31775" lon="2.85867">
        <ele>145.1</ele>
        <time>2016-05-05T15:04:38Z</time>
      </trkpt>
      <trkpt lat="47.31774" lon="2.8585">
        <ele>145.4</ele>
        <time>2016-05-05T15:04:42Z</time>
      </trkpt>
      <trkpt lat="47.31773" lon="2.85833">
        <ele>145.9</ele>
        <time>2016-05-05T15:04:46Z</time>
      </trkpt>
      <trkpt lat="47.31772" lon="2.85818">
        <ele>146.2</ele>
        <time>2016-05-05T15:04:49Z</time>
      </trkpt>
      <trkpt lat="47.31772" lon="2.85803">
        <ele>146.6</ele>
        <time>2016-05-05T15:04:52Z</time>
      </trkpt>
      <trkpt lat="47.3177" lon="2.85787">
        <ele>147</ele>
        <time>2016-05-05T15:04:55Z</time>
      </trkpt>
      <trkpt lat="47.31769" lon="2.85772">
        <ele>147.4</ele>
        <time>2016-05-05T15:04:59Z</time>
      </trkpt>
      <trkpt lat="47.3177" lon="2.85756">
        <ele>148.3</ele>
        <time>2016-05-05T15:05:04Z</time>
      </trkpt>
      <trkpt lat="47.3177" lon="2.85741">
        <ele>148.8</ele>
        <time>2016-05-05T15:05:09Z</time>
      </trkpt>
      <trkpt lat="47.31769" lon="2.85725">
        <ele>148.6</ele>
        <time>2016-05-05T15:05:13Z</time>
      </trkpt>
      <trkpt lat="47.31769" lon="2.85709">
        <ele>148.1</ele>
        <time>2016-05-05T15:05:17Z</time>
      </trkpt>
      <trkpt lat="47.31768" lon="2.85695">
        <ele>147.6</ele>
        <time>2016-05-05T15:05:20Z</time>
      </trkpt>
      <trkpt lat="47.31768" lon="2.85681">
        <ele>146.9</ele>
        <time>2016-05-05T15:05:23Z</time>
      </trkpt>
      <trkpt lat="47.31769" lon="2.85665">
        <ele>146.4</ele>
        <time>2016-05-05T15:05:27Z</time>
      </trkpt>
      <trkpt lat="47.31768" lon="2.85647">
        <ele>146.3</ele>
        <time>2016-05-05T15:05:33Z</time>
      </trkpt>
      <trkpt lat="47.31766" lon="2.85634">
        <ele>146.7</ele>
        <time>2016-05-05T15:05:38Z</time>
      </trkpt>
      <trkpt lat="47.31765" lon="2.85618">
        <ele>147.5</ele>
        <time>2016-05-05T15:05:44Z</time>
      </trkpt>
      <trkpt lat="47.31763" lon="2.85604">
        <ele>148.7</ele>
        <time>2016-05-05T15:05:51Z</time>
      </trkpt>
      <trkpt lat="47.31762" lon="2.85591">
        <ele>150</ele>
        <time>2016-05-05T15:05:57Z</time>
      </trkpt>
      <trkpt lat="47.3176" lon="2.85577">
        <ele>151.2</ele>
        <time>2016-05-05T15:06:03Z</time>
      </trkpt>
      <trkpt lat="47.3176" lon="2.85563">
        <ele>152</ele>
        <time>2016-05-05T15:06:09Z</time>
      </trkpt>
      <trkpt lat="47.3176" lon="2.85549">
        <ele>153.6</ele>
        <time>2016-05-05T15:06:15Z</time>
      </trkpt>
      <trkpt lat="47.31759" lon="2.85534">
        <ele>154.6</ele>
        <time>2016-05-05T15:06:21Z</time>
      </trkpt>
      <trkpt lat="47.31758" lon="2.85519">
        <ele>155.2</ele>
        <time>2016-05-05T15:06:27Z</time>
      </trkpt>
      <trkpt lat="47.31753" lon="2.85505">
        <ele>155.7</ele>
        <time>2016-05-05T15:06:33Z</time>
      </trkpt>
      <trkpt lat="47.31745" lon="2.85487">
        <ele>156</ele>
        <time>2016-05-05T15:06:41Z</time>
      </trkpt>
      <trkpt lat="47.31737" lon="2.85478">
        <ele>157</ele>
        <time>2016-05-05T15:06:47Z</time>
      </trkpt>
      <trkpt lat="47.31729" lon="2.85472">
        <ele>157.6</ele>
        <time>2016-05-05T15:06:52Z</time>
      </trkpt>
      <trkpt lat="47.31718" lon="2.85464">
        <ele>158.3</ele>
        <time>2016-05-05T15:06:59Z</time>
      </trkpt>
      <trkpt lat="47.31711" lon="2.85453">
        <ele>159</ele>
        <time>2016-05-05T15:07:06Z</time>
      </trkpt>
      <trkpt lat="47.31706" lon="2.85441">
        <ele>159.4</ele>
        <time>2016-05-05T15:07:12Z</time>
      </trkpt>
      <trkpt lat="47.317" lon="2.85428">
        <ele>159.6</ele>
        <time>2016-05-05T15:07:18Z</time>
      </trkpt>
      <trkpt lat="47.31696" lon="2.85415">
        <ele>159.9</ele>
        <time>2016-05-05T15:07:24Z</time>
      </trkpt>
      <trkpt lat="47.31691" lon="2.85403">
        <ele>160.2</ele>
        <time>2016-05-05T15:07:29Z</time>
      </trkpt>
      <trkpt lat="47.31685" lon="2.8539">
        <ele>160.4</ele>
        <time>2016-05-05T15:07:35Z</time>
      </trkpt>
      <trkpt lat="47.31679" lon="2.85377">
        <ele>160.7</ele>
        <time>2016-05-05T15:07:41Z</time>
      </trkpt>
      <trkpt lat="47.31673" lon="2.85366">
        <ele>161.3</ele>
        <time>2016-05-05T15:07:46Z</time>
      </trkpt>
      <trkpt lat="47.31671" lon="2.85353">
        <ele>161.5</ele>
        <time>2016-05-05T15:07:51Z</time>
      </trkpt>
      <trkpt lat="47.31666" lon="2.85341">
        <ele>161.9</ele>
        <time>2016-05-05T15:07:56Z</time>
      </trkpt>
      <trkpt lat="47.31662" lon="2.85327">
        <ele>162.4</ele>
        <time>2016-05-05T15:08:01Z</time>
      </trkpt>
      <trkpt lat="47.31657" lon="2.85314">
        <ele>162.8</ele>
        <time>2016-05-05T15:08:05Z</time>
      </trkpt>
      <trkpt lat="47.31653" lon="2.853">
        <ele>163</ele>
        <time>2016-05-05T15:08:10Z</time>
      </trkpt>
      <trkpt lat="47.31651" lon="2.85285">
        <ele>163.4</ele>
        <time>2016-05-05T15:08:15Z</time>
      </trkpt>
      <trkpt lat="47.31651" lon="2.85269">
        <ele>163.7</ele>
        <time>2016-05-05T15:08:20Z</time>
      </trkpt>
      <trkpt lat="47.3165" lon="2.85253">
        <ele>164</ele>
        <time>2016-05-05T15:08:25Z</time>
      </trkpt>
      <trkpt lat="47.31648" lon="2.85237">
        <ele>164.3</ele>
        <time>2016-05-05T15:08:30Z</time>
      </trkpt>
      <trkpt lat="47.31645" lon="2.85222">
        <ele>164.9</ele>
        <time>2016-05-05T15:08:35Z</time>
      </trkpt>
      <trkpt lat="47.31643" lon="2.85207">
        <ele>165.2</ele>
        <time>2016-05-05T15:08:40Z</time>
      </trkpt>
      <trkpt lat="47.3164" lon="2.85193">
        <ele>165.3</ele>
        <time>2016-05-05T15:08:45Z</time>
      </trkpt>
      <trkpt lat="47.31636" lon="2.8518">
        <ele>165.7</ele>
        <time>2016-05-05T15:08:50Z</time>
      </trkpt>
      <trkpt lat="47.31626" lon="2.85182">
        <ele>166.4</ele>
        <time>2016-05-05T15:10:05Z</time>
      </trkpt>
      <trkpt lat="47.31621" lon="2.85195">
        <ele>166.9</ele>
        <time>2016-05-05T15:10:14Z</time>
      </trkpt>
      <trkpt lat="47.31613" lon="2.85205">
        <ele>167.7</ele>
        <time>2016-05-05T15:10:21Z</time>
      </trkpt>
      <trkpt lat="47.31606" lon="2.85214">
        <ele>168.7</ele>
        <time>2016-05-05T15:10:27Z</time>
      </trkpt>
      <trkpt lat="47.31597" lon="2.85223">
        <ele>170.3</ele>
        <time>2016-05-05T15:10:34Z</time>
      </trkpt>
      <trkpt lat="47.3159" lon="2.8523">
        <ele>172.5</ele>
        <time>2016-05-05T15:10:51Z</time>
      </trkpt>
      <trkpt lat="47.31585" lon="2.85242">
        <ele>174.9</ele>
        <time>2016-05-05T15:11:17Z</time>
      </trkpt>
      <trkpt lat="47.31578" lon="2.85251">
        <ele>176.6</ele>
        <time>2016-05-05T15:11:34Z</time>
      </trkpt>
      <trkpt lat="47.31571" lon="2.8526">
        <ele>178.6</ele>
        <time>2016-05-05T15:11:57Z</time>
      </trkpt>
      <trkpt lat="47.31563" lon="2.85269">
        <ele>180.6</ele>
        <time>2016-05-05T15:12:21Z</time>
      </trkpt>
      <trkpt lat="47.31555" lon="2.85276">
        <ele>182.2</ele>
        <time>2016-05-05T15:12:35Z</time>
      </trkpt>
      <trkpt lat="47.31547" lon="2.85283">
        <ele>183.9</ele>
        <time>2016-05-05T15:12:56Z</time>
      </trkpt>
      <trkpt lat="47.31538" lon="2.8529">
        <ele>185.2</ele>
        <time>2016-05-05T15:13:11Z</time>
      </trkpt>
      <trkpt lat="47.3153" lon="2.85296">
        <ele>186.4</ele>
        <time>2016-05-05T15:13:22Z</time>
      </trkpt>
      <trkpt lat="47.31521" lon="2.85303">
        <ele>187.6</ele>
        <time>2016-05-05T15:13:32Z</time>
      </trkpt>
      <trkpt lat="47.31513" lon="2.85309">
        <ele>188.5</ele>
        <time>2016-05-05T15:13:45Z</time>
      </trkpt>
      <trkpt lat="47.31505" lon="2.85315">
        <ele>189.3</ele>
        <time>2016-05-05T15:13:54Z</time>
      </trkpt>
      <trkpt lat="47.31496" lon="2.85321">
        <ele>190</ele>
        <time>2016-05-05T15:14:06Z</time>
      </trkpt>
      <trkpt lat="47.31488" lon="2.85327">
        <ele>190.4</ele>
        <time>2016-05-05T15:14:12Z</time>
      </trkpt>
      <trkpt lat="47.31479" lon="2.85335">
        <ele>190.7</ele>
        <time>2016-05-05T15:14:18Z</time>
      </trkpt>
      <trkpt lat="47.31471" lon="2.8534">
        <ele>190.9</ele>
        <time>2016-05-05T15:14:23Z</time>
      </trkpt>
      <trkpt lat="47.31462" lon="2.85347">
        <ele>191.2</ele>
        <time>2016-05-05T15:14:28Z</time>
      </trkpt>
      <trkpt lat="47.31453" lon="2.85354">
        <ele>191.3</ele>
        <time>2016-05-05T15:14:33Z</time>
      </trkpt>
      <trkpt lat="47.31443" lon="2.85361">
        <ele>191.6</ele>
        <time>2016-05-05T15:14:38Z</time>
      </trkpt>
      <trkpt lat="47.31436" lon="2.85371">
        <ele>191.2</ele>
        <time>2016-05-05T15:14:43Z</time>
      </trkpt>
      <trkpt lat="47.31434" lon="2.85385">
        <ele>189.4</ele>
        <time>2016-05-05T15:15:08Z</time>
      </trkpt>
      <trkpt lat="47.3144" lon="2.85396">
        <ele>188.8</ele>
        <time>2016-05-05T15:15:11Z</time>
      </trkpt>
      <trkpt lat="47.31445" lon="2.85412">
        <ele>187.6</ele>
        <time>2016-05-05T15:15:14Z</time>
      </trkpt>
      <trkpt lat="47.31446" lon="2.85431">
        <ele>186.5</ele>
        <time>2016-05-05T15:15:17Z</time>
      </trkpt>
      <trkpt lat="47.31447" lon="2.85448">
        <ele>185.4</ele>
        <time>2016-05-05T15:15:20Z</time>
      </trkpt>
      <trkpt lat="47.31443" lon="2.85465">
        <ele>184.6</ele>
        <time>2016-05-05T15:15:23Z</time>
      </trkpt>
      <trkpt lat="47.31439" lon="2.85479">
        <ele>183.9</ele>
        <time>2016-05-05T15:15:26Z</time>
      </trkpt>
      <trkpt lat="47.31434" lon="2.85495">
        <ele>183.1</ele>
        <time>2016-05-05T15:15:29Z</time>
      </trkpt>
      <trkpt lat="47.31437" lon="2.8551">
        <ele>182.7</ele>
        <time>2016-05-05T15:15:32Z</time>
      </trkpt>
      <trkpt lat="47.31446" lon="2.85514">
        <ele>181.8</ele>
        <time>2016-05-05T15:15:38Z</time>
      </trkpt>
      <trkpt lat="47.31456" lon="2.85506">
        <ele>181.6</ele>
        <time>2016-05-05T15:15:41Z</time>
      </trkpt>
      <trkpt lat="47.31465" lon="2.85498">
        <ele>181.4</ele>
        <time>2016-05-05T15:15:44Z</time>
      </trkpt>
      <trkpt lat="47.31473" lon="2.85491">
        <ele>181.1</ele>
        <time>2016-05-05T15:15:47Z</time>
      </trkpt>
      <trkpt lat="47.31482" lon="2.85483">
        <ele>181</ele>
        <time>2016-05-05T15:15:50Z</time>
      </trkpt>
      <trkpt lat="47.31491" lon="2.85476">
        <ele>181.1</ele>
        <time>2016-05-05T15:15:53Z</time>
      </trkpt>
      <trkpt lat="47.315" lon="2.85469">
        <ele>180.9</ele>
        <time>2016-05-05T15:15:56Z</time>
      </trkpt>
      <trkpt lat="47.3151" lon="2.85461">
        <ele>180.8</ele>
        <time>2016-05-05T15:15:59Z</time>
      </trkpt>
      <trkpt lat="47.31521" lon="2.85453">
        <ele>180.7</ele>
        <time>2016-05-05T15:16:02Z</time>
      </trkpt>
      <trkpt lat="47.31532" lon="2.85445">
        <ele>180.4</ele>
        <time>2016-05-05T15:16:05Z</time>
      </trkpt>
      <trkpt lat="47.31542" lon="2.85437">
        <ele>180.5</ele>
        <time>2016-05-05T15:16:08Z</time>
      </trkpt>
      <trkpt lat="47.31552" lon="2.8543">
        <ele>180.3</ele>
        <time>2016-05-05T15:16:11Z</time>
      </trkpt>
      <trkpt lat="47.31562" lon="2.85422">
        <ele>180.4</ele>
        <time>2016-05-05T15:16:14Z</time>
      </trkpt>
      <trkpt lat="47.31572" lon="2.85415">
        <ele>180.2</ele>
        <time>2016-05-05T15:16:17Z</time>
      </trkpt>
      <trkpt lat="47.31582" lon="2.85408">
        <ele>180.3</ele>
        <time>2016-05-05T15:16:20Z</time>
      </trkpt>
      <trkpt lat="47.31593" lon="2.85401">
        <ele>180</ele>
        <time>2016-05-05T15:16:23Z</time>
      </trkpt>
      <trkpt lat="47.31604" lon="2.85394">
        <ele>179.7</ele>
        <time>2016-05-05T15:16:26Z</time>
      </trkpt>
      <trkpt lat="47.31615" lon="2.85388">
        <ele>179.6</ele>
        <time>2016-05-05T15:16:29Z</time>
      </trkpt>
      <trkpt lat="47.31626" lon="2.85382">
        <ele>179.8</ele>
        <time>2016-05-05T15:16:32Z</time>
      </trkpt>
      <trkpt lat="47.31637" lon="2.85377">
        <ele>179.7</ele>
        <time>2016-05-05T15:16:35Z</time>
      </trkpt>
      <trkpt lat="47.31646" lon="2.85372">
        <ele>179.7</ele>
        <time>2016-05-05T15:16:38Z</time>
      </trkpt>
      <trkpt lat="47.31655" lon="2.85367">
        <ele>179.7</ele>
        <time>2016-05-05T15:16:41Z</time>
      </trkpt>
      <trkpt lat="47.31665" lon="2.85362">
        <ele>179.9</ele>
        <time>2016-05-05T15:16:44Z</time>
      </trkpt>
      <trkpt lat="47.31674" lon="2.85358">
        <ele>179.7</ele>
        <time>2016-05-05T15:16:47Z</time>
      </trkpt>
      <trkpt lat="47.31683" lon="2.85354">
        <ele>179.7</ele>
        <time>2016-05-05T15:16:50Z</time>
      </trkpt>
      <trkpt lat="47.31694" lon="2.85349">
        <ele>179.6</ele>
        <time>2016-05-05T15:16:54Z</time>
      </trkpt>
      <trkpt lat="47.31703" lon="2.85345">
        <ele>179.5</ele>
        <time>2016-05-05T15:16:57Z</time>
      </trkpt>
      <trkpt lat="47.31714" lon="2.85341">
        <ele>179.3</ele>
        <time>2016-05-05T15:17:01Z</time>
      </trkpt>
      <trkpt lat="47.31726" lon="2.85337">
        <ele>179.4</ele>
        <time>2016-05-05T15:17:05Z</time>
      </trkpt>
      <trkpt lat="47.31735" lon="2.85333">
        <ele>179.2</ele>
        <time>2016-05-05T15:17:08Z</time>
      </trkpt>
      <trkpt lat="47.31745" lon="2.8533">
        <ele>179.2</ele>
        <time>2016-05-05T15:17:11Z</time>
      </trkpt>
      <trkpt lat="47.31755" lon="2.85327">
        <ele>179.1</ele>
        <time>2016-05-05T15:17:14Z</time>
      </trkpt>
      <trkpt lat="47.31765" lon="2.85324">
        <ele>179</ele>
        <time>2016-05-05T15:17:17Z</time>
      </trkpt>
      <trkpt lat="47.31775" lon="2.85322">
        <ele>178.9</ele>
        <time>2016-05-05T15:17:20Z</time>
      </trkpt>
      <trkpt lat="47.31786" lon="2.85319">
        <ele>178.8</ele>
        <time>2016-05-05T15:17:23Z</time>
      </trkpt>
      <trkpt lat="47.31797" lon="2.85317">
        <ele>178.7</ele>
        <time>2016-05-05T15:17:26Z</time>
      </trkpt>
      <trkpt lat="47.31807" lon="2.85315">
        <ele>178.6</ele>
        <time>2016-05-05T15:17:29Z</time>
      </trkpt>
      <trkpt lat="47.31819" lon="2.85313">
        <ele>178.5</ele>
        <time>2016-05-05T15:17:32Z</time>
      </trkpt>
      <trkpt lat="47.31829" lon="2.85311">
        <ele>178.4</ele>
        <time>2016-05-05T15:17:35Z</time>
      </trkpt>
      <trkpt lat="47.31841" lon="2.85308">
        <ele>178</ele>
        <time>2016-05-05T15:17:38Z</time>
      </trkpt>
      <trkpt lat="47.31852" lon="2.85307">
        <ele>177.8</ele>
        <time>2016-05-05T15:17:41Z</time>
      </trkpt>
      <trkpt lat="47.31864" lon="2.85306">
        <ele>178</ele>
        <time>2016-05-05T15:17:45Z</time>
      </trkpt>
      <trkpt lat="47.31874" lon="2.85305">
        <ele>178.3</ele>
        <time>2016-05-05T15:17:49Z</time>
      </trkpt>
      <trkpt lat="47.31885" lon="2.85303">
        <ele>178.5</ele>
        <time>2016-05-05T15:17:53Z</time>
      </trkpt>
      <trkpt lat="47.31894" lon="2.85302">
        <ele>178.5</ele>
        <time>2016-05-05T15:17:56Z</time>
      </trkpt>
      <trkpt lat="47.31906" lon="2.85301">
        <ele>178.5</ele>
        <time>2016-05-05T15:18:00Z</time>
      </trkpt>
      <trkpt lat="47.31917" lon="2.853">
        <ele>178.4</ele>
        <time>2016-05-05T15:18:04Z</time>
      </trkpt>
      <trkpt lat="47.31929" lon="2.853">
        <ele>178.6</ele>
        <time>2016-05-05T15:18:08Z</time>
      </trkpt>
      <trkpt lat="47.31939" lon="2.853">
        <ele>178.6</ele>
        <time>2016-05-05T15:18:11Z</time>
      </trkpt>
      <trkpt lat="47.31949" lon="2.853">
        <ele>178.5</ele>
        <time>2016-05-05T15:18:14Z</time>
      </trkpt>
      <trkpt lat="47.31958" lon="2.85302">
        <ele>178.5</ele>
        <time>2016-05-05T15:18:17Z</time>
      </trkpt>
      <trkpt lat="47.31969" lon="2.85301">
        <ele>178.6</ele>
        <time>2016-05-05T15:18:20Z</time>
      </trkpt>
      <trkpt lat="47.31979" lon="2.85302">
        <ele>178.5</ele>
        <time>2016-05-05T15:18:23Z</time>
      </trkpt>
      <trkpt lat="47.3199" lon="2.85301">
        <ele>178.2</ele>
        <time>2016-05-05T15:18:26Z</time>
      </trkpt>
      <trkpt lat="47.32001" lon="2.85303">
        <ele>178.1</ele>
        <time>2016-05-05T15:18:29Z</time>
      </trkpt>
      <trkpt lat="47.32011" lon="2.853">
        <ele>178.1</ele>
        <time>2016-05-05T15:18:32Z</time>
      </trkpt>
      <trkpt lat="47.32021" lon="2.85299">
        <ele>178.1</ele>
        <time>2016-05-05T15:18:35Z</time>
      </trkpt>
      <trkpt lat="47.32033" lon="2.85299">
        <ele>178</ele>
        <time>2016-05-05T15:18:39Z</time>
      </trkpt>
      <trkpt lat="47.32044" lon="2.85299">
        <ele>177.9</ele>
        <time>2016-05-05T15:18:42Z</time>
      </trkpt>
      <trkpt lat="47.32055" lon="2.85298">
        <ele>178</ele>
        <time>2016-05-05T15:18:45Z</time>
      </trkpt>
      <trkpt lat="47.32064" lon="2.85296">
        <ele>178</ele>
        <time>2016-05-05T15:18:48Z</time>
      </trkpt>
      <trkpt lat="47.32076" lon="2.85296">
        <ele>177.8</ele>
        <time>2016-05-05T15:18:51Z</time>
      </trkpt>
      <trkpt lat="47.32086" lon="2.85294">
        <ele>178</ele>
        <time>2016-05-05T15:18:54Z</time>
      </trkpt>
      <trkpt lat="47.32096" lon="2.85293">
        <ele>178.2</ele>
        <time>2016-05-05T15:18:57Z</time>
      </trkpt>
      <trkpt lat="47.32107" lon="2.85292">
        <ele>177.8</ele>
        <time>2016-05-05T15:19:00Z</time>
      </trkpt>
      <trkpt lat="47.32117" lon="2.85289">
        <ele>178.1</ele>
        <time>2016-05-05T15:19:03Z</time>
      </trkpt>
      <trkpt lat="47.32128" lon="2.85287">
        <ele>178.1</ele>
        <time>2016-05-05T15:19:07Z</time>
      </trkpt>
      <trkpt lat="47.32139" lon="2.85285">
        <ele>177.9</ele>
        <time>2016-05-05T15:19:11Z</time>
      </trkpt>
      <trkpt lat="47.32148" lon="2.85283">
        <ele>178.2</ele>
        <time>2016-05-05T15:19:16Z</time>
      </trkpt>
      <trkpt lat="47.32157" lon="2.85283">
        <ele>178.2</ele>
        <time>2016-05-05T15:19:33Z</time>
      </trkpt>
      <trkpt lat="47.32166" lon="2.85286">
        <ele>178.3</ele>
        <time>2016-05-05T15:19:44Z</time>
      </trkpt>
      <trkpt lat="47.32176" lon="2.85287">
        <ele>178.1</ele>
        <time>2016-05-05T15:19:49Z</time>
      </trkpt>
      <trkpt lat="47.32186" lon="2.85285">
        <ele>178.4</ele>
        <time>2016-05-05T15:19:54Z</time>
      </trkpt>
      <trkpt lat="47.32195" lon="2.85281">
        <ele>178.4</ele>
        <time>2016-05-05T15:19:58Z</time>
      </trkpt>
      <trkpt lat="47.32205" lon="2.85282">
        <ele>178.2</ele>
        <time>2016-05-05T15:20:03Z</time>
      </trkpt>
      <trkpt lat="47.32215" lon="2.8528">
        <ele>178.1</ele>
        <time>2016-05-05T15:20:07Z</time>
      </trkpt>
      <trkpt lat="47.32224" lon="2.85276">
        <ele>178.5</ele>
        <time>2016-05-05T15:20:13Z</time>
      </trkpt>
      <trkpt lat="47.32236" lon="2.85275">
        <ele>178.6</ele>
        <time>2016-05-05T15:20:17Z</time>
      </trkpt>
      <trkpt lat="47.32246" lon="2.85271">
        <ele>178.9</ele>
        <time>2016-05-05T15:20:21Z</time>
      </trkpt>
      <trkpt lat="47.32256" lon="2.85271">
        <ele>178.9</ele>
        <time>2016-05-05T15:20:25Z</time>
      </trkpt>
      <trkpt lat="47.32266" lon="2.85272">
        <ele>178.8</ele>
        <time>2016-05-05T15:20:29Z</time>
      </trkpt>
      <trkpt lat="47.32277" lon="2.85272">
        <ele>178.6</ele>
        <time>2016-05-05T15:20:33Z</time>
      </trkpt>
      <trkpt lat="47.32286" lon="2.85273">
        <ele>178.6</ele>
        <time>2016-05-05T15:20:36Z</time>
      </trkpt>
      <trkpt lat="47.32296" lon="2.85272">
        <ele>178.6</ele>
        <time>2016-05-05T15:20:40Z</time>
      </trkpt>
      <trkpt lat="47.32308" lon="2.85267">
        <ele>178.6</ele>
        <time>2016-05-05T15:20:44Z</time>
      </trkpt>
      <trkpt lat="47.32317" lon="2.85265">
        <ele>178.6</ele>
        <time>2016-05-05T15:20:47Z</time>
      </trkpt>
      <trkpt lat="47.32327" lon="2.85262">
        <ele>178.6</ele>
        <time>2016-05-05T15:20:50Z</time>
      </trkpt>
      <trkpt lat="47.32338" lon="2.85261">
        <ele>178.7</ele>
        <time>2016-05-05T15:20:53Z</time>
      </trkpt>
      <trkpt lat="47.32348" lon="2.85259">
        <ele>179</ele>
        <time>2016-05-05T15:20:57Z</time>
      </trkpt>
      <trkpt lat="47.3236" lon="2.85258">
        <ele>179.2</ele>
        <time>2016-05-05T15:21:01Z</time>
      </trkpt>
      <trkpt lat="47.32371" lon="2.85257">
        <ele>179.2</ele>
        <time>2016-05-05T15:21:05Z</time>
      </trkpt>
      <trkpt lat="47.32382" lon="2.85256">
        <ele>179.2</ele>
        <time>2016-05-05T15:21:09Z</time>
      </trkpt>
      <trkpt lat="47.32393" lon="2.85255">
        <ele>179.2</ele>
        <time>2016-05-05T15:21:13Z</time>
      </trkpt>
      <trkpt lat="47.32404" lon="2.85253">
        <ele>179</ele>
        <time>2016-05-05T15:21:17Z</time>
      </trkpt>
      <trkpt lat="47.32415" lon="2.85252">
        <ele>179.1</ele>
        <time>2016-05-05T15:21:21Z</time>
      </trkpt>
      <trkpt lat="47.32428" lon="2.85251">
        <ele>178.8</ele>
        <time>2016-05-05T15:21:25Z</time>
      </trkpt>
      <trkpt lat="47.32438" lon="2.85249">
        <ele>179</ele>
        <time>2016-05-05T15:21:29Z</time>
      </trkpt>
      <trkpt lat="47.32448" lon="2.85248">
        <ele>179.4</ele>
        <time>2016-05-05T15:21:33Z</time>
      </trkpt>
      <trkpt lat="47.32458" lon="2.85247">
        <ele>179.8</ele>
        <time>2016-05-05T15:21:38Z</time>
      </trkpt>
      <trkpt lat="47.32469" lon="2.85246">
        <ele>179.7</ele>
        <time>2016-05-05T15:21:43Z</time>
      </trkpt>
      <trkpt lat="47.32478" lon="2.85245">
        <ele>179.4</ele>
        <time>2016-05-05T15:21:47Z</time>
      </trkpt>
      <trkpt lat="47.32487" lon="2.85243">
        <ele>179.4</ele>
        <time>2016-05-05T15:21:52Z</time>
      </trkpt>
      <trkpt lat="47.32497" lon="2.85241">
        <ele>179.4</ele>
        <time>2016-05-05T15:21:57Z</time>
      </trkpt>
      <trkpt lat="47.32507" lon="2.8524">
        <ele>179.3</ele>
        <time>2016-05-05T15:22:02Z</time>
      </trkpt>
      <trkpt lat="47.32516" lon="2.85238">
        <ele>179.5</ele>
        <time>2016-05-05T15:22:07Z</time>
      </trkpt>
      <trkpt lat="47.32526" lon="2.85237">
        <ele>179.6</ele>
        <time>2016-05-05T15:22:13Z</time>
      </trkpt>
      <trkpt lat="47.32536" lon="2.85236">
        <ele>179.7</ele>
        <time>2016-05-05T15:22:19Z</time>
      </trkpt>
      <trkpt lat="47.32545" lon="2.85235">
        <ele>179.6</ele>
        <time>2016-05-05T15:22:25Z</time>
      </trkpt>
      <trkpt lat="47.32556" lon="2.85235">
        <ele>179.7</ele>
        <time>2016-05-05T15:22:31Z</time>
      </trkpt>
      <trkpt lat="47.32565" lon="2.85234">
        <ele>179.9</ele>
        <time>2016-05-05T15:22:35Z</time>
      </trkpt>
      <trkpt lat="47.32574" lon="2.85231">
        <ele>179.3</ele>
        <time>2016-05-05T15:22:48Z</time>
      </trkpt>
      <trkpt lat="47.32585" lon="2.8523">
        <ele>179.3</ele>
        <time>2016-05-05T15:22:57Z</time>
      </trkpt>
      <trkpt lat="47.32595" lon="2.85228">
        <ele>179.2</ele>
        <time>2016-05-05T15:23:02Z</time>
      </trkpt>
      <trkpt lat="47.32605" lon="2.85227">
        <ele>179.6</ele>
        <time>2016-05-05T15:23:07Z</time>
      </trkpt>
      <trkpt lat="47.32616" lon="2.85225">
        <ele>179.4</ele>
        <time>2016-05-05T15:23:12Z</time>
      </trkpt>
      <trkpt lat="47.32626" lon="2.85224">
        <ele>179.3</ele>
        <time>2016-05-05T15:23:17Z</time>
      </trkpt>
      <trkpt lat="47.32636" lon="2.85223">
        <ele>179.4</ele>
        <time>2016-05-05T15:23:22Z</time>
      </trkpt>
      <trkpt lat="47.32646" lon="2.85221">
        <ele>179.4</ele>
        <time>2016-05-05T15:23:28Z</time>
      </trkpt>
      <trkpt lat="47.32656" lon="2.85223">
        <ele>179.8</ele>
        <time>2016-05-05T15:23:34Z</time>
      </trkpt>
      <trkpt lat="47.32665" lon="2.85226">
        <ele>179.8</ele>
        <time>2016-05-05T15:23:38Z</time>
      </trkpt>
      <trkpt lat="47.32676" lon="2.8523">
        <ele>179.4</ele>
        <time>2016-05-05T15:23:43Z</time>
      </trkpt>
      <trkpt lat="47.32686" lon="2.85233">
        <ele>179.1</ele>
        <time>2016-05-05T15:23:47Z</time>
      </trkpt>
      <trkpt lat="47.32695" lon="2.85235">
        <ele>178.9</ele>
        <time>2016-05-05T15:23:51Z</time>
      </trkpt>
      <trkpt lat="47.32706" lon="2.85236">
        <ele>179</ele>
        <time>2016-05-05T15:23:56Z</time>
      </trkpt>
      <trkpt lat="47.32717" lon="2.85239">
        <ele>179.1</ele>
        <time>2016-05-05T15:24:01Z</time>
      </trkpt>
      <trkpt lat="47.32727" lon="2.85239">
        <ele>179.1</ele>
        <time>2016-05-05T15:24:05Z</time>
      </trkpt>
      <trkpt lat="47.32737" lon="2.85239">
        <ele>179.3</ele>
        <time>2016-05-05T15:24:09Z</time>
      </trkpt>
      <trkpt lat="47.32748" lon="2.85239">
        <ele>179.4</ele>
        <time>2016-05-05T15:24:13Z</time>
      </trkpt>
      <trkpt lat="47.32759" lon="2.85238">
        <ele>179.4</ele>
        <time>2016-05-05T15:24:17Z</time>
      </trkpt>
      <trkpt lat="47.32771" lon="2.85237">
        <ele>179.4</ele>
        <time>2016-05-05T15:24:21Z</time>
      </trkpt>
      <trkpt lat="47.32782" lon="2.85237">
        <ele>179.5</ele>
        <time>2016-05-05T15:24:25Z</time>
      </trkpt>
      <trkpt lat="47.32794" lon="2.85239">
        <ele>179.7</ele>
        <time>2016-05-05T15:24:29Z</time>
      </trkpt>
      <trkpt lat="47.32804" lon="2.8524">
        <ele>179.7</ele>
        <time>2016-05-05T15:24:33Z</time>
      </trkpt>
      <trkpt lat="47.32815" lon="2.85242">
        <ele>179.8</ele>
        <time>2016-05-05T15:24:37Z</time>
      </trkpt>
      <trkpt lat="47.32826" lon="2.85242">
        <ele>179.6</ele>
        <time>2016-05-05T15:24:41Z</time>
      </trkpt>
      <trkpt lat="47.32836" lon="2.85242">
        <ele>179.8</ele>
        <time>2016-05-05T15:24:45Z</time>
      </trkpt>
      <trkpt lat="47.32846" lon="2.85242">
        <ele>179.8</ele>
        <time>2016-05-05T15:24:49Z</time>
      </trkpt>
      <trkpt lat="47.32856" lon="2.85245">
        <ele>179.8</ele>
        <time>2016-05-05T15:24:52Z</time>
      </trkpt>
      <trkpt lat="47.32867" lon="2.85248">
        <ele>179.7</ele>
        <time>2016-05-05T15:24:56Z</time>
      </trkpt>
      <trkpt lat="47.32876" lon="2.8525">
        <ele>180.1</ele>
        <time>2016-05-05T15:25:00Z</time>
      </trkpt>
      <trkpt lat="47.32887" lon="2.8525">
        <ele>180.3</ele>
        <time>2016-05-05T15:25:04Z</time>
      </trkpt>
      <trkpt lat="47.32896" lon="2.85247">
        <ele>180.4</ele>
        <time>2016-05-05T15:25:08Z</time>
      </trkpt>
      <trkpt lat="47.32903" lon="2.85237">
        <ele>180.2</ele>
        <time>2016-05-05T15:25:12Z</time>
      </trkpt>
      <trkpt lat="47.32908" lon="2.85225">
        <ele>180.1</ele>
        <time>2016-05-05T15:25:16Z</time>
      </trkpt>
      <trkpt lat="47.32913" lon="2.85214">
        <ele>180.5</ele>
        <time>2016-05-05T15:25:20Z</time>
      </trkpt>
      <trkpt lat="47.32913" lon="2.85199">
        <ele>180.6</ele>
        <time>2016-05-05T15:25:24Z</time>
      </trkpt>
      <trkpt lat="47.32914" lon="2.85185">
        <ele>180.7</ele>
        <time>2016-05-05T15:25:28Z</time>
      </trkpt>
      <trkpt lat="47.32915" lon="2.85172">
        <ele>181.1</ele>
        <time>2016-05-05T15:25:32Z</time>
      </trkpt>
      <trkpt lat="47.32917" lon="2.85158">
        <ele>181.5</ele>
        <time>2016-05-05T15:25:37Z</time>
      </trkpt>
      <trkpt lat="47.32927" lon="2.8516">
        <ele>181.9</ele>
        <time>2016-05-05T15:25:44Z</time>
      </trkpt>
      <trkpt lat="47.32935" lon="2.8517">
        <ele>181.7</ele>
        <time>2016-05-05T15:25:47Z</time>
      </trkpt>
      <trkpt lat="47.32945" lon="2.85178">
        <ele>181.5</ele>
        <time>2016-05-05T15:25:50Z</time>
      </trkpt>
      <trkpt lat="47.32954" lon="2.85184">
        <ele>181.2</ele>
        <time>2016-05-05T15:25:53Z</time>
      </trkpt>
      <trkpt lat="47.32965" lon="2.85189">
        <ele>181</ele>
        <time>2016-05-05T15:25:57Z</time>
      </trkpt>
      <trkpt lat="47.32976" lon="2.85191">
        <ele>181</ele>
        <time>2016-05-05T15:26:01Z</time>
      </trkpt>
      <trkpt lat="47.32987" lon="2.85192">
        <ele>181.1</ele>
        <time>2016-05-05T15:26:05Z</time>
      </trkpt>
      <trkpt lat="47.32998" lon="2.85193">
        <ele>181.1</ele>
        <time>2016-05-05T15:26:09Z</time>
      </trkpt>
      <trkpt lat="47.33009" lon="2.85195">
        <ele>181.2</ele>
        <time>2016-05-05T15:26:13Z</time>
      </trkpt>
      <trkpt lat="47.3302" lon="2.85196">
        <ele>180.9</ele>
        <time>2016-05-05T15:26:17Z</time>
      </trkpt>
      <trkpt lat="47.33031" lon="2.85197">
        <ele>181</ele>
        <time>2016-05-05T15:26:21Z</time>
      </trkpt>
      <trkpt lat="47.33042" lon="2.85199">
        <ele>181.2</ele>
        <time>2016-05-05T15:26:25Z</time>
      </trkpt>
      <trkpt lat="47.33051" lon="2.85199">
        <ele>181.3</ele>
        <time>2016-05-05T15:26:28Z</time>
      </trkpt>
      <trkpt lat="47.33063" lon="2.852">
        <ele>181.3</ele>
        <time>2016-05-05T15:26:32Z</time>
      </trkpt>
      <trkpt lat="47.33073" lon="2.85201">
        <ele>180.8</ele>
        <time>2016-05-05T15:26:35Z</time>
      </trkpt>
      <trkpt lat="47.33082" lon="2.85202">
        <ele>180.8</ele>
        <time>2016-05-05T15:26:38Z</time>
      </trkpt>
      <trkpt lat="47.33092" lon="2.85202">
        <ele>180.9</ele>
        <time>2016-05-05T15:26:41Z</time>
      </trkpt>
      <trkpt lat="47.33102" lon="2.85203">
        <ele>180.9</ele>
        <time>2016-05-05T15:26:44Z</time>
      </trkpt>
      <trkpt lat="47.33112" lon="2.85205">
        <ele>180.9</ele>
        <time>2016-05-05T15:26:47Z</time>
      </trkpt>
      <trkpt lat="47.33122" lon="2.85205">
        <ele>180.9</ele>
        <time>2016-05-05T15:26:50Z</time>
      </trkpt>
      <trkpt lat="47.33131" lon="2.85206">
        <ele>181</ele>
        <time>2016-05-05T15:26:53Z</time>
      </trkpt>
      <trkpt lat="47.33142" lon="2.85207">
        <ele>181</ele>
        <time>2016-05-05T15:26:56Z</time>
      </trkpt>
      <trkpt lat="47.33152" lon="2.85208">
        <ele>181</ele>
        <time>2016-05-05T15:26:59Z</time>
      </trkpt>
      <trkpt lat="47.33162" lon="2.85209">
        <ele>180.8</ele>
        <time>2016-05-05T15:27:02Z</time>
      </trkpt>
      <trkpt lat="47.33172" lon="2.85207">
        <ele>180.8</ele>
        <time>2016-05-05T15:27:05Z</time>
      </trkpt>
      <trkpt lat="47.33184" lon="2.85207">
        <ele>180.7</ele>
        <time>2016-05-05T15:27:08Z</time>
      </trkpt>
      <trkpt lat="47.33196" lon="2.85206">
        <ele>180.8</ele>
        <time>2016-05-05T15:27:11Z</time>
      </trkpt>
      <trkpt lat="47.33208" lon="2.85206">
        <ele>180.8</ele>
        <time>2016-05-05T15:27:14Z</time>
      </trkpt>
      <trkpt lat="47.33218" lon="2.85202">
        <ele>181.1</ele>
        <time>2016-05-05T15:27:17Z</time>
      </trkpt>
      <trkpt lat="47.33228" lon="2.852">
        <ele>180.9</ele>
        <time>2016-05-05T15:27:20Z</time>
      </trkpt>
      <trkpt lat="47.33238" lon="2.85195">
        <ele>180.8</ele>
        <time>2016-05-05T15:27:23Z</time>
      </trkpt>
      <trkpt lat="47.33246" lon="2.85191">
        <ele>180.9</ele>
        <time>2016-05-05T15:27:26Z</time>
      </trkpt>
      <trkpt lat="47.33256" lon="2.85185">
        <ele>180.9</ele>
        <time>2016-05-05T15:27:29Z</time>
      </trkpt>
      <trkpt lat="47.33267" lon="2.85178">
        <ele>180.7</ele>
        <time>2016-05-05T15:27:32Z</time>
      </trkpt>
      <trkpt lat="47.33277" lon="2.85172">
        <ele>180.4</ele>
        <time>2016-05-05T15:27:35Z</time>
      </trkpt>
      <trkpt lat="47.33285" lon="2.85165">
        <ele>180.5</ele>
        <time>2016-05-05T15:27:37Z</time>
      </trkpt>
      <trkpt lat="47.33293" lon="2.85155">
        <ele>180.6</ele>
        <time>2016-05-05T15:27:40Z</time>
      </trkpt>
      <trkpt lat="47.33301" lon="2.85145">
        <ele>180.8</ele>
        <time>2016-05-05T15:27:43Z</time>
      </trkpt>
      <trkpt lat="47.33309" lon="2.85133">
        <ele>180.8</ele>
        <time>2016-05-05T15:27:46Z</time>
      </trkpt>
      <trkpt lat="47.33317" lon="2.85121">
        <ele>180.6</ele>
        <time>2016-05-05T15:27:49Z</time>
      </trkpt>
      <trkpt lat="47.33323" lon="2.85108">
        <ele>180.3</ele>
        <time>2016-05-05T15:27:52Z</time>
      </trkpt>
      <trkpt lat="47.33329" lon="2.85094">
        <ele>180.2</ele>
        <time>2016-05-05T15:27:55Z</time>
      </trkpt>
      <trkpt lat="47.33331" lon="2.85081">
        <ele>180.5</ele>
        <time>2016-05-05T15:27:58Z</time>
      </trkpt>
      <trkpt lat="47.33331" lon="2.85066">
        <ele>180.9</ele>
        <time>2016-05-05T15:28:02Z</time>
      </trkpt>
      <trkpt lat="47.3333" lon="2.85053">
        <ele>181.6</ele>
        <time>2016-05-05T15:28:07Z</time>
      </trkpt>
      <trkpt lat="47.33327" lon="2.8504">
        <ele>182.5</ele>
        <time>2016-05-05T15:28:13Z</time>
      </trkpt>
      <trkpt lat="47.33324" lon="2.85026">
        <ele>183.6</ele>
        <time>2016-05-05T15:28:20Z</time>
      </trkpt>
      <trkpt lat="47.33323" lon="2.85013">
        <ele>184.7</ele>
        <time>2016-05-05T15:28:27Z</time>
      </trkpt>
      <trkpt lat="47.33322" lon="2.84997">
        <ele>186</ele>
        <time>2016-05-05T15:28:34Z</time>
      </trkpt>
      <trkpt lat="47.33323" lon="2.84982">
        <ele>186.8</ele>
        <time>2016-05-05T15:28:41Z</time>
      </trkpt>
      <trkpt lat="47.33325" lon="2.84969">
        <ele>187.7</ele>
        <time>2016-05-05T15:28:48Z</time>
      </trkpt>
      <trkpt lat="47.33326" lon="2.84955">
        <ele>188.5</ele>
        <time>2016-05-05T15:28:55Z</time>
      </trkpt>
      <trkpt lat="47.33327" lon="2.8494">
        <ele>189.4</ele>
        <time>2016-05-05T15:29:02Z</time>
      </trkpt>
      <trkpt lat="47.33328" lon="2.84926">
        <ele>190.2</ele>
        <time>2016-05-05T15:29:09Z</time>
      </trkpt>
      <trkpt lat="47.33328" lon="2.84911">
        <ele>190.7</ele>
        <time>2016-05-05T15:29:16Z</time>
      </trkpt>
      <trkpt lat="47.33328" lon="2.84897">
        <ele>191.4</ele>
        <time>2016-05-05T15:29:22Z</time>
      </trkpt>
      <trkpt lat="47.33327" lon="2.84883">
        <ele>192</ele>
        <time>2016-05-05T15:29:28Z</time>
      </trkpt>
      <trkpt lat="47.33326" lon="2.8487">
        <ele>192.3</ele>
        <time>2016-05-05T15:29:33Z</time>
      </trkpt>
      <trkpt lat="47.33325" lon="2.84856">
        <ele>192.5</ele>
        <time>2016-05-05T15:29:38Z</time>
      </trkpt>
      <trkpt lat="47.33324" lon="2.84841">
        <ele>193.1</ele>
        <time>2016-05-05T15:29:43Z</time>
      </trkpt>
      <trkpt lat="47.33323" lon="2.84826">
        <ele>193.4</ele>
        <time>2016-05-05T15:29:48Z</time>
      </trkpt>
      <trkpt lat="47.33322" lon="2.84811">
        <ele>193.6</ele>
        <time>2016-05-05T15:29:53Z</time>
      </trkpt>
      <trkpt lat="47.33321" lon="2.84796">
        <ele>193.9</ele>
        <time>2016-05-05T15:29:58Z</time>
      </trkpt>
      <trkpt lat="47.3332" lon="2.84781">
        <ele>194</ele>
        <time>2016-05-05T15:30:03Z</time>
      </trkpt>
      <trkpt lat="47.3332" lon="2.84766">
        <ele>194.3</ele>
        <time>2016-05-05T15:30:08Z</time>
      </trkpt>
      <trkpt lat="47.3332" lon="2.8475">
        <ele>194.6</ele>
        <time>2016-05-05T15:30:13Z</time>
      </trkpt>
      <trkpt lat="47.33319" lon="2.84734">
        <ele>195.2</ele>
        <time>2016-05-05T15:30:18Z</time>
      </trkpt>
      <trkpt lat="47.33318" lon="2.84718">
        <ele>195.6</ele>
        <time>2016-05-05T15:30:23Z</time>
      </trkpt>
      <trkpt lat="47.33318" lon="2.84702">
        <ele>195.9</ele>
        <time>2016-05-05T15:30:28Z</time>
      </trkpt>
      <trkpt lat="47.33318" lon="2.84686">
        <ele>196.4</ele>
        <time>2016-05-05T15:30:33Z</time>
      </trkpt>
      <trkpt lat="47.33319" lon="2.84671">
        <ele>196.9</ele>
        <time>2016-05-05T15:30:38Z</time>
      </trkpt>
      <trkpt lat="47.33319" lon="2.84657">
        <ele>197.3</ele>
        <time>2016-05-05T15:30:43Z</time>
      </trkpt>
      <trkpt lat="47.33318" lon="2.84643">
        <ele>197.6</ele>
        <time>2016-05-05T15:30:47Z</time>
      </trkpt>
      <trkpt lat="47.33317" lon="2.84629">
        <ele>197.8</ele>
        <time>2016-05-05T15:30:51Z</time>
      </trkpt>
      <trkpt lat="47.33316" lon="2.84616">
        <ele>198.1</ele>
        <time>2016-05-05T15:30:55Z</time>
      </trkpt>
      <trkpt lat="47.33317" lon="2.846">
        <ele>198.5</ele>
        <time>2016-05-05T15:31:00Z</time>
      </trkpt>
      <trkpt lat="47.33318" lon="2.84585">
        <ele>199</ele>
        <time>2016-05-05T15:31:05Z</time>
      </trkpt>
      <trkpt lat="47.33319" lon="2.84569">
        <ele>199.3</ele>
        <time>2016-05-05T15:31:10Z</time>
      </trkpt>
      <trkpt lat="47.33322" lon="2.84553">
        <ele>199.6</ele>
        <time>2016-05-05T15:31:15Z</time>
      </trkpt>
      <trkpt lat="47.33324" lon="2.84539">
        <ele>199.8</ele>
        <time>2016-05-05T15:31:19Z</time>
      </trkpt>
      <trkpt lat="47.33328" lon="2.84527">
        <ele>200</ele>
        <time>2016-05-05T15:31:23Z</time>
      </trkpt>
      <trkpt lat="47.33333" lon="2.84512">
        <ele>200.4</ele>
        <time>2016-05-05T15:31:28Z</time>
      </trkpt>
      <trkpt lat="47.33339" lon="2.845">
        <ele>200.5</ele>
        <time>2016-05-05T15:31:32Z</time>
      </trkpt>
      <trkpt lat="47.33344" lon="2.84489">
        <ele>200.7</ele>
        <time>2016-05-05T15:31:36Z</time>
      </trkpt>
      <trkpt lat="47.3335" lon="2.84478">
        <ele>200.9</ele>
        <time>2016-05-05T15:31:40Z</time>
      </trkpt>
      <trkpt lat="47.33356" lon="2.84467">
        <ele>201.1</ele>
        <time>2016-05-05T15:31:44Z</time>
      </trkpt>
      <trkpt lat="47.33362" lon="2.84456">
        <ele>201.5</ele>
        <time>2016-05-05T15:31:48Z</time>
      </trkpt>
      <trkpt lat="47.33368" lon="2.84444">
        <ele>201.6</ele>
        <time>2016-05-05T15:31:53Z</time>
      </trkpt>
      <trkpt lat="47.33375" lon="2.84431">
        <ele>201.9</ele>
        <time>2016-05-05T15:31:58Z</time>
      </trkpt>
      <trkpt lat="47.33381" lon="2.8442">
        <ele>202.4</ele>
        <time>2016-05-05T15:32:03Z</time>
      </trkpt>
      <trkpt lat="47.33388" lon="2.8441">
        <ele>203</ele>
        <time>2016-05-05T15:32:08Z</time>
      </trkpt>
      <trkpt lat="47.33395" lon="2.84401">
        <ele>203.2</ele>
        <time>2016-05-05T15:32:12Z</time>
      </trkpt>
      <trkpt lat="47.33402" lon="2.8439">
        <ele>203.5</ele>
        <time>2016-05-05T15:32:17Z</time>
      </trkpt>
      <trkpt lat="47.3341" lon="2.84378">
        <ele>204</ele>
        <time>2016-05-05T15:32:23Z</time>
      </trkpt>
      <trkpt lat="47.33415" lon="2.84367">
        <ele>204.5</ele>
        <time>2016-05-05T15:32:28Z</time>
      </trkpt>
      <trkpt lat="47.33423" lon="2.84359">
        <ele>204.8</ele>
        <time>2016-05-05T15:32:32Z</time>
      </trkpt>
      <trkpt lat="47.33431" lon="2.8435">
        <ele>205.1</ele>
        <time>2016-05-05T15:32:36Z</time>
      </trkpt>
      <trkpt lat="47.33438" lon="2.84339">
        <ele>205.4</ele>
        <time>2016-05-05T15:32:40Z</time>
      </trkpt>
      <trkpt lat="47.33446" lon="2.8433">
        <ele>205.7</ele>
        <time>2016-05-05T15:32:44Z</time>
      </trkpt>
      <trkpt lat="47.33456" lon="2.84321">
        <ele>206</ele>
        <time>2016-05-05T15:32:47Z</time>
      </trkpt>
      <trkpt lat="47.33464" lon="2.84312">
        <ele>206.3</ele>
        <time>2016-05-05T15:32:51Z</time>
      </trkpt>
      <trkpt lat="47.3347" lon="2.84299">
        <ele>206.7</ele>
        <time>2016-05-05T15:32:56Z</time>
      </trkpt>
      <trkpt lat="47.33477" lon="2.84288">
        <ele>207.2</ele>
        <time>2016-05-05T15:33:01Z</time>
      </trkpt>
      <trkpt lat="47.33483" lon="2.84275">
        <ele>207.7</ele>
        <time>2016-05-05T15:33:07Z</time>
      </trkpt>
      <trkpt lat="47.33491" lon="2.84266">
        <ele>208.1</ele>
        <time>2016-05-05T15:33:11Z</time>
      </trkpt>
      <trkpt lat="47.33495" lon="2.84252">
        <ele>208.6</ele>
        <time>2016-05-05T15:33:17Z</time>
      </trkpt>
      <trkpt lat="47.33503" lon="2.84235">
        <ele>209.2</ele>
        <time>2016-05-05T15:33:24Z</time>
      </trkpt>
      <trkpt lat="47.3351" lon="2.84223">
        <ele>209.6</ele>
        <time>2016-05-05T15:33:29Z</time>
      </trkpt>
      <trkpt lat="47.33514" lon="2.8421">
        <ele>209.7</ele>
        <time>2016-05-05T15:33:34Z</time>
      </trkpt>
      <trkpt lat="47.3352" lon="2.84198">
        <ele>210.2</ele>
        <time>2016-05-05T15:33:39Z</time>
      </trkpt>
      <trkpt lat="47.33526" lon="2.84185">
        <ele>210.6</ele>
        <time>2016-05-05T15:33:44Z</time>
      </trkpt>
      <trkpt lat="47.33529" lon="2.84171">
        <ele>210.9</ele>
        <time>2016-05-05T15:33:50Z</time>
      </trkpt>
      <trkpt lat="47.33534" lon="2.84157">
        <ele>211.2</ele>
        <time>2016-05-05T15:33:55Z</time>
      </trkpt>
      <trkpt lat="47.33538" lon="2.84145">
        <ele>211.7</ele>
        <time>2016-05-05T15:33:59Z</time>
      </trkpt>
      <trkpt lat="47.33543" lon="2.84134">
        <ele>212.1</ele>
        <time>2016-05-05T15:34:03Z</time>
      </trkpt>
      <trkpt lat="47.3355" lon="2.84122">
        <ele>212.5</ele>
        <time>2016-05-05T15:34:07Z</time>
      </trkpt>
      <trkpt lat="47.33555" lon="2.84108">
        <ele>212.9</ele>
        <time>2016-05-05T15:34:12Z</time>
      </trkpt>
      <trkpt lat="47.33561" lon="2.84097">
        <ele>213.1</ele>
        <time>2016-05-05T15:34:16Z</time>
      </trkpt>
      <trkpt lat="47.33565" lon="2.84082">
        <ele>213.6</ele>
        <time>2016-05-05T15:34:21Z</time>
      </trkpt>
      <trkpt lat="47.33566" lon="2.84067">
        <ele>214</ele>
        <time>2016-05-05T15:34:25Z</time>
      </trkpt>
      <trkpt lat="47.33572" lon="2.84053">
        <ele>214.4</ele>
        <time>2016-05-05T15:34:29Z</time>
      </trkpt>
      <trkpt lat="47.33576" lon="2.8404">
        <ele>214.7</ele>
        <time>2016-05-05T15:34:32Z</time>
      </trkpt>
      <trkpt lat="47.3358" lon="2.84027">
        <ele>215</ele>
        <time>2016-05-05T15:34:36Z</time>
      </trkpt>
      <trkpt lat="47.33585" lon="2.84013">
        <ele>215.4</ele>
        <time>2016-05-05T15:34:40Z</time>
      </trkpt>
      <trkpt lat="47.33584" lon="2.83997">
        <ele>215.7</ele>
        <time>2016-05-05T15:34:44Z</time>
      </trkpt>
      <trkpt lat="47.33585" lon="2.83983">
        <ele>216.2</ele>
        <time>2016-05-05T15:34:48Z</time>
      </trkpt>
      <trkpt lat="47.33586" lon="2.83966">
        <ele>216.8</ele>
        <time>2016-05-05T15:34:53Z</time>
      </trkpt>
      <trkpt lat="47.33584" lon="2.83951">
        <ele>217.3</ele>
        <time>2016-05-05T15:34:58Z</time>
      </trkpt>
      <trkpt lat="47.33588" lon="2.83936">
        <ele>217.7</ele>
        <time>2016-05-05T15:35:03Z</time>
      </trkpt>
      <trkpt lat="47.33589" lon="2.83921">
        <ele>218.1</ele>
        <time>2016-05-05T15:35:08Z</time>
      </trkpt>
      <trkpt lat="47.33593" lon="2.83906">
        <ele>218.4</ele>
        <time>2016-05-05T15:35:13Z</time>
      </trkpt>
      <trkpt lat="47.33593" lon="2.83891">
        <ele>218.7</ele>
        <time>2016-05-05T15:35:16Z</time>
      </trkpt>
      <trkpt lat="47.33593" lon="2.83876">
        <ele>218.8</ele>
        <time>2016-05-05T15:35:20Z</time>
      </trkpt>
      <trkpt lat="47.33587" lon="2.83863">
        <ele>219</ele>
        <time>2016-05-05T15:35:23Z</time>
      </trkpt>
      <trkpt lat="47.33588" lon="2.83848">
        <ele>219.4</ele>
        <time>2016-05-05T15:35:27Z</time>
      </trkpt>
      <trkpt lat="47.33588" lon="2.83834">
        <ele>219.7</ele>
        <time>2016-05-05T15:35:31Z</time>
      </trkpt>
      <trkpt lat="47.33587" lon="2.8382">
        <ele>219.9</ele>
        <time>2016-05-05T15:35:35Z</time>
      </trkpt>
      <trkpt lat="47.33586" lon="2.83806">
        <ele>220.1</ele>
        <time>2016-05-05T15:35:39Z</time>
      </trkpt>
      <trkpt lat="47.33583" lon="2.83793">
        <ele>220.5</ele>
        <time>2016-05-05T15:35:43Z</time>
      </trkpt>
      <trkpt lat="47.3358" lon="2.83777">
        <ele>220.8</ele>
        <time>2016-05-05T15:35:48Z</time>
      </trkpt>
      <trkpt lat="47.33576" lon="2.83762">
        <ele>221</ele>
        <time>2016-05-05T15:35:53Z</time>
      </trkpt>
      <trkpt lat="47.33572" lon="2.8375">
        <ele>221.3</ele>
        <time>2016-05-05T15:35:57Z</time>
      </trkpt>
      <trkpt lat="47.33568" lon="2.83738">
        <ele>221.6</ele>
        <time>2016-05-05T15:36:01Z</time>
      </trkpt>
      <trkpt lat="47.33563" lon="2.83726">
        <ele>222</ele>
        <time>2016-05-05T15:36:05Z</time>
      </trkpt>
      <trkpt lat="47.33556" lon="2.83714">
        <ele>222.3</ele>
        <time>2016-05-05T15:36:10Z</time>
      </trkpt>
      <trkpt lat="47.33551" lon="2.83702">
        <ele>222.6</ele>
        <time>2016-05-05T15:36:14Z</time>
      </trkpt>
      <trkpt lat="47.33545" lon="2.83691">
        <ele>222.8</ele>
        <time>2016-05-05T15:36:18Z</time>
      </trkpt>
      <trkpt lat="47.33539" lon="2.83678">
        <ele>223.1</ele>
        <time>2016-05-05T15:36:22Z</time>
      </trkpt>
      <trkpt lat="47.33533" lon="2.83667">
        <ele>223.3</ele>
        <time>2016-05-05T15:36:26Z</time>
      </trkpt>
      <trkpt lat="47.33528" lon="2.83655">
        <ele>223.7</ele>
        <time>2016-05-05T15:36:30Z</time>
      </trkpt>
      <trkpt lat="47.33521" lon="2.83642">
        <ele>224.1</ele>
        <time>2016-05-05T15:36:35Z</time>
      </trkpt>
      <trkpt lat="47.33515" lon="2.83631">
        <ele>224.6</ele>
        <time>2016-05-05T15:36:39Z</time>
      </trkpt>
      <trkpt lat="47.33509" lon="2.83619">
        <ele>225</ele>
        <time>2016-05-05T15:36:44Z</time>
      </trkpt>
      <trkpt lat="47.33503" lon="2.83606">
        <ele>225.1</ele>
        <time>2016-05-05T15:36:49Z</time>
      </trkpt>
      <trkpt lat="47.33496" lon="2.83593">
        <ele>225.6</ele>
        <time>2016-05-05T15:36:54Z</time>
      </trkpt>
      <trkpt lat="47.3349" lon="2.83582">
        <ele>226</ele>
        <time>2016-05-05T15:36:58Z</time>
      </trkpt>
      <trkpt lat="47.33483" lon="2.83571">
        <ele>226.3</ele>
        <time>2016-05-05T15:37:02Z</time>
      </trkpt>
      <trkpt lat="47.33476" lon="2.83562">
        <ele>226.6</ele>
        <time>2016-05-05T15:37:06Z</time>
      </trkpt>
      <trkpt lat="47.33469" lon="2.83551">
        <ele>227.2</ele>
        <time>2016-05-05T15:37:11Z</time>
      </trkpt>
      <trkpt lat="47.33461" lon="2.83541">
        <ele>227.6</ele>
        <time>2016-05-05T15:37:16Z</time>
      </trkpt>
      <trkpt lat="47.33453" lon="2.83529">
        <ele>227.9</ele>
        <time>2016-05-05T15:37:21Z</time>
      </trkpt>
      <trkpt lat="47.33445" lon="2.83518">
        <ele>228.4</ele>
        <time>2016-05-05T15:37:26Z</time>
      </trkpt>
      <trkpt lat="47.33437" lon="2.83508">
        <ele>228.7</ele>
        <time>2016-05-05T15:37:31Z</time>
      </trkpt>
      <trkpt lat="47.3343" lon="2.835">
        <ele>228.8</ele>
        <time>2016-05-05T15:37:35Z</time>
      </trkpt>
      <trkpt lat="47.33422" lon="2.8349">
        <ele>229.2</ele>
        <time>2016-05-05T15:37:40Z</time>
      </trkpt>
      <trkpt lat="47.33413" lon="2.8348">
        <ele>230</ele>
        <time>2016-05-05T15:37:45Z</time>
      </trkpt>
      <trkpt lat="47.33406" lon="2.83472">
        <ele>230.4</ele>
        <time>2016-05-05T15:37:49Z</time>
      </trkpt>
      <trkpt lat="47.33398" lon="2.83465">
        <ele>230.6</ele>
        <time>2016-05-05T15:37:53Z</time>
      </trkpt>
      <trkpt lat="47.33389" lon="2.83456">
        <ele>231.2</ele>
        <time>2016-05-05T15:37:58Z</time>
      </trkpt>
      <trkpt lat="47.3338" lon="2.83449">
        <ele>231.5</ele>
        <time>2016-05-05T15:38:03Z</time>
      </trkpt>
      <trkpt lat="47.33371" lon="2.83442">
        <ele>231.6</ele>
        <time>2016-05-05T15:38:08Z</time>
      </trkpt>
      <trkpt lat="47.33363" lon="2.83436">
        <ele>231.8</ele>
        <time>2016-05-05T15:38:12Z</time>
      </trkpt>
      <trkpt lat="47.33353" lon="2.8343">
        <ele>232.1</ele>
        <time>2016-05-05T15:38:17Z</time>
      </trkpt>
      <trkpt lat="47.33343" lon="2.83424">
        <ele>232.7</ele>
        <time>2016-05-05T15:38:22Z</time>
      </trkpt>
      <trkpt lat="47.33334" lon="2.83418">
        <ele>233.1</ele>
        <time>2016-05-05T15:38:26Z</time>
      </trkpt>
      <trkpt lat="47.33325" lon="2.83414">
        <ele>233.2</ele>
        <time>2016-05-05T15:38:30Z</time>
      </trkpt>
      <trkpt lat="47.33315" lon="2.83409">
        <ele>233.3</ele>
        <time>2016-05-05T15:38:35Z</time>
      </trkpt>
      <trkpt lat="47.33304" lon="2.83406">
        <ele>233.4</ele>
        <time>2016-05-05T15:38:40Z</time>
      </trkpt>
      <trkpt lat="47.33296" lon="2.83404">
        <ele>234</ele>
        <time>2016-05-05T15:38:44Z</time>
      </trkpt>
      <trkpt lat="47.33285" lon="2.834">
        <ele>234.4</ele>
        <time>2016-05-05T15:38:49Z</time>
      </trkpt>
      <trkpt lat="47.33274" lon="2.83397">
        <ele>234.7</ele>
        <time>2016-05-05T15:38:54Z</time>
      </trkpt>
      <trkpt lat="47.33265" lon="2.83397">
        <ele>234.9</ele>
        <time>2016-05-05T15:38:58Z</time>
      </trkpt>
      <trkpt lat="47.33254" lon="2.83395">
        <ele>235.4</ele>
        <time>2016-05-05T15:39:03Z</time>
      </trkpt>
      <trkpt lat="47.33243" lon="2.83393">
        <ele>235.7</ele>
        <time>2016-05-05T15:39:08Z</time>
      </trkpt>
      <trkpt lat="47.33232" lon="2.83392">
        <ele>236</ele>
        <time>2016-05-05T15:39:13Z</time>
      </trkpt>
      <trkpt lat="47.33221" lon="2.8339">
        <ele>236.2</ele>
        <time>2016-05-05T15:39:18Z</time>
      </trkpt>
      <trkpt lat="47.33211" lon="2.8339">
        <ele>236.5</ele>
        <time>2016-05-05T15:39:23Z</time>
      </trkpt>
      <trkpt lat="47.332" lon="2.83389">
        <ele>236.9</ele>
        <time>2016-05-05T15:39:28Z</time>
      </trkpt>
      <trkpt lat="47.3319" lon="2.8339">
        <ele>237.4</ele>
        <time>2016-05-05T15:39:33Z</time>
      </trkpt>
      <trkpt lat="47.33179" lon="2.83388">
        <ele>237.8</ele>
        <time>2016-05-05T15:39:38Z</time>
      </trkpt>
      <trkpt lat="47.3317" lon="2.83388">
        <ele>238.1</ele>
        <time>2016-05-05T15:39:42Z</time>
      </trkpt>
      <trkpt lat="47.33159" lon="2.83388">
        <ele>238.4</ele>
        <time>2016-05-05T15:39:47Z</time>
      </trkpt>
      <trkpt lat="47.33148" lon="2.83388">
        <ele>238.7</ele>
        <time>2016-05-05T15:39:53Z</time>
      </trkpt>
      <trkpt lat="47.33138" lon="2.83388">
        <ele>238.9</ele>
        <time>2016-05-05T15:39:58Z</time>
      </trkpt>
      <trkpt lat="47.33127" lon="2.83388">
        <ele>239.4</ele>
        <time>2016-05-05T15:40:03Z</time>
      </trkpt>
      <trkpt lat="47.33118" lon="2.83386">
        <ele>239.6</ele>
        <time>2016-05-05T15:40:07Z</time>
      </trkpt>
      <trkpt lat="47.33109" lon="2.83384">
        <ele>240</ele>
        <time>2016-05-05T15:40:11Z</time>
      </trkpt>
      <trkpt lat="47.33098" lon="2.83383">
        <ele>240.4</ele>
        <time>2016-05-05T15:40:16Z</time>
      </trkpt>
      <trkpt lat="47.33086" lon="2.83382">
        <ele>240.7</ele>
        <time>2016-05-05T15:40:21Z</time>
      </trkpt>
      <trkpt lat="47.33077" lon="2.83381">
        <ele>241</ele>
        <time>2016-05-05T15:40:25Z</time>
      </trkpt>
      <trkpt lat="47.33066" lon="2.83379">
        <ele>241.4</ele>
        <time>2016-05-05T15:40:30Z</time>
      </trkpt>
      <trkpt lat="47.33056" lon="2.83377">
        <ele>241.9</ele>
        <time>2016-05-05T15:40:34Z</time>
      </trkpt>
      <trkpt lat="47.33047" lon="2.83376">
        <ele>242.3</ele>
        <time>2016-05-05T15:40:39Z</time>
      </trkpt>
      <trkpt lat="47.33036" lon="2.83373">
        <ele>242.5</ele>
        <time>2016-05-05T15:40:44Z</time>
      </trkpt>
      <trkpt lat="47.33026" lon="2.8337">
        <ele>242.8</ele>
        <time>2016-05-05T15:40:48Z</time>
      </trkpt>
      <trkpt lat="47.33016" lon="2.83368">
        <ele>243.1</ele>
        <time>2016-05-05T15:40:52Z</time>
      </trkpt>
      <trkpt lat="47.33007" lon="2.83365">
        <ele>243.4</ele>
        <time>2016-05-05T15:40:56Z</time>
      </trkpt>
      <trkpt lat="47.32997" lon="2.83363">
        <ele>243.6</ele>
        <time>2016-05-05T15:41:00Z</time>
      </trkpt>
      <trkpt lat="47.32987" lon="2.83361">
        <ele>243.9</ele>
        <time>2016-05-05T15:41:04Z</time>
      </trkpt>
      <trkpt lat="47.32977" lon="2.83358">
        <ele>244.2</ele>
        <time>2016-05-05T15:41:08Z</time>
      </trkpt>
      <trkpt lat="47.32967" lon="2.83357">
        <ele>244.4</ele>
        <time>2016-05-05T15:41:12Z</time>
      </trkpt>
      <trkpt lat="47.32957" lon="2.83356">
        <ele>244.5</ele>
        <time>2016-05-05T15:41:16Z</time>
      </trkpt>
      <trkpt lat="47.32947" lon="2.83353">
        <ele>244.9</ele>
        <time>2016-05-05T15:41:20Z</time>
      </trkpt>
      <trkpt lat="47.32941" lon="2.83344">
        <ele>246.2</ele>
        <time>2016-05-05T15:44:01Z</time>
      </trkpt>
      <trkpt lat="47.32932" lon="2.83345">
        <ele>246.8</ele>
        <time>2016-05-05T15:44:24Z</time>
      </trkpt>
      <trkpt lat="47.32923" lon="2.83353">
        <ele>247</ele>
        <time>2016-05-05T15:44:34Z</time>
      </trkpt>
      <trkpt lat="47.32917" lon="2.83364">
        <ele>247.2</ele>
        <time>2016-05-05T15:44:44Z</time>
      </trkpt>
      <trkpt lat="47.32912" lon="2.83377">
        <ele>247.9</ele>
        <time>2016-05-05T15:44:56Z</time>
      </trkpt>
      <trkpt lat="47.32906" lon="2.83389">
        <ele>248.2</ele>
        <time>2016-05-05T15:45:01Z</time>
      </trkpt>
      <trkpt lat="47.32902" lon="2.83403">
        <ele>248.6</ele>
        <time>2016-05-05T15:45:05Z</time>
      </trkpt>
      <trkpt lat="47.32899" lon="2.83418">
        <ele>249.1</ele>
        <time>2016-05-05T15:45:10Z</time>
      </trkpt>
      <trkpt lat="47.32896" lon="2.83431">
        <ele>249.5</ele>
        <time>2016-05-05T15:45:14Z</time>
      </trkpt>
      <trkpt lat="47.32893" lon="2.83444">
        <ele>250.3</ele>
        <time>2016-05-05T15:45:18Z</time>
      </trkpt>
      <trkpt lat="47.3289" lon="2.83459">
        <ele>251.1</ele>
        <time>2016-05-05T15:45:23Z</time>
      </trkpt>
      <trkpt lat="47.32886" lon="2.83473">
        <ele>252.2</ele>
        <time>2016-05-05T15:45:28Z</time>
      </trkpt>
      <trkpt lat="47.32883" lon="2.83488">
        <ele>253.3</ele>
        <time>2016-05-05T15:45:34Z</time>
      </trkpt>
      <trkpt lat="47.32881" lon="2.83502">
        <ele>253.9</ele>
        <time>2016-05-05T15:45:40Z</time>
      </trkpt>
      <trkpt lat="47.32878" lon="2.83516">
        <ele>254.6</ele>
        <time>2016-05-05T15:45:47Z</time>
      </trkpt>
      <trkpt lat="47.32873" lon="2.83529">
        <ele>255.1</ele>
        <time>2016-05-05T15:45:53Z</time>
      </trkpt>
      <trkpt lat="47.32869" lon="2.83542">
        <ele>255.9</ele>
        <time>2016-05-05T15:45:59Z</time>
      </trkpt>
      <trkpt lat="47.32865" lon="2.83556">
        <ele>256.6</ele>
        <time>2016-05-05T15:46:05Z</time>
      </trkpt>
      <trkpt lat="47.32861" lon="2.83571">
        <ele>257.3</ele>
        <time>2016-05-05T15:46:11Z</time>
      </trkpt>
      <trkpt lat="47.32855" lon="2.83584">
        <ele>258.3</ele>
        <time>2016-05-05T15:46:17Z</time>
      </trkpt>
      <trkpt lat="47.3285" lon="2.83595">
        <ele>259.1</ele>
        <time>2016-05-05T15:46:23Z</time>
      </trkpt>
      <trkpt lat="47.32846" lon="2.83607">
        <ele>260.1</ele>
        <time>2016-05-05T15:46:29Z</time>
      </trkpt>
      <trkpt lat="47.32841" lon="2.83619">
        <ele>260.7</ele>
        <time>2016-05-05T15:46:35Z</time>
      </trkpt>
      <trkpt lat="47.32836" lon="2.83631">
        <ele>261.3</ele>
        <time>2016-05-05T15:46:41Z</time>
      </trkpt>
      <trkpt lat="47.32831" lon="2.83643">
        <ele>262</ele>
        <time>2016-05-05T15:46:48Z</time>
      </trkpt>
      <trkpt lat="47.32825" lon="2.83656">
        <ele>262.7</ele>
        <time>2016-05-05T15:46:55Z</time>
      </trkpt>
      <trkpt lat="47.32819" lon="2.83669">
        <ele>263.6</ele>
        <time>2016-05-05T15:47:02Z</time>
      </trkpt>
      <trkpt lat="47.32815" lon="2.83681">
        <ele>264.4</ele>
        <time>2016-05-05T15:47:09Z</time>
      </trkpt>
      <trkpt lat="47.32812" lon="2.83695">
        <ele>265.5</ele>
        <time>2016-05-05T15:47:17Z</time>
      </trkpt>
      <trkpt lat="47.32808" lon="2.83708">
        <ele>266</ele>
        <time>2016-05-05T15:47:25Z</time>
      </trkpt>
      <trkpt lat="47.32803" lon="2.83722">
        <ele>266.9</ele>
        <time>2016-05-05T15:47:32Z</time>
      </trkpt>
      <trkpt lat="47.32799" lon="2.83736">
        <ele>267.7</ele>
        <time>2016-05-05T15:47:39Z</time>
      </trkpt>
      <trkpt lat="47.32798" lon="2.8375">
        <ele>268.5</ele>
        <time>2016-05-05T15:47:46Z</time>
      </trkpt>
      <trkpt lat="47.328" lon="2.83765">
        <ele>269.4</ele>
        <time>2016-05-05T15:47:53Z</time>
      </trkpt>
      <trkpt lat="47.32806" lon="2.83777">
        <ele>270.5</ele>
        <time>2016-05-05T15:47:59Z</time>
      </trkpt>
      <trkpt lat="47.32809" lon="2.83791">
        <ele>271.7</ele>
        <time>2016-05-05T15:48:06Z</time>
      </trkpt>
      <trkpt lat="47.32804" lon="2.83803">
        <ele>272.1</ele>
        <time>2016-05-05T15:48:13Z</time>
      </trkpt>
      <trkpt lat="47.32794" lon="2.83811">
        <ele>272.6</ele>
        <time>2016-05-05T15:48:18Z</time>
      </trkpt>
      <trkpt lat="47.32786" lon="2.83821">
        <ele>273.1</ele>
        <time>2016-05-05T15:48:24Z</time>
      </trkpt>
      <trkpt lat="47.3278" lon="2.83832">
        <ele>273.5</ele>
        <time>2016-05-05T15:48:29Z</time>
      </trkpt>
      <trkpt lat="47.32778" lon="2.83845">
        <ele>273.9</ele>
        <time>2016-05-05T15:48:35Z</time>
      </trkpt>
      <trkpt lat="47.32785" lon="2.83856">
        <ele>274.4</ele>
        <time>2016-05-05T15:48:42Z</time>
      </trkpt>
      <trkpt lat="47.32793" lon="2.83863">
        <ele>275</ele>
        <time>2016-05-05T15:48:48Z</time>
      </trkpt>
      <trkpt lat="47.32801" lon="2.83872">
        <ele>275.6</ele>
        <time>2016-05-05T15:48:55Z</time>
      </trkpt>
      <trkpt lat="47.32808" lon="2.8388">
        <ele>275.9</ele>
        <time>2016-05-05T15:49:01Z</time>
      </trkpt>
      <trkpt lat="47.32818" lon="2.83886">
        <ele>276.9</ele>
        <time>2016-05-05T15:49:08Z</time>
      </trkpt>
      <trkpt lat="47.32825" lon="2.83894">
        <ele>277.5</ele>
        <time>2016-05-05T15:49:13Z</time>
      </trkpt>
      <trkpt lat="47.32833" lon="2.839">
        <ele>278.2</ele>
        <time>2016-05-05T15:49:18Z</time>
      </trkpt>
      <trkpt lat="47.32842" lon="2.83907">
        <ele>279</ele>
        <time>2016-05-05T15:49:24Z</time>
      </trkpt>
      <trkpt lat="47.32851" lon="2.83915">
        <ele>279.6</ele>
        <time>2016-05-05T15:49:28Z</time>
      </trkpt>
      <trkpt lat="47.3286" lon="2.83921">
        <ele>280.4</ele>
        <time>2016-05-05T15:49:32Z</time>
      </trkpt>
      <trkpt lat="47.32869" lon="2.83927">
        <ele>281.4</ele>
        <time>2016-05-05T15:49:37Z</time>
      </trkpt>
      <trkpt lat="47.32878" lon="2.83933">
        <ele>282.5</ele>
        <time>2016-05-05T15:49:42Z</time>
      </trkpt>
      <trkpt lat="47.32887" lon="2.83939">
        <ele>283.7</ele>
        <time>2016-05-05T15:49:50Z</time>
      </trkpt>
      <trkpt lat="47.32889" lon="2.83953">
        <ele>284.2</ele>
        <time>2016-05-05T15:49:54Z</time>
      </trkpt>
      <trkpt lat="47.32887" lon="2.83966">
        <ele>284</ele>
        <time>2016-05-05T15:49:57Z</time>
      </trkpt>
      <trkpt lat="47.32897" lon="2.83978">
        <ele>283.9</ele>
        <time>2016-05-05T15:49:59Z</time>
      </trkpt>
      <trkpt lat="47.32905" lon="2.83988">
        <ele>283</ele>
        <time>2016-05-05T15:50:01Z</time>
      </trkpt>
      <trkpt lat="47.32916" lon="2.84004">
        <ele>282.9</ele>
        <time>2016-05-05T15:50:04Z</time>
      </trkpt>
      <trkpt lat="47.32927" lon="2.84014">
        <ele>282.7</ele>
        <time>2016-05-05T15:50:07Z</time>
      </trkpt>
      <trkpt lat="47.32936" lon="2.84021">
        <ele>282.4</ele>
        <time>2016-05-05T15:50:10Z</time>
      </trkpt>
      <trkpt lat="47.32945" lon="2.84031">
        <ele>282.1</ele>
        <time>2016-05-05T15:50:13Z</time>
      </trkpt>
      <trkpt lat="47.32958" lon="2.84041">
        <ele>281.6</ele>
        <time>2016-05-05T15:50:16Z</time>
      </trkpt>
      <trkpt lat="47.32966" lon="2.84049">
        <ele>281.1</ele>
        <time>2016-05-05T15:50:19Z</time>
      </trkpt>
      <trkpt lat="47.32975" lon="2.84052">
        <ele>279.7</ele>
        <time>2016-05-05T15:50:42Z</time>
      </trkpt>
      <trkpt lat="47.32966" lon="2.84053">
        <ele>278.9</ele>
        <time>2016-05-05T16:04:52Z</time>
      </trkpt>
      <trkpt lat="47.32961" lon="2.84048">
        <ele>278.4</ele>
        <time>2016-05-05T16:05:19Z</time>
      </trkpt>
    </trkseg>
  </trk>
</gpx>